<?xml version="1.0" encoding="UTF-8" standalone="no" ?>
<gpx xmlns="http://www.topografix.com/GPX/1/1" xmlns:xsi="http://www.w3.org/2001/XMLSchema-instance" xsi:schemaLocation="http://www.topografix.com/GPX/1/1 http://www.topografix.com/GPX/1/1/gpx.xsd" version="1.1" creator="VisuGPX - https://www.visugpx.com">
  <metadata>
    <name>MRT EVAUX LES BAINS 6</name>
    <desc><![CDATA[l arbre du loup]]></desc>
  </metadata>
  <trk>
    <name><![CDATA[MRT EVAUX LES BAINS 6_1]]></name>
    <trkseg>
      <trkpt lat="46.15691" lon="2.44893">
        <ele>468</ele>
        <time>2015-04-16T11:54:57Z</time>
      </trkpt>
      <trkpt lat="46.15666" lon="2.44911">
        <ele>470</ele>
        <time>2015-04-16T11:55:31Z</time>
      </trkpt>
      <trkpt lat="46.15665" lon="2.44914">
        <ele>470</ele>
        <time>2015-04-16T11:55:33Z</time>
      </trkpt>
      <trkpt lat="46.15661" lon="2.44917">
        <ele>470</ele>
        <time>2015-04-16T11:55:36Z</time>
      </trkpt>
      <trkpt lat="46.15659" lon="2.44918">
        <ele>470</ele>
        <time>2015-04-16T11:55:38Z</time>
      </trkpt>
      <trkpt lat="46.15658" lon="2.4492">
        <ele>470</ele>
        <time>2015-04-16T11:55:40Z</time>
      </trkpt>
      <trkpt lat="46.15656" lon="2.44922">
        <ele>470</ele>
        <time>2015-04-16T11:55:42Z</time>
      </trkpt>
      <trkpt lat="46.15654" lon="2.44924">
        <ele>470</ele>
        <time>2015-04-16T11:55:44Z</time>
      </trkpt>
      <trkpt lat="46.15653" lon="2.44927">
        <ele>470</ele>
        <time>2015-04-16T11:55:46Z</time>
      </trkpt>
      <trkpt lat="46.15651" lon="2.44929">
        <ele>470</ele>
        <time>2015-04-16T11:55:48Z</time>
      </trkpt>
      <trkpt lat="46.15649" lon="2.44933">
        <ele>470</ele>
        <time>2015-04-16T11:55:50Z</time>
      </trkpt>
      <trkpt lat="46.15646" lon="2.44935">
        <ele>470</ele>
        <time>2015-04-16T11:55:52Z</time>
      </trkpt>
      <trkpt lat="46.15645" lon="2.44939">
        <ele>470</ele>
        <time>2015-04-16T11:55:54Z</time>
      </trkpt>
      <trkpt lat="46.15644" lon="2.44942">
        <ele>470</ele>
        <time>2015-04-16T11:55:56Z</time>
      </trkpt>
      <trkpt lat="46.15644" lon="2.44945">
        <ele>470</ele>
        <time>2015-04-16T11:55:58Z</time>
      </trkpt>
      <trkpt lat="46.15643" lon="2.44948">
        <ele>470</ele>
        <time>2015-04-16T11:56:00Z</time>
      </trkpt>
      <trkpt lat="46.15642" lon="2.44952">
        <ele>470</ele>
        <time>2015-04-16T11:56:02Z</time>
      </trkpt>
      <trkpt lat="46.15642" lon="2.44955">
        <ele>470</ele>
        <time>2015-04-16T11:56:04Z</time>
      </trkpt>
      <trkpt lat="46.15642" lon="2.44958">
        <ele>470</ele>
        <time>2015-04-16T11:56:06Z</time>
      </trkpt>
      <trkpt lat="46.15642" lon="2.44963">
        <ele>470</ele>
        <time>2015-04-16T11:56:09Z</time>
      </trkpt>
      <trkpt lat="46.15641" lon="2.44966">
        <ele>470</ele>
        <time>2015-04-16T11:56:11Z</time>
      </trkpt>
      <trkpt lat="46.15639" lon="2.44972">
        <ele>470</ele>
        <time>2015-04-16T11:56:13Z</time>
      </trkpt>
      <trkpt lat="46.15639" lon="2.44977">
        <ele>470</ele>
        <time>2015-04-16T11:56:15Z</time>
      </trkpt>
      <trkpt lat="46.15638" lon="2.4498">
        <ele>470</ele>
        <time>2015-04-16T11:56:17Z</time>
      </trkpt>
      <trkpt lat="46.15639" lon="2.44983">
        <ele>470</ele>
        <time>2015-04-16T11:56:19Z</time>
      </trkpt>
      <trkpt lat="46.15638" lon="2.44986">
        <ele>469</ele>
        <time>2015-04-16T11:56:21Z</time>
      </trkpt>
      <trkpt lat="46.15638" lon="2.4499">
        <ele>468</ele>
        <time>2015-04-16T11:56:23Z</time>
      </trkpt>
      <trkpt lat="46.15636" lon="2.44995">
        <ele>468</ele>
        <time>2015-04-16T11:56:25Z</time>
      </trkpt>
      <trkpt lat="46.15635" lon="2.45">
        <ele>468</ele>
        <time>2015-04-16T11:56:27Z</time>
      </trkpt>
      <trkpt lat="46.15634" lon="2.45004">
        <ele>468</ele>
        <time>2015-04-16T11:56:29Z</time>
      </trkpt>
      <trkpt lat="46.15634" lon="2.45007">
        <ele>468</ele>
        <time>2015-04-16T11:56:31Z</time>
      </trkpt>
      <trkpt lat="46.15633" lon="2.4501">
        <ele>468</ele>
        <time>2015-04-16T11:56:33Z</time>
      </trkpt>
      <trkpt lat="46.15633" lon="2.45014">
        <ele>467</ele>
        <time>2015-04-16T11:56:35Z</time>
      </trkpt>
      <trkpt lat="46.15632" lon="2.45019">
        <ele>467</ele>
        <time>2015-04-16T11:56:38Z</time>
      </trkpt>
      <trkpt lat="46.15632" lon="2.45022">
        <ele>466</ele>
        <time>2015-04-16T11:56:40Z</time>
      </trkpt>
      <trkpt lat="46.1563" lon="2.45027">
        <ele>466</ele>
        <time>2015-04-16T11:56:42Z</time>
      </trkpt>
      <trkpt lat="46.15628" lon="2.45031">
        <ele>466</ele>
        <time>2015-04-16T11:56:44Z</time>
      </trkpt>
      <trkpt lat="46.15628" lon="2.45035">
        <ele>466</ele>
        <time>2015-04-16T11:56:46Z</time>
      </trkpt>
      <trkpt lat="46.15626" lon="2.45038">
        <ele>466</ele>
        <time>2015-04-16T11:56:48Z</time>
      </trkpt>
      <trkpt lat="46.15626" lon="2.45041">
        <ele>466</ele>
        <time>2015-04-16T11:56:50Z</time>
      </trkpt>
      <trkpt lat="46.15625" lon="2.45044">
        <ele>465</ele>
        <time>2015-04-16T11:56:52Z</time>
      </trkpt>
      <trkpt lat="46.15624" lon="2.45048">
        <ele>465</ele>
        <time>2015-04-16T11:56:54Z</time>
      </trkpt>
      <trkpt lat="46.15623" lon="2.45051">
        <ele>465</ele>
        <time>2015-04-16T11:56:56Z</time>
      </trkpt>
      <trkpt lat="46.15623" lon="2.45055">
        <ele>465</ele>
        <time>2015-04-16T11:56:58Z</time>
      </trkpt>
      <trkpt lat="46.15622" lon="2.45058">
        <ele>464</ele>
        <time>2015-04-16T11:57:00Z</time>
      </trkpt>
      <trkpt lat="46.1562" lon="2.45062">
        <ele>464</ele>
        <time>2015-04-16T11:57:02Z</time>
      </trkpt>
      <trkpt lat="46.15619" lon="2.45066">
        <ele>464</ele>
        <time>2015-04-16T11:57:04Z</time>
      </trkpt>
      <trkpt lat="46.15616" lon="2.45072">
        <ele>464</ele>
        <time>2015-04-16T11:57:06Z</time>
      </trkpt>
      <trkpt lat="46.15614" lon="2.45075">
        <ele>464</ele>
        <time>2015-04-16T11:57:08Z</time>
      </trkpt>
      <trkpt lat="46.15613" lon="2.45079">
        <ele>464</ele>
        <time>2015-04-16T11:57:10Z</time>
      </trkpt>
      <trkpt lat="46.15612" lon="2.45082">
        <ele>464</ele>
        <time>2015-04-16T11:57:12Z</time>
      </trkpt>
      <trkpt lat="46.15611" lon="2.45085">
        <ele>464</ele>
        <time>2015-04-16T11:57:14Z</time>
      </trkpt>
      <trkpt lat="46.15609" lon="2.45089">
        <ele>464</ele>
        <time>2015-04-16T11:57:16Z</time>
      </trkpt>
      <trkpt lat="46.15608" lon="2.45092">
        <ele>464</ele>
        <time>2015-04-16T11:57:18Z</time>
      </trkpt>
      <trkpt lat="46.15606" lon="2.45097">
        <ele>463</ele>
        <time>2015-04-16T11:57:21Z</time>
      </trkpt>
      <trkpt lat="46.15604" lon="2.45101">
        <ele>463</ele>
        <time>2015-04-16T11:57:24Z</time>
      </trkpt>
      <trkpt lat="46.15602" lon="2.45105">
        <ele>463</ele>
        <time>2015-04-16T11:57:27Z</time>
      </trkpt>
      <trkpt lat="46.156" lon="2.45107">
        <ele>463</ele>
        <time>2015-04-16T11:57:29Z</time>
      </trkpt>
      <trkpt lat="46.15598" lon="2.45111">
        <ele>463</ele>
        <time>2015-04-16T11:57:32Z</time>
      </trkpt>
      <trkpt lat="46.15597" lon="2.45115">
        <ele>463</ele>
        <time>2015-04-16T11:57:34Z</time>
      </trkpt>
      <trkpt lat="46.15596" lon="2.4512">
        <ele>463</ele>
        <time>2015-04-16T11:57:36Z</time>
      </trkpt>
      <trkpt lat="46.15594" lon="2.45122">
        <ele>463</ele>
        <time>2015-04-16T11:57:38Z</time>
      </trkpt>
      <trkpt lat="46.15591" lon="2.45127">
        <ele>463</ele>
        <time>2015-04-16T11:57:41Z</time>
      </trkpt>
      <trkpt lat="46.1559" lon="2.45131">
        <ele>463</ele>
        <time>2015-04-16T11:57:43Z</time>
      </trkpt>
      <trkpt lat="46.15588" lon="2.45134">
        <ele>463</ele>
        <time>2015-04-16T11:57:45Z</time>
      </trkpt>
      <trkpt lat="46.15586" lon="2.45138">
        <ele>463</ele>
        <time>2015-04-16T11:57:47Z</time>
      </trkpt>
      <trkpt lat="46.15584" lon="2.45141">
        <ele>463</ele>
        <time>2015-04-16T11:57:49Z</time>
      </trkpt>
      <trkpt lat="46.15582" lon="2.45144">
        <ele>463</ele>
        <time>2015-04-16T11:57:51Z</time>
      </trkpt>
      <trkpt lat="46.1558" lon="2.45146">
        <ele>463</ele>
        <time>2015-04-16T11:57:53Z</time>
      </trkpt>
      <trkpt lat="46.15577" lon="2.45149">
        <ele>463</ele>
        <time>2015-04-16T11:57:55Z</time>
      </trkpt>
      <trkpt lat="46.15576" lon="2.45151">
        <ele>463</ele>
        <time>2015-04-16T11:57:57Z</time>
      </trkpt>
      <trkpt lat="46.15573" lon="2.45155">
        <ele>463</ele>
        <time>2015-04-16T11:58:00Z</time>
      </trkpt>
      <trkpt lat="46.15571" lon="2.45159">
        <ele>463</ele>
        <time>2015-04-16T11:58:03Z</time>
      </trkpt>
      <trkpt lat="46.1557" lon="2.4516">
        <ele>463</ele>
        <time>2015-04-16T11:58:05Z</time>
      </trkpt>
      <trkpt lat="46.15567" lon="2.45163">
        <ele>463</ele>
        <time>2015-04-16T11:58:07Z</time>
      </trkpt>
      <trkpt lat="46.15566" lon="2.45166">
        <ele>463</ele>
        <time>2015-04-16T11:58:09Z</time>
      </trkpt>
      <trkpt lat="46.15564" lon="2.45168">
        <ele>463</ele>
        <time>2015-04-16T11:58:11Z</time>
      </trkpt>
      <trkpt lat="46.15561" lon="2.4517">
        <ele>463</ele>
        <time>2015-04-16T11:58:13Z</time>
      </trkpt>
      <trkpt lat="46.15559" lon="2.45173">
        <ele>463</ele>
        <time>2015-04-16T11:58:15Z</time>
      </trkpt>
      <trkpt lat="46.15556" lon="2.45177">
        <ele>463</ele>
        <time>2015-04-16T11:58:17Z</time>
      </trkpt>
      <trkpt lat="46.15554" lon="2.4518">
        <ele>463</ele>
        <time>2015-04-16T11:58:19Z</time>
      </trkpt>
      <trkpt lat="46.15552" lon="2.45183">
        <ele>463</ele>
        <time>2015-04-16T11:58:21Z</time>
      </trkpt>
      <trkpt lat="46.15551" lon="2.45185">
        <ele>463</ele>
        <time>2015-04-16T11:58:23Z</time>
      </trkpt>
      <trkpt lat="46.15549" lon="2.45187">
        <ele>463</ele>
        <time>2015-04-16T11:58:25Z</time>
      </trkpt>
      <trkpt lat="46.15547" lon="2.4519">
        <ele>463</ele>
        <time>2015-04-16T11:58:27Z</time>
      </trkpt>
      <trkpt lat="46.15545" lon="2.45192">
        <ele>463</ele>
        <time>2015-04-16T11:58:29Z</time>
      </trkpt>
      <trkpt lat="46.15544" lon="2.45196">
        <ele>463</ele>
        <time>2015-04-16T11:58:31Z</time>
      </trkpt>
      <trkpt lat="46.15543" lon="2.45199">
        <ele>463</ele>
        <time>2015-04-16T11:58:33Z</time>
      </trkpt>
      <trkpt lat="46.15541" lon="2.45204">
        <ele>463</ele>
        <time>2015-04-16T11:58:35Z</time>
      </trkpt>
      <trkpt lat="46.15538" lon="2.45207">
        <ele>463</ele>
        <time>2015-04-16T11:58:37Z</time>
      </trkpt>
      <trkpt lat="46.15535" lon="2.45211">
        <ele>462</ele>
        <time>2015-04-16T11:58:40Z</time>
      </trkpt>
      <trkpt lat="46.15532" lon="2.45213">
        <ele>462</ele>
        <time>2015-04-16T11:58:42Z</time>
      </trkpt>
      <trkpt lat="46.15529" lon="2.45216">
        <ele>461</ele>
        <time>2015-04-16T11:58:44Z</time>
      </trkpt>
      <trkpt lat="46.15526" lon="2.45218">
        <ele>461</ele>
        <time>2015-04-16T11:58:46Z</time>
      </trkpt>
      <trkpt lat="46.15523" lon="2.4522">
        <ele>461</ele>
        <time>2015-04-16T11:58:48Z</time>
      </trkpt>
      <trkpt lat="46.1552" lon="2.45221">
        <ele>460</ele>
        <time>2015-04-16T11:58:50Z</time>
      </trkpt>
      <trkpt lat="46.15517" lon="2.45223">
        <ele>460</ele>
        <time>2015-04-16T11:58:52Z</time>
      </trkpt>
      <trkpt lat="46.15514" lon="2.45225">
        <ele>460</ele>
        <time>2015-04-16T11:58:54Z</time>
      </trkpt>
      <trkpt lat="46.15511" lon="2.45227">
        <ele>460</ele>
        <time>2015-04-16T11:58:56Z</time>
      </trkpt>
      <trkpt lat="46.15509" lon="2.45228">
        <ele>460</ele>
        <time>2015-04-16T11:58:58Z</time>
      </trkpt>
      <trkpt lat="46.15506" lon="2.45229">
        <ele>460</ele>
        <time>2015-04-16T11:59:00Z</time>
      </trkpt>
      <trkpt lat="46.15503" lon="2.45232">
        <ele>460</ele>
        <time>2015-04-16T11:59:03Z</time>
      </trkpt>
      <trkpt lat="46.15501" lon="2.45234">
        <ele>459</ele>
        <time>2015-04-16T11:59:05Z</time>
      </trkpt>
      <trkpt lat="46.15498" lon="2.45237">
        <ele>459</ele>
        <time>2015-04-16T11:59:07Z</time>
      </trkpt>
      <trkpt lat="46.15495" lon="2.45239">
        <ele>459</ele>
        <time>2015-04-16T11:59:09Z</time>
      </trkpt>
      <trkpt lat="46.15492" lon="2.4524">
        <ele>459</ele>
        <time>2015-04-16T11:59:11Z</time>
      </trkpt>
      <trkpt lat="46.15489" lon="2.45242">
        <ele>459</ele>
        <time>2015-04-16T11:59:13Z</time>
      </trkpt>
      <trkpt lat="46.15486" lon="2.45245">
        <ele>459</ele>
        <time>2015-04-16T11:59:15Z</time>
      </trkpt>
      <trkpt lat="46.15484" lon="2.45247">
        <ele>459</ele>
        <time>2015-04-16T11:59:17Z</time>
      </trkpt>
      <trkpt lat="46.15481" lon="2.45249">
        <ele>459</ele>
        <time>2015-04-16T11:59:19Z</time>
      </trkpt>
      <trkpt lat="46.15479" lon="2.45251">
        <ele>459</ele>
        <time>2015-04-16T11:59:21Z</time>
      </trkpt>
      <trkpt lat="46.15476" lon="2.45253">
        <ele>459</ele>
        <time>2015-04-16T11:59:23Z</time>
      </trkpt>
      <trkpt lat="46.15474" lon="2.45255">
        <ele>459</ele>
        <time>2015-04-16T11:59:25Z</time>
      </trkpt>
      <trkpt lat="46.15472" lon="2.45258">
        <ele>459</ele>
        <time>2015-04-16T11:59:27Z</time>
      </trkpt>
      <trkpt lat="46.15471" lon="2.45262">
        <ele>459</ele>
        <time>2015-04-16T11:59:30Z</time>
      </trkpt>
      <trkpt lat="46.1547" lon="2.45265">
        <ele>459</ele>
        <time>2015-04-16T11:59:32Z</time>
      </trkpt>
      <trkpt lat="46.1547" lon="2.45266">
        <ele>459</ele>
        <time>2015-04-16T11:59:34Z</time>
      </trkpt>
      <trkpt lat="46.1547" lon="2.45268">
        <ele>461</ele>
        <time>2015-04-16T11:59:50Z</time>
      </trkpt>
      <trkpt lat="46.1547" lon="2.4527">
        <ele>461</ele>
        <time>2015-04-16T12:00:00Z</time>
      </trkpt>
      <trkpt lat="46.1547" lon="2.45272">
        <ele>461</ele>
        <time>2015-04-16T12:00:08Z</time>
      </trkpt>
      <trkpt lat="46.1547" lon="2.45276">
        <ele>461</ele>
        <time>2015-04-16T12:00:10Z</time>
      </trkpt>
      <trkpt lat="46.1547" lon="2.4528">
        <ele>461</ele>
        <time>2015-04-16T12:00:12Z</time>
      </trkpt>
      <trkpt lat="46.1547" lon="2.45284">
        <ele>461</ele>
        <time>2015-04-16T12:00:14Z</time>
      </trkpt>
      <trkpt lat="46.15471" lon="2.45288">
        <ele>461</ele>
        <time>2015-04-16T12:00:17Z</time>
      </trkpt>
      <trkpt lat="46.15472" lon="2.4529">
        <ele>461</ele>
        <time>2015-04-16T12:00:19Z</time>
      </trkpt>
      <trkpt lat="46.15472" lon="2.45292">
        <ele>461</ele>
        <time>2015-04-16T12:00:21Z</time>
      </trkpt>
      <trkpt lat="46.15471" lon="2.45295">
        <ele>461</ele>
        <time>2015-04-16T12:00:23Z</time>
      </trkpt>
      <trkpt lat="46.15471" lon="2.453">
        <ele>462</ele>
        <time>2015-04-16T12:00:26Z</time>
      </trkpt>
      <trkpt lat="46.15471" lon="2.45303">
        <ele>462</ele>
        <time>2015-04-16T12:00:28Z</time>
      </trkpt>
      <trkpt lat="46.15472" lon="2.45306">
        <ele>462</ele>
        <time>2015-04-16T12:00:30Z</time>
      </trkpt>
      <trkpt lat="46.15471" lon="2.45306">
        <ele>462</ele>
        <time>2015-04-16T12:00:34Z</time>
      </trkpt>
      <trkpt lat="46.15471" lon="2.45308">
        <ele>463</ele>
        <time>2015-04-16T12:00:49Z</time>
      </trkpt>
      <trkpt lat="46.1547" lon="2.4531">
        <ele>463</ele>
        <time>2015-04-16T12:00:54Z</time>
      </trkpt>
      <trkpt lat="46.1547" lon="2.45314">
        <ele>463</ele>
        <time>2015-04-16T12:00:56Z</time>
      </trkpt>
      <trkpt lat="46.15469" lon="2.45317">
        <ele>463</ele>
        <time>2015-04-16T12:00:58Z</time>
      </trkpt>
      <trkpt lat="46.15469" lon="2.45321">
        <ele>463</ele>
        <time>2015-04-16T12:01:00Z</time>
      </trkpt>
      <trkpt lat="46.15469" lon="2.45324">
        <ele>463</ele>
        <time>2015-04-16T12:01:02Z</time>
      </trkpt>
      <trkpt lat="46.15468" lon="2.45328">
        <ele>463</ele>
        <time>2015-04-16T12:01:04Z</time>
      </trkpt>
      <trkpt lat="46.15467" lon="2.45332">
        <ele>463</ele>
        <time>2015-04-16T12:01:06Z</time>
      </trkpt>
      <trkpt lat="46.15466" lon="2.45336">
        <ele>463</ele>
        <time>2015-04-16T12:01:08Z</time>
      </trkpt>
      <trkpt lat="46.15466" lon="2.4534">
        <ele>463</ele>
        <time>2015-04-16T12:01:10Z</time>
      </trkpt>
      <trkpt lat="46.15465" lon="2.45343">
        <ele>463</ele>
        <time>2015-04-16T12:01:12Z</time>
      </trkpt>
      <trkpt lat="46.15464" lon="2.45348">
        <ele>463</ele>
        <time>2015-04-16T12:01:14Z</time>
      </trkpt>
      <trkpt lat="46.15463" lon="2.45351">
        <ele>463</ele>
        <time>2015-04-16T12:01:16Z</time>
      </trkpt>
      <trkpt lat="46.15461" lon="2.45354">
        <ele>463</ele>
        <time>2015-04-16T12:01:18Z</time>
      </trkpt>
      <trkpt lat="46.1546" lon="2.45358">
        <ele>463</ele>
        <time>2015-04-16T12:01:20Z</time>
      </trkpt>
      <trkpt lat="46.1546" lon="2.45361">
        <ele>463</ele>
        <time>2015-04-16T12:01:22Z</time>
      </trkpt>
      <trkpt lat="46.15458" lon="2.45366">
        <ele>463</ele>
        <time>2015-04-16T12:01:25Z</time>
      </trkpt>
      <trkpt lat="46.15456" lon="2.4537">
        <ele>463</ele>
        <time>2015-04-16T12:01:27Z</time>
      </trkpt>
      <trkpt lat="46.15455" lon="2.45373">
        <ele>463</ele>
        <time>2015-04-16T12:01:29Z</time>
      </trkpt>
      <trkpt lat="46.15454" lon="2.45375">
        <ele>463</ele>
        <time>2015-04-16T12:01:31Z</time>
      </trkpt>
      <trkpt lat="46.15453" lon="2.45378">
        <ele>463</ele>
        <time>2015-04-16T12:01:33Z</time>
      </trkpt>
      <trkpt lat="46.15451" lon="2.45381">
        <ele>463</ele>
        <time>2015-04-16T12:01:35Z</time>
      </trkpt>
      <trkpt lat="46.1545" lon="2.45384">
        <ele>463</ele>
        <time>2015-04-16T12:01:37Z</time>
      </trkpt>
      <trkpt lat="46.15448" lon="2.45387">
        <ele>463</ele>
        <time>2015-04-16T12:01:40Z</time>
      </trkpt>
      <trkpt lat="46.15448" lon="2.45389">
        <ele>463</ele>
        <time>2015-04-16T12:01:45Z</time>
      </trkpt>
      <trkpt lat="46.15445" lon="2.45393">
        <ele>463</ele>
        <time>2015-04-16T12:01:47Z</time>
      </trkpt>
      <trkpt lat="46.15443" lon="2.45396">
        <ele>463</ele>
        <time>2015-04-16T12:01:49Z</time>
      </trkpt>
      <trkpt lat="46.15441" lon="2.45401">
        <ele>463</ele>
        <time>2015-04-16T12:01:52Z</time>
      </trkpt>
      <trkpt lat="46.15439" lon="2.45404">
        <ele>463</ele>
        <time>2015-04-16T12:01:54Z</time>
      </trkpt>
      <trkpt lat="46.15438" lon="2.45407">
        <ele>463</ele>
        <time>2015-04-16T12:01:56Z</time>
      </trkpt>
      <trkpt lat="46.15436" lon="2.4541">
        <ele>463</ele>
        <time>2015-04-16T12:01:58Z</time>
      </trkpt>
      <trkpt lat="46.15435" lon="2.45413">
        <ele>463</ele>
        <time>2015-04-16T12:02:00Z</time>
      </trkpt>
      <trkpt lat="46.15432" lon="2.45417">
        <ele>463</ele>
        <time>2015-04-16T12:02:03Z</time>
      </trkpt>
      <trkpt lat="46.1543" lon="2.4542">
        <ele>463</ele>
        <time>2015-04-16T12:02:05Z</time>
      </trkpt>
      <trkpt lat="46.15428" lon="2.45424">
        <ele>463</ele>
        <time>2015-04-16T12:02:07Z</time>
      </trkpt>
      <trkpt lat="46.15426" lon="2.45427">
        <ele>463</ele>
        <time>2015-04-16T12:02:09Z</time>
      </trkpt>
      <trkpt lat="46.15424" lon="2.45432">
        <ele>463</ele>
        <time>2015-04-16T12:02:12Z</time>
      </trkpt>
      <trkpt lat="46.15422" lon="2.45436">
        <ele>463</ele>
        <time>2015-04-16T12:02:14Z</time>
      </trkpt>
      <trkpt lat="46.1542" lon="2.4544">
        <ele>464</ele>
        <time>2015-04-16T12:02:17Z</time>
      </trkpt>
      <trkpt lat="46.15419" lon="2.45444">
        <ele>465</ele>
        <time>2015-04-16T12:02:19Z</time>
      </trkpt>
      <trkpt lat="46.15417" lon="2.45448">
        <ele>466</ele>
        <time>2015-04-16T12:02:21Z</time>
      </trkpt>
      <trkpt lat="46.15416" lon="2.45452">
        <ele>467</ele>
        <time>2015-04-16T12:02:23Z</time>
      </trkpt>
      <trkpt lat="46.15414" lon="2.45456">
        <ele>468</ele>
        <time>2015-04-16T12:02:25Z</time>
      </trkpt>
      <trkpt lat="46.15412" lon="2.4546">
        <ele>468</ele>
        <time>2015-04-16T12:02:27Z</time>
      </trkpt>
      <trkpt lat="46.1541" lon="2.45463">
        <ele>469</ele>
        <time>2015-04-16T12:02:29Z</time>
      </trkpt>
      <trkpt lat="46.15409" lon="2.45466">
        <ele>469</ele>
        <time>2015-04-16T12:02:31Z</time>
      </trkpt>
      <trkpt lat="46.15407" lon="2.45469">
        <ele>469</ele>
        <time>2015-04-16T12:02:33Z</time>
      </trkpt>
      <trkpt lat="46.15406" lon="2.45472">
        <ele>469</ele>
        <time>2015-04-16T12:02:35Z</time>
      </trkpt>
      <trkpt lat="46.15404" lon="2.45475">
        <ele>469</ele>
        <time>2015-04-16T12:02:37Z</time>
      </trkpt>
      <trkpt lat="46.15402" lon="2.45478">
        <ele>469</ele>
        <time>2015-04-16T12:02:39Z</time>
      </trkpt>
      <trkpt lat="46.15401" lon="2.45481">
        <ele>469</ele>
        <time>2015-04-16T12:02:41Z</time>
      </trkpt>
      <trkpt lat="46.15398" lon="2.45484">
        <ele>470</ele>
        <time>2015-04-16T12:02:43Z</time>
      </trkpt>
      <trkpt lat="46.15396" lon="2.45487">
        <ele>470</ele>
        <time>2015-04-16T12:02:45Z</time>
      </trkpt>
      <trkpt lat="46.15394" lon="2.45489">
        <ele>470</ele>
        <time>2015-04-16T12:02:47Z</time>
      </trkpt>
      <trkpt lat="46.15392" lon="2.45493">
        <ele>470</ele>
        <time>2015-04-16T12:02:50Z</time>
      </trkpt>
      <trkpt lat="46.1539" lon="2.45496">
        <ele>470</ele>
        <time>2015-04-16T12:02:52Z</time>
      </trkpt>
      <trkpt lat="46.15388" lon="2.45498">
        <ele>470</ele>
        <time>2015-04-16T12:02:54Z</time>
      </trkpt>
      <trkpt lat="46.15387" lon="2.455">
        <ele>471</ele>
        <time>2015-04-16T12:02:56Z</time>
      </trkpt>
      <trkpt lat="46.15386" lon="2.45502">
        <ele>472</ele>
        <time>2015-04-16T12:02:58Z</time>
      </trkpt>
      <trkpt lat="46.15384" lon="2.45504">
        <ele>473</ele>
        <time>2015-04-16T12:03:00Z</time>
      </trkpt>
      <trkpt lat="46.15382" lon="2.45507">
        <ele>475</ele>
        <time>2015-04-16T12:03:02Z</time>
      </trkpt>
      <trkpt lat="46.15379" lon="2.45511">
        <ele>476</ele>
        <time>2015-04-16T12:03:05Z</time>
      </trkpt>
      <trkpt lat="46.15377" lon="2.45514">
        <ele>476</ele>
        <time>2015-04-16T12:03:08Z</time>
      </trkpt>
      <trkpt lat="46.15375" lon="2.45516">
        <ele>476</ele>
        <time>2015-04-16T12:03:10Z</time>
      </trkpt>
      <trkpt lat="46.15373" lon="2.45517">
        <ele>477</ele>
        <time>2015-04-16T12:03:12Z</time>
      </trkpt>
      <trkpt lat="46.1537" lon="2.45519">
        <ele>477</ele>
        <time>2015-04-16T12:03:15Z</time>
      </trkpt>
      <trkpt lat="46.15368" lon="2.45521">
        <ele>477</ele>
        <time>2015-04-16T12:03:17Z</time>
      </trkpt>
      <trkpt lat="46.15365" lon="2.45523">
        <ele>477</ele>
        <time>2015-04-16T12:03:19Z</time>
      </trkpt>
      <trkpt lat="46.15363" lon="2.45525">
        <ele>477</ele>
        <time>2015-04-16T12:03:21Z</time>
      </trkpt>
      <trkpt lat="46.15361" lon="2.45529">
        <ele>477</ele>
        <time>2015-04-16T12:03:24Z</time>
      </trkpt>
      <trkpt lat="46.15359" lon="2.45529">
        <ele>477</ele>
        <time>2015-04-16T12:03:26Z</time>
      </trkpt>
      <trkpt lat="46.15356" lon="2.4553">
        <ele>477</ele>
        <time>2015-04-16T12:03:28Z</time>
      </trkpt>
      <trkpt lat="46.15354" lon="2.45533">
        <ele>477</ele>
        <time>2015-04-16T12:03:30Z</time>
      </trkpt>
      <trkpt lat="46.1535" lon="2.45536">
        <ele>478</ele>
        <time>2015-04-16T12:03:33Z</time>
      </trkpt>
      <trkpt lat="46.15349" lon="2.45536">
        <ele>479</ele>
        <time>2015-04-16T12:03:35Z</time>
      </trkpt>
      <trkpt lat="46.15347" lon="2.45538">
        <ele>479</ele>
        <time>2015-04-16T12:03:37Z</time>
      </trkpt>
      <trkpt lat="46.15343" lon="2.4554">
        <ele>479</ele>
        <time>2015-04-16T12:03:40Z</time>
      </trkpt>
      <trkpt lat="46.1534" lon="2.45541">
        <ele>479</ele>
        <time>2015-04-16T12:03:42Z</time>
      </trkpt>
      <trkpt lat="46.15338" lon="2.45542">
        <ele>479</ele>
        <time>2015-04-16T12:03:44Z</time>
      </trkpt>
      <trkpt lat="46.15335" lon="2.45542">
        <ele>479</ele>
        <time>2015-04-16T12:03:46Z</time>
      </trkpt>
      <trkpt lat="46.15331" lon="2.45542">
        <ele>479</ele>
        <time>2015-04-16T12:03:49Z</time>
      </trkpt>
      <trkpt lat="46.15332" lon="2.45544">
        <ele>479</ele>
        <time>2015-04-16T12:03:54Z</time>
      </trkpt>
      <trkpt lat="46.15332" lon="2.45545">
        <ele>479</ele>
        <time>2015-04-16T12:03:56Z</time>
      </trkpt>
      <trkpt lat="46.15332" lon="2.45547">
        <ele>479</ele>
        <time>2015-04-16T12:03:58Z</time>
      </trkpt>
      <trkpt lat="46.15332" lon="2.45549">
        <ele>480</ele>
        <time>2015-04-16T12:04:01Z</time>
      </trkpt>
      <trkpt lat="46.15331" lon="2.45548">
        <ele>480</ele>
        <time>2015-04-16T12:04:04Z</time>
      </trkpt>
      <trkpt lat="46.15327" lon="2.45546">
        <ele>480</ele>
        <time>2015-04-16T12:04:06Z</time>
      </trkpt>
      <trkpt lat="46.15325" lon="2.45546">
        <ele>480</ele>
        <time>2015-04-16T12:04:08Z</time>
      </trkpt>
      <trkpt lat="46.15321" lon="2.45545">
        <ele>480</ele>
        <time>2015-04-16T12:04:10Z</time>
      </trkpt>
      <trkpt lat="46.15319" lon="2.45545">
        <ele>480</ele>
        <time>2015-04-16T12:04:12Z</time>
      </trkpt>
      <trkpt lat="46.15318" lon="2.45545">
        <ele>480</ele>
        <time>2015-04-16T12:04:14Z</time>
      </trkpt>
      <trkpt lat="46.15316" lon="2.45544">
        <ele>480</ele>
        <time>2015-04-16T12:04:16Z</time>
      </trkpt>
      <trkpt lat="46.15314" lon="2.45543">
        <ele>480</ele>
        <time>2015-04-16T12:04:18Z</time>
      </trkpt>
      <trkpt lat="46.15311" lon="2.45542">
        <ele>480</ele>
        <time>2015-04-16T12:04:20Z</time>
      </trkpt>
      <trkpt lat="46.15308" lon="2.45542">
        <ele>480</ele>
        <time>2015-04-16T12:04:22Z</time>
      </trkpt>
      <trkpt lat="46.15306" lon="2.45542">
        <ele>480</ele>
        <time>2015-04-16T12:04:24Z</time>
      </trkpt>
      <trkpt lat="46.15302" lon="2.45541">
        <ele>480</ele>
        <time>2015-04-16T12:04:26Z</time>
      </trkpt>
      <trkpt lat="46.15298" lon="2.4554">
        <ele>480</ele>
        <time>2015-04-16T12:04:28Z</time>
      </trkpt>
      <trkpt lat="46.15295" lon="2.4554">
        <ele>480</ele>
        <time>2015-04-16T12:04:30Z</time>
      </trkpt>
      <trkpt lat="46.15291" lon="2.45539">
        <ele>480</ele>
        <time>2015-04-16T12:04:32Z</time>
      </trkpt>
      <trkpt lat="46.15288" lon="2.45537">
        <ele>480</ele>
        <time>2015-04-16T12:04:34Z</time>
      </trkpt>
      <trkpt lat="46.15285" lon="2.45537">
        <ele>480</ele>
        <time>2015-04-16T12:04:36Z</time>
      </trkpt>
      <trkpt lat="46.15282" lon="2.45536">
        <ele>480</ele>
        <time>2015-04-16T12:04:38Z</time>
      </trkpt>
      <trkpt lat="46.15279" lon="2.45535">
        <ele>480</ele>
        <time>2015-04-16T12:04:40Z</time>
      </trkpt>
      <trkpt lat="46.15277" lon="2.45534">
        <ele>480</ele>
        <time>2015-04-16T12:04:42Z</time>
      </trkpt>
      <trkpt lat="46.15274" lon="2.45533">
        <ele>480</ele>
        <time>2015-04-16T12:04:44Z</time>
      </trkpt>
      <trkpt lat="46.15271" lon="2.45532">
        <ele>480</ele>
        <time>2015-04-16T12:04:46Z</time>
      </trkpt>
      <trkpt lat="46.15268" lon="2.45532">
        <ele>480</ele>
        <time>2015-04-16T12:04:48Z</time>
      </trkpt>
      <trkpt lat="46.15265" lon="2.45531">
        <ele>480</ele>
        <time>2015-04-16T12:04:50Z</time>
      </trkpt>
      <trkpt lat="46.15261" lon="2.4553">
        <ele>480</ele>
        <time>2015-04-16T12:04:53Z</time>
      </trkpt>
      <trkpt lat="46.15259" lon="2.45528">
        <ele>480</ele>
        <time>2015-04-16T12:04:55Z</time>
      </trkpt>
      <trkpt lat="46.15255" lon="2.45527">
        <ele>480</ele>
        <time>2015-04-16T12:04:57Z</time>
      </trkpt>
      <trkpt lat="46.15253" lon="2.45526">
        <ele>480</ele>
        <time>2015-04-16T12:04:59Z</time>
      </trkpt>
      <trkpt lat="46.1525" lon="2.45525">
        <ele>480</ele>
        <time>2015-04-16T12:05:01Z</time>
      </trkpt>
      <trkpt lat="46.15247" lon="2.45525">
        <ele>480</ele>
        <time>2015-04-16T12:05:04Z</time>
      </trkpt>
      <trkpt lat="46.15245" lon="2.45525">
        <ele>480</ele>
        <time>2015-04-16T12:05:07Z</time>
      </trkpt>
      <trkpt lat="46.15244" lon="2.45525">
        <ele>480</ele>
        <time>2015-04-16T12:05:11Z</time>
      </trkpt>
      <trkpt lat="46.15241" lon="2.45522">
        <ele>480</ele>
        <time>2015-04-16T12:05:14Z</time>
      </trkpt>
      <trkpt lat="46.15238" lon="2.45519">
        <ele>481</ele>
        <time>2015-04-16T12:05:16Z</time>
      </trkpt>
      <trkpt lat="46.15235" lon="2.45518">
        <ele>482</ele>
        <time>2015-04-16T12:05:19Z</time>
      </trkpt>
      <trkpt lat="46.15233" lon="2.45516">
        <ele>483</ele>
        <time>2015-04-16T12:05:22Z</time>
      </trkpt>
      <trkpt lat="46.15232" lon="2.45514">
        <ele>483</ele>
        <time>2015-04-16T12:05:24Z</time>
      </trkpt>
      <trkpt lat="46.15231" lon="2.45512">
        <ele>483</ele>
        <time>2015-04-16T12:05:26Z</time>
      </trkpt>
      <trkpt lat="46.15229" lon="2.4551">
        <ele>483</ele>
        <time>2015-04-16T12:05:28Z</time>
      </trkpt>
      <trkpt lat="46.15227" lon="2.45508">
        <ele>484</ele>
        <time>2015-04-16T12:05:30Z</time>
      </trkpt>
      <trkpt lat="46.15225" lon="2.45507">
        <ele>485</ele>
        <time>2015-04-16T12:05:32Z</time>
      </trkpt>
      <trkpt lat="46.15224" lon="2.45507">
        <ele>486</ele>
        <time>2015-04-16T12:05:34Z</time>
      </trkpt>
      <trkpt lat="46.15223" lon="2.45506">
        <ele>487</ele>
        <time>2015-04-16T12:05:37Z</time>
      </trkpt>
      <trkpt lat="46.15221" lon="2.45504">
        <ele>488</ele>
        <time>2015-04-16T12:05:39Z</time>
      </trkpt>
      <trkpt lat="46.1522" lon="2.45501">
        <ele>489</ele>
        <time>2015-04-16T12:05:41Z</time>
      </trkpt>
      <trkpt lat="46.15218" lon="2.455">
        <ele>489</ele>
        <time>2015-04-16T12:05:43Z</time>
      </trkpt>
      <trkpt lat="46.15217" lon="2.45498">
        <ele>489</ele>
        <time>2015-04-16T12:05:45Z</time>
      </trkpt>
      <trkpt lat="46.15213" lon="2.45498">
        <ele>489</ele>
        <time>2015-04-16T12:05:47Z</time>
      </trkpt>
      <trkpt lat="46.15211" lon="2.45497">
        <ele>489</ele>
        <time>2015-04-16T12:05:49Z</time>
      </trkpt>
      <trkpt lat="46.15207" lon="2.45498">
        <ele>489</ele>
        <time>2015-04-16T12:05:51Z</time>
      </trkpt>
      <trkpt lat="46.15204" lon="2.45498">
        <ele>491</ele>
        <time>2015-04-16T12:05:55Z</time>
      </trkpt>
      <trkpt lat="46.15201" lon="2.45496">
        <ele>491</ele>
        <time>2015-04-16T12:05:58Z</time>
      </trkpt>
      <trkpt lat="46.15198" lon="2.45498">
        <ele>491</ele>
        <time>2015-04-16T12:06:00Z</time>
      </trkpt>
      <trkpt lat="46.15195" lon="2.45501">
        <ele>492</ele>
        <time>2015-04-16T12:06:03Z</time>
      </trkpt>
      <trkpt lat="46.15192" lon="2.45503">
        <ele>493</ele>
        <time>2015-04-16T12:06:05Z</time>
      </trkpt>
      <trkpt lat="46.15189" lon="2.45505">
        <ele>493</ele>
        <time>2015-04-16T12:06:07Z</time>
      </trkpt>
      <trkpt lat="46.15187" lon="2.45506">
        <ele>493</ele>
        <time>2015-04-16T12:06:09Z</time>
      </trkpt>
      <trkpt lat="46.15185" lon="2.45509">
        <ele>493</ele>
        <time>2015-04-16T12:06:11Z</time>
      </trkpt>
      <trkpt lat="46.15181" lon="2.4551">
        <ele>493</ele>
        <time>2015-04-16T12:06:13Z</time>
      </trkpt>
      <trkpt lat="46.15177" lon="2.45511">
        <ele>493</ele>
        <time>2015-04-16T12:06:16Z</time>
      </trkpt>
      <trkpt lat="46.15176" lon="2.45511">
        <ele>493</ele>
        <time>2015-04-16T12:06:18Z</time>
      </trkpt>
      <trkpt lat="46.15173" lon="2.45512">
        <ele>492</ele>
        <time>2015-04-16T12:06:20Z</time>
      </trkpt>
      <trkpt lat="46.15172" lon="2.45514">
        <ele>491</ele>
        <time>2015-04-16T12:06:22Z</time>
      </trkpt>
      <trkpt lat="46.15171" lon="2.45515">
        <ele>491</ele>
        <time>2015-04-16T12:06:24Z</time>
      </trkpt>
      <trkpt lat="46.15168" lon="2.45518">
        <ele>491</ele>
        <time>2015-04-16T12:06:27Z</time>
      </trkpt>
      <trkpt lat="46.15166" lon="2.45519">
        <ele>491</ele>
        <time>2015-04-16T12:06:29Z</time>
      </trkpt>
      <trkpt lat="46.15164" lon="2.45519">
        <ele>491</ele>
        <time>2015-04-16T12:06:31Z</time>
      </trkpt>
      <trkpt lat="46.15163" lon="2.4552">
        <ele>491</ele>
        <time>2015-04-16T12:06:33Z</time>
      </trkpt>
      <trkpt lat="46.15161" lon="2.4552">
        <ele>491</ele>
        <time>2015-04-16T12:06:36Z</time>
      </trkpt>
      <trkpt lat="46.15158" lon="2.4552">
        <ele>491</ele>
        <time>2015-04-16T12:06:38Z</time>
      </trkpt>
      <trkpt lat="46.15155" lon="2.4552">
        <ele>491</ele>
        <time>2015-04-16T12:06:40Z</time>
      </trkpt>
      <trkpt lat="46.15153" lon="2.45519">
        <ele>491</ele>
        <time>2015-04-16T12:06:42Z</time>
      </trkpt>
      <trkpt lat="46.15152" lon="2.45518">
        <ele>491</ele>
        <time>2015-04-16T12:06:44Z</time>
      </trkpt>
      <trkpt lat="46.15152" lon="2.45516">
        <ele>491</ele>
        <time>2015-04-16T12:06:46Z</time>
      </trkpt>
      <trkpt lat="46.15152" lon="2.45514">
        <ele>491</ele>
        <time>2015-04-16T12:06:48Z</time>
      </trkpt>
      <trkpt lat="46.15148" lon="2.45513">
        <ele>491</ele>
        <time>2015-04-16T12:06:51Z</time>
      </trkpt>
      <trkpt lat="46.15147" lon="2.45514">
        <ele>491</ele>
        <time>2015-04-16T12:06:53Z</time>
      </trkpt>
      <trkpt lat="46.15144" lon="2.45515">
        <ele>491</ele>
        <time>2015-04-16T12:06:56Z</time>
      </trkpt>
      <trkpt lat="46.1514" lon="2.45516">
        <ele>491</ele>
        <time>2015-04-16T12:06:59Z</time>
      </trkpt>
      <trkpt lat="46.15138" lon="2.45515">
        <ele>491</ele>
        <time>2015-04-16T12:07:01Z</time>
      </trkpt>
      <trkpt lat="46.15135" lon="2.45514">
        <ele>491</ele>
        <time>2015-04-16T12:07:04Z</time>
      </trkpt>
      <trkpt lat="46.15134" lon="2.45514">
        <ele>491</ele>
        <time>2015-04-16T12:07:06Z</time>
      </trkpt>
      <trkpt lat="46.15131" lon="2.45512">
        <ele>491</ele>
        <time>2015-04-16T12:07:08Z</time>
      </trkpt>
      <trkpt lat="46.15128" lon="2.45511">
        <ele>491</ele>
        <time>2015-04-16T12:07:10Z</time>
      </trkpt>
      <trkpt lat="46.15125" lon="2.45511">
        <ele>491</ele>
        <time>2015-04-16T12:07:12Z</time>
      </trkpt>
      <trkpt lat="46.15121" lon="2.45512">
        <ele>491</ele>
        <time>2015-04-16T12:07:14Z</time>
      </trkpt>
      <trkpt lat="46.15118" lon="2.45513">
        <ele>491</ele>
        <time>2015-04-16T12:07:17Z</time>
      </trkpt>
      <trkpt lat="46.15115" lon="2.45513">
        <ele>491</ele>
        <time>2015-04-16T12:07:19Z</time>
      </trkpt>
      <trkpt lat="46.15113" lon="2.45514">
        <ele>491</ele>
        <time>2015-04-16T12:07:21Z</time>
      </trkpt>
      <trkpt lat="46.15109" lon="2.45514">
        <ele>492</ele>
        <time>2015-04-16T12:07:23Z</time>
      </trkpt>
      <trkpt lat="46.15105" lon="2.45514">
        <ele>492</ele>
        <time>2015-04-16T12:07:25Z</time>
      </trkpt>
      <trkpt lat="46.15103" lon="2.45514">
        <ele>493</ele>
        <time>2015-04-16T12:07:27Z</time>
      </trkpt>
      <trkpt lat="46.151" lon="2.45513">
        <ele>493</ele>
        <time>2015-04-16T12:07:29Z</time>
      </trkpt>
      <trkpt lat="46.15097" lon="2.45513">
        <ele>493</ele>
        <time>2015-04-16T12:07:31Z</time>
      </trkpt>
      <trkpt lat="46.15093" lon="2.45514">
        <ele>493</ele>
        <time>2015-04-16T12:07:34Z</time>
      </trkpt>
      <trkpt lat="46.1509" lon="2.45514">
        <ele>494</ele>
        <time>2015-04-16T12:07:36Z</time>
      </trkpt>
      <trkpt lat="46.15086" lon="2.45516">
        <ele>494</ele>
        <time>2015-04-16T12:07:39Z</time>
      </trkpt>
      <trkpt lat="46.15084" lon="2.45517">
        <ele>495</ele>
        <time>2015-04-16T12:07:41Z</time>
      </trkpt>
      <trkpt lat="46.15081" lon="2.45517">
        <ele>495</ele>
        <time>2015-04-16T12:07:43Z</time>
      </trkpt>
      <trkpt lat="46.15078" lon="2.45518">
        <ele>495</ele>
        <time>2015-04-16T12:07:45Z</time>
      </trkpt>
      <trkpt lat="46.15076" lon="2.45519">
        <ele>495</ele>
        <time>2015-04-16T12:07:47Z</time>
      </trkpt>
      <trkpt lat="46.15073" lon="2.4552">
        <ele>495</ele>
        <time>2015-04-16T12:07:49Z</time>
      </trkpt>
      <trkpt lat="46.15069" lon="2.45521">
        <ele>495</ele>
        <time>2015-04-16T12:07:51Z</time>
      </trkpt>
      <trkpt lat="46.15066" lon="2.45521">
        <ele>495</ele>
        <time>2015-04-16T12:07:53Z</time>
      </trkpt>
      <trkpt lat="46.15063" lon="2.45521">
        <ele>495</ele>
        <time>2015-04-16T12:07:55Z</time>
      </trkpt>
      <trkpt lat="46.1506" lon="2.45522">
        <ele>495</ele>
        <time>2015-04-16T12:07:57Z</time>
      </trkpt>
      <trkpt lat="46.15058" lon="2.45523">
        <ele>495</ele>
        <time>2015-04-16T12:07:59Z</time>
      </trkpt>
      <trkpt lat="46.15055" lon="2.45524">
        <ele>495</ele>
        <time>2015-04-16T12:08:01Z</time>
      </trkpt>
      <trkpt lat="46.15052" lon="2.45524">
        <ele>495</ele>
        <time>2015-04-16T12:08:03Z</time>
      </trkpt>
      <trkpt lat="46.15049" lon="2.45524">
        <ele>495</ele>
        <time>2015-04-16T12:08:05Z</time>
      </trkpt>
      <trkpt lat="46.15046" lon="2.45524">
        <ele>495</ele>
        <time>2015-04-16T12:08:07Z</time>
      </trkpt>
      <trkpt lat="46.15044" lon="2.45524">
        <ele>495</ele>
        <time>2015-04-16T12:08:09Z</time>
      </trkpt>
      <trkpt lat="46.1504" lon="2.45524">
        <ele>495</ele>
        <time>2015-04-16T12:08:11Z</time>
      </trkpt>
      <trkpt lat="46.15038" lon="2.45523">
        <ele>495</ele>
        <time>2015-04-16T12:08:13Z</time>
      </trkpt>
      <trkpt lat="46.15035" lon="2.45522">
        <ele>495</ele>
        <time>2015-04-16T12:08:15Z</time>
      </trkpt>
      <trkpt lat="46.15033" lon="2.45523">
        <ele>495</ele>
        <time>2015-04-16T12:08:18Z</time>
      </trkpt>
      <trkpt lat="46.15031" lon="2.45523">
        <ele>495</ele>
        <time>2015-04-16T12:08:20Z</time>
      </trkpt>
      <trkpt lat="46.15029" lon="2.45523">
        <ele>494</ele>
        <time>2015-04-16T12:08:22Z</time>
      </trkpt>
      <trkpt lat="46.15027" lon="2.45522">
        <ele>493</ele>
        <time>2015-04-16T12:08:24Z</time>
      </trkpt>
      <trkpt lat="46.15025" lon="2.45522">
        <ele>493</ele>
        <time>2015-04-16T12:08:26Z</time>
      </trkpt>
      <trkpt lat="46.15022" lon="2.45521">
        <ele>492</ele>
        <time>2015-04-16T12:08:28Z</time>
      </trkpt>
      <trkpt lat="46.1502" lon="2.45521">
        <ele>491</ele>
        <time>2015-04-16T12:08:30Z</time>
      </trkpt>
      <trkpt lat="46.15017" lon="2.4552">
        <ele>490</ele>
        <time>2015-04-16T12:08:32Z</time>
      </trkpt>
      <trkpt lat="46.15014" lon="2.4552">
        <ele>489</ele>
        <time>2015-04-16T12:08:35Z</time>
      </trkpt>
      <trkpt lat="46.15011" lon="2.45518">
        <ele>489</ele>
        <time>2015-04-16T12:08:37Z</time>
      </trkpt>
      <trkpt lat="46.15009" lon="2.45518">
        <ele>489</ele>
        <time>2015-04-16T12:08:39Z</time>
      </trkpt>
      <trkpt lat="46.15006" lon="2.45517">
        <ele>489</ele>
        <time>2015-04-16T12:08:41Z</time>
      </trkpt>
      <trkpt lat="46.15003" lon="2.45517">
        <ele>489</ele>
        <time>2015-04-16T12:08:43Z</time>
      </trkpt>
      <trkpt lat="46.15" lon="2.45517">
        <ele>489</ele>
        <time>2015-04-16T12:08:45Z</time>
      </trkpt>
      <trkpt lat="46.14997" lon="2.45517">
        <ele>489</ele>
        <time>2015-04-16T12:08:47Z</time>
      </trkpt>
      <trkpt lat="46.14993" lon="2.45517">
        <ele>489</ele>
        <time>2015-04-16T12:08:50Z</time>
      </trkpt>
      <trkpt lat="46.14991" lon="2.45516">
        <ele>489</ele>
        <time>2015-04-16T12:08:52Z</time>
      </trkpt>
      <trkpt lat="46.14988" lon="2.45514">
        <ele>489</ele>
        <time>2015-04-16T12:08:54Z</time>
      </trkpt>
      <trkpt lat="46.14985" lon="2.45514">
        <ele>489</ele>
        <time>2015-04-16T12:08:56Z</time>
      </trkpt>
      <trkpt lat="46.14982" lon="2.45514">
        <ele>489</ele>
        <time>2015-04-16T12:08:58Z</time>
      </trkpt>
      <trkpt lat="46.14979" lon="2.45513">
        <ele>489</ele>
        <time>2015-04-16T12:09:01Z</time>
      </trkpt>
      <trkpt lat="46.14976" lon="2.45512">
        <ele>489</ele>
        <time>2015-04-16T12:09:03Z</time>
      </trkpt>
      <trkpt lat="46.14973" lon="2.45511">
        <ele>489</ele>
        <time>2015-04-16T12:09:05Z</time>
      </trkpt>
      <trkpt lat="46.1497" lon="2.45509">
        <ele>489</ele>
        <time>2015-04-16T12:09:08Z</time>
      </trkpt>
      <trkpt lat="46.14968" lon="2.45508">
        <ele>489</ele>
        <time>2015-04-16T12:09:10Z</time>
      </trkpt>
      <trkpt lat="46.14967" lon="2.45508">
        <ele>489</ele>
        <time>2015-04-16T12:09:12Z</time>
      </trkpt>
      <trkpt lat="46.14966" lon="2.45506">
        <ele>489</ele>
        <time>2015-04-16T12:09:15Z</time>
      </trkpt>
      <trkpt lat="46.14964" lon="2.45505">
        <ele>489</ele>
        <time>2015-04-16T12:09:17Z</time>
      </trkpt>
      <trkpt lat="46.14962" lon="2.45505">
        <ele>489</ele>
        <time>2015-04-16T12:09:19Z</time>
      </trkpt>
      <trkpt lat="46.14961" lon="2.45508">
        <ele>489</ele>
        <time>2015-04-16T12:09:21Z</time>
      </trkpt>
      <trkpt lat="46.14959" lon="2.45511">
        <ele>489</ele>
        <time>2015-04-16T12:09:23Z</time>
      </trkpt>
      <trkpt lat="46.14957" lon="2.45512">
        <ele>489</ele>
        <time>2015-04-16T12:09:25Z</time>
      </trkpt>
      <trkpt lat="46.14954" lon="2.45513">
        <ele>489</ele>
        <time>2015-04-16T12:09:28Z</time>
      </trkpt>
      <trkpt lat="46.14953" lon="2.45513">
        <ele>489</ele>
        <time>2015-04-16T12:09:30Z</time>
      </trkpt>
      <trkpt lat="46.14951" lon="2.45512">
        <ele>489</ele>
        <time>2015-04-16T12:09:35Z</time>
      </trkpt>
      <trkpt lat="46.14949" lon="2.45513">
        <ele>489</ele>
        <time>2015-04-16T12:09:37Z</time>
      </trkpt>
      <trkpt lat="46.14947" lon="2.45513">
        <ele>490</ele>
        <time>2015-04-16T12:09:39Z</time>
      </trkpt>
      <trkpt lat="46.14944" lon="2.45513">
        <ele>490</ele>
        <time>2015-04-16T12:09:41Z</time>
      </trkpt>
      <trkpt lat="46.14941" lon="2.45512">
        <ele>490</ele>
        <time>2015-04-16T12:09:43Z</time>
      </trkpt>
      <trkpt lat="46.14938" lon="2.45513">
        <ele>490</ele>
        <time>2015-04-16T12:09:45Z</time>
      </trkpt>
      <trkpt lat="46.14935" lon="2.45513">
        <ele>490</ele>
        <time>2015-04-16T12:09:47Z</time>
      </trkpt>
      <trkpt lat="46.14933" lon="2.45513">
        <ele>490</ele>
        <time>2015-04-16T12:09:49Z</time>
      </trkpt>
      <trkpt lat="46.1493" lon="2.45514">
        <ele>490</ele>
        <time>2015-04-16T12:09:51Z</time>
      </trkpt>
      <trkpt lat="46.14928" lon="2.45513">
        <ele>490</ele>
        <time>2015-04-16T12:09:53Z</time>
      </trkpt>
      <trkpt lat="46.14925" lon="2.45513">
        <ele>490</ele>
        <time>2015-04-16T12:09:55Z</time>
      </trkpt>
      <trkpt lat="46.14922" lon="2.45514">
        <ele>490</ele>
        <time>2015-04-16T12:09:57Z</time>
      </trkpt>
      <trkpt lat="46.1492" lon="2.45514">
        <ele>490</ele>
        <time>2015-04-16T12:09:59Z</time>
      </trkpt>
      <trkpt lat="46.14917" lon="2.45514">
        <ele>490</ele>
        <time>2015-04-16T12:10:01Z</time>
      </trkpt>
      <trkpt lat="46.14915" lon="2.45514">
        <ele>490</ele>
        <time>2015-04-16T12:10:03Z</time>
      </trkpt>
      <trkpt lat="46.14912" lon="2.45514">
        <ele>490</ele>
        <time>2015-04-16T12:10:05Z</time>
      </trkpt>
      <trkpt lat="46.14909" lon="2.45514">
        <ele>490</ele>
        <time>2015-04-16T12:10:07Z</time>
      </trkpt>
      <trkpt lat="46.14907" lon="2.45515">
        <ele>490</ele>
        <time>2015-04-16T12:10:09Z</time>
      </trkpt>
      <trkpt lat="46.14904" lon="2.45515">
        <ele>490</ele>
        <time>2015-04-16T12:10:11Z</time>
      </trkpt>
      <trkpt lat="46.14902" lon="2.45516">
        <ele>490</ele>
        <time>2015-04-16T12:10:13Z</time>
      </trkpt>
      <trkpt lat="46.14899" lon="2.45517">
        <ele>490</ele>
        <time>2015-04-16T12:10:15Z</time>
      </trkpt>
      <trkpt lat="46.14897" lon="2.45518">
        <ele>490</ele>
        <time>2015-04-16T12:10:17Z</time>
      </trkpt>
      <trkpt lat="46.14894" lon="2.45518">
        <ele>489</ele>
        <time>2015-04-16T12:10:19Z</time>
      </trkpt>
      <trkpt lat="46.14891" lon="2.45518">
        <ele>489</ele>
        <time>2015-04-16T12:10:21Z</time>
      </trkpt>
      <trkpt lat="46.14888" lon="2.45518">
        <ele>488</ele>
        <time>2015-04-16T12:10:23Z</time>
      </trkpt>
      <trkpt lat="46.14886" lon="2.45518">
        <ele>488</ele>
        <time>2015-04-16T12:10:25Z</time>
      </trkpt>
      <trkpt lat="46.14882" lon="2.45517">
        <ele>487</ele>
        <time>2015-04-16T12:10:27Z</time>
      </trkpt>
      <trkpt lat="46.14878" lon="2.45517">
        <ele>487</ele>
        <time>2015-04-16T12:10:29Z</time>
      </trkpt>
      <trkpt lat="46.14875" lon="2.45517">
        <ele>487</ele>
        <time>2015-04-16T12:10:31Z</time>
      </trkpt>
      <trkpt lat="46.14872" lon="2.45517">
        <ele>487</ele>
        <time>2015-04-16T12:10:33Z</time>
      </trkpt>
      <trkpt lat="46.14869" lon="2.45517">
        <ele>487</ele>
        <time>2015-04-16T12:10:35Z</time>
      </trkpt>
      <trkpt lat="46.14867" lon="2.45517">
        <ele>487</ele>
        <time>2015-04-16T12:10:37Z</time>
      </trkpt>
      <trkpt lat="46.14864" lon="2.45517">
        <ele>487</ele>
        <time>2015-04-16T12:10:39Z</time>
      </trkpt>
      <trkpt lat="46.14861" lon="2.45517">
        <ele>487</ele>
        <time>2015-04-16T12:10:41Z</time>
      </trkpt>
      <trkpt lat="46.14858" lon="2.45517">
        <ele>487</ele>
        <time>2015-04-16T12:10:43Z</time>
      </trkpt>
      <trkpt lat="46.14856" lon="2.45517">
        <ele>487</ele>
        <time>2015-04-16T12:10:45Z</time>
      </trkpt>
      <trkpt lat="46.14853" lon="2.45517">
        <ele>487</ele>
        <time>2015-04-16T12:10:47Z</time>
      </trkpt>
      <trkpt lat="46.1485" lon="2.45517">
        <ele>487</ele>
        <time>2015-04-16T12:10:49Z</time>
      </trkpt>
      <trkpt lat="46.14847" lon="2.45517">
        <ele>487</ele>
        <time>2015-04-16T12:10:51Z</time>
      </trkpt>
      <trkpt lat="46.14845" lon="2.45517">
        <ele>487</ele>
        <time>2015-04-16T12:10:53Z</time>
      </trkpt>
      <trkpt lat="46.14842" lon="2.45518">
        <ele>487</ele>
        <time>2015-04-16T12:10:55Z</time>
      </trkpt>
      <trkpt lat="46.14839" lon="2.45518">
        <ele>487</ele>
        <time>2015-04-16T12:10:57Z</time>
      </trkpt>
      <trkpt lat="46.14837" lon="2.45517">
        <ele>487</ele>
        <time>2015-04-16T12:10:59Z</time>
      </trkpt>
      <trkpt lat="46.14834" lon="2.45518">
        <ele>487</ele>
        <time>2015-04-16T12:11:01Z</time>
      </trkpt>
      <trkpt lat="46.14831" lon="2.45517">
        <ele>487</ele>
        <time>2015-04-16T12:11:03Z</time>
      </trkpt>
      <trkpt lat="46.14828" lon="2.45517">
        <ele>487</ele>
        <time>2015-04-16T12:11:05Z</time>
      </trkpt>
      <trkpt lat="46.14826" lon="2.45517">
        <ele>487</ele>
        <time>2015-04-16T12:11:07Z</time>
      </trkpt>
      <trkpt lat="46.14823" lon="2.45517">
        <ele>487</ele>
        <time>2015-04-16T12:11:09Z</time>
      </trkpt>
      <trkpt lat="46.14821" lon="2.45518">
        <ele>487</ele>
        <time>2015-04-16T12:11:11Z</time>
      </trkpt>
      <trkpt lat="46.14818" lon="2.45517">
        <ele>487</ele>
        <time>2015-04-16T12:11:13Z</time>
      </trkpt>
      <trkpt lat="46.14815" lon="2.45517">
        <ele>487</ele>
        <time>2015-04-16T12:11:15Z</time>
      </trkpt>
      <trkpt lat="46.14813" lon="2.45517">
        <ele>487</ele>
        <time>2015-04-16T12:11:17Z</time>
      </trkpt>
      <trkpt lat="46.1481" lon="2.45517">
        <ele>486</ele>
        <time>2015-04-16T12:11:19Z</time>
      </trkpt>
      <trkpt lat="46.14807" lon="2.45517">
        <ele>486</ele>
        <time>2015-04-16T12:11:21Z</time>
      </trkpt>
      <trkpt lat="46.14804" lon="2.45516">
        <ele>486</ele>
        <time>2015-04-16T12:11:23Z</time>
      </trkpt>
      <trkpt lat="46.14801" lon="2.45516">
        <ele>486</ele>
        <time>2015-04-16T12:11:25Z</time>
      </trkpt>
      <trkpt lat="46.14798" lon="2.45517">
        <ele>485</ele>
        <time>2015-04-16T12:11:27Z</time>
      </trkpt>
      <trkpt lat="46.14795" lon="2.45518">
        <ele>485</ele>
        <time>2015-04-16T12:11:29Z</time>
      </trkpt>
      <trkpt lat="46.14793" lon="2.45518">
        <ele>485</ele>
        <time>2015-04-16T12:11:31Z</time>
      </trkpt>
      <trkpt lat="46.1479" lon="2.45518">
        <ele>485</ele>
        <time>2015-04-16T12:11:33Z</time>
      </trkpt>
      <trkpt lat="46.14787" lon="2.45518">
        <ele>485</ele>
        <time>2015-04-16T12:11:35Z</time>
      </trkpt>
      <trkpt lat="46.14784" lon="2.45518">
        <ele>484</ele>
        <time>2015-04-16T12:11:37Z</time>
      </trkpt>
      <trkpt lat="46.14781" lon="2.45519">
        <ele>484</ele>
        <time>2015-04-16T12:11:40Z</time>
      </trkpt>
      <trkpt lat="46.14778" lon="2.45519">
        <ele>484</ele>
        <time>2015-04-16T12:11:42Z</time>
      </trkpt>
      <trkpt lat="46.14776" lon="2.4552">
        <ele>484</ele>
        <time>2015-04-16T12:11:44Z</time>
      </trkpt>
      <trkpt lat="46.14774" lon="2.4552">
        <ele>484</ele>
        <time>2015-04-16T12:11:46Z</time>
      </trkpt>
      <trkpt lat="46.14772" lon="2.4552">
        <ele>483</ele>
        <time>2015-04-16T12:11:48Z</time>
      </trkpt>
      <trkpt lat="46.14769" lon="2.45521">
        <ele>483</ele>
        <time>2015-04-16T12:11:50Z</time>
      </trkpt>
      <trkpt lat="46.14766" lon="2.45521">
        <ele>483</ele>
        <time>2015-04-16T12:11:52Z</time>
      </trkpt>
      <trkpt lat="46.14764" lon="2.45522">
        <ele>483</ele>
        <time>2015-04-16T12:11:54Z</time>
      </trkpt>
      <trkpt lat="46.14761" lon="2.45522">
        <ele>483</ele>
        <time>2015-04-16T12:11:56Z</time>
      </trkpt>
      <trkpt lat="46.14759" lon="2.45523">
        <ele>483</ele>
        <time>2015-04-16T12:11:58Z</time>
      </trkpt>
      <trkpt lat="46.14756" lon="2.45524">
        <ele>483</ele>
        <time>2015-04-16T12:12:00Z</time>
      </trkpt>
      <trkpt lat="46.14753" lon="2.45524">
        <ele>483</ele>
        <time>2015-04-16T12:12:02Z</time>
      </trkpt>
      <trkpt lat="46.14751" lon="2.45524">
        <ele>483</ele>
        <time>2015-04-16T12:12:04Z</time>
      </trkpt>
      <trkpt lat="46.14748" lon="2.45526">
        <ele>483</ele>
        <time>2015-04-16T12:12:06Z</time>
      </trkpt>
      <trkpt lat="46.14745" lon="2.45526">
        <ele>483</ele>
        <time>2015-04-16T12:12:08Z</time>
      </trkpt>
      <trkpt lat="46.14742" lon="2.45527">
        <ele>483</ele>
        <time>2015-04-16T12:12:10Z</time>
      </trkpt>
      <trkpt lat="46.14739" lon="2.45528">
        <ele>482</ele>
        <time>2015-04-16T12:12:12Z</time>
      </trkpt>
      <trkpt lat="46.14737" lon="2.45529">
        <ele>482</ele>
        <time>2015-04-16T12:12:14Z</time>
      </trkpt>
      <trkpt lat="46.14735" lon="2.4553">
        <ele>481</ele>
        <time>2015-04-16T12:12:16Z</time>
      </trkpt>
      <trkpt lat="46.14732" lon="2.45531">
        <ele>480</ele>
        <time>2015-04-16T12:12:18Z</time>
      </trkpt>
      <trkpt lat="46.14729" lon="2.45532">
        <ele>480</ele>
        <time>2015-04-16T12:12:20Z</time>
      </trkpt>
      <trkpt lat="46.14727" lon="2.45532">
        <ele>479</ele>
        <time>2015-04-16T12:12:22Z</time>
      </trkpt>
      <trkpt lat="46.14724" lon="2.45533">
        <ele>479</ele>
        <time>2015-04-16T12:12:24Z</time>
      </trkpt>
      <trkpt lat="46.14722" lon="2.45533">
        <ele>478</ele>
        <time>2015-04-16T12:12:26Z</time>
      </trkpt>
      <trkpt lat="46.14719" lon="2.45534">
        <ele>478</ele>
        <time>2015-04-16T12:12:28Z</time>
      </trkpt>
      <trkpt lat="46.14716" lon="2.45535">
        <ele>478</ele>
        <time>2015-04-16T12:12:30Z</time>
      </trkpt>
      <trkpt lat="46.14713" lon="2.45536">
        <ele>478</ele>
        <time>2015-04-16T12:12:32Z</time>
      </trkpt>
      <trkpt lat="46.1471" lon="2.45536">
        <ele>478</ele>
        <time>2015-04-16T12:12:34Z</time>
      </trkpt>
      <trkpt lat="46.14707" lon="2.45537">
        <ele>478</ele>
        <time>2015-04-16T12:12:36Z</time>
      </trkpt>
      <trkpt lat="46.14704" lon="2.45537">
        <ele>478</ele>
        <time>2015-04-16T12:12:38Z</time>
      </trkpt>
      <trkpt lat="46.14701" lon="2.45538">
        <ele>478</ele>
        <time>2015-04-16T12:12:40Z</time>
      </trkpt>
      <trkpt lat="46.14698" lon="2.45539">
        <ele>478</ele>
        <time>2015-04-16T12:12:42Z</time>
      </trkpt>
      <trkpt lat="46.14695" lon="2.45539">
        <ele>478</ele>
        <time>2015-04-16T12:12:44Z</time>
      </trkpt>
      <trkpt lat="46.14692" lon="2.4554">
        <ele>478</ele>
        <time>2015-04-16T12:12:46Z</time>
      </trkpt>
      <trkpt lat="46.1469" lon="2.4554">
        <ele>478</ele>
        <time>2015-04-16T12:12:48Z</time>
      </trkpt>
      <trkpt lat="46.14687" lon="2.45541">
        <ele>478</ele>
        <time>2015-04-16T12:12:50Z</time>
      </trkpt>
      <trkpt lat="46.14683" lon="2.45541">
        <ele>478</ele>
        <time>2015-04-16T12:12:52Z</time>
      </trkpt>
      <trkpt lat="46.14681" lon="2.45541">
        <ele>478</ele>
        <time>2015-04-16T12:12:54Z</time>
      </trkpt>
      <trkpt lat="46.14678" lon="2.45542">
        <ele>478</ele>
        <time>2015-04-16T12:12:56Z</time>
      </trkpt>
      <trkpt lat="46.14674" lon="2.45543">
        <ele>478</ele>
        <time>2015-04-16T12:12:59Z</time>
      </trkpt>
      <trkpt lat="46.14672" lon="2.45543">
        <ele>478</ele>
        <time>2015-04-16T12:13:01Z</time>
      </trkpt>
      <trkpt lat="46.14669" lon="2.45543">
        <ele>478</ele>
        <time>2015-04-16T12:13:03Z</time>
      </trkpt>
      <trkpt lat="46.14666" lon="2.45544">
        <ele>478</ele>
        <time>2015-04-16T12:13:05Z</time>
      </trkpt>
      <trkpt lat="46.14664" lon="2.45545">
        <ele>478</ele>
        <time>2015-04-16T12:13:07Z</time>
      </trkpt>
      <trkpt lat="46.14662" lon="2.45545">
        <ele>478</ele>
        <time>2015-04-16T12:13:09Z</time>
      </trkpt>
      <trkpt lat="46.14659" lon="2.45546">
        <ele>478</ele>
        <time>2015-04-16T12:13:11Z</time>
      </trkpt>
      <trkpt lat="46.14656" lon="2.45546">
        <ele>478</ele>
        <time>2015-04-16T12:13:13Z</time>
      </trkpt>
      <trkpt lat="46.14654" lon="2.45546">
        <ele>479</ele>
        <time>2015-04-16T12:13:15Z</time>
      </trkpt>
      <trkpt lat="46.14651" lon="2.45546">
        <ele>479</ele>
        <time>2015-04-16T12:13:17Z</time>
      </trkpt>
      <trkpt lat="46.14648" lon="2.45547">
        <ele>479</ele>
        <time>2015-04-16T12:13:19Z</time>
      </trkpt>
      <trkpt lat="46.14646" lon="2.45547">
        <ele>479</ele>
        <time>2015-04-16T12:13:21Z</time>
      </trkpt>
      <trkpt lat="46.14643" lon="2.45548">
        <ele>480</ele>
        <time>2015-04-16T12:13:23Z</time>
      </trkpt>
      <trkpt lat="46.1464" lon="2.45548">
        <ele>480</ele>
        <time>2015-04-16T12:13:25Z</time>
      </trkpt>
      <trkpt lat="46.14637" lon="2.45548">
        <ele>480</ele>
        <time>2015-04-16T12:13:27Z</time>
      </trkpt>
      <trkpt lat="46.14634" lon="2.45549">
        <ele>480</ele>
        <time>2015-04-16T12:13:29Z</time>
      </trkpt>
      <trkpt lat="46.14632" lon="2.45548">
        <ele>480</ele>
        <time>2015-04-16T12:13:31Z</time>
      </trkpt>
      <trkpt lat="46.14628" lon="2.45548">
        <ele>480</ele>
        <time>2015-04-16T12:13:33Z</time>
      </trkpt>
      <trkpt lat="46.14626" lon="2.45548">
        <ele>480</ele>
        <time>2015-04-16T12:13:35Z</time>
      </trkpt>
      <trkpt lat="46.14623" lon="2.45548">
        <ele>481</ele>
        <time>2015-04-16T12:13:37Z</time>
      </trkpt>
      <trkpt lat="46.1462" lon="2.45547">
        <ele>481</ele>
        <time>2015-04-16T12:13:39Z</time>
      </trkpt>
      <trkpt lat="46.14617" lon="2.45548">
        <ele>481</ele>
        <time>2015-04-16T12:13:41Z</time>
      </trkpt>
      <trkpt lat="46.14615" lon="2.45548">
        <ele>481</ele>
        <time>2015-04-16T12:13:43Z</time>
      </trkpt>
      <trkpt lat="46.14612" lon="2.4555">
        <ele>481</ele>
        <time>2015-04-16T12:13:45Z</time>
      </trkpt>
      <trkpt lat="46.14609" lon="2.4555">
        <ele>481</ele>
        <time>2015-04-16T12:13:47Z</time>
      </trkpt>
      <trkpt lat="46.14606" lon="2.45551">
        <ele>481</ele>
        <time>2015-04-16T12:13:49Z</time>
      </trkpt>
      <trkpt lat="46.14603" lon="2.45552">
        <ele>481</ele>
        <time>2015-04-16T12:13:51Z</time>
      </trkpt>
      <trkpt lat="46.14601" lon="2.45553">
        <ele>481</ele>
        <time>2015-04-16T12:13:53Z</time>
      </trkpt>
      <trkpt lat="46.14598" lon="2.45554">
        <ele>481</ele>
        <time>2015-04-16T12:13:55Z</time>
      </trkpt>
      <trkpt lat="46.14595" lon="2.45556">
        <ele>481</ele>
        <time>2015-04-16T12:13:57Z</time>
      </trkpt>
      <trkpt lat="46.14592" lon="2.45557">
        <ele>481</ele>
        <time>2015-04-16T12:13:59Z</time>
      </trkpt>
      <trkpt lat="46.14589" lon="2.45558">
        <ele>481</ele>
        <time>2015-04-16T12:14:01Z</time>
      </trkpt>
      <trkpt lat="46.14585" lon="2.45559">
        <ele>481</ele>
        <time>2015-04-16T12:14:03Z</time>
      </trkpt>
      <trkpt lat="46.14583" lon="2.4556">
        <ele>481</ele>
        <time>2015-04-16T12:14:05Z</time>
      </trkpt>
      <trkpt lat="46.1458" lon="2.45561">
        <ele>481</ele>
        <time>2015-04-16T12:14:07Z</time>
      </trkpt>
      <trkpt lat="46.14577" lon="2.45563">
        <ele>481</ele>
        <time>2015-04-16T12:14:09Z</time>
      </trkpt>
      <trkpt lat="46.14574" lon="2.45564">
        <ele>481</ele>
        <time>2015-04-16T12:14:11Z</time>
      </trkpt>
      <trkpt lat="46.14571" lon="2.45565">
        <ele>481</ele>
        <time>2015-04-16T12:14:13Z</time>
      </trkpt>
      <trkpt lat="46.14568" lon="2.45567">
        <ele>481</ele>
        <time>2015-04-16T12:14:15Z</time>
      </trkpt>
      <trkpt lat="46.14565" lon="2.45568">
        <ele>481</ele>
        <time>2015-04-16T12:14:17Z</time>
      </trkpt>
      <trkpt lat="46.14561" lon="2.45569">
        <ele>481</ele>
        <time>2015-04-16T12:14:19Z</time>
      </trkpt>
      <trkpt lat="46.14558" lon="2.4557">
        <ele>481</ele>
        <time>2015-04-16T12:14:21Z</time>
      </trkpt>
      <trkpt lat="46.14555" lon="2.4557">
        <ele>481</ele>
        <time>2015-04-16T12:14:23Z</time>
      </trkpt>
      <trkpt lat="46.14553" lon="2.4557">
        <ele>481</ele>
        <time>2015-04-16T12:14:25Z</time>
      </trkpt>
      <trkpt lat="46.1455" lon="2.45571">
        <ele>481</ele>
        <time>2015-04-16T12:14:27Z</time>
      </trkpt>
      <trkpt lat="46.14547" lon="2.45572">
        <ele>481</ele>
        <time>2015-04-16T12:14:29Z</time>
      </trkpt>
      <trkpt lat="46.14545" lon="2.45573">
        <ele>481</ele>
        <time>2015-04-16T12:14:31Z</time>
      </trkpt>
      <trkpt lat="46.14542" lon="2.45574">
        <ele>481</ele>
        <time>2015-04-16T12:14:33Z</time>
      </trkpt>
      <trkpt lat="46.14539" lon="2.45575">
        <ele>481</ele>
        <time>2015-04-16T12:14:35Z</time>
      </trkpt>
      <trkpt lat="46.14538" lon="2.45575">
        <ele>481</ele>
        <time>2015-04-16T12:14:37Z</time>
      </trkpt>
      <trkpt lat="46.14526" lon="2.45578">
        <ele>483</ele>
        <time>2015-04-16T12:14:43Z</time>
      </trkpt>
      <trkpt lat="46.14524" lon="2.45578">
        <ele>483</ele>
        <time>2015-04-16T12:14:45Z</time>
      </trkpt>
      <trkpt lat="46.14521" lon="2.4558">
        <ele>483</ele>
        <time>2015-04-16T12:14:47Z</time>
      </trkpt>
      <trkpt lat="46.14519" lon="2.45581">
        <ele>483</ele>
        <time>2015-04-16T12:14:49Z</time>
      </trkpt>
      <trkpt lat="46.14516" lon="2.45582">
        <ele>483</ele>
        <time>2015-04-16T12:14:51Z</time>
      </trkpt>
      <trkpt lat="46.14513" lon="2.45582">
        <ele>483</ele>
        <time>2015-04-16T12:14:53Z</time>
      </trkpt>
      <trkpt lat="46.1451" lon="2.45583">
        <ele>483</ele>
        <time>2015-04-16T12:14:55Z</time>
      </trkpt>
      <trkpt lat="46.14507" lon="2.45584">
        <ele>483</ele>
        <time>2015-04-16T12:14:57Z</time>
      </trkpt>
      <trkpt lat="46.14504" lon="2.45585">
        <ele>483</ele>
        <time>2015-04-16T12:14:59Z</time>
      </trkpt>
      <trkpt lat="46.14501" lon="2.45585">
        <ele>483</ele>
        <time>2015-04-16T12:15:01Z</time>
      </trkpt>
      <trkpt lat="46.14498" lon="2.45586">
        <ele>483</ele>
        <time>2015-04-16T12:15:03Z</time>
      </trkpt>
      <trkpt lat="46.14495" lon="2.45587">
        <ele>483</ele>
        <time>2015-04-16T12:15:05Z</time>
      </trkpt>
      <trkpt lat="46.14492" lon="2.45588">
        <ele>483</ele>
        <time>2015-04-16T12:15:07Z</time>
      </trkpt>
      <trkpt lat="46.14489" lon="2.45588">
        <ele>483</ele>
        <time>2015-04-16T12:15:09Z</time>
      </trkpt>
      <trkpt lat="46.14487" lon="2.45589">
        <ele>483</ele>
        <time>2015-04-16T12:15:11Z</time>
      </trkpt>
      <trkpt lat="46.14484" lon="2.4559">
        <ele>483</ele>
        <time>2015-04-16T12:15:13Z</time>
      </trkpt>
      <trkpt lat="46.14481" lon="2.45591">
        <ele>483</ele>
        <time>2015-04-16T12:15:15Z</time>
      </trkpt>
      <trkpt lat="46.14479" lon="2.4559">
        <ele>483</ele>
        <time>2015-04-16T12:15:17Z</time>
      </trkpt>
      <trkpt lat="46.14476" lon="2.45589">
        <ele>483</ele>
        <time>2015-04-16T12:15:19Z</time>
      </trkpt>
      <trkpt lat="46.14474" lon="2.45586">
        <ele>483</ele>
        <time>2015-04-16T12:15:21Z</time>
      </trkpt>
      <trkpt lat="46.14473" lon="2.45582">
        <ele>483</ele>
        <time>2015-04-16T12:15:23Z</time>
      </trkpt>
      <trkpt lat="46.14473" lon="2.45578">
        <ele>483</ele>
        <time>2015-04-16T12:15:25Z</time>
      </trkpt>
      <trkpt lat="46.14472" lon="2.45573">
        <ele>483</ele>
        <time>2015-04-16T12:15:27Z</time>
      </trkpt>
      <trkpt lat="46.14472" lon="2.45568">
        <ele>483</ele>
        <time>2015-04-16T12:15:29Z</time>
      </trkpt>
      <trkpt lat="46.14471" lon="2.45564">
        <ele>483</ele>
        <time>2015-04-16T12:15:31Z</time>
      </trkpt>
      <trkpt lat="46.14471" lon="2.4556">
        <ele>483</ele>
        <time>2015-04-16T12:15:33Z</time>
      </trkpt>
      <trkpt lat="46.1447" lon="2.45555">
        <ele>483</ele>
        <time>2015-04-16T12:15:35Z</time>
      </trkpt>
      <trkpt lat="46.14469" lon="2.45551">
        <ele>483</ele>
        <time>2015-04-16T12:15:37Z</time>
      </trkpt>
      <trkpt lat="46.14468" lon="2.45547">
        <ele>483</ele>
        <time>2015-04-16T12:15:39Z</time>
      </trkpt>
      <trkpt lat="46.14467" lon="2.45543">
        <ele>482</ele>
        <time>2015-04-16T12:15:41Z</time>
      </trkpt>
      <trkpt lat="46.14466" lon="2.45539">
        <ele>482</ele>
        <time>2015-04-16T12:15:43Z</time>
      </trkpt>
      <trkpt lat="46.14465" lon="2.45535">
        <ele>481</ele>
        <time>2015-04-16T12:15:45Z</time>
      </trkpt>
      <trkpt lat="46.14465" lon="2.45531">
        <ele>481</ele>
        <time>2015-04-16T12:15:47Z</time>
      </trkpt>
      <trkpt lat="46.14464" lon="2.45527">
        <ele>481</ele>
        <time>2015-04-16T12:15:49Z</time>
      </trkpt>
      <trkpt lat="46.14463" lon="2.45523">
        <ele>481</ele>
        <time>2015-04-16T12:15:51Z</time>
      </trkpt>
      <trkpt lat="46.14462" lon="2.45518">
        <ele>480</ele>
        <time>2015-04-16T12:15:53Z</time>
      </trkpt>
      <trkpt lat="46.14461" lon="2.45514">
        <ele>480</ele>
        <time>2015-04-16T12:15:55Z</time>
      </trkpt>
      <trkpt lat="46.1446" lon="2.4551">
        <ele>480</ele>
        <time>2015-04-16T12:15:57Z</time>
      </trkpt>
      <trkpt lat="46.1446" lon="2.45506">
        <ele>480</ele>
        <time>2015-04-16T12:15:59Z</time>
      </trkpt>
      <trkpt lat="46.14459" lon="2.45502">
        <ele>479</ele>
        <time>2015-04-16T12:16:01Z</time>
      </trkpt>
      <trkpt lat="46.14458" lon="2.45497">
        <ele>479</ele>
        <time>2015-04-16T12:16:03Z</time>
      </trkpt>
      <trkpt lat="46.14457" lon="2.45494">
        <ele>479</ele>
        <time>2015-04-16T12:16:05Z</time>
      </trkpt>
      <trkpt lat="46.14456" lon="2.4549">
        <ele>479</ele>
        <time>2015-04-16T12:16:07Z</time>
      </trkpt>
      <trkpt lat="46.14455" lon="2.45486">
        <ele>478</ele>
        <time>2015-04-16T12:16:09Z</time>
      </trkpt>
      <trkpt lat="46.14454" lon="2.45482">
        <ele>478</ele>
        <time>2015-04-16T12:16:11Z</time>
      </trkpt>
      <trkpt lat="46.14453" lon="2.45478">
        <ele>477</ele>
        <time>2015-04-16T12:16:13Z</time>
      </trkpt>
      <trkpt lat="46.14452" lon="2.45474">
        <ele>477</ele>
        <time>2015-04-16T12:16:15Z</time>
      </trkpt>
      <trkpt lat="46.14451" lon="2.4547">
        <ele>477</ele>
        <time>2015-04-16T12:16:17Z</time>
      </trkpt>
      <trkpt lat="46.14449" lon="2.45466">
        <ele>477</ele>
        <time>2015-04-16T12:16:19Z</time>
      </trkpt>
      <trkpt lat="46.14448" lon="2.45463">
        <ele>476</ele>
        <time>2015-04-16T12:16:21Z</time>
      </trkpt>
      <trkpt lat="46.14447" lon="2.45459">
        <ele>476</ele>
        <time>2015-04-16T12:16:23Z</time>
      </trkpt>
      <trkpt lat="46.14445" lon="2.45456">
        <ele>476</ele>
        <time>2015-04-16T12:16:25Z</time>
      </trkpt>
      <trkpt lat="46.14444" lon="2.45452">
        <ele>476</ele>
        <time>2015-04-16T12:16:27Z</time>
      </trkpt>
      <trkpt lat="46.14441" lon="2.45449">
        <ele>476</ele>
        <time>2015-04-16T12:16:29Z</time>
      </trkpt>
      <trkpt lat="46.14439" lon="2.45446">
        <ele>476</ele>
        <time>2015-04-16T12:16:31Z</time>
      </trkpt>
      <trkpt lat="46.14437" lon="2.45443">
        <ele>476</ele>
        <time>2015-04-16T12:16:33Z</time>
      </trkpt>
      <trkpt lat="46.14434" lon="2.45439">
        <ele>476</ele>
        <time>2015-04-16T12:16:36Z</time>
      </trkpt>
      <trkpt lat="46.14432" lon="2.45436">
        <ele>476</ele>
        <time>2015-04-16T12:16:38Z</time>
      </trkpt>
      <trkpt lat="46.14431" lon="2.45434">
        <ele>476</ele>
        <time>2015-04-16T12:16:40Z</time>
      </trkpt>
      <trkpt lat="46.14431" lon="2.45431">
        <ele>476</ele>
        <time>2015-04-16T12:16:42Z</time>
      </trkpt>
      <trkpt lat="46.14431" lon="2.45428">
        <ele>476</ele>
        <time>2015-04-16T12:16:44Z</time>
      </trkpt>
      <trkpt lat="46.14432" lon="2.45427">
        <ele>476</ele>
        <time>2015-04-16T12:16:47Z</time>
      </trkpt>
      <trkpt lat="46.14434" lon="2.45428">
        <ele>476</ele>
        <time>2015-04-16T12:16:49Z</time>
      </trkpt>
      <trkpt lat="46.14437" lon="2.45428">
        <ele>476</ele>
        <time>2015-04-16T12:16:51Z</time>
      </trkpt>
      <trkpt lat="46.1444" lon="2.45428">
        <ele>476</ele>
        <time>2015-04-16T12:16:53Z</time>
      </trkpt>
      <trkpt lat="46.14442" lon="2.45427">
        <ele>476</ele>
        <time>2015-04-16T12:16:55Z</time>
      </trkpt>
      <trkpt lat="46.14445" lon="2.45426">
        <ele>476</ele>
        <time>2015-04-16T12:16:57Z</time>
      </trkpt>
      <trkpt lat="46.14447" lon="2.45426">
        <ele>476</ele>
        <time>2015-04-16T12:16:59Z</time>
      </trkpt>
      <trkpt lat="46.1445" lon="2.45425">
        <ele>476</ele>
        <time>2015-04-16T12:17:01Z</time>
      </trkpt>
      <trkpt lat="46.14452" lon="2.45424">
        <ele>476</ele>
        <time>2015-04-16T12:17:03Z</time>
      </trkpt>
      <trkpt lat="46.14455" lon="2.45423">
        <ele>476</ele>
        <time>2015-04-16T12:17:05Z</time>
      </trkpt>
      <trkpt lat="46.14458" lon="2.45423">
        <ele>476</ele>
        <time>2015-04-16T12:17:07Z</time>
      </trkpt>
      <trkpt lat="46.1446" lon="2.45422">
        <ele>476</ele>
        <time>2015-04-16T12:17:09Z</time>
      </trkpt>
      <trkpt lat="46.14463" lon="2.45421">
        <ele>476</ele>
        <time>2015-04-16T12:17:11Z</time>
      </trkpt>
      <trkpt lat="46.14466" lon="2.45421">
        <ele>476</ele>
        <time>2015-04-16T12:17:13Z</time>
      </trkpt>
      <trkpt lat="46.14469" lon="2.45421">
        <ele>476</ele>
        <time>2015-04-16T12:17:15Z</time>
      </trkpt>
      <trkpt lat="46.14472" lon="2.4542">
        <ele>476</ele>
        <time>2015-04-16T12:17:17Z</time>
      </trkpt>
      <trkpt lat="46.14474" lon="2.45419">
        <ele>476</ele>
        <time>2015-04-16T12:17:19Z</time>
      </trkpt>
      <trkpt lat="46.14477" lon="2.45419">
        <ele>476</ele>
        <time>2015-04-16T12:17:21Z</time>
      </trkpt>
      <trkpt lat="46.1448" lon="2.45418">
        <ele>476</ele>
        <time>2015-04-16T12:17:23Z</time>
      </trkpt>
      <trkpt lat="46.14483" lon="2.45417">
        <ele>476</ele>
        <time>2015-04-16T12:17:25Z</time>
      </trkpt>
      <trkpt lat="46.14486" lon="2.45416">
        <ele>475</ele>
        <time>2015-04-16T12:17:27Z</time>
      </trkpt>
      <trkpt lat="46.14489" lon="2.45415">
        <ele>475</ele>
        <time>2015-04-16T12:17:29Z</time>
      </trkpt>
      <trkpt lat="46.14492" lon="2.45414">
        <ele>475</ele>
        <time>2015-04-16T12:17:31Z</time>
      </trkpt>
      <trkpt lat="46.14495" lon="2.45413">
        <ele>475</ele>
        <time>2015-04-16T12:17:33Z</time>
      </trkpt>
      <trkpt lat="46.14497" lon="2.45412">
        <ele>474</ele>
        <time>2015-04-16T12:17:35Z</time>
      </trkpt>
      <trkpt lat="46.145" lon="2.4541">
        <ele>474</ele>
        <time>2015-04-16T12:17:37Z</time>
      </trkpt>
      <trkpt lat="46.14503" lon="2.45408">
        <ele>474</ele>
        <time>2015-04-16T12:17:39Z</time>
      </trkpt>
      <trkpt lat="46.14505" lon="2.45405">
        <ele>474</ele>
        <time>2015-04-16T12:17:41Z</time>
      </trkpt>
      <trkpt lat="46.14507" lon="2.45403">
        <ele>473</ele>
        <time>2015-04-16T12:17:43Z</time>
      </trkpt>
      <trkpt lat="46.14509" lon="2.45401">
        <ele>473</ele>
        <time>2015-04-16T12:17:45Z</time>
      </trkpt>
      <trkpt lat="46.14511" lon="2.45398">
        <ele>473</ele>
        <time>2015-04-16T12:17:47Z</time>
      </trkpt>
      <trkpt lat="46.14513" lon="2.45395">
        <ele>473</ele>
        <time>2015-04-16T12:17:49Z</time>
      </trkpt>
      <trkpt lat="46.14516" lon="2.45391">
        <ele>473</ele>
        <time>2015-04-16T12:17:52Z</time>
      </trkpt>
      <trkpt lat="46.14518" lon="2.45387">
        <ele>472</ele>
        <time>2015-04-16T12:17:54Z</time>
      </trkpt>
      <trkpt lat="46.14521" lon="2.45383">
        <ele>472</ele>
        <time>2015-04-16T12:17:57Z</time>
      </trkpt>
      <trkpt lat="46.14523" lon="2.4538">
        <ele>472</ele>
        <time>2015-04-16T12:17:59Z</time>
      </trkpt>
      <trkpt lat="46.14526" lon="2.45378">
        <ele>472</ele>
        <time>2015-04-16T12:18:01Z</time>
      </trkpt>
      <trkpt lat="46.14528" lon="2.45375">
        <ele>471</ele>
        <time>2015-04-16T12:18:03Z</time>
      </trkpt>
      <trkpt lat="46.14529" lon="2.45372">
        <ele>471</ele>
        <time>2015-04-16T12:18:05Z</time>
      </trkpt>
      <trkpt lat="46.14531" lon="2.45369">
        <ele>471</ele>
        <time>2015-04-16T12:18:07Z</time>
      </trkpt>
      <trkpt lat="46.14534" lon="2.45366">
        <ele>471</ele>
        <time>2015-04-16T12:18:09Z</time>
      </trkpt>
      <trkpt lat="46.14537" lon="2.45364">
        <ele>470</ele>
        <time>2015-04-16T12:18:11Z</time>
      </trkpt>
      <trkpt lat="46.14539" lon="2.45362">
        <ele>470</ele>
        <time>2015-04-16T12:18:13Z</time>
      </trkpt>
      <trkpt lat="46.14541" lon="2.4536">
        <ele>470</ele>
        <time>2015-04-16T12:18:15Z</time>
      </trkpt>
      <trkpt lat="46.14542" lon="2.45357">
        <ele>470</ele>
        <time>2015-04-16T12:18:17Z</time>
      </trkpt>
      <trkpt lat="46.14544" lon="2.45354">
        <ele>469</ele>
        <time>2015-04-16T12:18:19Z</time>
      </trkpt>
      <trkpt lat="46.14546" lon="2.45351">
        <ele>469</ele>
        <time>2015-04-16T12:18:21Z</time>
      </trkpt>
      <trkpt lat="46.14548" lon="2.45347">
        <ele>469</ele>
        <time>2015-04-16T12:18:23Z</time>
      </trkpt>
      <trkpt lat="46.14551" lon="2.45345">
        <ele>469</ele>
        <time>2015-04-16T12:18:25Z</time>
      </trkpt>
      <trkpt lat="46.14553" lon="2.45342">
        <ele>469</ele>
        <time>2015-04-16T12:18:27Z</time>
      </trkpt>
      <trkpt lat="46.14555" lon="2.45337">
        <ele>469</ele>
        <time>2015-04-16T12:18:30Z</time>
      </trkpt>
      <trkpt lat="46.14555" lon="2.45335">
        <ele>468</ele>
        <time>2015-04-16T12:18:32Z</time>
      </trkpt>
      <trkpt lat="46.14557" lon="2.45331">
        <ele>468</ele>
        <time>2015-04-16T12:18:34Z</time>
      </trkpt>
      <trkpt lat="46.14559" lon="2.45328">
        <ele>467</ele>
        <time>2015-04-16T12:18:36Z</time>
      </trkpt>
      <trkpt lat="46.14561" lon="2.45325">
        <ele>467</ele>
        <time>2015-04-16T12:18:38Z</time>
      </trkpt>
      <trkpt lat="46.14563" lon="2.45322">
        <ele>467</ele>
        <time>2015-04-16T12:18:40Z</time>
      </trkpt>
      <trkpt lat="46.14565" lon="2.45319">
        <ele>467</ele>
        <time>2015-04-16T12:18:42Z</time>
      </trkpt>
      <trkpt lat="46.14567" lon="2.45315">
        <ele>467</ele>
        <time>2015-04-16T12:18:44Z</time>
      </trkpt>
      <trkpt lat="46.14568" lon="2.4531">
        <ele>467</ele>
        <time>2015-04-16T12:18:46Z</time>
      </trkpt>
      <trkpt lat="46.14569" lon="2.45306">
        <ele>467</ele>
        <time>2015-04-16T12:18:48Z</time>
      </trkpt>
      <trkpt lat="46.14569" lon="2.45301">
        <ele>467</ele>
        <time>2015-04-16T12:18:50Z</time>
      </trkpt>
      <trkpt lat="46.14568" lon="2.45296">
        <ele>467</ele>
        <time>2015-04-16T12:18:52Z</time>
      </trkpt>
      <trkpt lat="46.14568" lon="2.45292">
        <ele>467</ele>
        <time>2015-04-16T12:18:54Z</time>
      </trkpt>
      <trkpt lat="46.14567" lon="2.45288">
        <ele>467</ele>
        <time>2015-04-16T12:18:56Z</time>
      </trkpt>
      <trkpt lat="46.14566" lon="2.45283">
        <ele>467</ele>
        <time>2015-04-16T12:18:59Z</time>
      </trkpt>
      <trkpt lat="46.14565" lon="2.45279">
        <ele>467</ele>
        <time>2015-04-16T12:19:01Z</time>
      </trkpt>
      <trkpt lat="46.14563" lon="2.45276">
        <ele>467</ele>
        <time>2015-04-16T12:19:03Z</time>
      </trkpt>
      <trkpt lat="46.14562" lon="2.45272">
        <ele>467</ele>
        <time>2015-04-16T12:19:05Z</time>
      </trkpt>
      <trkpt lat="46.14561" lon="2.45268">
        <ele>467</ele>
        <time>2015-04-16T12:19:07Z</time>
      </trkpt>
      <trkpt lat="46.1456" lon="2.45265">
        <ele>467</ele>
        <time>2015-04-16T12:19:09Z</time>
      </trkpt>
      <trkpt lat="46.14558" lon="2.45261">
        <ele>467</ele>
        <time>2015-04-16T12:19:11Z</time>
      </trkpt>
      <trkpt lat="46.14557" lon="2.45258">
        <ele>467</ele>
        <time>2015-04-16T12:19:13Z</time>
      </trkpt>
      <trkpt lat="46.14556" lon="2.45254">
        <ele>467</ele>
        <time>2015-04-16T12:19:15Z</time>
      </trkpt>
      <trkpt lat="46.14555" lon="2.4525">
        <ele>467</ele>
        <time>2015-04-16T12:19:17Z</time>
      </trkpt>
      <trkpt lat="46.14554" lon="2.45246">
        <ele>467</ele>
        <time>2015-04-16T12:19:19Z</time>
      </trkpt>
      <trkpt lat="46.14552" lon="2.45242">
        <ele>467</ele>
        <time>2015-04-16T12:19:21Z</time>
      </trkpt>
      <trkpt lat="46.14551" lon="2.45238">
        <ele>467</ele>
        <time>2015-04-16T12:19:23Z</time>
      </trkpt>
      <trkpt lat="46.14549" lon="2.45233">
        <ele>467</ele>
        <time>2015-04-16T12:19:25Z</time>
      </trkpt>
      <trkpt lat="46.14548" lon="2.45229">
        <ele>468</ele>
        <time>2015-04-16T12:19:27Z</time>
      </trkpt>
      <trkpt lat="46.14547" lon="2.45221">
        <ele>468</ele>
        <time>2015-04-16T12:19:30Z</time>
      </trkpt>
      <trkpt lat="46.14546" lon="2.45218">
        <ele>468</ele>
        <time>2015-04-16T12:19:32Z</time>
      </trkpt>
      <trkpt lat="46.14545" lon="2.45215">
        <ele>468</ele>
        <time>2015-04-16T12:19:34Z</time>
      </trkpt>
      <trkpt lat="46.14544" lon="2.45212">
        <ele>468</ele>
        <time>2015-04-16T12:19:36Z</time>
      </trkpt>
      <trkpt lat="46.14542" lon="2.45208">
        <ele>468</ele>
        <time>2015-04-16T12:19:38Z</time>
      </trkpt>
      <trkpt lat="46.14541" lon="2.45205">
        <ele>468</ele>
        <time>2015-04-16T12:19:40Z</time>
      </trkpt>
      <trkpt lat="46.1454" lon="2.45201">
        <ele>468</ele>
        <time>2015-04-16T12:19:42Z</time>
      </trkpt>
      <trkpt lat="46.14538" lon="2.45198">
        <ele>468</ele>
        <time>2015-04-16T12:19:44Z</time>
      </trkpt>
      <trkpt lat="46.14537" lon="2.45194">
        <ele>468</ele>
        <time>2015-04-16T12:19:46Z</time>
      </trkpt>
      <trkpt lat="46.14536" lon="2.45191">
        <ele>468</ele>
        <time>2015-04-16T12:19:48Z</time>
      </trkpt>
      <trkpt lat="46.14534" lon="2.45187">
        <ele>468</ele>
        <time>2015-04-16T12:19:50Z</time>
      </trkpt>
      <trkpt lat="46.14533" lon="2.45183">
        <ele>468</ele>
        <time>2015-04-16T12:19:52Z</time>
      </trkpt>
      <trkpt lat="46.14531" lon="2.45179">
        <ele>468</ele>
        <time>2015-04-16T12:19:54Z</time>
      </trkpt>
      <trkpt lat="46.1453" lon="2.45175">
        <ele>468</ele>
        <time>2015-04-16T12:19:56Z</time>
      </trkpt>
      <trkpt lat="46.14528" lon="2.4517">
        <ele>468</ele>
        <time>2015-04-16T12:19:59Z</time>
      </trkpt>
      <trkpt lat="46.14527" lon="2.45166">
        <ele>468</ele>
        <time>2015-04-16T12:20:01Z</time>
      </trkpt>
      <trkpt lat="46.14525" lon="2.45162">
        <ele>468</ele>
        <time>2015-04-16T12:20:03Z</time>
      </trkpt>
      <trkpt lat="46.14524" lon="2.45158">
        <ele>468</ele>
        <time>2015-04-16T12:20:05Z</time>
      </trkpt>
      <trkpt lat="46.14522" lon="2.45154">
        <ele>468</ele>
        <time>2015-04-16T12:20:07Z</time>
      </trkpt>
      <trkpt lat="46.14521" lon="2.45151">
        <ele>468</ele>
        <time>2015-04-16T12:20:09Z</time>
      </trkpt>
      <trkpt lat="46.14519" lon="2.45147">
        <ele>468</ele>
        <time>2015-04-16T12:20:11Z</time>
      </trkpt>
      <trkpt lat="46.14518" lon="2.45144">
        <ele>468</ele>
        <time>2015-04-16T12:20:13Z</time>
      </trkpt>
      <trkpt lat="46.14516" lon="2.4514">
        <ele>468</ele>
        <time>2015-04-16T12:20:15Z</time>
      </trkpt>
      <trkpt lat="46.14515" lon="2.45137">
        <ele>468</ele>
        <time>2015-04-16T12:20:17Z</time>
      </trkpt>
      <trkpt lat="46.14513" lon="2.45134">
        <ele>468</ele>
        <time>2015-04-16T12:20:19Z</time>
      </trkpt>
      <trkpt lat="46.14511" lon="2.45131">
        <ele>468</ele>
        <time>2015-04-16T12:20:21Z</time>
      </trkpt>
      <trkpt lat="46.1451" lon="2.45127">
        <ele>468</ele>
        <time>2015-04-16T12:20:23Z</time>
      </trkpt>
      <trkpt lat="46.14508" lon="2.45124">
        <ele>468</ele>
        <time>2015-04-16T12:20:25Z</time>
      </trkpt>
      <trkpt lat="46.14506" lon="2.4512">
        <ele>468</ele>
        <time>2015-04-16T12:20:27Z</time>
      </trkpt>
      <trkpt lat="46.14505" lon="2.45116">
        <ele>468</ele>
        <time>2015-04-16T12:20:29Z</time>
      </trkpt>
      <trkpt lat="46.14503" lon="2.45112">
        <ele>468</ele>
        <time>2015-04-16T12:20:31Z</time>
      </trkpt>
      <trkpt lat="46.14501" lon="2.45108">
        <ele>468</ele>
        <time>2015-04-16T12:20:33Z</time>
      </trkpt>
      <trkpt lat="46.145" lon="2.45105">
        <ele>468</ele>
        <time>2015-04-16T12:20:35Z</time>
      </trkpt>
      <trkpt lat="46.14497" lon="2.45099">
        <ele>468</ele>
        <time>2015-04-16T12:20:38Z</time>
      </trkpt>
      <trkpt lat="46.14495" lon="2.45095">
        <ele>468</ele>
        <time>2015-04-16T12:20:40Z</time>
      </trkpt>
      <trkpt lat="46.14494" lon="2.45091">
        <ele>468</ele>
        <time>2015-04-16T12:20:42Z</time>
      </trkpt>
      <trkpt lat="46.14492" lon="2.45088">
        <ele>468</ele>
        <time>2015-04-16T12:20:44Z</time>
      </trkpt>
      <trkpt lat="46.1449" lon="2.45082">
        <ele>468</ele>
        <time>2015-04-16T12:20:47Z</time>
      </trkpt>
      <trkpt lat="46.14488" lon="2.45078">
        <ele>468</ele>
        <time>2015-04-16T12:20:49Z</time>
      </trkpt>
      <trkpt lat="46.14486" lon="2.45075">
        <ele>468</ele>
        <time>2015-04-16T12:20:51Z</time>
      </trkpt>
      <trkpt lat="46.14485" lon="2.45071">
        <ele>468</ele>
        <time>2015-04-16T12:20:53Z</time>
      </trkpt>
      <trkpt lat="46.14483" lon="2.45068">
        <ele>468</ele>
        <time>2015-04-16T12:20:55Z</time>
      </trkpt>
      <trkpt lat="46.14481" lon="2.45064">
        <ele>468</ele>
        <time>2015-04-16T12:20:57Z</time>
      </trkpt>
      <trkpt lat="46.14479" lon="2.4506">
        <ele>468</ele>
        <time>2015-04-16T12:20:59Z</time>
      </trkpt>
      <trkpt lat="46.14478" lon="2.45056">
        <ele>468</ele>
        <time>2015-04-16T12:21:01Z</time>
      </trkpt>
      <trkpt lat="46.14476" lon="2.45053">
        <ele>468</ele>
        <time>2015-04-16T12:21:03Z</time>
      </trkpt>
      <trkpt lat="46.14474" lon="2.45049">
        <ele>468</ele>
        <time>2015-04-16T12:21:05Z</time>
      </trkpt>
      <trkpt lat="46.14473" lon="2.45046">
        <ele>468</ele>
        <time>2015-04-16T12:21:07Z</time>
      </trkpt>
      <trkpt lat="46.14471" lon="2.45042">
        <ele>468</ele>
        <time>2015-04-16T12:21:09Z</time>
      </trkpt>
      <trkpt lat="46.1447" lon="2.45038">
        <ele>468</ele>
        <time>2015-04-16T12:21:11Z</time>
      </trkpt>
      <trkpt lat="46.14468" lon="2.45035">
        <ele>468</ele>
        <time>2015-04-16T12:21:13Z</time>
      </trkpt>
      <trkpt lat="46.14466" lon="2.45031">
        <ele>468</ele>
        <time>2015-04-16T12:21:15Z</time>
      </trkpt>
      <trkpt lat="46.14465" lon="2.45028">
        <ele>468</ele>
        <time>2015-04-16T12:21:17Z</time>
      </trkpt>
      <trkpt lat="46.14463" lon="2.45025">
        <ele>468</ele>
        <time>2015-04-16T12:21:19Z</time>
      </trkpt>
      <trkpt lat="46.14461" lon="2.45021">
        <ele>468</ele>
        <time>2015-04-16T12:21:21Z</time>
      </trkpt>
      <trkpt lat="46.14459" lon="2.45018">
        <ele>468</ele>
        <time>2015-04-16T12:21:23Z</time>
      </trkpt>
      <trkpt lat="46.14457" lon="2.45014">
        <ele>468</ele>
        <time>2015-04-16T12:21:25Z</time>
      </trkpt>
      <trkpt lat="46.14455" lon="2.45011">
        <ele>468</ele>
        <time>2015-04-16T12:21:27Z</time>
      </trkpt>
      <trkpt lat="46.14452" lon="2.45006">
        <ele>468</ele>
        <time>2015-04-16T12:21:30Z</time>
      </trkpt>
      <trkpt lat="46.14449" lon="2.45002">
        <ele>468</ele>
        <time>2015-04-16T12:21:33Z</time>
      </trkpt>
      <trkpt lat="46.14447" lon="2.44999">
        <ele>468</ele>
        <time>2015-04-16T12:21:35Z</time>
      </trkpt>
      <trkpt lat="46.14443" lon="2.44994">
        <ele>468</ele>
        <time>2015-04-16T12:21:38Z</time>
      </trkpt>
      <trkpt lat="46.14441" lon="2.44991">
        <ele>468</ele>
        <time>2015-04-16T12:21:40Z</time>
      </trkpt>
      <trkpt lat="46.14439" lon="2.44988">
        <ele>468</ele>
        <time>2015-04-16T12:21:42Z</time>
      </trkpt>
      <trkpt lat="46.14436" lon="2.44986">
        <ele>468</ele>
        <time>2015-04-16T12:21:44Z</time>
      </trkpt>
      <trkpt lat="46.14433" lon="2.44982">
        <ele>468</ele>
        <time>2015-04-16T12:21:47Z</time>
      </trkpt>
      <trkpt lat="46.1443" lon="2.44978">
        <ele>468</ele>
        <time>2015-04-16T12:21:49Z</time>
      </trkpt>
      <trkpt lat="46.14426" lon="2.44974">
        <ele>468</ele>
        <time>2015-04-16T12:21:52Z</time>
      </trkpt>
      <trkpt lat="46.14423" lon="2.4497">
        <ele>468</ele>
        <time>2015-04-16T12:21:55Z</time>
      </trkpt>
      <trkpt lat="46.1442" lon="2.44966">
        <ele>468</ele>
        <time>2015-04-16T12:21:58Z</time>
      </trkpt>
      <trkpt lat="46.14418" lon="2.44964">
        <ele>468</ele>
        <time>2015-04-16T12:22:00Z</time>
      </trkpt>
      <trkpt lat="46.14414" lon="2.4496">
        <ele>468</ele>
        <time>2015-04-16T12:22:03Z</time>
      </trkpt>
      <trkpt lat="46.14412" lon="2.44958">
        <ele>468</ele>
        <time>2015-04-16T12:22:05Z</time>
      </trkpt>
      <trkpt lat="46.14408" lon="2.44954">
        <ele>468</ele>
        <time>2015-04-16T12:22:08Z</time>
      </trkpt>
      <trkpt lat="46.14406" lon="2.44952">
        <ele>468</ele>
        <time>2015-04-16T12:22:10Z</time>
      </trkpt>
      <trkpt lat="46.14402" lon="2.44949">
        <ele>468</ele>
        <time>2015-04-16T12:22:13Z</time>
      </trkpt>
      <trkpt lat="46.144" lon="2.44947">
        <ele>468</ele>
        <time>2015-04-16T12:22:15Z</time>
      </trkpt>
      <trkpt lat="46.14395" lon="2.44943">
        <ele>468</ele>
        <time>2015-04-16T12:22:18Z</time>
      </trkpt>
      <trkpt lat="46.14392" lon="2.44942">
        <ele>468</ele>
        <time>2015-04-16T12:22:20Z</time>
      </trkpt>
      <trkpt lat="46.14388" lon="2.44939">
        <ele>468</ele>
        <time>2015-04-16T12:22:23Z</time>
      </trkpt>
      <trkpt lat="46.14385" lon="2.44937">
        <ele>468</ele>
        <time>2015-04-16T12:22:25Z</time>
      </trkpt>
      <trkpt lat="46.14381" lon="2.44936">
        <ele>468</ele>
        <time>2015-04-16T12:22:28Z</time>
      </trkpt>
      <trkpt lat="46.14378" lon="2.44935">
        <ele>468</ele>
        <time>2015-04-16T12:22:30Z</time>
      </trkpt>
      <trkpt lat="46.14373" lon="2.44934">
        <ele>468</ele>
        <time>2015-04-16T12:22:33Z</time>
      </trkpt>
      <trkpt lat="46.1437" lon="2.44933">
        <ele>468</ele>
        <time>2015-04-16T12:22:35Z</time>
      </trkpt>
      <trkpt lat="46.14366" lon="2.44931">
        <ele>468</ele>
        <time>2015-04-16T12:22:38Z</time>
      </trkpt>
      <trkpt lat="46.14363" lon="2.44929">
        <ele>468</ele>
        <time>2015-04-16T12:22:40Z</time>
      </trkpt>
      <trkpt lat="46.14358" lon="2.44924">
        <ele>468</ele>
        <time>2015-04-16T12:22:43Z</time>
      </trkpt>
      <trkpt lat="46.14356" lon="2.44921">
        <ele>468</ele>
        <time>2015-04-16T12:22:45Z</time>
      </trkpt>
      <trkpt lat="46.14352" lon="2.44917">
        <ele>468</ele>
        <time>2015-04-16T12:22:48Z</time>
      </trkpt>
      <trkpt lat="46.14349" lon="2.44915">
        <ele>468</ele>
        <time>2015-04-16T12:22:50Z</time>
      </trkpt>
      <trkpt lat="46.14345" lon="2.44911">
        <ele>468</ele>
        <time>2015-04-16T12:22:53Z</time>
      </trkpt>
      <trkpt lat="46.14343" lon="2.44909">
        <ele>468</ele>
        <time>2015-04-16T12:22:55Z</time>
      </trkpt>
      <trkpt lat="46.14339" lon="2.44905">
        <ele>468</ele>
        <time>2015-04-16T12:22:58Z</time>
      </trkpt>
      <trkpt lat="46.14337" lon="2.44903">
        <ele>468</ele>
        <time>2015-04-16T12:23:00Z</time>
      </trkpt>
      <trkpt lat="46.14332" lon="2.44899">
        <ele>468</ele>
        <time>2015-04-16T12:23:04Z</time>
      </trkpt>
      <trkpt lat="46.1433" lon="2.44897">
        <ele>468</ele>
        <time>2015-04-16T12:23:06Z</time>
      </trkpt>
      <trkpt lat="46.14328" lon="2.44894">
        <ele>468</ele>
        <time>2015-04-16T12:23:08Z</time>
      </trkpt>
      <trkpt lat="46.14325" lon="2.44892">
        <ele>468</ele>
        <time>2015-04-16T12:23:10Z</time>
      </trkpt>
      <trkpt lat="46.14322" lon="2.44888">
        <ele>468</ele>
        <time>2015-04-16T12:23:13Z</time>
      </trkpt>
      <trkpt lat="46.14319" lon="2.44886">
        <ele>468</ele>
        <time>2015-04-16T12:23:15Z</time>
      </trkpt>
      <trkpt lat="46.14315" lon="2.44883">
        <ele>468</ele>
        <time>2015-04-16T12:23:18Z</time>
      </trkpt>
      <trkpt lat="46.14313" lon="2.44881">
        <ele>468</ele>
        <time>2015-04-16T12:23:20Z</time>
      </trkpt>
      <trkpt lat="46.14309" lon="2.44877">
        <ele>468</ele>
        <time>2015-04-16T12:23:23Z</time>
      </trkpt>
      <trkpt lat="46.14307" lon="2.44875">
        <ele>468</ele>
        <time>2015-04-16T12:23:25Z</time>
      </trkpt>
      <trkpt lat="46.14303" lon="2.44872">
        <ele>468</ele>
        <time>2015-04-16T12:23:28Z</time>
      </trkpt>
      <trkpt lat="46.143" lon="2.44869">
        <ele>468</ele>
        <time>2015-04-16T12:23:30Z</time>
      </trkpt>
      <trkpt lat="46.14296" lon="2.44865">
        <ele>468</ele>
        <time>2015-04-16T12:23:33Z</time>
      </trkpt>
      <trkpt lat="46.14294" lon="2.44863">
        <ele>468</ele>
        <time>2015-04-16T12:23:35Z</time>
      </trkpt>
      <trkpt lat="46.1429" lon="2.44858">
        <ele>468</ele>
        <time>2015-04-16T12:23:38Z</time>
      </trkpt>
      <trkpt lat="46.14287" lon="2.44856">
        <ele>468</ele>
        <time>2015-04-16T12:23:40Z</time>
      </trkpt>
      <trkpt lat="46.14284" lon="2.44853">
        <ele>468</ele>
        <time>2015-04-16T12:23:43Z</time>
      </trkpt>
      <trkpt lat="46.14281" lon="2.44851">
        <ele>468</ele>
        <time>2015-04-16T12:23:45Z</time>
      </trkpt>
      <trkpt lat="46.14277" lon="2.44848">
        <ele>468</ele>
        <time>2015-04-16T12:23:48Z</time>
      </trkpt>
      <trkpt lat="46.14274" lon="2.44846">
        <ele>468</ele>
        <time>2015-04-16T12:23:50Z</time>
      </trkpt>
      <trkpt lat="46.1427" lon="2.44842">
        <ele>468</ele>
        <time>2015-04-16T12:23:53Z</time>
      </trkpt>
      <trkpt lat="46.14267" lon="2.44841">
        <ele>468</ele>
        <time>2015-04-16T12:23:55Z</time>
      </trkpt>
      <trkpt lat="46.14263" lon="2.44838">
        <ele>468</ele>
        <time>2015-04-16T12:23:58Z</time>
      </trkpt>
      <trkpt lat="46.1426" lon="2.44836">
        <ele>468</ele>
        <time>2015-04-16T12:24:00Z</time>
      </trkpt>
      <trkpt lat="46.14256" lon="2.44835">
        <ele>468</ele>
        <time>2015-04-16T12:24:03Z</time>
      </trkpt>
      <trkpt lat="46.14253" lon="2.44834">
        <ele>468</ele>
        <time>2015-04-16T12:24:05Z</time>
      </trkpt>
      <trkpt lat="46.14249" lon="2.44833">
        <ele>468</ele>
        <time>2015-04-16T12:24:08Z</time>
      </trkpt>
      <trkpt lat="46.14246" lon="2.44832">
        <ele>468</ele>
        <time>2015-04-16T12:24:10Z</time>
      </trkpt>
      <trkpt lat="46.14242" lon="2.44831">
        <ele>468</ele>
        <time>2015-04-16T12:24:13Z</time>
      </trkpt>
      <trkpt lat="46.14238" lon="2.44831">
        <ele>468</ele>
        <time>2015-04-16T12:24:15Z</time>
      </trkpt>
      <trkpt lat="46.14234" lon="2.4483">
        <ele>468</ele>
        <time>2015-04-16T12:24:18Z</time>
      </trkpt>
      <trkpt lat="46.14231" lon="2.44829">
        <ele>468</ele>
        <time>2015-04-16T12:24:20Z</time>
      </trkpt>
      <trkpt lat="46.14227" lon="2.44829">
        <ele>468</ele>
        <time>2015-04-16T12:24:23Z</time>
      </trkpt>
      <trkpt lat="46.14224" lon="2.44828">
        <ele>468</ele>
        <time>2015-04-16T12:24:25Z</time>
      </trkpt>
      <trkpt lat="46.14219" lon="2.44827">
        <ele>468</ele>
        <time>2015-04-16T12:24:28Z</time>
      </trkpt>
      <trkpt lat="46.14216" lon="2.44827">
        <ele>468</ele>
        <time>2015-04-16T12:24:30Z</time>
      </trkpt>
      <trkpt lat="46.14212" lon="2.44826">
        <ele>468</ele>
        <time>2015-04-16T12:24:33Z</time>
      </trkpt>
      <trkpt lat="46.14209" lon="2.44826">
        <ele>468</ele>
        <time>2015-04-16T12:24:35Z</time>
      </trkpt>
      <trkpt lat="46.14204" lon="2.44826">
        <ele>468</ele>
        <time>2015-04-16T12:24:38Z</time>
      </trkpt>
      <trkpt lat="46.14201" lon="2.44826">
        <ele>468</ele>
        <time>2015-04-16T12:24:40Z</time>
      </trkpt>
      <trkpt lat="46.14197" lon="2.44826">
        <ele>468</ele>
        <time>2015-04-16T12:24:43Z</time>
      </trkpt>
      <trkpt lat="46.14194" lon="2.44826">
        <ele>468</ele>
        <time>2015-04-16T12:24:45Z</time>
      </trkpt>
      <trkpt lat="46.1419" lon="2.44827">
        <ele>468</ele>
        <time>2015-04-16T12:24:48Z</time>
      </trkpt>
      <trkpt lat="46.14187" lon="2.44827">
        <ele>468</ele>
        <time>2015-04-16T12:24:50Z</time>
      </trkpt>
      <trkpt lat="46.14184" lon="2.44827">
        <ele>468</ele>
        <time>2015-04-16T12:24:52Z</time>
      </trkpt>
      <trkpt lat="46.1418" lon="2.44827">
        <ele>468</ele>
        <time>2015-04-16T12:24:54Z</time>
      </trkpt>
      <trkpt lat="46.14177" lon="2.44827">
        <ele>468</ele>
        <time>2015-04-16T12:24:56Z</time>
      </trkpt>
      <trkpt lat="46.14175" lon="2.44826">
        <ele>468</ele>
        <time>2015-04-16T12:24:58Z</time>
      </trkpt>
      <trkpt lat="46.14171" lon="2.44826">
        <ele>468</ele>
        <time>2015-04-16T12:25:00Z</time>
      </trkpt>
      <trkpt lat="46.14166" lon="2.44825">
        <ele>468</ele>
        <time>2015-04-16T12:25:03Z</time>
      </trkpt>
      <trkpt lat="46.14163" lon="2.44824">
        <ele>468</ele>
        <time>2015-04-16T12:25:05Z</time>
      </trkpt>
      <trkpt lat="46.14159" lon="2.44823">
        <ele>468</ele>
        <time>2015-04-16T12:25:08Z</time>
      </trkpt>
      <trkpt lat="46.14157" lon="2.44821">
        <ele>468</ele>
        <time>2015-04-16T12:25:10Z</time>
      </trkpt>
      <trkpt lat="46.14153" lon="2.44818">
        <ele>468</ele>
        <time>2015-04-16T12:25:13Z</time>
      </trkpt>
      <trkpt lat="46.14151" lon="2.44816">
        <ele>468</ele>
        <time>2015-04-16T12:25:15Z</time>
      </trkpt>
      <trkpt lat="46.14148" lon="2.44811">
        <ele>468</ele>
        <time>2015-04-16T12:25:18Z</time>
      </trkpt>
      <trkpt lat="46.14146" lon="2.44809">
        <ele>468</ele>
        <time>2015-04-16T12:25:20Z</time>
      </trkpt>
      <trkpt lat="46.14143" lon="2.44803">
        <ele>468</ele>
        <time>2015-04-16T12:25:24Z</time>
      </trkpt>
      <trkpt lat="46.1414" lon="2.44799">
        <ele>468</ele>
        <time>2015-04-16T12:25:26Z</time>
      </trkpt>
      <trkpt lat="46.14138" lon="2.44794">
        <ele>468</ele>
        <time>2015-04-16T12:25:28Z</time>
      </trkpt>
      <trkpt lat="46.14135" lon="2.4479">
        <ele>469</ele>
        <time>2015-04-16T12:25:30Z</time>
      </trkpt>
      <trkpt lat="46.14132" lon="2.44784">
        <ele>471</ele>
        <time>2015-04-16T12:25:33Z</time>
      </trkpt>
      <trkpt lat="46.14131" lon="2.4478">
        <ele>472</ele>
        <time>2015-04-16T12:25:35Z</time>
      </trkpt>
      <trkpt lat="46.14129" lon="2.44776">
        <ele>472</ele>
        <time>2015-04-16T12:25:38Z</time>
      </trkpt>
      <trkpt lat="46.14128" lon="2.44772">
        <ele>472</ele>
        <time>2015-04-16T12:25:40Z</time>
      </trkpt>
      <trkpt lat="46.14126" lon="2.44767">
        <ele>472</ele>
        <time>2015-04-16T12:25:43Z</time>
      </trkpt>
      <trkpt lat="46.14125" lon="2.44764">
        <ele>472</ele>
        <time>2015-04-16T12:25:45Z</time>
      </trkpt>
      <trkpt lat="46.14123" lon="2.44759">
        <ele>472</ele>
        <time>2015-04-16T12:25:48Z</time>
      </trkpt>
      <trkpt lat="46.14122" lon="2.44755">
        <ele>472</ele>
        <time>2015-04-16T12:25:50Z</time>
      </trkpt>
      <trkpt lat="46.1412" lon="2.4475">
        <ele>472</ele>
        <time>2015-04-16T12:25:53Z</time>
      </trkpt>
      <trkpt lat="46.14119" lon="2.44747">
        <ele>472</ele>
        <time>2015-04-16T12:25:55Z</time>
      </trkpt>
      <trkpt lat="46.14117" lon="2.44741">
        <ele>472</ele>
        <time>2015-04-16T12:25:58Z</time>
      </trkpt>
      <trkpt lat="46.14116" lon="2.44737">
        <ele>472</ele>
        <time>2015-04-16T12:26:00Z</time>
      </trkpt>
      <trkpt lat="46.14114" lon="2.44733">
        <ele>474</ele>
        <time>2015-04-16T12:26:31Z</time>
      </trkpt>
      <trkpt lat="46.14113" lon="2.44732">
        <ele>474</ele>
        <time>2015-04-16T12:26:34Z</time>
      </trkpt>
      <trkpt lat="46.14112" lon="2.44729">
        <ele>474</ele>
        <time>2015-04-16T12:26:36Z</time>
      </trkpt>
      <trkpt lat="46.14111" lon="2.44727">
        <ele>474</ele>
        <time>2015-04-16T12:26:47Z</time>
      </trkpt>
      <trkpt lat="46.1411" lon="2.44723">
        <ele>474</ele>
        <time>2015-04-16T12:26:50Z</time>
      </trkpt>
      <trkpt lat="46.14109" lon="2.4472">
        <ele>474</ele>
        <time>2015-04-16T12:26:52Z</time>
      </trkpt>
      <trkpt lat="46.14108" lon="2.44715">
        <ele>474</ele>
        <time>2015-04-16T12:26:55Z</time>
      </trkpt>
      <trkpt lat="46.14106" lon="2.44712">
        <ele>474</ele>
        <time>2015-04-16T12:26:57Z</time>
      </trkpt>
      <trkpt lat="46.14106" lon="2.44708">
        <ele>474</ele>
        <time>2015-04-16T12:26:59Z</time>
      </trkpt>
      <trkpt lat="46.14106" lon="2.44704">
        <ele>474</ele>
        <time>2015-04-16T12:27:01Z</time>
      </trkpt>
      <trkpt lat="46.14105" lon="2.447">
        <ele>474</ele>
        <time>2015-04-16T12:27:03Z</time>
      </trkpt>
      <trkpt lat="46.14104" lon="2.44696">
        <ele>474</ele>
        <time>2015-04-16T12:27:05Z</time>
      </trkpt>
      <trkpt lat="46.14104" lon="2.44692">
        <ele>474</ele>
        <time>2015-04-16T12:27:07Z</time>
      </trkpt>
      <trkpt lat="46.14103" lon="2.44686">
        <ele>474</ele>
        <time>2015-04-16T12:27:10Z</time>
      </trkpt>
      <trkpt lat="46.14103" lon="2.44682">
        <ele>474</ele>
        <time>2015-04-16T12:27:12Z</time>
      </trkpt>
      <trkpt lat="46.14102" lon="2.44675">
        <ele>474</ele>
        <time>2015-04-16T12:27:15Z</time>
      </trkpt>
      <trkpt lat="46.14101" lon="2.44671">
        <ele>475</ele>
        <time>2015-04-16T12:27:17Z</time>
      </trkpt>
      <trkpt lat="46.14101" lon="2.44665">
        <ele>476</ele>
        <time>2015-04-16T12:27:20Z</time>
      </trkpt>
      <trkpt lat="46.141" lon="2.4466">
        <ele>476</ele>
        <time>2015-04-16T12:27:22Z</time>
      </trkpt>
      <trkpt lat="46.141" lon="2.44656">
        <ele>476</ele>
        <time>2015-04-16T12:27:24Z</time>
      </trkpt>
      <trkpt lat="46.141" lon="2.44651">
        <ele>476</ele>
        <time>2015-04-16T12:27:26Z</time>
      </trkpt>
      <trkpt lat="46.14099" lon="2.44647">
        <ele>476</ele>
        <time>2015-04-16T12:27:28Z</time>
      </trkpt>
      <trkpt lat="46.14099" lon="2.44642">
        <ele>476</ele>
        <time>2015-04-16T12:27:30Z</time>
      </trkpt>
      <trkpt lat="46.14098" lon="2.44638">
        <ele>476</ele>
        <time>2015-04-16T12:27:32Z</time>
      </trkpt>
      <trkpt lat="46.14097" lon="2.44633">
        <ele>476</ele>
        <time>2015-04-16T12:27:35Z</time>
      </trkpt>
      <trkpt lat="46.14096" lon="2.4463">
        <ele>476</ele>
        <time>2015-04-16T12:27:37Z</time>
      </trkpt>
      <trkpt lat="46.14094" lon="2.44626">
        <ele>477</ele>
        <time>2015-04-16T12:27:39Z</time>
      </trkpt>
      <trkpt lat="46.14093" lon="2.44623">
        <ele>478</ele>
        <time>2015-04-16T12:27:41Z</time>
      </trkpt>
      <trkpt lat="46.14091" lon="2.44619">
        <ele>478</ele>
        <time>2015-04-16T12:27:43Z</time>
      </trkpt>
      <trkpt lat="46.14089" lon="2.44615">
        <ele>478</ele>
        <time>2015-04-16T12:27:45Z</time>
      </trkpt>
      <trkpt lat="46.14088" lon="2.44612">
        <ele>479</ele>
        <time>2015-04-16T12:27:47Z</time>
      </trkpt>
      <trkpt lat="46.14086" lon="2.44606">
        <ele>479</ele>
        <time>2015-04-16T12:27:50Z</time>
      </trkpt>
      <trkpt lat="46.14083" lon="2.44601">
        <ele>480</ele>
        <time>2015-04-16T12:27:52Z</time>
      </trkpt>
      <trkpt lat="46.14081" lon="2.44596">
        <ele>480</ele>
        <time>2015-04-16T12:27:55Z</time>
      </trkpt>
      <trkpt lat="46.14079" lon="2.44594">
        <ele>480</ele>
        <time>2015-04-16T12:27:57Z</time>
      </trkpt>
      <trkpt lat="46.14078" lon="2.44591">
        <ele>480</ele>
        <time>2015-04-16T12:27:59Z</time>
      </trkpt>
      <trkpt lat="46.14076" lon="2.44587">
        <ele>481</ele>
        <time>2015-04-16T12:28:01Z</time>
      </trkpt>
      <trkpt lat="46.14074" lon="2.44584">
        <ele>481</ele>
        <time>2015-04-16T12:28:03Z</time>
      </trkpt>
      <trkpt lat="46.14072" lon="2.44582">
        <ele>481</ele>
        <time>2015-04-16T12:28:05Z</time>
      </trkpt>
      <trkpt lat="46.14071" lon="2.44578">
        <ele>481</ele>
        <time>2015-04-16T12:28:07Z</time>
      </trkpt>
      <trkpt lat="46.14069" lon="2.44573">
        <ele>481</ele>
        <time>2015-04-16T12:28:10Z</time>
      </trkpt>
      <trkpt lat="46.14066" lon="2.44569">
        <ele>481</ele>
        <time>2015-04-16T12:28:13Z</time>
      </trkpt>
      <trkpt lat="46.14064" lon="2.44565">
        <ele>482</ele>
        <time>2015-04-16T12:28:16Z</time>
      </trkpt>
      <trkpt lat="46.14063" lon="2.44562">
        <ele>482</ele>
        <time>2015-04-16T12:28:18Z</time>
      </trkpt>
      <trkpt lat="46.14061" lon="2.44558">
        <ele>483</ele>
        <time>2015-04-16T12:28:20Z</time>
      </trkpt>
      <trkpt lat="46.14059" lon="2.44554">
        <ele>483</ele>
        <time>2015-04-16T12:28:23Z</time>
      </trkpt>
      <trkpt lat="46.14057" lon="2.44551">
        <ele>483</ele>
        <time>2015-04-16T12:28:25Z</time>
      </trkpt>
      <trkpt lat="46.14055" lon="2.44548">
        <ele>483</ele>
        <time>2015-04-16T12:28:27Z</time>
      </trkpt>
      <trkpt lat="46.14053" lon="2.44545">
        <ele>484</ele>
        <time>2015-04-16T12:28:29Z</time>
      </trkpt>
      <trkpt lat="46.14052" lon="2.44542">
        <ele>484</ele>
        <time>2015-04-16T12:28:31Z</time>
      </trkpt>
      <trkpt lat="46.1405" lon="2.44539">
        <ele>484</ele>
        <time>2015-04-16T12:28:33Z</time>
      </trkpt>
      <trkpt lat="46.14048" lon="2.44536">
        <ele>485</ele>
        <time>2015-04-16T12:28:35Z</time>
      </trkpt>
      <trkpt lat="46.14046" lon="2.44531">
        <ele>486</ele>
        <time>2015-04-16T12:28:38Z</time>
      </trkpt>
      <trkpt lat="46.14044" lon="2.44528">
        <ele>486</ele>
        <time>2015-04-16T12:28:40Z</time>
      </trkpt>
      <trkpt lat="46.14043" lon="2.44526">
        <ele>486</ele>
        <time>2015-04-16T12:28:42Z</time>
      </trkpt>
      <trkpt lat="46.14041" lon="2.44522">
        <ele>486</ele>
        <time>2015-04-16T12:28:44Z</time>
      </trkpt>
      <trkpt lat="46.14039" lon="2.44517">
        <ele>486</ele>
        <time>2015-04-16T12:28:47Z</time>
      </trkpt>
      <trkpt lat="46.14037" lon="2.44515">
        <ele>486</ele>
        <time>2015-04-16T12:28:49Z</time>
      </trkpt>
      <trkpt lat="46.14035" lon="2.44511">
        <ele>486</ele>
        <time>2015-04-16T12:28:51Z</time>
      </trkpt>
      <trkpt lat="46.14034" lon="2.44508">
        <ele>486</ele>
        <time>2015-04-16T12:28:53Z</time>
      </trkpt>
      <trkpt lat="46.14032" lon="2.44503">
        <ele>486</ele>
        <time>2015-04-16T12:28:56Z</time>
      </trkpt>
      <trkpt lat="46.14029" lon="2.44499">
        <ele>486</ele>
        <time>2015-04-16T12:28:58Z</time>
      </trkpt>
      <trkpt lat="46.14027" lon="2.44496">
        <ele>487</ele>
        <time>2015-04-16T12:29:00Z</time>
      </trkpt>
      <trkpt lat="46.14026" lon="2.44494">
        <ele>488</ele>
        <time>2015-04-16T12:29:02Z</time>
      </trkpt>
      <trkpt lat="46.14025" lon="2.4449">
        <ele>488</ele>
        <time>2015-04-16T12:29:04Z</time>
      </trkpt>
      <trkpt lat="46.14024" lon="2.44485">
        <ele>488</ele>
        <time>2015-04-16T12:29:06Z</time>
      </trkpt>
      <trkpt lat="46.14023" lon="2.4448">
        <ele>488</ele>
        <time>2015-04-16T12:29:08Z</time>
      </trkpt>
      <trkpt lat="46.14021" lon="2.44476">
        <ele>489</ele>
        <time>2015-04-16T12:29:10Z</time>
      </trkpt>
      <trkpt lat="46.14021" lon="2.44472">
        <ele>490</ele>
        <time>2015-04-16T12:29:12Z</time>
      </trkpt>
      <trkpt lat="46.1402" lon="2.44467">
        <ele>490</ele>
        <time>2015-04-16T12:29:14Z</time>
      </trkpt>
      <trkpt lat="46.14019" lon="2.44463">
        <ele>491</ele>
        <time>2015-04-16T12:29:16Z</time>
      </trkpt>
      <trkpt lat="46.14018" lon="2.44459">
        <ele>491</ele>
        <time>2015-04-16T12:29:18Z</time>
      </trkpt>
      <trkpt lat="46.14018" lon="2.44455">
        <ele>491</ele>
        <time>2015-04-16T12:29:20Z</time>
      </trkpt>
      <trkpt lat="46.14017" lon="2.4445">
        <ele>491</ele>
        <time>2015-04-16T12:29:22Z</time>
      </trkpt>
      <trkpt lat="46.14017" lon="2.44446">
        <ele>491</ele>
        <time>2015-04-16T12:29:24Z</time>
      </trkpt>
      <trkpt lat="46.14017" lon="2.44442">
        <ele>491</ele>
        <time>2015-04-16T12:29:26Z</time>
      </trkpt>
      <trkpt lat="46.14016" lon="2.44439">
        <ele>491</ele>
        <time>2015-04-16T12:29:28Z</time>
      </trkpt>
      <trkpt lat="46.14016" lon="2.44434">
        <ele>491</ele>
        <time>2015-04-16T12:29:30Z</time>
      </trkpt>
      <trkpt lat="46.14015" lon="2.44431">
        <ele>491</ele>
        <time>2015-04-16T12:29:32Z</time>
      </trkpt>
      <trkpt lat="46.14015" lon="2.44427">
        <ele>491</ele>
        <time>2015-04-16T12:29:34Z</time>
      </trkpt>
      <trkpt lat="46.14014" lon="2.44423">
        <ele>491</ele>
        <time>2015-04-16T12:29:36Z</time>
      </trkpt>
      <trkpt lat="46.14014" lon="2.4442">
        <ele>491</ele>
        <time>2015-04-16T12:29:38Z</time>
      </trkpt>
      <trkpt lat="46.14014" lon="2.44416">
        <ele>491</ele>
        <time>2015-04-16T12:29:40Z</time>
      </trkpt>
      <trkpt lat="46.14013" lon="2.44413">
        <ele>491</ele>
        <time>2015-04-16T12:29:42Z</time>
      </trkpt>
      <trkpt lat="46.14013" lon="2.44409">
        <ele>491</ele>
        <time>2015-04-16T12:29:44Z</time>
      </trkpt>
      <trkpt lat="46.14012" lon="2.44405">
        <ele>491</ele>
        <time>2015-04-16T12:29:46Z</time>
      </trkpt>
      <trkpt lat="46.14012" lon="2.44401">
        <ele>491</ele>
        <time>2015-04-16T12:29:48Z</time>
      </trkpt>
      <trkpt lat="46.14012" lon="2.44397">
        <ele>491</ele>
        <time>2015-04-16T12:29:50Z</time>
      </trkpt>
      <trkpt lat="46.14011" lon="2.44393">
        <ele>491</ele>
        <time>2015-04-16T12:29:52Z</time>
      </trkpt>
      <trkpt lat="46.14011" lon="2.4439">
        <ele>491</ele>
        <time>2015-04-16T12:29:54Z</time>
      </trkpt>
      <trkpt lat="46.1401" lon="2.44386">
        <ele>491</ele>
        <time>2015-04-16T12:29:56Z</time>
      </trkpt>
      <trkpt lat="46.1401" lon="2.44382">
        <ele>491</ele>
        <time>2015-04-16T12:29:58Z</time>
      </trkpt>
      <trkpt lat="46.14009" lon="2.44378">
        <ele>491</ele>
        <time>2015-04-16T12:30:00Z</time>
      </trkpt>
      <trkpt lat="46.14008" lon="2.44374">
        <ele>491</ele>
        <time>2015-04-16T12:30:02Z</time>
      </trkpt>
      <trkpt lat="46.14008" lon="2.4437">
        <ele>491</ele>
        <time>2015-04-16T12:30:04Z</time>
      </trkpt>
      <trkpt lat="46.14007" lon="2.44366">
        <ele>491</ele>
        <time>2015-04-16T12:30:06Z</time>
      </trkpt>
      <trkpt lat="46.14006" lon="2.44362">
        <ele>491</ele>
        <time>2015-04-16T12:30:08Z</time>
      </trkpt>
      <trkpt lat="46.14006" lon="2.44358">
        <ele>491</ele>
        <time>2015-04-16T12:30:10Z</time>
      </trkpt>
      <trkpt lat="46.14005" lon="2.44354">
        <ele>491</ele>
        <time>2015-04-16T12:30:12Z</time>
      </trkpt>
      <trkpt lat="46.14005" lon="2.4435">
        <ele>491</ele>
        <time>2015-04-16T12:30:14Z</time>
      </trkpt>
      <trkpt lat="46.14004" lon="2.44346">
        <ele>491</ele>
        <time>2015-04-16T12:30:16Z</time>
      </trkpt>
      <trkpt lat="46.14004" lon="2.44342">
        <ele>491</ele>
        <time>2015-04-16T12:30:18Z</time>
      </trkpt>
      <trkpt lat="46.14003" lon="2.44338">
        <ele>491</ele>
        <time>2015-04-16T12:30:20Z</time>
      </trkpt>
      <trkpt lat="46.14003" lon="2.44335">
        <ele>491</ele>
        <time>2015-04-16T12:30:22Z</time>
      </trkpt>
      <trkpt lat="46.14002" lon="2.44331">
        <ele>491</ele>
        <time>2015-04-16T12:30:24Z</time>
      </trkpt>
      <trkpt lat="46.14001" lon="2.44327">
        <ele>491</ele>
        <time>2015-04-16T12:30:26Z</time>
      </trkpt>
      <trkpt lat="46.14001" lon="2.44324">
        <ele>492</ele>
        <time>2015-04-16T12:30:28Z</time>
      </trkpt>
      <trkpt lat="46.14001" lon="2.4432">
        <ele>492</ele>
        <time>2015-04-16T12:30:30Z</time>
      </trkpt>
      <trkpt lat="46.14" lon="2.44316">
        <ele>493</ele>
        <time>2015-04-16T12:30:32Z</time>
      </trkpt>
      <trkpt lat="46.13999" lon="2.44312">
        <ele>493</ele>
        <time>2015-04-16T12:30:34Z</time>
      </trkpt>
      <trkpt lat="46.13999" lon="2.44308">
        <ele>493</ele>
        <time>2015-04-16T12:30:36Z</time>
      </trkpt>
      <trkpt lat="46.13998" lon="2.44304">
        <ele>493</ele>
        <time>2015-04-16T12:30:38Z</time>
      </trkpt>
      <trkpt lat="46.13997" lon="2.443">
        <ele>493</ele>
        <time>2015-04-16T12:30:40Z</time>
      </trkpt>
      <trkpt lat="46.13996" lon="2.44297">
        <ele>493</ele>
        <time>2015-04-16T12:30:42Z</time>
      </trkpt>
      <trkpt lat="46.13995" lon="2.44293">
        <ele>493</ele>
        <time>2015-04-16T12:30:44Z</time>
      </trkpt>
      <trkpt lat="46.13994" lon="2.44289">
        <ele>493</ele>
        <time>2015-04-16T12:30:46Z</time>
      </trkpt>
      <trkpt lat="46.13993" lon="2.44286">
        <ele>493</ele>
        <time>2015-04-16T12:30:48Z</time>
      </trkpt>
      <trkpt lat="46.13991" lon="2.44283">
        <ele>494</ele>
        <time>2015-04-16T12:30:50Z</time>
      </trkpt>
      <trkpt lat="46.1399" lon="2.44279">
        <ele>494</ele>
        <time>2015-04-16T12:30:52Z</time>
      </trkpt>
      <trkpt lat="46.13988" lon="2.44274">
        <ele>495</ele>
        <time>2015-04-16T12:30:55Z</time>
      </trkpt>
      <trkpt lat="46.13987" lon="2.44272">
        <ele>496</ele>
        <time>2015-04-16T12:30:57Z</time>
      </trkpt>
      <trkpt lat="46.13986" lon="2.44269">
        <ele>496</ele>
        <time>2015-04-16T12:30:59Z</time>
      </trkpt>
      <trkpt lat="46.13984" lon="2.44265">
        <ele>497</ele>
        <time>2015-04-16T12:31:01Z</time>
      </trkpt>
      <trkpt lat="46.13982" lon="2.44262">
        <ele>497</ele>
        <time>2015-04-16T12:31:03Z</time>
      </trkpt>
      <trkpt lat="46.13982" lon="2.44258">
        <ele>497</ele>
        <time>2015-04-16T12:31:05Z</time>
      </trkpt>
      <trkpt lat="46.13979" lon="2.44254">
        <ele>498</ele>
        <time>2015-04-16T12:31:08Z</time>
      </trkpt>
      <trkpt lat="46.13976" lon="2.44252">
        <ele>498</ele>
        <time>2015-04-16T12:31:10Z</time>
      </trkpt>
      <trkpt lat="46.13973" lon="2.44249">
        <ele>498</ele>
        <time>2015-04-16T12:31:12Z</time>
      </trkpt>
      <trkpt lat="46.1397" lon="2.44247">
        <ele>499</ele>
        <time>2015-04-16T12:31:15Z</time>
      </trkpt>
      <trkpt lat="46.13968" lon="2.44245">
        <ele>499</ele>
        <time>2015-04-16T12:31:17Z</time>
      </trkpt>
      <trkpt lat="46.13966" lon="2.44243">
        <ele>499</ele>
        <time>2015-04-16T12:31:19Z</time>
      </trkpt>
      <trkpt lat="46.13964" lon="2.44241">
        <ele>500</ele>
        <time>2015-04-16T12:31:21Z</time>
      </trkpt>
      <trkpt lat="46.13961" lon="2.44238">
        <ele>501</ele>
        <time>2015-04-16T12:31:24Z</time>
      </trkpt>
      <trkpt lat="46.13959" lon="2.44236">
        <ele>501</ele>
        <time>2015-04-16T12:31:27Z</time>
      </trkpt>
      <trkpt lat="46.13956" lon="2.44234">
        <ele>502</ele>
        <time>2015-04-16T12:31:29Z</time>
      </trkpt>
      <trkpt lat="46.13954" lon="2.44234">
        <ele>502</ele>
        <time>2015-04-16T12:31:31Z</time>
      </trkpt>
      <trkpt lat="46.1395" lon="2.44233">
        <ele>503</ele>
        <time>2015-04-16T12:31:33Z</time>
      </trkpt>
      <trkpt lat="46.13948" lon="2.44233">
        <ele>503</ele>
        <time>2015-04-16T12:31:35Z</time>
      </trkpt>
      <trkpt lat="46.13945" lon="2.44233">
        <ele>503</ele>
        <time>2015-04-16T12:31:37Z</time>
      </trkpt>
      <trkpt lat="46.1394" lon="2.44233">
        <ele>504</ele>
        <time>2015-04-16T12:31:39Z</time>
      </trkpt>
      <trkpt lat="46.13938" lon="2.44234">
        <ele>504</ele>
        <time>2015-04-16T12:31:41Z</time>
      </trkpt>
      <trkpt lat="46.13934" lon="2.44235">
        <ele>504</ele>
        <time>2015-04-16T12:31:43Z</time>
      </trkpt>
      <trkpt lat="46.13932" lon="2.44238">
        <ele>504</ele>
        <time>2015-04-16T12:31:45Z</time>
      </trkpt>
      <trkpt lat="46.1393" lon="2.44241">
        <ele>504</ele>
        <time>2015-04-16T12:31:47Z</time>
      </trkpt>
      <trkpt lat="46.13927" lon="2.44244">
        <ele>504</ele>
        <time>2015-04-16T12:31:49Z</time>
      </trkpt>
      <trkpt lat="46.13924" lon="2.44248">
        <ele>504</ele>
        <time>2015-04-16T12:31:52Z</time>
      </trkpt>
      <trkpt lat="46.13923" lon="2.44251">
        <ele>504</ele>
        <time>2015-04-16T12:31:54Z</time>
      </trkpt>
      <trkpt lat="46.1392" lon="2.44253">
        <ele>504</ele>
        <time>2015-04-16T12:31:56Z</time>
      </trkpt>
      <trkpt lat="46.13919" lon="2.44255">
        <ele>504</ele>
        <time>2015-04-16T12:31:58Z</time>
      </trkpt>
      <trkpt lat="46.13916" lon="2.44258">
        <ele>504</ele>
        <time>2015-04-16T12:32:00Z</time>
      </trkpt>
      <trkpt lat="46.13913" lon="2.44261">
        <ele>504</ele>
        <time>2015-04-16T12:32:02Z</time>
      </trkpt>
      <trkpt lat="46.13909" lon="2.44262">
        <ele>504</ele>
        <time>2015-04-16T12:32:04Z</time>
      </trkpt>
      <trkpt lat="46.13906" lon="2.44263">
        <ele>504</ele>
        <time>2015-04-16T12:32:06Z</time>
      </trkpt>
      <trkpt lat="46.13903" lon="2.44264">
        <ele>504</ele>
        <time>2015-04-16T12:32:08Z</time>
      </trkpt>
      <trkpt lat="46.139" lon="2.44266">
        <ele>504</ele>
        <time>2015-04-16T12:32:10Z</time>
      </trkpt>
      <trkpt lat="46.13897" lon="2.44267">
        <ele>504</ele>
        <time>2015-04-16T12:32:12Z</time>
      </trkpt>
      <trkpt lat="46.13894" lon="2.44268">
        <ele>504</ele>
        <time>2015-04-16T12:32:15Z</time>
      </trkpt>
      <trkpt lat="46.1389" lon="2.44267">
        <ele>504</ele>
        <time>2015-04-16T12:32:18Z</time>
      </trkpt>
      <trkpt lat="46.13889" lon="2.44266">
        <ele>504</ele>
        <time>2015-04-16T12:32:20Z</time>
      </trkpt>
      <trkpt lat="46.13886" lon="2.44264">
        <ele>504</ele>
        <time>2015-04-16T12:32:23Z</time>
      </trkpt>
      <trkpt lat="46.13884" lon="2.44264">
        <ele>504</ele>
        <time>2015-04-16T12:32:25Z</time>
      </trkpt>
      <trkpt lat="46.13882" lon="2.44262">
        <ele>504</ele>
        <time>2015-04-16T12:32:27Z</time>
      </trkpt>
      <trkpt lat="46.1388" lon="2.44261">
        <ele>504</ele>
        <time>2015-04-16T12:32:29Z</time>
      </trkpt>
      <trkpt lat="46.13877" lon="2.4426">
        <ele>504</ele>
        <time>2015-04-16T12:32:31Z</time>
      </trkpt>
      <trkpt lat="46.13874" lon="2.44257">
        <ele>504</ele>
        <time>2015-04-16T12:32:34Z</time>
      </trkpt>
      <trkpt lat="46.13871" lon="2.44257">
        <ele>504</ele>
        <time>2015-04-16T12:32:36Z</time>
      </trkpt>
      <trkpt lat="46.13868" lon="2.44254">
        <ele>505</ele>
        <time>2015-04-16T12:32:38Z</time>
      </trkpt>
      <trkpt lat="46.13865" lon="2.44253">
        <ele>505</ele>
        <time>2015-04-16T12:32:40Z</time>
      </trkpt>
      <trkpt lat="46.13862" lon="2.44253">
        <ele>505</ele>
        <time>2015-04-16T12:32:43Z</time>
      </trkpt>
      <trkpt lat="46.1386" lon="2.44253">
        <ele>505</ele>
        <time>2015-04-16T12:32:45Z</time>
      </trkpt>
      <trkpt lat="46.13858" lon="2.44254">
        <ele>505</ele>
        <time>2015-04-16T12:32:47Z</time>
      </trkpt>
      <trkpt lat="46.13856" lon="2.44252">
        <ele>505</ele>
        <time>2015-04-16T12:32:49Z</time>
      </trkpt>
      <trkpt lat="46.13852" lon="2.44251">
        <ele>505</ele>
        <time>2015-04-16T12:32:51Z</time>
      </trkpt>
      <trkpt lat="46.1385" lon="2.44251">
        <ele>505</ele>
        <time>2015-04-16T12:32:53Z</time>
      </trkpt>
      <trkpt lat="46.13848" lon="2.44253">
        <ele>506</ele>
        <time>2015-04-16T12:32:55Z</time>
      </trkpt>
      <trkpt lat="46.13845" lon="2.44255">
        <ele>506</ele>
        <time>2015-04-16T12:32:57Z</time>
      </trkpt>
      <trkpt lat="46.1384" lon="2.44256">
        <ele>506</ele>
        <time>2015-04-16T12:32:59Z</time>
      </trkpt>
      <trkpt lat="46.13836" lon="2.44258">
        <ele>507</ele>
        <time>2015-04-16T12:33:01Z</time>
      </trkpt>
      <trkpt lat="46.13832" lon="2.4426">
        <ele>507</ele>
        <time>2015-04-16T12:33:03Z</time>
      </trkpt>
      <trkpt lat="46.13829" lon="2.44262">
        <ele>507</ele>
        <time>2015-04-16T12:33:05Z</time>
      </trkpt>
      <trkpt lat="46.13825" lon="2.44266">
        <ele>507</ele>
        <time>2015-04-16T12:33:08Z</time>
      </trkpt>
      <trkpt lat="46.13823" lon="2.44268">
        <ele>507</ele>
        <time>2015-04-16T12:33:10Z</time>
      </trkpt>
      <trkpt lat="46.13819" lon="2.4427">
        <ele>507</ele>
        <time>2015-04-16T12:33:13Z</time>
      </trkpt>
      <trkpt lat="46.13816" lon="2.44272">
        <ele>507</ele>
        <time>2015-04-16T12:33:15Z</time>
      </trkpt>
      <trkpt lat="46.13814" lon="2.44274">
        <ele>507</ele>
        <time>2015-04-16T12:33:17Z</time>
      </trkpt>
      <trkpt lat="46.13812" lon="2.44276">
        <ele>507</ele>
        <time>2015-04-16T12:33:19Z</time>
      </trkpt>
      <trkpt lat="46.13809" lon="2.44278">
        <ele>507</ele>
        <time>2015-04-16T12:33:22Z</time>
      </trkpt>
      <trkpt lat="46.13806" lon="2.4428">
        <ele>507</ele>
        <time>2015-04-16T12:33:24Z</time>
      </trkpt>
      <trkpt lat="46.13803" lon="2.44284">
        <ele>507</ele>
        <time>2015-04-16T12:33:27Z</time>
      </trkpt>
      <trkpt lat="46.138" lon="2.44285">
        <ele>507</ele>
        <time>2015-04-16T12:33:29Z</time>
      </trkpt>
      <trkpt lat="46.13796" lon="2.44287">
        <ele>507</ele>
        <time>2015-04-16T12:33:31Z</time>
      </trkpt>
      <trkpt lat="46.13793" lon="2.44288">
        <ele>507</ele>
        <time>2015-04-16T12:33:33Z</time>
      </trkpt>
      <trkpt lat="46.13791" lon="2.44289">
        <ele>507</ele>
        <time>2015-04-16T12:33:35Z</time>
      </trkpt>
      <trkpt lat="46.13788" lon="2.4429">
        <ele>507</ele>
        <time>2015-04-16T12:33:37Z</time>
      </trkpt>
      <trkpt lat="46.13784" lon="2.44294">
        <ele>507</ele>
        <time>2015-04-16T12:33:40Z</time>
      </trkpt>
      <trkpt lat="46.13781" lon="2.44296">
        <ele>507</ele>
        <time>2015-04-16T12:33:42Z</time>
      </trkpt>
      <trkpt lat="46.13777" lon="2.44297">
        <ele>507</ele>
        <time>2015-04-16T12:33:44Z</time>
      </trkpt>
      <trkpt lat="46.13774" lon="2.44297">
        <ele>507</ele>
        <time>2015-04-16T12:33:46Z</time>
      </trkpt>
      <trkpt lat="46.1377" lon="2.44298">
        <ele>507</ele>
        <time>2015-04-16T12:33:48Z</time>
      </trkpt>
      <trkpt lat="46.13766" lon="2.44301">
        <ele>507</ele>
        <time>2015-04-16T12:33:51Z</time>
      </trkpt>
      <trkpt lat="46.13764" lon="2.44302">
        <ele>507</ele>
        <time>2015-04-16T12:33:54Z</time>
      </trkpt>
      <trkpt lat="46.13761" lon="2.44301">
        <ele>507</ele>
        <time>2015-04-16T12:33:56Z</time>
      </trkpt>
      <trkpt lat="46.13757" lon="2.44301">
        <ele>507</ele>
        <time>2015-04-16T12:33:58Z</time>
      </trkpt>
      <trkpt lat="46.13756" lon="2.44301">
        <ele>507</ele>
        <time>2015-04-16T12:34:00Z</time>
      </trkpt>
      <trkpt lat="46.13755" lon="2.44303">
        <ele>507</ele>
        <time>2015-04-16T12:34:02Z</time>
      </trkpt>
      <trkpt lat="46.13754" lon="2.44304">
        <ele>507</ele>
        <time>2015-04-16T12:34:04Z</time>
      </trkpt>
      <trkpt lat="46.13751" lon="2.44304">
        <ele>507</ele>
        <time>2015-04-16T12:34:06Z</time>
      </trkpt>
      <trkpt lat="46.13747" lon="2.44306">
        <ele>508</ele>
        <time>2015-04-16T12:34:09Z</time>
      </trkpt>
      <trkpt lat="46.13743" lon="2.44308">
        <ele>509</ele>
        <time>2015-04-16T12:34:12Z</time>
      </trkpt>
      <trkpt lat="46.13739" lon="2.4431">
        <ele>509</ele>
        <time>2015-04-16T12:34:14Z</time>
      </trkpt>
      <trkpt lat="46.13737" lon="2.44312">
        <ele>509</ele>
        <time>2015-04-16T12:34:16Z</time>
      </trkpt>
      <trkpt lat="46.13733" lon="2.44314">
        <ele>509</ele>
        <time>2015-04-16T12:34:18Z</time>
      </trkpt>
      <trkpt lat="46.13731" lon="2.44316">
        <ele>509</ele>
        <time>2015-04-16T12:34:20Z</time>
      </trkpt>
      <trkpt lat="46.13728" lon="2.4432">
        <ele>509</ele>
        <time>2015-04-16T12:34:22Z</time>
      </trkpt>
      <trkpt lat="46.13725" lon="2.44323">
        <ele>509</ele>
        <time>2015-04-16T12:34:24Z</time>
      </trkpt>
      <trkpt lat="46.13724" lon="2.44327">
        <ele>509</ele>
        <time>2015-04-16T12:34:26Z</time>
      </trkpt>
      <trkpt lat="46.13724" lon="2.44332">
        <ele>509</ele>
        <time>2015-04-16T12:34:28Z</time>
      </trkpt>
      <trkpt lat="46.13723" lon="2.44337">
        <ele>509</ele>
        <time>2015-04-16T12:34:30Z</time>
      </trkpt>
      <trkpt lat="46.13722" lon="2.44341">
        <ele>509</ele>
        <time>2015-04-16T12:34:32Z</time>
      </trkpt>
      <trkpt lat="46.1372" lon="2.44345">
        <ele>509</ele>
        <time>2015-04-16T12:34:34Z</time>
      </trkpt>
      <trkpt lat="46.1372" lon="2.44349">
        <ele>509</ele>
        <time>2015-04-16T12:34:36Z</time>
      </trkpt>
      <trkpt lat="46.13719" lon="2.44353">
        <ele>508</ele>
        <time>2015-04-16T12:34:38Z</time>
      </trkpt>
      <trkpt lat="46.13718" lon="2.44356">
        <ele>506</ele>
        <time>2015-04-16T12:34:40Z</time>
      </trkpt>
      <trkpt lat="46.13716" lon="2.44361">
        <ele>505</ele>
        <time>2015-04-16T12:34:42Z</time>
      </trkpt>
      <trkpt lat="46.13715" lon="2.44364">
        <ele>504</ele>
        <time>2015-04-16T12:34:44Z</time>
      </trkpt>
      <trkpt lat="46.13712" lon="2.44367">
        <ele>504</ele>
        <time>2015-04-16T12:34:46Z</time>
      </trkpt>
      <trkpt lat="46.1371" lon="2.4437">
        <ele>503</ele>
        <time>2015-04-16T12:34:48Z</time>
      </trkpt>
      <trkpt lat="46.13708" lon="2.44374">
        <ele>502</ele>
        <time>2015-04-16T12:34:50Z</time>
      </trkpt>
      <trkpt lat="46.13705" lon="2.44377">
        <ele>502</ele>
        <time>2015-04-16T12:34:52Z</time>
      </trkpt>
      <trkpt lat="46.13704" lon="2.4438">
        <ele>502</ele>
        <time>2015-04-16T12:34:54Z</time>
      </trkpt>
      <trkpt lat="46.13702" lon="2.44383">
        <ele>502</ele>
        <time>2015-04-16T12:34:56Z</time>
      </trkpt>
      <trkpt lat="46.137" lon="2.44386">
        <ele>501</ele>
        <time>2015-04-16T12:34:58Z</time>
      </trkpt>
      <trkpt lat="46.13699" lon="2.44389">
        <ele>501</ele>
        <time>2015-04-16T12:35:00Z</time>
      </trkpt>
      <trkpt lat="46.13696" lon="2.44391">
        <ele>501</ele>
        <time>2015-04-16T12:35:03Z</time>
      </trkpt>
      <trkpt lat="46.13692" lon="2.44394">
        <ele>501</ele>
        <time>2015-04-16T12:35:06Z</time>
      </trkpt>
      <trkpt lat="46.1369" lon="2.44396">
        <ele>501</ele>
        <time>2015-04-16T12:35:08Z</time>
      </trkpt>
      <trkpt lat="46.13688" lon="2.44397">
        <ele>501</ele>
        <time>2015-04-16T12:35:10Z</time>
      </trkpt>
      <trkpt lat="46.13684" lon="2.44398">
        <ele>501</ele>
        <time>2015-04-16T12:35:13Z</time>
      </trkpt>
      <trkpt lat="46.13682" lon="2.44398">
        <ele>501</ele>
        <time>2015-04-16T12:35:15Z</time>
      </trkpt>
      <trkpt lat="46.13679" lon="2.44398">
        <ele>501</ele>
        <time>2015-04-16T12:35:17Z</time>
      </trkpt>
      <trkpt lat="46.13676" lon="2.44398">
        <ele>501</ele>
        <time>2015-04-16T12:35:19Z</time>
      </trkpt>
      <trkpt lat="46.13672" lon="2.44399">
        <ele>501</ele>
        <time>2015-04-16T12:35:22Z</time>
      </trkpt>
      <trkpt lat="46.13669" lon="2.44398">
        <ele>501</ele>
        <time>2015-04-16T12:35:25Z</time>
      </trkpt>
      <trkpt lat="46.13667" lon="2.44397">
        <ele>501</ele>
        <time>2015-04-16T12:35:27Z</time>
      </trkpt>
      <trkpt lat="46.13664" lon="2.44396">
        <ele>501</ele>
        <time>2015-04-16T12:35:29Z</time>
      </trkpt>
      <trkpt lat="46.13662" lon="2.44396">
        <ele>501</ele>
        <time>2015-04-16T12:35:31Z</time>
      </trkpt>
      <trkpt lat="46.13659" lon="2.44395">
        <ele>501</ele>
        <time>2015-04-16T12:35:33Z</time>
      </trkpt>
      <trkpt lat="46.13655" lon="2.44393">
        <ele>501</ele>
        <time>2015-04-16T12:35:35Z</time>
      </trkpt>
      <trkpt lat="46.13652" lon="2.44392">
        <ele>501</ele>
        <time>2015-04-16T12:35:37Z</time>
      </trkpt>
      <trkpt lat="46.13651" lon="2.44391">
        <ele>501</ele>
        <time>2015-04-16T12:35:39Z</time>
      </trkpt>
      <trkpt lat="46.13647" lon="2.44391">
        <ele>501</ele>
        <time>2015-04-16T12:35:42Z</time>
      </trkpt>
      <trkpt lat="46.13644" lon="2.4439">
        <ele>501</ele>
        <time>2015-04-16T12:35:44Z</time>
      </trkpt>
      <trkpt lat="46.13641" lon="2.44388">
        <ele>501</ele>
        <time>2015-04-16T12:35:46Z</time>
      </trkpt>
      <trkpt lat="46.13639" lon="2.44388">
        <ele>501</ele>
        <time>2015-04-16T12:35:48Z</time>
      </trkpt>
      <trkpt lat="46.13636" lon="2.44387">
        <ele>502</ele>
        <time>2015-04-16T12:35:50Z</time>
      </trkpt>
      <trkpt lat="46.13633" lon="2.44386">
        <ele>502</ele>
        <time>2015-04-16T12:35:52Z</time>
      </trkpt>
      <trkpt lat="46.13631" lon="2.44384">
        <ele>502</ele>
        <time>2015-04-16T12:35:54Z</time>
      </trkpt>
      <trkpt lat="46.13627" lon="2.44381">
        <ele>503</ele>
        <time>2015-04-16T12:35:56Z</time>
      </trkpt>
      <trkpt lat="46.13624" lon="2.44379">
        <ele>504</ele>
        <time>2015-04-16T12:35:58Z</time>
      </trkpt>
      <trkpt lat="46.13622" lon="2.44377">
        <ele>505</ele>
        <time>2015-04-16T12:36:00Z</time>
      </trkpt>
      <trkpt lat="46.13619" lon="2.44376">
        <ele>506</ele>
        <time>2015-04-16T12:36:02Z</time>
      </trkpt>
      <trkpt lat="46.13616" lon="2.44375">
        <ele>506</ele>
        <time>2015-04-16T12:36:04Z</time>
      </trkpt>
      <trkpt lat="46.13614" lon="2.44375">
        <ele>506</ele>
        <time>2015-04-16T12:36:06Z</time>
      </trkpt>
      <trkpt lat="46.13611" lon="2.44375">
        <ele>506</ele>
        <time>2015-04-16T12:36:08Z</time>
      </trkpt>
      <trkpt lat="46.13608" lon="2.44374">
        <ele>506</ele>
        <time>2015-04-16T12:36:10Z</time>
      </trkpt>
      <trkpt lat="46.13605" lon="2.44374">
        <ele>506</ele>
        <time>2015-04-16T12:36:13Z</time>
      </trkpt>
      <trkpt lat="46.13603" lon="2.44374">
        <ele>506</ele>
        <time>2015-04-16T12:36:15Z</time>
      </trkpt>
      <trkpt lat="46.13601" lon="2.44375">
        <ele>506</ele>
        <time>2015-04-16T12:36:17Z</time>
      </trkpt>
      <trkpt lat="46.13597" lon="2.44375">
        <ele>506</ele>
        <time>2015-04-16T12:36:19Z</time>
      </trkpt>
      <trkpt lat="46.13593" lon="2.44375">
        <ele>506</ele>
        <time>2015-04-16T12:36:21Z</time>
      </trkpt>
      <trkpt lat="46.13591" lon="2.44374">
        <ele>506</ele>
        <time>2015-04-16T12:36:23Z</time>
      </trkpt>
      <trkpt lat="46.13588" lon="2.44373">
        <ele>506</ele>
        <time>2015-04-16T12:36:25Z</time>
      </trkpt>
      <trkpt lat="46.13586" lon="2.44372">
        <ele>505</ele>
        <time>2015-04-16T12:36:27Z</time>
      </trkpt>
      <trkpt lat="46.13582" lon="2.44369">
        <ele>505</ele>
        <time>2015-04-16T12:36:29Z</time>
      </trkpt>
      <trkpt lat="46.13578" lon="2.44367">
        <ele>505</ele>
        <time>2015-04-16T12:36:32Z</time>
      </trkpt>
      <trkpt lat="46.13575" lon="2.44365">
        <ele>505</ele>
        <time>2015-04-16T12:36:34Z</time>
      </trkpt>
      <trkpt lat="46.13572" lon="2.44363">
        <ele>505</ele>
        <time>2015-04-16T12:36:36Z</time>
      </trkpt>
      <trkpt lat="46.1357" lon="2.44361">
        <ele>505</ele>
        <time>2015-04-16T12:36:38Z</time>
      </trkpt>
      <trkpt lat="46.13566" lon="2.44358">
        <ele>505</ele>
        <time>2015-04-16T12:36:41Z</time>
      </trkpt>
      <trkpt lat="46.13562" lon="2.44356">
        <ele>505</ele>
        <time>2015-04-16T12:36:43Z</time>
      </trkpt>
      <trkpt lat="46.13559" lon="2.44353">
        <ele>505</ele>
        <time>2015-04-16T12:36:45Z</time>
      </trkpt>
      <trkpt lat="46.13557" lon="2.44352">
        <ele>505</ele>
        <time>2015-04-16T12:36:47Z</time>
      </trkpt>
      <trkpt lat="46.13554" lon="2.4435">
        <ele>505</ele>
        <time>2015-04-16T12:36:49Z</time>
      </trkpt>
      <trkpt lat="46.13551" lon="2.44348">
        <ele>505</ele>
        <time>2015-04-16T12:36:51Z</time>
      </trkpt>
      <trkpt lat="46.13548" lon="2.44346">
        <ele>505</ele>
        <time>2015-04-16T12:36:54Z</time>
      </trkpt>
      <trkpt lat="46.13545" lon="2.44345">
        <ele>505</ele>
        <time>2015-04-16T12:36:56Z</time>
      </trkpt>
      <trkpt lat="46.13543" lon="2.44343">
        <ele>505</ele>
        <time>2015-04-16T12:36:58Z</time>
      </trkpt>
      <trkpt lat="46.1354" lon="2.44342">
        <ele>505</ele>
        <time>2015-04-16T12:37:00Z</time>
      </trkpt>
      <trkpt lat="46.13537" lon="2.44341">
        <ele>505</ele>
        <time>2015-04-16T12:37:02Z</time>
      </trkpt>
      <trkpt lat="46.13534" lon="2.44339">
        <ele>505</ele>
        <time>2015-04-16T12:37:05Z</time>
      </trkpt>
      <trkpt lat="46.13532" lon="2.44339">
        <ele>505</ele>
        <time>2015-04-16T12:37:07Z</time>
      </trkpt>
      <trkpt lat="46.13529" lon="2.44337">
        <ele>505</ele>
        <time>2015-04-16T12:37:09Z</time>
      </trkpt>
      <trkpt lat="46.13527" lon="2.44336">
        <ele>505</ele>
        <time>2015-04-16T12:37:11Z</time>
      </trkpt>
      <trkpt lat="46.13524" lon="2.44333">
        <ele>505</ele>
        <time>2015-04-16T12:37:13Z</time>
      </trkpt>
      <trkpt lat="46.13521" lon="2.44331">
        <ele>505</ele>
        <time>2015-04-16T12:37:15Z</time>
      </trkpt>
      <trkpt lat="46.13518" lon="2.44328">
        <ele>505</ele>
        <time>2015-04-16T12:37:17Z</time>
      </trkpt>
      <trkpt lat="46.13515" lon="2.44327">
        <ele>505</ele>
        <time>2015-04-16T12:37:19Z</time>
      </trkpt>
      <trkpt lat="46.13513" lon="2.44325">
        <ele>505</ele>
        <time>2015-04-16T12:37:21Z</time>
      </trkpt>
      <trkpt lat="46.1351" lon="2.44324">
        <ele>505</ele>
        <time>2015-04-16T12:37:23Z</time>
      </trkpt>
      <trkpt lat="46.13507" lon="2.44322">
        <ele>505</ele>
        <time>2015-04-16T12:37:26Z</time>
      </trkpt>
      <trkpt lat="46.13504" lon="2.4432">
        <ele>505</ele>
        <time>2015-04-16T12:37:29Z</time>
      </trkpt>
      <trkpt lat="46.13501" lon="2.44321">
        <ele>505</ele>
        <time>2015-04-16T12:37:31Z</time>
      </trkpt>
      <trkpt lat="46.13499" lon="2.44321">
        <ele>505</ele>
        <time>2015-04-16T12:37:33Z</time>
      </trkpt>
      <trkpt lat="46.13496" lon="2.44323">
        <ele>505</ele>
        <time>2015-04-16T12:37:35Z</time>
      </trkpt>
      <trkpt lat="46.13492" lon="2.44324">
        <ele>505</ele>
        <time>2015-04-16T12:37:37Z</time>
      </trkpt>
      <trkpt lat="46.13488" lon="2.44327">
        <ele>505</ele>
        <time>2015-04-16T12:37:40Z</time>
      </trkpt>
      <trkpt lat="46.13484" lon="2.44328">
        <ele>505</ele>
        <time>2015-04-16T12:37:42Z</time>
      </trkpt>
      <trkpt lat="46.1348" lon="2.44328">
        <ele>505</ele>
        <time>2015-04-16T12:37:44Z</time>
      </trkpt>
      <trkpt lat="46.13477" lon="2.44327">
        <ele>505</ele>
        <time>2015-04-16T12:37:46Z</time>
      </trkpt>
      <trkpt lat="46.13475" lon="2.44327">
        <ele>505</ele>
        <time>2015-04-16T12:37:48Z</time>
      </trkpt>
      <trkpt lat="46.13472" lon="2.44327">
        <ele>505</ele>
        <time>2015-04-16T12:37:50Z</time>
      </trkpt>
      <trkpt lat="46.13467" lon="2.44327">
        <ele>505</ele>
        <time>2015-04-16T12:37:53Z</time>
      </trkpt>
      <trkpt lat="46.13464" lon="2.44326">
        <ele>505</ele>
        <time>2015-04-16T12:37:55Z</time>
      </trkpt>
      <trkpt lat="46.1346" lon="2.44326">
        <ele>505</ele>
        <time>2015-04-16T12:37:57Z</time>
      </trkpt>
      <trkpt lat="46.13457" lon="2.44326">
        <ele>505</ele>
        <time>2015-04-16T12:37:59Z</time>
      </trkpt>
      <trkpt lat="46.13454" lon="2.44326">
        <ele>505</ele>
        <time>2015-04-16T12:38:01Z</time>
      </trkpt>
      <trkpt lat="46.13451" lon="2.44325">
        <ele>505</ele>
        <time>2015-04-16T12:38:04Z</time>
      </trkpt>
      <trkpt lat="46.13449" lon="2.44325">
        <ele>505</ele>
        <time>2015-04-16T12:38:06Z</time>
      </trkpt>
      <trkpt lat="46.13448" lon="2.44325">
        <ele>505</ele>
        <time>2015-04-16T12:38:08Z</time>
      </trkpt>
      <trkpt lat="46.13445" lon="2.44325">
        <ele>505</ele>
        <time>2015-04-16T12:38:10Z</time>
      </trkpt>
      <trkpt lat="46.13442" lon="2.44324">
        <ele>505</ele>
        <time>2015-04-16T12:38:12Z</time>
      </trkpt>
      <trkpt lat="46.1344" lon="2.44325">
        <ele>505</ele>
        <time>2015-04-16T12:38:14Z</time>
      </trkpt>
      <trkpt lat="46.13437" lon="2.44325">
        <ele>505</ele>
        <time>2015-04-16T12:38:16Z</time>
      </trkpt>
      <trkpt lat="46.13434" lon="2.44325">
        <ele>505</ele>
        <time>2015-04-16T12:38:18Z</time>
      </trkpt>
      <trkpt lat="46.1343" lon="2.44324">
        <ele>505</ele>
        <time>2015-04-16T12:38:20Z</time>
      </trkpt>
      <trkpt lat="46.13427" lon="2.44325">
        <ele>505</ele>
        <time>2015-04-16T12:38:22Z</time>
      </trkpt>
      <trkpt lat="46.13424" lon="2.44324">
        <ele>505</ele>
        <time>2015-04-16T12:38:24Z</time>
      </trkpt>
      <trkpt lat="46.1342" lon="2.44324">
        <ele>505</ele>
        <time>2015-04-16T12:38:26Z</time>
      </trkpt>
      <trkpt lat="46.13418" lon="2.44325">
        <ele>505</ele>
        <time>2015-04-16T12:38:28Z</time>
      </trkpt>
      <trkpt lat="46.13415" lon="2.44325">
        <ele>505</ele>
        <time>2015-04-16T12:38:30Z</time>
      </trkpt>
      <trkpt lat="46.13412" lon="2.44326">
        <ele>505</ele>
        <time>2015-04-16T12:38:32Z</time>
      </trkpt>
      <trkpt lat="46.13409" lon="2.44327">
        <ele>505</ele>
        <time>2015-04-16T12:38:34Z</time>
      </trkpt>
      <trkpt lat="46.13408" lon="2.44329">
        <ele>505</ele>
        <time>2015-04-16T12:38:36Z</time>
      </trkpt>
      <trkpt lat="46.13405" lon="2.4433">
        <ele>505</ele>
        <time>2015-04-16T12:38:38Z</time>
      </trkpt>
      <trkpt lat="46.13403" lon="2.44331">
        <ele>505</ele>
        <time>2015-04-16T12:38:40Z</time>
      </trkpt>
      <trkpt lat="46.134" lon="2.44332">
        <ele>505</ele>
        <time>2015-04-16T12:38:42Z</time>
      </trkpt>
      <trkpt lat="46.13398" lon="2.44334">
        <ele>504</ele>
        <time>2015-04-16T12:38:44Z</time>
      </trkpt>
      <trkpt lat="46.13395" lon="2.44335">
        <ele>503</ele>
        <time>2015-04-16T12:38:46Z</time>
      </trkpt>
      <trkpt lat="46.13393" lon="2.44337">
        <ele>503</ele>
        <time>2015-04-16T12:38:48Z</time>
      </trkpt>
      <trkpt lat="46.1339" lon="2.4434">
        <ele>503</ele>
        <time>2015-04-16T12:38:50Z</time>
      </trkpt>
      <trkpt lat="46.13386" lon="2.44342">
        <ele>503</ele>
        <time>2015-04-16T12:38:52Z</time>
      </trkpt>
      <trkpt lat="46.13384" lon="2.44343">
        <ele>503</ele>
        <time>2015-04-16T12:38:54Z</time>
      </trkpt>
      <trkpt lat="46.13381" lon="2.44346">
        <ele>503</ele>
        <time>2015-04-16T12:38:56Z</time>
      </trkpt>
      <trkpt lat="46.13379" lon="2.44349">
        <ele>503</ele>
        <time>2015-04-16T12:38:58Z</time>
      </trkpt>
      <trkpt lat="46.13377" lon="2.44352">
        <ele>503</ele>
        <time>2015-04-16T12:39:00Z</time>
      </trkpt>
      <trkpt lat="46.13374" lon="2.44355">
        <ele>503</ele>
        <time>2015-04-16T12:39:02Z</time>
      </trkpt>
      <trkpt lat="46.13371" lon="2.44357">
        <ele>503</ele>
        <time>2015-04-16T12:39:05Z</time>
      </trkpt>
      <trkpt lat="46.13368" lon="2.4436">
        <ele>503</ele>
        <time>2015-04-16T12:39:07Z</time>
      </trkpt>
      <trkpt lat="46.13365" lon="2.44361">
        <ele>503</ele>
        <time>2015-04-16T12:39:09Z</time>
      </trkpt>
      <trkpt lat="46.13362" lon="2.44363">
        <ele>503</ele>
        <time>2015-04-16T12:39:11Z</time>
      </trkpt>
      <trkpt lat="46.13359" lon="2.44365">
        <ele>503</ele>
        <time>2015-04-16T12:39:13Z</time>
      </trkpt>
      <trkpt lat="46.13355" lon="2.44368">
        <ele>503</ele>
        <time>2015-04-16T12:39:15Z</time>
      </trkpt>
      <trkpt lat="46.13351" lon="2.4437">
        <ele>502</ele>
        <time>2015-04-16T12:39:17Z</time>
      </trkpt>
      <trkpt lat="46.13349" lon="2.44372">
        <ele>502</ele>
        <time>2015-04-16T12:39:19Z</time>
      </trkpt>
      <trkpt lat="46.13345" lon="2.44375">
        <ele>502</ele>
        <time>2015-04-16T12:39:22Z</time>
      </trkpt>
      <trkpt lat="46.13343" lon="2.44377">
        <ele>501</ele>
        <time>2015-04-16T12:39:24Z</time>
      </trkpt>
      <trkpt lat="46.13341" lon="2.44379">
        <ele>501</ele>
        <time>2015-04-16T12:39:26Z</time>
      </trkpt>
      <trkpt lat="46.13338" lon="2.44381">
        <ele>500</ele>
        <time>2015-04-16T12:39:28Z</time>
      </trkpt>
      <trkpt lat="46.13334" lon="2.44383">
        <ele>500</ele>
        <time>2015-04-16T12:39:30Z</time>
      </trkpt>
      <trkpt lat="46.13332" lon="2.44385">
        <ele>500</ele>
        <time>2015-04-16T12:39:32Z</time>
      </trkpt>
      <trkpt lat="46.13328" lon="2.44388">
        <ele>500</ele>
        <time>2015-04-16T12:39:35Z</time>
      </trkpt>
      <trkpt lat="46.13327" lon="2.44389">
        <ele>500</ele>
        <time>2015-04-16T12:39:37Z</time>
      </trkpt>
      <trkpt lat="46.13327" lon="2.44391">
        <ele>499</ele>
        <time>2015-04-16T12:39:40Z</time>
      </trkpt>
      <trkpt lat="46.13326" lon="2.44392">
        <ele>499</ele>
        <time>2015-04-16T12:39:42Z</time>
      </trkpt>
      <trkpt lat="46.13324" lon="2.44393">
        <ele>499</ele>
        <time>2015-04-16T12:39:47Z</time>
      </trkpt>
      <trkpt lat="46.13324" lon="2.44395">
        <ele>499</ele>
        <time>2015-04-16T12:39:51Z</time>
      </trkpt>
      <trkpt lat="46.13322" lon="2.44397">
        <ele>499</ele>
        <time>2015-04-16T12:39:54Z</time>
      </trkpt>
      <trkpt lat="46.13319" lon="2.444">
        <ele>499</ele>
        <time>2015-04-16T12:39:57Z</time>
      </trkpt>
      <trkpt lat="46.13316" lon="2.44402">
        <ele>499</ele>
        <time>2015-04-16T12:39:59Z</time>
      </trkpt>
      <trkpt lat="46.13314" lon="2.44403">
        <ele>499</ele>
        <time>2015-04-16T12:40:01Z</time>
      </trkpt>
      <trkpt lat="46.13311" lon="2.44406">
        <ele>499</ele>
        <time>2015-04-16T12:40:03Z</time>
      </trkpt>
      <trkpt lat="46.1331" lon="2.44408">
        <ele>499</ele>
        <time>2015-04-16T12:40:05Z</time>
      </trkpt>
      <trkpt lat="46.13308" lon="2.44411">
        <ele>499</ele>
        <time>2015-04-16T12:40:07Z</time>
      </trkpt>
      <trkpt lat="46.13306" lon="2.44415">
        <ele>499</ele>
        <time>2015-04-16T12:40:09Z</time>
      </trkpt>
      <trkpt lat="46.13305" lon="2.44418">
        <ele>499</ele>
        <time>2015-04-16T12:40:11Z</time>
      </trkpt>
      <trkpt lat="46.13305" lon="2.44422">
        <ele>499</ele>
        <time>2015-04-16T12:40:13Z</time>
      </trkpt>
      <trkpt lat="46.13303" lon="2.44426">
        <ele>499</ele>
        <time>2015-04-16T12:40:16Z</time>
      </trkpt>
      <trkpt lat="46.133" lon="2.44431">
        <ele>499</ele>
        <time>2015-04-16T12:40:18Z</time>
      </trkpt>
      <trkpt lat="46.13298" lon="2.44436">
        <ele>498</ele>
        <time>2015-04-16T12:40:21Z</time>
      </trkpt>
      <trkpt lat="46.13295" lon="2.4444">
        <ele>497</ele>
        <time>2015-04-16T12:40:24Z</time>
      </trkpt>
      <trkpt lat="46.13293" lon="2.44444">
        <ele>496</ele>
        <time>2015-04-16T12:40:27Z</time>
      </trkpt>
      <trkpt lat="46.1329" lon="2.44447">
        <ele>493</ele>
        <time>2015-04-16T12:40:30Z</time>
      </trkpt>
      <trkpt lat="46.13289" lon="2.44449">
        <ele>491</ele>
        <time>2015-04-16T12:40:32Z</time>
      </trkpt>
      <trkpt lat="46.13286" lon="2.44452">
        <ele>489</ele>
        <time>2015-04-16T12:40:34Z</time>
      </trkpt>
      <trkpt lat="46.13284" lon="2.44455">
        <ele>489</ele>
        <time>2015-04-16T12:40:36Z</time>
      </trkpt>
      <trkpt lat="46.13282" lon="2.44458">
        <ele>489</ele>
        <time>2015-04-16T12:40:38Z</time>
      </trkpt>
      <trkpt lat="46.13279" lon="2.44462">
        <ele>489</ele>
        <time>2015-04-16T12:40:41Z</time>
      </trkpt>
      <trkpt lat="46.13276" lon="2.44467">
        <ele>489</ele>
        <time>2015-04-16T12:40:44Z</time>
      </trkpt>
      <trkpt lat="46.13274" lon="2.44471">
        <ele>489</ele>
        <time>2015-04-16T12:40:46Z</time>
      </trkpt>
      <trkpt lat="46.13271" lon="2.44474">
        <ele>489</ele>
        <time>2015-04-16T12:40:48Z</time>
      </trkpt>
      <trkpt lat="46.13267" lon="2.44476">
        <ele>489</ele>
        <time>2015-04-16T12:40:50Z</time>
      </trkpt>
      <trkpt lat="46.13264" lon="2.44479">
        <ele>488</ele>
        <time>2015-04-16T12:40:53Z</time>
      </trkpt>
      <trkpt lat="46.13263" lon="2.44482">
        <ele>488</ele>
        <time>2015-04-16T12:40:55Z</time>
      </trkpt>
      <trkpt lat="46.1326" lon="2.44483">
        <ele>487</ele>
        <time>2015-04-16T12:40:57Z</time>
      </trkpt>
      <trkpt lat="46.13257" lon="2.44485">
        <ele>486</ele>
        <time>2015-04-16T12:40:59Z</time>
      </trkpt>
      <trkpt lat="46.13254" lon="2.44487">
        <ele>486</ele>
        <time>2015-04-16T12:41:01Z</time>
      </trkpt>
      <trkpt lat="46.13251" lon="2.44489">
        <ele>486</ele>
        <time>2015-04-16T12:41:03Z</time>
      </trkpt>
      <trkpt lat="46.1325" lon="2.44492">
        <ele>486</ele>
        <time>2015-04-16T12:41:05Z</time>
      </trkpt>
      <trkpt lat="46.13247" lon="2.44495">
        <ele>486</ele>
        <time>2015-04-16T12:41:09Z</time>
      </trkpt>
      <trkpt lat="46.13244" lon="2.44495">
        <ele>487</ele>
        <time>2015-04-16T12:41:11Z</time>
      </trkpt>
      <trkpt lat="46.13242" lon="2.44496">
        <ele>488</ele>
        <time>2015-04-16T12:41:13Z</time>
      </trkpt>
      <trkpt lat="46.13237" lon="2.44496">
        <ele>488</ele>
        <time>2015-04-16T12:41:15Z</time>
      </trkpt>
      <trkpt lat="46.13234" lon="2.44496">
        <ele>488</ele>
        <time>2015-04-16T12:41:17Z</time>
      </trkpt>
      <trkpt lat="46.1323" lon="2.44496">
        <ele>488</ele>
        <time>2015-04-16T12:41:19Z</time>
      </trkpt>
      <trkpt lat="46.13226" lon="2.44497">
        <ele>488</ele>
        <time>2015-04-16T12:41:21Z</time>
      </trkpt>
      <trkpt lat="46.13223" lon="2.44497">
        <ele>488</ele>
        <time>2015-04-16T12:41:23Z</time>
      </trkpt>
      <trkpt lat="46.1322" lon="2.44498">
        <ele>488</ele>
        <time>2015-04-16T12:41:26Z</time>
      </trkpt>
      <trkpt lat="46.13218" lon="2.44498">
        <ele>488</ele>
        <time>2015-04-16T12:41:28Z</time>
      </trkpt>
      <trkpt lat="46.13214" lon="2.445">
        <ele>488</ele>
        <time>2015-04-16T12:41:31Z</time>
      </trkpt>
      <trkpt lat="46.13211" lon="2.44501">
        <ele>488</ele>
        <time>2015-04-16T12:41:33Z</time>
      </trkpt>
      <trkpt lat="46.13208" lon="2.44501">
        <ele>487</ele>
        <time>2015-04-16T12:41:35Z</time>
      </trkpt>
      <trkpt lat="46.13205" lon="2.44503">
        <ele>486</ele>
        <time>2015-04-16T12:41:37Z</time>
      </trkpt>
      <trkpt lat="46.13201" lon="2.44506">
        <ele>486</ele>
        <time>2015-04-16T12:41:40Z</time>
      </trkpt>
      <trkpt lat="46.13198" lon="2.44509">
        <ele>485</ele>
        <time>2015-04-16T12:41:42Z</time>
      </trkpt>
      <trkpt lat="46.13195" lon="2.44511">
        <ele>485</ele>
        <time>2015-04-16T12:41:44Z</time>
      </trkpt>
      <trkpt lat="46.13194" lon="2.44513">
        <ele>484</ele>
        <time>2015-04-16T12:41:46Z</time>
      </trkpt>
      <trkpt lat="46.13192" lon="2.44514">
        <ele>483</ele>
        <time>2015-04-16T12:41:48Z</time>
      </trkpt>
      <trkpt lat="46.13189" lon="2.44515">
        <ele>483</ele>
        <time>2015-04-16T12:41:50Z</time>
      </trkpt>
      <trkpt lat="46.13187" lon="2.44518">
        <ele>483</ele>
        <time>2015-04-16T12:41:52Z</time>
      </trkpt>
      <trkpt lat="46.13184" lon="2.44521">
        <ele>482</ele>
        <time>2015-04-16T12:41:55Z</time>
      </trkpt>
      <trkpt lat="46.13182" lon="2.44523">
        <ele>481</ele>
        <time>2015-04-16T12:41:57Z</time>
      </trkpt>
      <trkpt lat="46.1318" lon="2.44526">
        <ele>480</ele>
        <time>2015-04-16T12:41:59Z</time>
      </trkpt>
      <trkpt lat="46.13177" lon="2.44529">
        <ele>480</ele>
        <time>2015-04-16T12:42:01Z</time>
      </trkpt>
      <trkpt lat="46.13174" lon="2.44532">
        <ele>480</ele>
        <time>2015-04-16T12:42:04Z</time>
      </trkpt>
      <trkpt lat="46.13171" lon="2.44535">
        <ele>480</ele>
        <time>2015-04-16T12:42:06Z</time>
      </trkpt>
      <trkpt lat="46.13169" lon="2.44538">
        <ele>480</ele>
        <time>2015-04-16T12:42:08Z</time>
      </trkpt>
      <trkpt lat="46.13168" lon="2.44542">
        <ele>480</ele>
        <time>2015-04-16T12:42:10Z</time>
      </trkpt>
      <trkpt lat="46.13166" lon="2.44545">
        <ele>480</ele>
        <time>2015-04-16T12:42:12Z</time>
      </trkpt>
      <trkpt lat="46.13165" lon="2.44548">
        <ele>480</ele>
        <time>2015-04-16T12:42:14Z</time>
      </trkpt>
      <trkpt lat="46.13164" lon="2.44551">
        <ele>480</ele>
        <time>2015-04-16T12:42:16Z</time>
      </trkpt>
      <trkpt lat="46.13163" lon="2.44555">
        <ele>480</ele>
        <time>2015-04-16T12:42:18Z</time>
      </trkpt>
      <trkpt lat="46.13161" lon="2.44558">
        <ele>480</ele>
        <time>2015-04-16T12:42:20Z</time>
      </trkpt>
      <trkpt lat="46.13161" lon="2.44561">
        <ele>480</ele>
        <time>2015-04-16T12:42:22Z</time>
      </trkpt>
      <trkpt lat="46.1316" lon="2.44564">
        <ele>480</ele>
        <time>2015-04-16T12:42:24Z</time>
      </trkpt>
      <trkpt lat="46.13158" lon="2.44568">
        <ele>480</ele>
        <time>2015-04-16T12:42:26Z</time>
      </trkpt>
      <trkpt lat="46.13157" lon="2.44572">
        <ele>480</ele>
        <time>2015-04-16T12:42:28Z</time>
      </trkpt>
      <trkpt lat="46.13156" lon="2.44576">
        <ele>480</ele>
        <time>2015-04-16T12:42:30Z</time>
      </trkpt>
      <trkpt lat="46.13155" lon="2.4458">
        <ele>480</ele>
        <time>2015-04-16T12:42:32Z</time>
      </trkpt>
      <trkpt lat="46.13153" lon="2.44584">
        <ele>480</ele>
        <time>2015-04-16T12:42:34Z</time>
      </trkpt>
      <trkpt lat="46.13152" lon="2.44588">
        <ele>480</ele>
        <time>2015-04-16T12:42:36Z</time>
      </trkpt>
      <trkpt lat="46.13151" lon="2.44591">
        <ele>480</ele>
        <time>2015-04-16T12:42:38Z</time>
      </trkpt>
      <trkpt lat="46.1315" lon="2.44594">
        <ele>480</ele>
        <time>2015-04-16T12:42:40Z</time>
      </trkpt>
      <trkpt lat="46.13149" lon="2.44598">
        <ele>480</ele>
        <time>2015-04-16T12:42:42Z</time>
      </trkpt>
      <trkpt lat="46.13148" lon="2.44601">
        <ele>480</ele>
        <time>2015-04-16T12:42:44Z</time>
      </trkpt>
      <trkpt lat="46.13148" lon="2.44605">
        <ele>480</ele>
        <time>2015-04-16T12:42:46Z</time>
      </trkpt>
      <trkpt lat="46.13147" lon="2.44608">
        <ele>480</ele>
        <time>2015-04-16T12:42:48Z</time>
      </trkpt>
      <trkpt lat="46.13147" lon="2.44612">
        <ele>480</ele>
        <time>2015-04-16T12:42:50Z</time>
      </trkpt>
      <trkpt lat="46.13148" lon="2.44616">
        <ele>480</ele>
        <time>2015-04-16T12:42:52Z</time>
      </trkpt>
      <trkpt lat="46.13147" lon="2.4462">
        <ele>480</ele>
        <time>2015-04-16T12:42:54Z</time>
      </trkpt>
      <trkpt lat="46.13147" lon="2.44624">
        <ele>480</ele>
        <time>2015-04-16T12:42:56Z</time>
      </trkpt>
      <trkpt lat="46.13146" lon="2.44628">
        <ele>480</ele>
        <time>2015-04-16T12:42:58Z</time>
      </trkpt>
      <trkpt lat="46.13145" lon="2.44632">
        <ele>480</ele>
        <time>2015-04-16T12:43:00Z</time>
      </trkpt>
      <trkpt lat="46.13144" lon="2.44637">
        <ele>480</ele>
        <time>2015-04-16T12:43:02Z</time>
      </trkpt>
      <trkpt lat="46.13143" lon="2.44641">
        <ele>480</ele>
        <time>2015-04-16T12:43:04Z</time>
      </trkpt>
      <trkpt lat="46.13142" lon="2.44645">
        <ele>480</ele>
        <time>2015-04-16T12:43:06Z</time>
      </trkpt>
      <trkpt lat="46.13142" lon="2.44649">
        <ele>480</ele>
        <time>2015-04-16T12:43:08Z</time>
      </trkpt>
      <trkpt lat="46.13142" lon="2.44652">
        <ele>480</ele>
        <time>2015-04-16T12:43:10Z</time>
      </trkpt>
      <trkpt lat="46.13141" lon="2.44656">
        <ele>480</ele>
        <time>2015-04-16T12:43:12Z</time>
      </trkpt>
      <trkpt lat="46.1314" lon="2.44659">
        <ele>480</ele>
        <time>2015-04-16T12:43:14Z</time>
      </trkpt>
      <trkpt lat="46.13139" lon="2.44662">
        <ele>480</ele>
        <time>2015-04-16T12:43:16Z</time>
      </trkpt>
      <trkpt lat="46.13138" lon="2.44664">
        <ele>480</ele>
        <time>2015-04-16T12:43:18Z</time>
      </trkpt>
      <trkpt lat="46.13136" lon="2.44666">
        <ele>481</ele>
        <time>2015-04-16T12:43:21Z</time>
      </trkpt>
      <trkpt lat="46.13136" lon="2.44668">
        <ele>481</ele>
        <time>2015-04-16T12:43:23Z</time>
      </trkpt>
      <trkpt lat="46.13136" lon="2.4467">
        <ele>482</ele>
        <time>2015-04-16T12:43:25Z</time>
      </trkpt>
      <trkpt lat="46.13137" lon="2.44672">
        <ele>482</ele>
        <time>2015-04-16T12:43:27Z</time>
      </trkpt>
      <trkpt lat="46.13137" lon="2.44673">
        <ele>482</ele>
        <time>2015-04-16T12:43:29Z</time>
      </trkpt>
      <trkpt lat="46.13136" lon="2.44675">
        <ele>482</ele>
        <time>2015-04-16T12:43:31Z</time>
      </trkpt>
      <trkpt lat="46.13136" lon="2.44677">
        <ele>482</ele>
        <time>2015-04-16T12:43:36Z</time>
      </trkpt>
      <trkpt lat="46.13134" lon="2.44679">
        <ele>483</ele>
        <time>2015-04-16T12:43:38Z</time>
      </trkpt>
      <trkpt lat="46.13133" lon="2.4468">
        <ele>483</ele>
        <time>2015-04-16T12:43:40Z</time>
      </trkpt>
      <trkpt lat="46.13132" lon="2.44681">
        <ele>483</ele>
        <time>2015-04-16T12:43:42Z</time>
      </trkpt>
      <trkpt lat="46.13131" lon="2.44682">
        <ele>484</ele>
        <time>2015-04-16T12:43:46Z</time>
      </trkpt>
      <trkpt lat="46.1313" lon="2.44682">
        <ele>484</ele>
        <time>2015-04-16T12:43:49Z</time>
      </trkpt>
      <trkpt lat="46.13127" lon="2.44682">
        <ele>484</ele>
        <time>2015-04-16T12:43:51Z</time>
      </trkpt>
      <trkpt lat="46.13125" lon="2.44682">
        <ele>484</ele>
        <time>2015-04-16T12:43:53Z</time>
      </trkpt>
      <trkpt lat="46.13123" lon="2.44682">
        <ele>484</ele>
        <time>2015-04-16T12:43:55Z</time>
      </trkpt>
      <trkpt lat="46.13121" lon="2.44682">
        <ele>484</ele>
        <time>2015-04-16T12:43:57Z</time>
      </trkpt>
      <trkpt lat="46.13119" lon="2.44683">
        <ele>484</ele>
        <time>2015-04-16T12:43:59Z</time>
      </trkpt>
      <trkpt lat="46.13116" lon="2.44682">
        <ele>484</ele>
        <time>2015-04-16T12:44:01Z</time>
      </trkpt>
      <trkpt lat="46.13114" lon="2.44682">
        <ele>484</ele>
        <time>2015-04-16T12:44:03Z</time>
      </trkpt>
      <trkpt lat="46.13111" lon="2.44681">
        <ele>484</ele>
        <time>2015-04-16T12:44:06Z</time>
      </trkpt>
      <trkpt lat="46.1311" lon="2.4468">
        <ele>484</ele>
        <time>2015-04-16T12:44:08Z</time>
      </trkpt>
      <trkpt lat="46.13107" lon="2.4468">
        <ele>484</ele>
        <time>2015-04-16T12:44:10Z</time>
      </trkpt>
      <trkpt lat="46.13105" lon="2.44679">
        <ele>484</ele>
        <time>2015-04-16T12:44:12Z</time>
      </trkpt>
      <trkpt lat="46.13102" lon="2.44679">
        <ele>484</ele>
        <time>2015-04-16T12:44:14Z</time>
      </trkpt>
      <trkpt lat="46.131" lon="2.44678">
        <ele>484</ele>
        <time>2015-04-16T12:44:16Z</time>
      </trkpt>
      <trkpt lat="46.13097" lon="2.44676">
        <ele>484</ele>
        <time>2015-04-16T12:44:18Z</time>
      </trkpt>
      <trkpt lat="46.13094" lon="2.44675">
        <ele>484</ele>
        <time>2015-04-16T12:44:20Z</time>
      </trkpt>
      <trkpt lat="46.13092" lon="2.44675">
        <ele>484</ele>
        <time>2015-04-16T12:44:22Z</time>
      </trkpt>
      <trkpt lat="46.13089" lon="2.44675">
        <ele>484</ele>
        <time>2015-04-16T12:44:24Z</time>
      </trkpt>
      <trkpt lat="46.13086" lon="2.44674">
        <ele>484</ele>
        <time>2015-04-16T12:44:26Z</time>
      </trkpt>
      <trkpt lat="46.13083" lon="2.44673">
        <ele>484</ele>
        <time>2015-04-16T12:44:28Z</time>
      </trkpt>
      <trkpt lat="46.1308" lon="2.44672">
        <ele>484</ele>
        <time>2015-04-16T12:44:30Z</time>
      </trkpt>
      <trkpt lat="46.13078" lon="2.44672">
        <ele>484</ele>
        <time>2015-04-16T12:44:32Z</time>
      </trkpt>
      <trkpt lat="46.13075" lon="2.44671">
        <ele>484</ele>
        <time>2015-04-16T12:44:34Z</time>
      </trkpt>
      <trkpt lat="46.13072" lon="2.4467">
        <ele>484</ele>
        <time>2015-04-16T12:44:36Z</time>
      </trkpt>
      <trkpt lat="46.13069" lon="2.4467">
        <ele>484</ele>
        <time>2015-04-16T12:44:38Z</time>
      </trkpt>
      <trkpt lat="46.13067" lon="2.44669">
        <ele>484</ele>
        <time>2015-04-16T12:44:40Z</time>
      </trkpt>
      <trkpt lat="46.13064" lon="2.44667">
        <ele>484</ele>
        <time>2015-04-16T12:44:42Z</time>
      </trkpt>
      <trkpt lat="46.13061" lon="2.44667">
        <ele>484</ele>
        <time>2015-04-16T12:44:44Z</time>
      </trkpt>
      <trkpt lat="46.13058" lon="2.44666">
        <ele>484</ele>
        <time>2015-04-16T12:44:46Z</time>
      </trkpt>
      <trkpt lat="46.13055" lon="2.44665">
        <ele>484</ele>
        <time>2015-04-16T12:44:48Z</time>
      </trkpt>
      <trkpt lat="46.13053" lon="2.44664">
        <ele>484</ele>
        <time>2015-04-16T12:44:50Z</time>
      </trkpt>
      <trkpt lat="46.13049" lon="2.44661">
        <ele>484</ele>
        <time>2015-04-16T12:44:53Z</time>
      </trkpt>
      <trkpt lat="46.13046" lon="2.4466">
        <ele>484</ele>
        <time>2015-04-16T12:44:55Z</time>
      </trkpt>
      <trkpt lat="46.13043" lon="2.4466">
        <ele>484</ele>
        <time>2015-04-16T12:44:57Z</time>
      </trkpt>
      <trkpt lat="46.13041" lon="2.44659">
        <ele>484</ele>
        <time>2015-04-16T12:44:59Z</time>
      </trkpt>
      <trkpt lat="46.13038" lon="2.44658">
        <ele>484</ele>
        <time>2015-04-16T12:45:01Z</time>
      </trkpt>
      <trkpt lat="46.13035" lon="2.44657">
        <ele>484</ele>
        <time>2015-04-16T12:45:03Z</time>
      </trkpt>
      <trkpt lat="46.13032" lon="2.44656">
        <ele>484</ele>
        <time>2015-04-16T12:45:05Z</time>
      </trkpt>
      <trkpt lat="46.13029" lon="2.44655">
        <ele>484</ele>
        <time>2015-04-16T12:45:07Z</time>
      </trkpt>
      <trkpt lat="46.13026" lon="2.44655">
        <ele>483</ele>
        <time>2015-04-16T12:45:09Z</time>
      </trkpt>
      <trkpt lat="46.13024" lon="2.44654">
        <ele>483</ele>
        <time>2015-04-16T12:45:11Z</time>
      </trkpt>
      <trkpt lat="46.13021" lon="2.44653">
        <ele>483</ele>
        <time>2015-04-16T12:45:13Z</time>
      </trkpt>
      <trkpt lat="46.13018" lon="2.44652">
        <ele>482</ele>
        <time>2015-04-16T12:45:15Z</time>
      </trkpt>
      <trkpt lat="46.13015" lon="2.44652">
        <ele>482</ele>
        <time>2015-04-16T12:45:17Z</time>
      </trkpt>
      <trkpt lat="46.13012" lon="2.44651">
        <ele>482</ele>
        <time>2015-04-16T12:45:19Z</time>
      </trkpt>
      <trkpt lat="46.1301" lon="2.44649">
        <ele>482</ele>
        <time>2015-04-16T12:45:21Z</time>
      </trkpt>
      <trkpt lat="46.13007" lon="2.44648">
        <ele>482</ele>
        <time>2015-04-16T12:45:23Z</time>
      </trkpt>
      <trkpt lat="46.13003" lon="2.44647">
        <ele>482</ele>
        <time>2015-04-16T12:45:25Z</time>
      </trkpt>
      <trkpt lat="46.13" lon="2.44646">
        <ele>482</ele>
        <time>2015-04-16T12:45:27Z</time>
      </trkpt>
      <trkpt lat="46.12997" lon="2.44644">
        <ele>482</ele>
        <time>2015-04-16T12:45:29Z</time>
      </trkpt>
      <trkpt lat="46.12994" lon="2.44643">
        <ele>482</ele>
        <time>2015-04-16T12:45:31Z</time>
      </trkpt>
      <trkpt lat="46.12992" lon="2.44642">
        <ele>482</ele>
        <time>2015-04-16T12:45:33Z</time>
      </trkpt>
      <trkpt lat="46.12989" lon="2.4464">
        <ele>482</ele>
        <time>2015-04-16T12:45:35Z</time>
      </trkpt>
      <trkpt lat="46.12986" lon="2.44639">
        <ele>482</ele>
        <time>2015-04-16T12:45:37Z</time>
      </trkpt>
      <trkpt lat="46.12983" lon="2.44638">
        <ele>482</ele>
        <time>2015-04-16T12:45:39Z</time>
      </trkpt>
      <trkpt lat="46.12981" lon="2.44637">
        <ele>482</ele>
        <time>2015-04-16T12:45:41Z</time>
      </trkpt>
      <trkpt lat="46.12978" lon="2.44635">
        <ele>482</ele>
        <time>2015-04-16T12:45:43Z</time>
      </trkpt>
      <trkpt lat="46.12975" lon="2.44634">
        <ele>482</ele>
        <time>2015-04-16T12:45:45Z</time>
      </trkpt>
      <trkpt lat="46.12973" lon="2.44632">
        <ele>482</ele>
        <time>2015-04-16T12:45:47Z</time>
      </trkpt>
      <trkpt lat="46.1297" lon="2.4463">
        <ele>482</ele>
        <time>2015-04-16T12:45:49Z</time>
      </trkpt>
      <trkpt lat="46.12968" lon="2.44629">
        <ele>482</ele>
        <time>2015-04-16T12:45:51Z</time>
      </trkpt>
      <trkpt lat="46.12965" lon="2.44626">
        <ele>482</ele>
        <time>2015-04-16T12:45:53Z</time>
      </trkpt>
      <trkpt lat="46.12962" lon="2.44624">
        <ele>482</ele>
        <time>2015-04-16T12:45:56Z</time>
      </trkpt>
      <trkpt lat="46.1296" lon="2.44622">
        <ele>482</ele>
        <time>2015-04-16T12:45:58Z</time>
      </trkpt>
      <trkpt lat="46.12957" lon="2.44621">
        <ele>482</ele>
        <time>2015-04-16T12:46:00Z</time>
      </trkpt>
      <trkpt lat="46.12954" lon="2.44619">
        <ele>482</ele>
        <time>2015-04-16T12:46:02Z</time>
      </trkpt>
      <trkpt lat="46.12951" lon="2.44618">
        <ele>482</ele>
        <time>2015-04-16T12:46:04Z</time>
      </trkpt>
      <trkpt lat="46.12948" lon="2.44617">
        <ele>482</ele>
        <time>2015-04-16T12:46:06Z</time>
      </trkpt>
      <trkpt lat="46.12945" lon="2.44615">
        <ele>482</ele>
        <time>2015-04-16T12:46:08Z</time>
      </trkpt>
      <trkpt lat="46.12943" lon="2.44614">
        <ele>482</ele>
        <time>2015-04-16T12:46:10Z</time>
      </trkpt>
      <trkpt lat="46.1294" lon="2.44613">
        <ele>482</ele>
        <time>2015-04-16T12:46:12Z</time>
      </trkpt>
      <trkpt lat="46.12938" lon="2.44612">
        <ele>482</ele>
        <time>2015-04-16T12:46:14Z</time>
      </trkpt>
      <trkpt lat="46.12935" lon="2.44609">
        <ele>482</ele>
        <time>2015-04-16T12:46:16Z</time>
      </trkpt>
      <trkpt lat="46.12932" lon="2.44608">
        <ele>482</ele>
        <time>2015-04-16T12:46:18Z</time>
      </trkpt>
      <trkpt lat="46.1293" lon="2.44607">
        <ele>482</ele>
        <time>2015-04-16T12:46:20Z</time>
      </trkpt>
      <trkpt lat="46.12928" lon="2.44606">
        <ele>482</ele>
        <time>2015-04-16T12:46:22Z</time>
      </trkpt>
      <trkpt lat="46.12925" lon="2.44604">
        <ele>482</ele>
        <time>2015-04-16T12:46:24Z</time>
      </trkpt>
      <trkpt lat="46.12922" lon="2.44603">
        <ele>482</ele>
        <time>2015-04-16T12:46:26Z</time>
      </trkpt>
      <trkpt lat="46.12919" lon="2.44601">
        <ele>482</ele>
        <time>2015-04-16T12:46:28Z</time>
      </trkpt>
      <trkpt lat="46.12917" lon="2.446">
        <ele>482</ele>
        <time>2015-04-16T12:46:30Z</time>
      </trkpt>
      <trkpt lat="46.12914" lon="2.44598">
        <ele>482</ele>
        <time>2015-04-16T12:46:32Z</time>
      </trkpt>
      <trkpt lat="46.12912" lon="2.44597">
        <ele>482</ele>
        <time>2015-04-16T12:46:34Z</time>
      </trkpt>
      <trkpt lat="46.12909" lon="2.44596">
        <ele>482</ele>
        <time>2015-04-16T12:46:36Z</time>
      </trkpt>
      <trkpt lat="46.12907" lon="2.44595">
        <ele>482</ele>
        <time>2015-04-16T12:46:38Z</time>
      </trkpt>
      <trkpt lat="46.12904" lon="2.44593">
        <ele>482</ele>
        <time>2015-04-16T12:46:40Z</time>
      </trkpt>
      <trkpt lat="46.12901" lon="2.44591">
        <ele>482</ele>
        <time>2015-04-16T12:46:42Z</time>
      </trkpt>
      <trkpt lat="46.12899" lon="2.4459">
        <ele>482</ele>
        <time>2015-04-16T12:46:44Z</time>
      </trkpt>
      <trkpt lat="46.12896" lon="2.44589">
        <ele>482</ele>
        <time>2015-04-16T12:46:46Z</time>
      </trkpt>
      <trkpt lat="46.12893" lon="2.44587">
        <ele>482</ele>
        <time>2015-04-16T12:46:48Z</time>
      </trkpt>
      <trkpt lat="46.12891" lon="2.44586">
        <ele>482</ele>
        <time>2015-04-16T12:46:50Z</time>
      </trkpt>
      <trkpt lat="46.12888" lon="2.44584">
        <ele>482</ele>
        <time>2015-04-16T12:46:52Z</time>
      </trkpt>
      <trkpt lat="46.12886" lon="2.44583">
        <ele>482</ele>
        <time>2015-04-16T12:46:54Z</time>
      </trkpt>
      <trkpt lat="46.12883" lon="2.44581">
        <ele>482</ele>
        <time>2015-04-16T12:46:56Z</time>
      </trkpt>
      <trkpt lat="46.1288" lon="2.44579">
        <ele>482</ele>
        <time>2015-04-16T12:46:58Z</time>
      </trkpt>
      <trkpt lat="46.12878" lon="2.44577">
        <ele>482</ele>
        <time>2015-04-16T12:47:00Z</time>
      </trkpt>
      <trkpt lat="46.12876" lon="2.44575">
        <ele>482</ele>
        <time>2015-04-16T12:47:02Z</time>
      </trkpt>
      <trkpt lat="46.12873" lon="2.44574">
        <ele>482</ele>
        <time>2015-04-16T12:47:04Z</time>
      </trkpt>
      <trkpt lat="46.1287" lon="2.44572">
        <ele>482</ele>
        <time>2015-04-16T12:47:06Z</time>
      </trkpt>
      <trkpt lat="46.12868" lon="2.4457">
        <ele>482</ele>
        <time>2015-04-16T12:47:08Z</time>
      </trkpt>
      <trkpt lat="46.12865" lon="2.44568">
        <ele>482</ele>
        <time>2015-04-16T12:47:10Z</time>
      </trkpt>
      <trkpt lat="46.12863" lon="2.44566">
        <ele>482</ele>
        <time>2015-04-16T12:47:12Z</time>
      </trkpt>
      <trkpt lat="46.12859" lon="2.44563">
        <ele>482</ele>
        <time>2015-04-16T12:47:15Z</time>
      </trkpt>
      <trkpt lat="46.12855" lon="2.4456">
        <ele>482</ele>
        <time>2015-04-16T12:47:18Z</time>
      </trkpt>
      <trkpt lat="46.12853" lon="2.44558">
        <ele>482</ele>
        <time>2015-04-16T12:47:20Z</time>
      </trkpt>
      <trkpt lat="46.12851" lon="2.44555">
        <ele>482</ele>
        <time>2015-04-16T12:47:23Z</time>
      </trkpt>
      <trkpt lat="46.12848" lon="2.44552">
        <ele>482</ele>
        <time>2015-04-16T12:47:25Z</time>
      </trkpt>
      <trkpt lat="46.12846" lon="2.44551">
        <ele>482</ele>
        <time>2015-04-16T12:47:27Z</time>
      </trkpt>
      <trkpt lat="46.12844" lon="2.4455">
        <ele>482</ele>
        <time>2015-04-16T12:47:29Z</time>
      </trkpt>
      <trkpt lat="46.12841" lon="2.4455">
        <ele>482</ele>
        <time>2015-04-16T12:47:31Z</time>
      </trkpt>
      <trkpt lat="46.1284" lon="2.44549">
        <ele>482</ele>
        <time>2015-04-16T12:47:33Z</time>
      </trkpt>
      <trkpt lat="46.12837" lon="2.44548">
        <ele>482</ele>
        <time>2015-04-16T12:47:35Z</time>
      </trkpt>
      <trkpt lat="46.12834" lon="2.44546">
        <ele>482</ele>
        <time>2015-04-16T12:47:37Z</time>
      </trkpt>
      <trkpt lat="46.12832" lon="2.44545">
        <ele>482</ele>
        <time>2015-04-16T12:47:39Z</time>
      </trkpt>
      <trkpt lat="46.12829" lon="2.44542">
        <ele>482</ele>
        <time>2015-04-16T12:47:42Z</time>
      </trkpt>
      <trkpt lat="46.12826" lon="2.4454">
        <ele>482</ele>
        <time>2015-04-16T12:47:44Z</time>
      </trkpt>
      <trkpt lat="46.12823" lon="2.44537">
        <ele>482</ele>
        <time>2015-04-16T12:47:47Z</time>
      </trkpt>
      <trkpt lat="46.1282" lon="2.44534">
        <ele>482</ele>
        <time>2015-04-16T12:47:49Z</time>
      </trkpt>
      <trkpt lat="46.12819" lon="2.44533">
        <ele>482</ele>
        <time>2015-04-16T12:47:51Z</time>
      </trkpt>
      <trkpt lat="46.12817" lon="2.44532">
        <ele>482</ele>
        <time>2015-04-16T12:47:53Z</time>
      </trkpt>
      <trkpt lat="46.12814" lon="2.4453">
        <ele>482</ele>
        <time>2015-04-16T12:47:55Z</time>
      </trkpt>
      <trkpt lat="46.12812" lon="2.44527">
        <ele>482</ele>
        <time>2015-04-16T12:47:57Z</time>
      </trkpt>
      <trkpt lat="46.12809" lon="2.44525">
        <ele>482</ele>
        <time>2015-04-16T12:47:59Z</time>
      </trkpt>
      <trkpt lat="46.12807" lon="2.44523">
        <ele>482</ele>
        <time>2015-04-16T12:48:01Z</time>
      </trkpt>
      <trkpt lat="46.12805" lon="2.4452">
        <ele>482</ele>
        <time>2015-04-16T12:48:03Z</time>
      </trkpt>
      <trkpt lat="46.12803" lon="2.44518">
        <ele>482</ele>
        <time>2015-04-16T12:48:05Z</time>
      </trkpt>
      <trkpt lat="46.128" lon="2.44516">
        <ele>482</ele>
        <time>2015-04-16T12:48:07Z</time>
      </trkpt>
      <trkpt lat="46.12798" lon="2.44514">
        <ele>482</ele>
        <time>2015-04-16T12:48:09Z</time>
      </trkpt>
      <trkpt lat="46.12795" lon="2.44512">
        <ele>482</ele>
        <time>2015-04-16T12:48:11Z</time>
      </trkpt>
      <trkpt lat="46.12793" lon="2.44509">
        <ele>482</ele>
        <time>2015-04-16T12:48:13Z</time>
      </trkpt>
      <trkpt lat="46.1279" lon="2.44507">
        <ele>482</ele>
        <time>2015-04-16T12:48:15Z</time>
      </trkpt>
      <trkpt lat="46.12788" lon="2.44506">
        <ele>482</ele>
        <time>2015-04-16T12:48:17Z</time>
      </trkpt>
      <trkpt lat="46.12784" lon="2.44503">
        <ele>482</ele>
        <time>2015-04-16T12:48:20Z</time>
      </trkpt>
      <trkpt lat="46.12781" lon="2.445">
        <ele>482</ele>
        <time>2015-04-16T12:48:23Z</time>
      </trkpt>
      <trkpt lat="46.12778" lon="2.44498">
        <ele>482</ele>
        <time>2015-04-16T12:48:25Z</time>
      </trkpt>
      <trkpt lat="46.12776" lon="2.44497">
        <ele>482</ele>
        <time>2015-04-16T12:48:27Z</time>
      </trkpt>
      <trkpt lat="46.12773" lon="2.44495">
        <ele>482</ele>
        <time>2015-04-16T12:48:29Z</time>
      </trkpt>
      <trkpt lat="46.12771" lon="2.44493">
        <ele>482</ele>
        <time>2015-04-16T12:48:31Z</time>
      </trkpt>
      <trkpt lat="46.12769" lon="2.44491">
        <ele>483</ele>
        <time>2015-04-16T12:48:33Z</time>
      </trkpt>
      <trkpt lat="46.12767" lon="2.4449">
        <ele>483</ele>
        <time>2015-04-16T12:48:35Z</time>
      </trkpt>
      <trkpt lat="46.12765" lon="2.44488">
        <ele>483</ele>
        <time>2015-04-16T12:48:37Z</time>
      </trkpt>
      <trkpt lat="46.12763" lon="2.44487">
        <ele>483</ele>
        <time>2015-04-16T12:48:39Z</time>
      </trkpt>
      <trkpt lat="46.12761" lon="2.44485">
        <ele>483</ele>
        <time>2015-04-16T12:48:41Z</time>
      </trkpt>
      <trkpt lat="46.12759" lon="2.44484">
        <ele>483</ele>
        <time>2015-04-16T12:48:43Z</time>
      </trkpt>
      <trkpt lat="46.12757" lon="2.44483">
        <ele>483</ele>
        <time>2015-04-16T12:48:46Z</time>
      </trkpt>
      <trkpt lat="46.12756" lon="2.44482">
        <ele>483</ele>
        <time>2015-04-16T12:48:48Z</time>
      </trkpt>
      <trkpt lat="46.12754" lon="2.44481">
        <ele>483</ele>
        <time>2015-04-16T12:48:50Z</time>
      </trkpt>
      <trkpt lat="46.12752" lon="2.4448">
        <ele>483</ele>
        <time>2015-04-16T12:48:52Z</time>
      </trkpt>
      <trkpt lat="46.1275" lon="2.44479">
        <ele>483</ele>
        <time>2015-04-16T12:48:54Z</time>
      </trkpt>
      <trkpt lat="46.12747" lon="2.44477">
        <ele>483</ele>
        <time>2015-04-16T12:48:56Z</time>
      </trkpt>
      <trkpt lat="46.12745" lon="2.44476">
        <ele>483</ele>
        <time>2015-04-16T12:48:58Z</time>
      </trkpt>
      <trkpt lat="46.12742" lon="2.44473">
        <ele>483</ele>
        <time>2015-04-16T12:49:00Z</time>
      </trkpt>
      <trkpt lat="46.12739" lon="2.4447">
        <ele>483</ele>
        <time>2015-04-16T12:49:03Z</time>
      </trkpt>
      <trkpt lat="46.12737" lon="2.44469">
        <ele>483</ele>
        <time>2015-04-16T12:49:05Z</time>
      </trkpt>
      <trkpt lat="46.12734" lon="2.44467">
        <ele>483</ele>
        <time>2015-04-16T12:49:07Z</time>
      </trkpt>
      <trkpt lat="46.12731" lon="2.44466">
        <ele>483</ele>
        <time>2015-04-16T12:49:09Z</time>
      </trkpt>
      <trkpt lat="46.12728" lon="2.44464">
        <ele>483</ele>
        <time>2015-04-16T12:49:12Z</time>
      </trkpt>
      <trkpt lat="46.12725" lon="2.44462">
        <ele>483</ele>
        <time>2015-04-16T12:49:14Z</time>
      </trkpt>
      <trkpt lat="46.12722" lon="2.44461">
        <ele>483</ele>
        <time>2015-04-16T12:49:16Z</time>
      </trkpt>
      <trkpt lat="46.12719" lon="2.44459">
        <ele>483</ele>
        <time>2015-04-16T12:49:19Z</time>
      </trkpt>
      <trkpt lat="46.12716" lon="2.44456">
        <ele>483</ele>
        <time>2015-04-16T12:49:21Z</time>
      </trkpt>
      <trkpt lat="46.12714" lon="2.44454">
        <ele>483</ele>
        <time>2015-04-16T12:49:23Z</time>
      </trkpt>
      <trkpt lat="46.12711" lon="2.44452">
        <ele>483</ele>
        <time>2015-04-16T12:49:25Z</time>
      </trkpt>
      <trkpt lat="46.12709" lon="2.4445">
        <ele>483</ele>
        <time>2015-04-16T12:49:27Z</time>
      </trkpt>
      <trkpt lat="46.12706" lon="2.44448">
        <ele>483</ele>
        <time>2015-04-16T12:49:29Z</time>
      </trkpt>
      <trkpt lat="46.12704" lon="2.44446">
        <ele>483</ele>
        <time>2015-04-16T12:49:31Z</time>
      </trkpt>
      <trkpt lat="46.12701" lon="2.44444">
        <ele>483</ele>
        <time>2015-04-16T12:49:33Z</time>
      </trkpt>
      <trkpt lat="46.12699" lon="2.44443">
        <ele>483</ele>
        <time>2015-04-16T12:49:35Z</time>
      </trkpt>
      <trkpt lat="46.12697" lon="2.44441">
        <ele>483</ele>
        <time>2015-04-16T12:49:37Z</time>
      </trkpt>
      <trkpt lat="46.12695" lon="2.44439">
        <ele>483</ele>
        <time>2015-04-16T12:49:39Z</time>
      </trkpt>
      <trkpt lat="46.12692" lon="2.44436">
        <ele>483</ele>
        <time>2015-04-16T12:49:41Z</time>
      </trkpt>
      <trkpt lat="46.1269" lon="2.44435">
        <ele>483</ele>
        <time>2015-04-16T12:49:43Z</time>
      </trkpt>
      <trkpt lat="46.12688" lon="2.44433">
        <ele>483</ele>
        <time>2015-04-16T12:49:45Z</time>
      </trkpt>
      <trkpt lat="46.12685" lon="2.44431">
        <ele>483</ele>
        <time>2015-04-16T12:49:47Z</time>
      </trkpt>
      <trkpt lat="46.12683" lon="2.4443">
        <ele>483</ele>
        <time>2015-04-16T12:49:49Z</time>
      </trkpt>
      <trkpt lat="46.1268" lon="2.44428">
        <ele>483</ele>
        <time>2015-04-16T12:49:51Z</time>
      </trkpt>
      <trkpt lat="46.12677" lon="2.44426">
        <ele>483</ele>
        <time>2015-04-16T12:49:53Z</time>
      </trkpt>
      <trkpt lat="46.12674" lon="2.44426">
        <ele>483</ele>
        <time>2015-04-16T12:49:55Z</time>
      </trkpt>
      <trkpt lat="46.12672" lon="2.44426">
        <ele>483</ele>
        <time>2015-04-16T12:49:57Z</time>
      </trkpt>
      <trkpt lat="46.12669" lon="2.44425">
        <ele>483</ele>
        <time>2015-04-16T12:49:59Z</time>
      </trkpt>
      <trkpt lat="46.12666" lon="2.44425">
        <ele>483</ele>
        <time>2015-04-16T12:50:01Z</time>
      </trkpt>
      <trkpt lat="46.12663" lon="2.44424">
        <ele>483</ele>
        <time>2015-04-16T12:50:03Z</time>
      </trkpt>
      <trkpt lat="46.1266" lon="2.44423">
        <ele>483</ele>
        <time>2015-04-16T12:50:05Z</time>
      </trkpt>
      <trkpt lat="46.12658" lon="2.44423">
        <ele>483</ele>
        <time>2015-04-16T12:50:07Z</time>
      </trkpt>
      <trkpt lat="46.12655" lon="2.44422">
        <ele>483</ele>
        <time>2015-04-16T12:50:09Z</time>
      </trkpt>
      <trkpt lat="46.12652" lon="2.44421">
        <ele>483</ele>
        <time>2015-04-16T12:50:11Z</time>
      </trkpt>
      <trkpt lat="46.1265" lon="2.4442">
        <ele>483</ele>
        <time>2015-04-16T12:50:13Z</time>
      </trkpt>
      <trkpt lat="46.12647" lon="2.44419">
        <ele>483</ele>
        <time>2015-04-16T12:50:15Z</time>
      </trkpt>
      <trkpt lat="46.12645" lon="2.44418">
        <ele>483</ele>
        <time>2015-04-16T12:50:17Z</time>
      </trkpt>
      <trkpt lat="46.12642" lon="2.44417">
        <ele>483</ele>
        <time>2015-04-16T12:50:19Z</time>
      </trkpt>
      <trkpt lat="46.12639" lon="2.44416">
        <ele>483</ele>
        <time>2015-04-16T12:50:21Z</time>
      </trkpt>
      <trkpt lat="46.12636" lon="2.44414">
        <ele>483</ele>
        <time>2015-04-16T12:50:23Z</time>
      </trkpt>
      <trkpt lat="46.12634" lon="2.44413">
        <ele>483</ele>
        <time>2015-04-16T12:50:25Z</time>
      </trkpt>
      <trkpt lat="46.12631" lon="2.44412">
        <ele>483</ele>
        <time>2015-04-16T12:50:27Z</time>
      </trkpt>
      <trkpt lat="46.12629" lon="2.44411">
        <ele>483</ele>
        <time>2015-04-16T12:50:29Z</time>
      </trkpt>
      <trkpt lat="46.12626" lon="2.4441">
        <ele>483</ele>
        <time>2015-04-16T12:50:31Z</time>
      </trkpt>
      <trkpt lat="46.12623" lon="2.44409">
        <ele>483</ele>
        <time>2015-04-16T12:50:33Z</time>
      </trkpt>
      <trkpt lat="46.1262" lon="2.44408">
        <ele>483</ele>
        <time>2015-04-16T12:50:35Z</time>
      </trkpt>
      <trkpt lat="46.12617" lon="2.44407">
        <ele>483</ele>
        <time>2015-04-16T12:50:37Z</time>
      </trkpt>
      <trkpt lat="46.12614" lon="2.44406">
        <ele>483</ele>
        <time>2015-04-16T12:50:39Z</time>
      </trkpt>
      <trkpt lat="46.12612" lon="2.44405">
        <ele>483</ele>
        <time>2015-04-16T12:50:41Z</time>
      </trkpt>
      <trkpt lat="46.1261" lon="2.44404">
        <ele>483</ele>
        <time>2015-04-16T12:50:43Z</time>
      </trkpt>
      <trkpt lat="46.12606" lon="2.44401">
        <ele>483</ele>
        <time>2015-04-16T12:50:46Z</time>
      </trkpt>
      <trkpt lat="46.12604" lon="2.44398">
        <ele>483</ele>
        <time>2015-04-16T12:50:48Z</time>
      </trkpt>
      <trkpt lat="46.12602" lon="2.44396">
        <ele>483</ele>
        <time>2015-04-16T12:50:50Z</time>
      </trkpt>
      <trkpt lat="46.12599" lon="2.44396">
        <ele>484</ele>
        <time>2015-04-16T12:50:52Z</time>
      </trkpt>
      <trkpt lat="46.12597" lon="2.44395">
        <ele>484</ele>
        <time>2015-04-16T12:50:54Z</time>
      </trkpt>
      <trkpt lat="46.12594" lon="2.44395">
        <ele>484</ele>
        <time>2015-04-16T12:50:56Z</time>
      </trkpt>
      <trkpt lat="46.12591" lon="2.44395">
        <ele>484</ele>
        <time>2015-04-16T12:50:58Z</time>
      </trkpt>
      <trkpt lat="46.12589" lon="2.44396">
        <ele>484</ele>
        <time>2015-04-16T12:51:00Z</time>
      </trkpt>
      <trkpt lat="46.12586" lon="2.44396">
        <ele>484</ele>
        <time>2015-04-16T12:51:02Z</time>
      </trkpt>
      <trkpt lat="46.12583" lon="2.44397">
        <ele>484</ele>
        <time>2015-04-16T12:51:04Z</time>
      </trkpt>
      <trkpt lat="46.1258" lon="2.44398">
        <ele>484</ele>
        <time>2015-04-16T12:51:06Z</time>
      </trkpt>
      <trkpt lat="46.12577" lon="2.44399">
        <ele>484</ele>
        <time>2015-04-16T12:51:08Z</time>
      </trkpt>
      <trkpt lat="46.12574" lon="2.44401">
        <ele>484</ele>
        <time>2015-04-16T12:51:10Z</time>
      </trkpt>
      <trkpt lat="46.12572" lon="2.44401">
        <ele>484</ele>
        <time>2015-04-16T12:51:12Z</time>
      </trkpt>
      <trkpt lat="46.12569" lon="2.44402">
        <ele>484</ele>
        <time>2015-04-16T12:51:14Z</time>
      </trkpt>
      <trkpt lat="46.12566" lon="2.44402">
        <ele>484</ele>
        <time>2015-04-16T12:51:16Z</time>
      </trkpt>
      <trkpt lat="46.12563" lon="2.44403">
        <ele>484</ele>
        <time>2015-04-16T12:51:18Z</time>
      </trkpt>
      <trkpt lat="46.1256" lon="2.44404">
        <ele>484</ele>
        <time>2015-04-16T12:51:20Z</time>
      </trkpt>
      <trkpt lat="46.12556" lon="2.44404">
        <ele>484</ele>
        <time>2015-04-16T12:51:22Z</time>
      </trkpt>
      <trkpt lat="46.12553" lon="2.44403">
        <ele>484</ele>
        <time>2015-04-16T12:51:24Z</time>
      </trkpt>
      <trkpt lat="46.1255" lon="2.44402">
        <ele>484</ele>
        <time>2015-04-16T12:51:27Z</time>
      </trkpt>
      <trkpt lat="46.12549" lon="2.444">
        <ele>484</ele>
        <time>2015-04-16T12:51:29Z</time>
      </trkpt>
      <trkpt lat="46.12545" lon="2.44397">
        <ele>484</ele>
        <time>2015-04-16T12:51:32Z</time>
      </trkpt>
      <trkpt lat="46.12543" lon="2.44394">
        <ele>484</ele>
        <time>2015-04-16T12:51:34Z</time>
      </trkpt>
      <trkpt lat="46.1254" lon="2.44392">
        <ele>484</ele>
        <time>2015-04-16T12:51:36Z</time>
      </trkpt>
      <trkpt lat="46.12538" lon="2.4439">
        <ele>484</ele>
        <time>2015-04-16T12:51:38Z</time>
      </trkpt>
      <trkpt lat="46.12536" lon="2.44388">
        <ele>484</ele>
        <time>2015-04-16T12:51:40Z</time>
      </trkpt>
      <trkpt lat="46.12533" lon="2.44386">
        <ele>484</ele>
        <time>2015-04-16T12:51:42Z</time>
      </trkpt>
      <trkpt lat="46.12531" lon="2.44385">
        <ele>484</ele>
        <time>2015-04-16T12:51:44Z</time>
      </trkpt>
      <trkpt lat="46.12528" lon="2.44385">
        <ele>484</ele>
        <time>2015-04-16T12:51:46Z</time>
      </trkpt>
      <trkpt lat="46.12525" lon="2.44384">
        <ele>484</ele>
        <time>2015-04-16T12:51:48Z</time>
      </trkpt>
      <trkpt lat="46.12522" lon="2.44384">
        <ele>484</ele>
        <time>2015-04-16T12:51:50Z</time>
      </trkpt>
      <trkpt lat="46.12519" lon="2.44383">
        <ele>484</ele>
        <time>2015-04-16T12:51:52Z</time>
      </trkpt>
      <trkpt lat="46.12517" lon="2.44383">
        <ele>483</ele>
        <time>2015-04-16T12:51:54Z</time>
      </trkpt>
      <trkpt lat="46.12514" lon="2.44383">
        <ele>483</ele>
        <time>2015-04-16T12:51:56Z</time>
      </trkpt>
      <trkpt lat="46.12512" lon="2.44383">
        <ele>482</ele>
        <time>2015-04-16T12:51:58Z</time>
      </trkpt>
      <trkpt lat="46.1251" lon="2.44383">
        <ele>482</ele>
        <time>2015-04-16T12:52:00Z</time>
      </trkpt>
      <trkpt lat="46.12507" lon="2.44383">
        <ele>482</ele>
        <time>2015-04-16T12:52:02Z</time>
      </trkpt>
      <trkpt lat="46.12504" lon="2.44383">
        <ele>482</ele>
        <time>2015-04-16T12:52:04Z</time>
      </trkpt>
      <trkpt lat="46.12503" lon="2.44383">
        <ele>482</ele>
        <time>2015-04-16T12:52:06Z</time>
      </trkpt>
      <trkpt lat="46.12502" lon="2.44383">
        <ele>482</ele>
        <time>2015-04-16T12:52:08Z</time>
      </trkpt>
      <trkpt lat="46.12499" lon="2.44382">
        <ele>482</ele>
        <time>2015-04-16T12:52:10Z</time>
      </trkpt>
      <trkpt lat="46.12496" lon="2.44382">
        <ele>482</ele>
        <time>2015-04-16T12:52:12Z</time>
      </trkpt>
      <trkpt lat="46.12494" lon="2.44382">
        <ele>482</ele>
        <time>2015-04-16T12:52:14Z</time>
      </trkpt>
      <trkpt lat="46.12491" lon="2.44381">
        <ele>482</ele>
        <time>2015-04-16T12:52:16Z</time>
      </trkpt>
      <trkpt lat="46.12487" lon="2.4438">
        <ele>482</ele>
        <time>2015-04-16T12:52:19Z</time>
      </trkpt>
      <trkpt lat="46.12484" lon="2.4438">
        <ele>482</ele>
        <time>2015-04-16T12:52:21Z</time>
      </trkpt>
      <trkpt lat="46.12482" lon="2.44379">
        <ele>482</ele>
        <time>2015-04-16T12:52:23Z</time>
      </trkpt>
      <trkpt lat="46.12479" lon="2.44379">
        <ele>482</ele>
        <time>2015-04-16T12:52:25Z</time>
      </trkpt>
      <trkpt lat="46.12477" lon="2.44378">
        <ele>482</ele>
        <time>2015-04-16T12:52:27Z</time>
      </trkpt>
      <trkpt lat="46.12474" lon="2.44377">
        <ele>482</ele>
        <time>2015-04-16T12:52:29Z</time>
      </trkpt>
      <trkpt lat="46.12472" lon="2.44376">
        <ele>482</ele>
        <time>2015-04-16T12:52:31Z</time>
      </trkpt>
      <trkpt lat="46.12469" lon="2.44375">
        <ele>481</ele>
        <time>2015-04-16T12:52:33Z</time>
      </trkpt>
      <trkpt lat="46.12466" lon="2.44373">
        <ele>481</ele>
        <time>2015-04-16T12:52:35Z</time>
      </trkpt>
      <trkpt lat="46.12463" lon="2.44372">
        <ele>481</ele>
        <time>2015-04-16T12:52:37Z</time>
      </trkpt>
      <trkpt lat="46.1246" lon="2.44371">
        <ele>481</ele>
        <time>2015-04-16T12:52:39Z</time>
      </trkpt>
      <trkpt lat="46.12458" lon="2.4437">
        <ele>481</ele>
        <time>2015-04-16T12:52:41Z</time>
      </trkpt>
      <trkpt lat="46.12455" lon="2.44368">
        <ele>481</ele>
        <time>2015-04-16T12:52:43Z</time>
      </trkpt>
      <trkpt lat="46.12453" lon="2.44367">
        <ele>481</ele>
        <time>2015-04-16T12:52:45Z</time>
      </trkpt>
      <trkpt lat="46.1245" lon="2.44366">
        <ele>481</ele>
        <time>2015-04-16T12:52:47Z</time>
      </trkpt>
      <trkpt lat="46.12447" lon="2.44364">
        <ele>480</ele>
        <time>2015-04-16T12:52:50Z</time>
      </trkpt>
      <trkpt lat="46.12444" lon="2.44363">
        <ele>480</ele>
        <time>2015-04-16T12:52:52Z</time>
      </trkpt>
      <trkpt lat="46.12442" lon="2.44363">
        <ele>479</ele>
        <time>2015-04-16T12:52:54Z</time>
      </trkpt>
      <trkpt lat="46.12439" lon="2.44363">
        <ele>479</ele>
        <time>2015-04-16T12:52:56Z</time>
      </trkpt>
      <trkpt lat="46.12437" lon="2.44363">
        <ele>479</ele>
        <time>2015-04-16T12:52:58Z</time>
      </trkpt>
      <trkpt lat="46.12434" lon="2.44363">
        <ele>478</ele>
        <time>2015-04-16T12:53:00Z</time>
      </trkpt>
      <trkpt lat="46.12431" lon="2.44364">
        <ele>478</ele>
        <time>2015-04-16T12:53:02Z</time>
      </trkpt>
      <trkpt lat="46.12429" lon="2.44365">
        <ele>478</ele>
        <time>2015-04-16T12:53:04Z</time>
      </trkpt>
      <trkpt lat="46.12426" lon="2.44365">
        <ele>478</ele>
        <time>2015-04-16T12:53:06Z</time>
      </trkpt>
      <trkpt lat="46.12423" lon="2.44366">
        <ele>478</ele>
        <time>2015-04-16T12:53:08Z</time>
      </trkpt>
      <trkpt lat="46.12421" lon="2.44367">
        <ele>478</ele>
        <time>2015-04-16T12:53:10Z</time>
      </trkpt>
      <trkpt lat="46.12419" lon="2.44369">
        <ele>478</ele>
        <time>2015-04-16T12:53:12Z</time>
      </trkpt>
      <trkpt lat="46.12416" lon="2.44371">
        <ele>478</ele>
        <time>2015-04-16T12:53:14Z</time>
      </trkpt>
      <trkpt lat="46.12414" lon="2.44373">
        <ele>478</ele>
        <time>2015-04-16T12:53:16Z</time>
      </trkpt>
      <trkpt lat="46.12411" lon="2.44374">
        <ele>478</ele>
        <time>2015-04-16T12:53:18Z</time>
      </trkpt>
      <trkpt lat="46.12409" lon="2.44376">
        <ele>478</ele>
        <time>2015-04-16T12:53:20Z</time>
      </trkpt>
      <trkpt lat="46.12407" lon="2.44378">
        <ele>478</ele>
        <time>2015-04-16T12:53:22Z</time>
      </trkpt>
      <trkpt lat="46.12405" lon="2.4438">
        <ele>478</ele>
        <time>2015-04-16T12:53:24Z</time>
      </trkpt>
      <trkpt lat="46.12403" lon="2.44381">
        <ele>478</ele>
        <time>2015-04-16T12:53:26Z</time>
      </trkpt>
      <trkpt lat="46.124" lon="2.44384">
        <ele>478</ele>
        <time>2015-04-16T12:53:28Z</time>
      </trkpt>
      <trkpt lat="46.12398" lon="2.44385">
        <ele>478</ele>
        <time>2015-04-16T12:53:30Z</time>
      </trkpt>
      <trkpt lat="46.12396" lon="2.44387">
        <ele>478</ele>
        <time>2015-04-16T12:53:32Z</time>
      </trkpt>
      <trkpt lat="46.12392" lon="2.4439">
        <ele>478</ele>
        <time>2015-04-16T12:53:35Z</time>
      </trkpt>
      <trkpt lat="46.1239" lon="2.44391">
        <ele>477</ele>
        <time>2015-04-16T12:53:37Z</time>
      </trkpt>
      <trkpt lat="46.12388" lon="2.44392">
        <ele>477</ele>
        <time>2015-04-16T12:53:39Z</time>
      </trkpt>
      <trkpt lat="46.12386" lon="2.44394">
        <ele>477</ele>
        <time>2015-04-16T12:53:41Z</time>
      </trkpt>
      <trkpt lat="46.12383" lon="2.44395">
        <ele>477</ele>
        <time>2015-04-16T12:53:43Z</time>
      </trkpt>
      <trkpt lat="46.12381" lon="2.44396">
        <ele>476</ele>
        <time>2015-04-16T12:53:45Z</time>
      </trkpt>
      <trkpt lat="46.12378" lon="2.44398">
        <ele>476</ele>
        <time>2015-04-16T12:53:47Z</time>
      </trkpt>
      <trkpt lat="46.12376" lon="2.44399">
        <ele>475</ele>
        <time>2015-04-16T12:53:49Z</time>
      </trkpt>
      <trkpt lat="46.12374" lon="2.44401">
        <ele>475</ele>
        <time>2015-04-16T12:53:51Z</time>
      </trkpt>
      <trkpt lat="46.12371" lon="2.44402">
        <ele>475</ele>
        <time>2015-04-16T12:53:53Z</time>
      </trkpt>
      <trkpt lat="46.12369" lon="2.44403">
        <ele>475</ele>
        <time>2015-04-16T12:53:55Z</time>
      </trkpt>
      <trkpt lat="46.12366" lon="2.44405">
        <ele>475</ele>
        <time>2015-04-16T12:53:57Z</time>
      </trkpt>
      <trkpt lat="46.12363" lon="2.44406">
        <ele>474</ele>
        <time>2015-04-16T12:53:59Z</time>
      </trkpt>
      <trkpt lat="46.1236" lon="2.44407">
        <ele>474</ele>
        <time>2015-04-16T12:54:01Z</time>
      </trkpt>
      <trkpt lat="46.12358" lon="2.44408">
        <ele>473</ele>
        <time>2015-04-16T12:54:03Z</time>
      </trkpt>
      <trkpt lat="46.12355" lon="2.44409">
        <ele>473</ele>
        <time>2015-04-16T12:54:05Z</time>
      </trkpt>
      <trkpt lat="46.12353" lon="2.44411">
        <ele>473</ele>
        <time>2015-04-16T12:54:07Z</time>
      </trkpt>
      <trkpt lat="46.1235" lon="2.44413">
        <ele>472</ele>
        <time>2015-04-16T12:54:09Z</time>
      </trkpt>
      <trkpt lat="46.12347" lon="2.44416">
        <ele>472</ele>
        <time>2015-04-16T12:54:12Z</time>
      </trkpt>
      <trkpt lat="46.12346" lon="2.44419">
        <ele>471</ele>
        <time>2015-04-16T12:54:14Z</time>
      </trkpt>
      <trkpt lat="46.12344" lon="2.44421">
        <ele>471</ele>
        <time>2015-04-16T12:54:16Z</time>
      </trkpt>
      <trkpt lat="46.12341" lon="2.44422">
        <ele>471</ele>
        <time>2015-04-16T12:54:18Z</time>
      </trkpt>
      <trkpt lat="46.12339" lon="2.44424">
        <ele>470</ele>
        <time>2015-04-16T12:54:20Z</time>
      </trkpt>
      <trkpt lat="46.12337" lon="2.44426">
        <ele>470</ele>
        <time>2015-04-16T12:54:22Z</time>
      </trkpt>
      <trkpt lat="46.12335" lon="2.44428">
        <ele>469</ele>
        <time>2015-04-16T12:54:24Z</time>
      </trkpt>
      <trkpt lat="46.12333" lon="2.4443">
        <ele>469</ele>
        <time>2015-04-16T12:54:26Z</time>
      </trkpt>
      <trkpt lat="46.12331" lon="2.44432">
        <ele>468</ele>
        <time>2015-04-16T12:54:28Z</time>
      </trkpt>
      <trkpt lat="46.12328" lon="2.44434">
        <ele>468</ele>
        <time>2015-04-16T12:54:30Z</time>
      </trkpt>
      <trkpt lat="46.12326" lon="2.44436">
        <ele>467</ele>
        <time>2015-04-16T12:54:32Z</time>
      </trkpt>
      <trkpt lat="46.12323" lon="2.44439">
        <ele>467</ele>
        <time>2015-04-16T12:54:34Z</time>
      </trkpt>
      <trkpt lat="46.12321" lon="2.44441">
        <ele>466</ele>
        <time>2015-04-16T12:54:36Z</time>
      </trkpt>
      <trkpt lat="46.12318" lon="2.44443">
        <ele>466</ele>
        <time>2015-04-16T12:54:39Z</time>
      </trkpt>
      <trkpt lat="46.12316" lon="2.44444">
        <ele>466</ele>
        <time>2015-04-16T12:54:41Z</time>
      </trkpt>
      <trkpt lat="46.12313" lon="2.44445">
        <ele>466</ele>
        <time>2015-04-16T12:54:43Z</time>
      </trkpt>
      <trkpt lat="46.12311" lon="2.44445">
        <ele>466</ele>
        <time>2015-04-16T12:54:46Z</time>
      </trkpt>
      <trkpt lat="46.12307" lon="2.44442">
        <ele>466</ele>
        <time>2015-04-16T12:54:50Z</time>
      </trkpt>
      <trkpt lat="46.12303" lon="2.44443">
        <ele>466</ele>
        <time>2015-04-16T12:54:53Z</time>
      </trkpt>
      <trkpt lat="46.123" lon="2.44443">
        <ele>466</ele>
        <time>2015-04-16T12:54:55Z</time>
      </trkpt>
      <trkpt lat="46.12297" lon="2.44443">
        <ele>466</ele>
        <time>2015-04-16T12:54:57Z</time>
      </trkpt>
      <trkpt lat="46.12294" lon="2.44443">
        <ele>466</ele>
        <time>2015-04-16T12:54:59Z</time>
      </trkpt>
      <trkpt lat="46.12292" lon="2.44443">
        <ele>466</ele>
        <time>2015-04-16T12:55:01Z</time>
      </trkpt>
      <trkpt lat="46.1229" lon="2.44442">
        <ele>466</ele>
        <time>2015-04-16T12:55:05Z</time>
      </trkpt>
      <trkpt lat="46.12288" lon="2.4444">
        <ele>466</ele>
        <time>2015-04-16T12:55:07Z</time>
      </trkpt>
      <trkpt lat="46.12286" lon="2.44439">
        <ele>466</ele>
        <time>2015-04-16T12:55:09Z</time>
      </trkpt>
      <trkpt lat="46.12283" lon="2.44438">
        <ele>466</ele>
        <time>2015-04-16T12:55:11Z</time>
      </trkpt>
      <trkpt lat="46.1228" lon="2.44437">
        <ele>466</ele>
        <time>2015-04-16T12:55:13Z</time>
      </trkpt>
      <trkpt lat="46.12277" lon="2.44435">
        <ele>466</ele>
        <time>2015-04-16T12:55:15Z</time>
      </trkpt>
      <trkpt lat="46.12275" lon="2.44434">
        <ele>466</ele>
        <time>2015-04-16T12:55:17Z</time>
      </trkpt>
      <trkpt lat="46.12272" lon="2.44434">
        <ele>466</ele>
        <time>2015-04-16T12:55:19Z</time>
      </trkpt>
      <trkpt lat="46.1227" lon="2.44433">
        <ele>466</ele>
        <time>2015-04-16T12:55:21Z</time>
      </trkpt>
      <trkpt lat="46.12267" lon="2.44431">
        <ele>466</ele>
        <time>2015-04-16T12:55:23Z</time>
      </trkpt>
      <trkpt lat="46.12265" lon="2.4443">
        <ele>466</ele>
        <time>2015-04-16T12:55:25Z</time>
      </trkpt>
      <trkpt lat="46.12262" lon="2.44429">
        <ele>466</ele>
        <time>2015-04-16T12:55:27Z</time>
      </trkpt>
      <trkpt lat="46.12259" lon="2.44428">
        <ele>466</ele>
        <time>2015-04-16T12:55:30Z</time>
      </trkpt>
      <trkpt lat="46.12257" lon="2.44427">
        <ele>466</ele>
        <time>2015-04-16T12:55:32Z</time>
      </trkpt>
      <trkpt lat="46.12254" lon="2.44427">
        <ele>466</ele>
        <time>2015-04-16T12:55:34Z</time>
      </trkpt>
      <trkpt lat="46.12252" lon="2.44426">
        <ele>466</ele>
        <time>2015-04-16T12:55:36Z</time>
      </trkpt>
      <trkpt lat="46.12249" lon="2.44425">
        <ele>466</ele>
        <time>2015-04-16T12:55:38Z</time>
      </trkpt>
      <trkpt lat="46.12247" lon="2.44425">
        <ele>466</ele>
        <time>2015-04-16T12:55:40Z</time>
      </trkpt>
      <trkpt lat="46.12244" lon="2.44426">
        <ele>466</ele>
        <time>2015-04-16T12:55:42Z</time>
      </trkpt>
      <trkpt lat="46.12242" lon="2.44426">
        <ele>466</ele>
        <time>2015-04-16T12:55:44Z</time>
      </trkpt>
      <trkpt lat="46.12239" lon="2.44426">
        <ele>466</ele>
        <time>2015-04-16T12:55:46Z</time>
      </trkpt>
      <trkpt lat="46.12237" lon="2.44425">
        <ele>466</ele>
        <time>2015-04-16T12:55:48Z</time>
      </trkpt>
      <trkpt lat="46.12234" lon="2.44424">
        <ele>466</ele>
        <time>2015-04-16T12:55:50Z</time>
      </trkpt>
      <trkpt lat="46.12231" lon="2.44423">
        <ele>466</ele>
        <time>2015-04-16T12:55:52Z</time>
      </trkpt>
      <trkpt lat="46.12228" lon="2.44422">
        <ele>466</ele>
        <time>2015-04-16T12:55:54Z</time>
      </trkpt>
      <trkpt lat="46.12225" lon="2.44422">
        <ele>466</ele>
        <time>2015-04-16T12:55:56Z</time>
      </trkpt>
      <trkpt lat="46.12222" lon="2.44421">
        <ele>466</ele>
        <time>2015-04-16T12:55:58Z</time>
      </trkpt>
      <trkpt lat="46.1222" lon="2.44421">
        <ele>466</ele>
        <time>2015-04-16T12:56:00Z</time>
      </trkpt>
      <trkpt lat="46.12217" lon="2.44419">
        <ele>466</ele>
        <time>2015-04-16T12:56:02Z</time>
      </trkpt>
      <trkpt lat="46.12215" lon="2.44418">
        <ele>466</ele>
        <time>2015-04-16T12:56:04Z</time>
      </trkpt>
      <trkpt lat="46.12212" lon="2.44416">
        <ele>466</ele>
        <time>2015-04-16T12:56:07Z</time>
      </trkpt>
      <trkpt lat="46.12209" lon="2.44414">
        <ele>466</ele>
        <time>2015-04-16T12:56:09Z</time>
      </trkpt>
      <trkpt lat="46.12208" lon="2.4441">
        <ele>466</ele>
        <time>2015-04-16T12:56:11Z</time>
      </trkpt>
      <trkpt lat="46.12206" lon="2.44407">
        <ele>466</ele>
        <time>2015-04-16T12:56:13Z</time>
      </trkpt>
      <trkpt lat="46.12204" lon="2.44404">
        <ele>466</ele>
        <time>2015-04-16T12:56:15Z</time>
      </trkpt>
      <trkpt lat="46.12202" lon="2.444">
        <ele>466</ele>
        <time>2015-04-16T12:56:18Z</time>
      </trkpt>
      <trkpt lat="46.12199" lon="2.44397">
        <ele>466</ele>
        <time>2015-04-16T12:56:20Z</time>
      </trkpt>
      <trkpt lat="46.12197" lon="2.44395">
        <ele>466</ele>
        <time>2015-04-16T12:56:22Z</time>
      </trkpt>
      <trkpt lat="46.12195" lon="2.44392">
        <ele>466</ele>
        <time>2015-04-16T12:56:24Z</time>
      </trkpt>
      <trkpt lat="46.12192" lon="2.4439">
        <ele>466</ele>
        <time>2015-04-16T12:56:26Z</time>
      </trkpt>
      <trkpt lat="46.12188" lon="2.44386">
        <ele>466</ele>
        <time>2015-04-16T12:56:29Z</time>
      </trkpt>
      <trkpt lat="46.12186" lon="2.44384">
        <ele>466</ele>
        <time>2015-04-16T12:56:31Z</time>
      </trkpt>
      <trkpt lat="46.12183" lon="2.44382">
        <ele>466</ele>
        <time>2015-04-16T12:56:33Z</time>
      </trkpt>
      <trkpt lat="46.12181" lon="2.44379">
        <ele>466</ele>
        <time>2015-04-16T12:56:35Z</time>
      </trkpt>
      <trkpt lat="46.12178" lon="2.44377">
        <ele>466</ele>
        <time>2015-04-16T12:56:37Z</time>
      </trkpt>
      <trkpt lat="46.12176" lon="2.44375">
        <ele>466</ele>
        <time>2015-04-16T12:56:39Z</time>
      </trkpt>
      <trkpt lat="46.12173" lon="2.44373">
        <ele>466</ele>
        <time>2015-04-16T12:56:41Z</time>
      </trkpt>
      <trkpt lat="46.1217" lon="2.44369">
        <ele>466</ele>
        <time>2015-04-16T12:56:44Z</time>
      </trkpt>
      <trkpt lat="46.12168" lon="2.44367">
        <ele>466</ele>
        <time>2015-04-16T12:56:46Z</time>
      </trkpt>
      <trkpt lat="46.12166" lon="2.44365">
        <ele>466</ele>
        <time>2015-04-16T12:56:48Z</time>
      </trkpt>
      <trkpt lat="46.12163" lon="2.44362">
        <ele>466</ele>
        <time>2015-04-16T12:56:50Z</time>
      </trkpt>
      <trkpt lat="46.12161" lon="2.44359">
        <ele>466</ele>
        <time>2015-04-16T12:56:52Z</time>
      </trkpt>
      <trkpt lat="46.12159" lon="2.44357">
        <ele>466</ele>
        <time>2015-04-16T12:56:54Z</time>
      </trkpt>
      <trkpt lat="46.12157" lon="2.44354">
        <ele>466</ele>
        <time>2015-04-16T12:56:56Z</time>
      </trkpt>
      <trkpt lat="46.12154" lon="2.44352">
        <ele>466</ele>
        <time>2015-04-16T12:56:58Z</time>
      </trkpt>
      <trkpt lat="46.12152" lon="2.4435">
        <ele>466</ele>
        <time>2015-04-16T12:57:00Z</time>
      </trkpt>
      <trkpt lat="46.12149" lon="2.44347">
        <ele>466</ele>
        <time>2015-04-16T12:57:02Z</time>
      </trkpt>
      <trkpt lat="46.12146" lon="2.44344">
        <ele>466</ele>
        <time>2015-04-16T12:57:05Z</time>
      </trkpt>
      <trkpt lat="46.12144" lon="2.44342">
        <ele>466</ele>
        <time>2015-04-16T12:57:07Z</time>
      </trkpt>
      <trkpt lat="46.12142" lon="2.44339">
        <ele>466</ele>
        <time>2015-04-16T12:57:10Z</time>
      </trkpt>
      <trkpt lat="46.12139" lon="2.44337">
        <ele>466</ele>
        <time>2015-04-16T12:57:12Z</time>
      </trkpt>
      <trkpt lat="46.12137" lon="2.44335">
        <ele>466</ele>
        <time>2015-04-16T12:57:14Z</time>
      </trkpt>
      <trkpt lat="46.12135" lon="2.44333">
        <ele>466</ele>
        <time>2015-04-16T12:57:16Z</time>
      </trkpt>
      <trkpt lat="46.12132" lon="2.44332">
        <ele>466</ele>
        <time>2015-04-16T12:57:18Z</time>
      </trkpt>
      <trkpt lat="46.1213" lon="2.44331">
        <ele>466</ele>
        <time>2015-04-16T12:57:20Z</time>
      </trkpt>
      <trkpt lat="46.12128" lon="2.44328">
        <ele>466</ele>
        <time>2015-04-16T12:57:22Z</time>
      </trkpt>
      <trkpt lat="46.12125" lon="2.44326">
        <ele>466</ele>
        <time>2015-04-16T12:57:24Z</time>
      </trkpt>
      <trkpt lat="46.12123" lon="2.44324">
        <ele>467</ele>
        <time>2015-04-16T12:57:26Z</time>
      </trkpt>
      <trkpt lat="46.12121" lon="2.44321">
        <ele>467</ele>
        <time>2015-04-16T12:57:28Z</time>
      </trkpt>
      <trkpt lat="46.1212" lon="2.44319">
        <ele>467</ele>
        <time>2015-04-16T12:57:30Z</time>
      </trkpt>
      <trkpt lat="46.12117" lon="2.44317">
        <ele>467</ele>
        <time>2015-04-16T12:57:32Z</time>
      </trkpt>
      <trkpt lat="46.12115" lon="2.44314">
        <ele>467</ele>
        <time>2015-04-16T12:57:34Z</time>
      </trkpt>
      <trkpt lat="46.12113" lon="2.44312">
        <ele>467</ele>
        <time>2015-04-16T12:57:36Z</time>
      </trkpt>
      <trkpt lat="46.12111" lon="2.4431">
        <ele>467</ele>
        <time>2015-04-16T12:57:38Z</time>
      </trkpt>
      <trkpt lat="46.12109" lon="2.44308">
        <ele>467</ele>
        <time>2015-04-16T12:57:40Z</time>
      </trkpt>
      <trkpt lat="46.12106" lon="2.44306">
        <ele>467</ele>
        <time>2015-04-16T12:57:42Z</time>
      </trkpt>
      <trkpt lat="46.12104" lon="2.44304">
        <ele>467</ele>
        <time>2015-04-16T12:57:44Z</time>
      </trkpt>
      <trkpt lat="46.12102" lon="2.44302">
        <ele>467</ele>
        <time>2015-04-16T12:57:46Z</time>
      </trkpt>
      <trkpt lat="46.12099" lon="2.44299">
        <ele>467</ele>
        <time>2015-04-16T12:57:49Z</time>
      </trkpt>
      <trkpt lat="46.12096" lon="2.44295">
        <ele>467</ele>
        <time>2015-04-16T12:57:52Z</time>
      </trkpt>
      <trkpt lat="46.12094" lon="2.44293">
        <ele>467</ele>
        <time>2015-04-16T12:57:54Z</time>
      </trkpt>
      <trkpt lat="46.1209" lon="2.44289">
        <ele>467</ele>
        <time>2015-04-16T12:57:57Z</time>
      </trkpt>
      <trkpt lat="46.12088" lon="2.44287">
        <ele>467</ele>
        <time>2015-04-16T12:57:59Z</time>
      </trkpt>
      <trkpt lat="46.12086" lon="2.44284">
        <ele>467</ele>
        <time>2015-04-16T12:58:01Z</time>
      </trkpt>
      <trkpt lat="46.12085" lon="2.44282">
        <ele>467</ele>
        <time>2015-04-16T12:58:03Z</time>
      </trkpt>
      <trkpt lat="46.12083" lon="2.44279">
        <ele>467</ele>
        <time>2015-04-16T12:58:05Z</time>
      </trkpt>
      <trkpt lat="46.1208" lon="2.44275">
        <ele>467</ele>
        <time>2015-04-16T12:58:07Z</time>
      </trkpt>
      <trkpt lat="46.12076" lon="2.44271">
        <ele>468</ele>
        <time>2015-04-16T12:58:10Z</time>
      </trkpt>
      <trkpt lat="46.12074" lon="2.44269">
        <ele>469</ele>
        <time>2015-04-16T12:58:12Z</time>
      </trkpt>
      <trkpt lat="46.12073" lon="2.44266">
        <ele>469</ele>
        <time>2015-04-16T12:58:14Z</time>
      </trkpt>
      <trkpt lat="46.12071" lon="2.44264">
        <ele>469</ele>
        <time>2015-04-16T12:58:16Z</time>
      </trkpt>
      <trkpt lat="46.1207" lon="2.44262">
        <ele>469</ele>
        <time>2015-04-16T12:58:18Z</time>
      </trkpt>
      <trkpt lat="46.12068" lon="2.44259">
        <ele>469</ele>
        <time>2015-04-16T12:58:20Z</time>
      </trkpt>
      <trkpt lat="46.12066" lon="2.44255">
        <ele>469</ele>
        <time>2015-04-16T12:58:23Z</time>
      </trkpt>
      <trkpt lat="46.12064" lon="2.44252">
        <ele>469</ele>
        <time>2015-04-16T12:58:25Z</time>
      </trkpt>
      <trkpt lat="46.12062" lon="2.4425">
        <ele>469</ele>
        <time>2015-04-16T12:58:27Z</time>
      </trkpt>
      <trkpt lat="46.12061" lon="2.44247">
        <ele>469</ele>
        <time>2015-04-16T12:58:29Z</time>
      </trkpt>
      <trkpt lat="46.12058" lon="2.44243">
        <ele>469</ele>
        <time>2015-04-16T12:58:32Z</time>
      </trkpt>
      <trkpt lat="46.12057" lon="2.4424">
        <ele>469</ele>
        <time>2015-04-16T12:58:34Z</time>
      </trkpt>
      <trkpt lat="46.12054" lon="2.44236">
        <ele>469</ele>
        <time>2015-04-16T12:58:36Z</time>
      </trkpt>
      <trkpt lat="46.12052" lon="2.44232">
        <ele>469</ele>
        <time>2015-04-16T12:58:38Z</time>
      </trkpt>
      <trkpt lat="46.1205" lon="2.44228">
        <ele>471</ele>
        <time>2015-04-16T12:58:40Z</time>
      </trkpt>
      <trkpt lat="46.12048" lon="2.44225">
        <ele>471</ele>
        <time>2015-04-16T12:58:42Z</time>
      </trkpt>
      <trkpt lat="46.12047" lon="2.44221">
        <ele>472</ele>
        <time>2015-04-16T12:58:44Z</time>
      </trkpt>
      <trkpt lat="46.12045" lon="2.44217">
        <ele>473</ele>
        <time>2015-04-16T12:58:46Z</time>
      </trkpt>
      <trkpt lat="46.12044" lon="2.44214">
        <ele>473</ele>
        <time>2015-04-16T12:58:48Z</time>
      </trkpt>
      <trkpt lat="46.12042" lon="2.4421">
        <ele>474</ele>
        <time>2015-04-16T12:58:50Z</time>
      </trkpt>
      <trkpt lat="46.1204" lon="2.44207">
        <ele>474</ele>
        <time>2015-04-16T12:58:52Z</time>
      </trkpt>
      <trkpt lat="46.12039" lon="2.44203">
        <ele>474</ele>
        <time>2015-04-16T12:58:54Z</time>
      </trkpt>
      <trkpt lat="46.12038" lon="2.44199">
        <ele>475</ele>
        <time>2015-04-16T12:58:56Z</time>
      </trkpt>
      <trkpt lat="46.12037" lon="2.44196">
        <ele>475</ele>
        <time>2015-04-16T12:58:58Z</time>
      </trkpt>
      <trkpt lat="46.12036" lon="2.44192">
        <ele>476</ele>
        <time>2015-04-16T12:59:00Z</time>
      </trkpt>
      <trkpt lat="46.12035" lon="2.44188">
        <ele>476</ele>
        <time>2015-04-16T12:59:02Z</time>
      </trkpt>
      <trkpt lat="46.12034" lon="2.44184">
        <ele>476</ele>
        <time>2015-04-16T12:59:04Z</time>
      </trkpt>
      <trkpt lat="46.12032" lon="2.44181">
        <ele>476</ele>
        <time>2015-04-16T12:59:06Z</time>
      </trkpt>
      <trkpt lat="46.12031" lon="2.44177">
        <ele>477</ele>
        <time>2015-04-16T12:59:08Z</time>
      </trkpt>
      <trkpt lat="46.1203" lon="2.44174">
        <ele>477</ele>
        <time>2015-04-16T12:59:10Z</time>
      </trkpt>
      <trkpt lat="46.12029" lon="2.4417">
        <ele>477</ele>
        <time>2015-04-16T12:59:12Z</time>
      </trkpt>
      <trkpt lat="46.12028" lon="2.44167">
        <ele>477</ele>
        <time>2015-04-16T12:59:14Z</time>
      </trkpt>
      <trkpt lat="46.12027" lon="2.44164">
        <ele>477</ele>
        <time>2015-04-16T12:59:16Z</time>
      </trkpt>
      <trkpt lat="46.12025" lon="2.44161">
        <ele>477</ele>
        <time>2015-04-16T12:59:18Z</time>
      </trkpt>
      <trkpt lat="46.12024" lon="2.44159">
        <ele>477</ele>
        <time>2015-04-16T12:59:20Z</time>
      </trkpt>
      <trkpt lat="46.12022" lon="2.44154">
        <ele>477</ele>
        <time>2015-04-16T12:59:23Z</time>
      </trkpt>
      <trkpt lat="46.1202" lon="2.44151">
        <ele>477</ele>
        <time>2015-04-16T12:59:25Z</time>
      </trkpt>
      <trkpt lat="46.12019" lon="2.44149">
        <ele>477</ele>
        <time>2015-04-16T12:59:27Z</time>
      </trkpt>
      <trkpt lat="46.12017" lon="2.44146">
        <ele>477</ele>
        <time>2015-04-16T12:59:29Z</time>
      </trkpt>
      <trkpt lat="46.12016" lon="2.44143">
        <ele>477</ele>
        <time>2015-04-16T12:59:31Z</time>
      </trkpt>
      <trkpt lat="46.12014" lon="2.44141">
        <ele>477</ele>
        <time>2015-04-16T12:59:33Z</time>
      </trkpt>
      <trkpt lat="46.12013" lon="2.44137">
        <ele>477</ele>
        <time>2015-04-16T12:59:35Z</time>
      </trkpt>
      <trkpt lat="46.12011" lon="2.44134">
        <ele>477</ele>
        <time>2015-04-16T12:59:37Z</time>
      </trkpt>
      <trkpt lat="46.1201" lon="2.4413">
        <ele>477</ele>
        <time>2015-04-16T12:59:39Z</time>
      </trkpt>
      <trkpt lat="46.12009" lon="2.44126">
        <ele>477</ele>
        <time>2015-04-16T12:59:41Z</time>
      </trkpt>
      <trkpt lat="46.12009" lon="2.44122">
        <ele>477</ele>
        <time>2015-04-16T12:59:43Z</time>
      </trkpt>
      <trkpt lat="46.12008" lon="2.44117">
        <ele>477</ele>
        <time>2015-04-16T12:59:45Z</time>
      </trkpt>
      <trkpt lat="46.12008" lon="2.44112">
        <ele>478</ele>
        <time>2015-04-16T12:59:47Z</time>
      </trkpt>
      <trkpt lat="46.12008" lon="2.44108">
        <ele>478</ele>
        <time>2015-04-16T12:59:49Z</time>
      </trkpt>
      <trkpt lat="46.12008" lon="2.44104">
        <ele>479</ele>
        <time>2015-04-16T12:59:51Z</time>
      </trkpt>
      <trkpt lat="46.12007" lon="2.441">
        <ele>479</ele>
        <time>2015-04-16T12:59:53Z</time>
      </trkpt>
      <trkpt lat="46.12007" lon="2.44096">
        <ele>479</ele>
        <time>2015-04-16T12:59:55Z</time>
      </trkpt>
      <trkpt lat="46.12006" lon="2.44092">
        <ele>479</ele>
        <time>2015-04-16T12:59:57Z</time>
      </trkpt>
      <trkpt lat="46.12006" lon="2.44088">
        <ele>479</ele>
        <time>2015-04-16T12:59:59Z</time>
      </trkpt>
      <trkpt lat="46.12005" lon="2.44084">
        <ele>479</ele>
        <time>2015-04-16T13:00:01Z</time>
      </trkpt>
      <trkpt lat="46.12004" lon="2.4408">
        <ele>479</ele>
        <time>2015-04-16T13:00:03Z</time>
      </trkpt>
      <trkpt lat="46.12003" lon="2.44076">
        <ele>479</ele>
        <time>2015-04-16T13:00:05Z</time>
      </trkpt>
      <trkpt lat="46.12003" lon="2.44073">
        <ele>479</ele>
        <time>2015-04-16T13:00:07Z</time>
      </trkpt>
      <trkpt lat="46.12002" lon="2.44069">
        <ele>479</ele>
        <time>2015-04-16T13:00:09Z</time>
      </trkpt>
      <trkpt lat="46.12001" lon="2.44064">
        <ele>479</ele>
        <time>2015-04-16T13:00:11Z</time>
      </trkpt>
      <trkpt lat="46.12001" lon="2.44061">
        <ele>479</ele>
        <time>2015-04-16T13:00:13Z</time>
      </trkpt>
      <trkpt lat="46.12" lon="2.44057">
        <ele>479</ele>
        <time>2015-04-16T13:00:15Z</time>
      </trkpt>
      <trkpt lat="46.12" lon="2.44053">
        <ele>479</ele>
        <time>2015-04-16T13:00:17Z</time>
      </trkpt>
      <trkpt lat="46.11999" lon="2.44049">
        <ele>479</ele>
        <time>2015-04-16T13:00:19Z</time>
      </trkpt>
      <trkpt lat="46.11998" lon="2.44045">
        <ele>479</ele>
        <time>2015-04-16T13:00:21Z</time>
      </trkpt>
      <trkpt lat="46.11998" lon="2.44042">
        <ele>479</ele>
        <time>2015-04-16T13:00:23Z</time>
      </trkpt>
      <trkpt lat="46.11998" lon="2.44038">
        <ele>479</ele>
        <time>2015-04-16T13:00:25Z</time>
      </trkpt>
      <trkpt lat="46.11997" lon="2.44035">
        <ele>479</ele>
        <time>2015-04-16T13:00:27Z</time>
      </trkpt>
      <trkpt lat="46.11996" lon="2.44031">
        <ele>479</ele>
        <time>2015-04-16T13:00:29Z</time>
      </trkpt>
      <trkpt lat="46.11996" lon="2.44027">
        <ele>479</ele>
        <time>2015-04-16T13:00:31Z</time>
      </trkpt>
      <trkpt lat="46.11995" lon="2.44023">
        <ele>479</ele>
        <time>2015-04-16T13:00:33Z</time>
      </trkpt>
      <trkpt lat="46.11994" lon="2.4402">
        <ele>479</ele>
        <time>2015-04-16T13:00:35Z</time>
      </trkpt>
      <trkpt lat="46.11993" lon="2.44016">
        <ele>479</ele>
        <time>2015-04-16T13:00:37Z</time>
      </trkpt>
      <trkpt lat="46.11993" lon="2.44012">
        <ele>479</ele>
        <time>2015-04-16T13:00:39Z</time>
      </trkpt>
      <trkpt lat="46.11992" lon="2.44009">
        <ele>479</ele>
        <time>2015-04-16T13:00:41Z</time>
      </trkpt>
      <trkpt lat="46.11991" lon="2.44005">
        <ele>479</ele>
        <time>2015-04-16T13:00:43Z</time>
      </trkpt>
      <trkpt lat="46.1199" lon="2.44002">
        <ele>480</ele>
        <time>2015-04-16T13:00:45Z</time>
      </trkpt>
      <trkpt lat="46.1199" lon="2.43998">
        <ele>480</ele>
        <time>2015-04-16T13:00:47Z</time>
      </trkpt>
      <trkpt lat="46.11989" lon="2.43994">
        <ele>480</ele>
        <time>2015-04-16T13:00:49Z</time>
      </trkpt>
      <trkpt lat="46.11988" lon="2.43991">
        <ele>481</ele>
        <time>2015-04-16T13:00:51Z</time>
      </trkpt>
      <trkpt lat="46.11988" lon="2.43988">
        <ele>481</ele>
        <time>2015-04-16T13:00:53Z</time>
      </trkpt>
      <trkpt lat="46.11988" lon="2.43984">
        <ele>481</ele>
        <time>2015-04-16T13:00:55Z</time>
      </trkpt>
      <trkpt lat="46.11987" lon="2.4398">
        <ele>482</ele>
        <time>2015-04-16T13:00:57Z</time>
      </trkpt>
      <trkpt lat="46.11986" lon="2.43977">
        <ele>482</ele>
        <time>2015-04-16T13:00:59Z</time>
      </trkpt>
      <trkpt lat="46.11986" lon="2.43973">
        <ele>482</ele>
        <time>2015-04-16T13:01:01Z</time>
      </trkpt>
      <trkpt lat="46.11985" lon="2.4397">
        <ele>483</ele>
        <time>2015-04-16T13:01:03Z</time>
      </trkpt>
      <trkpt lat="46.11985" lon="2.43966">
        <ele>483</ele>
        <time>2015-04-16T13:01:05Z</time>
      </trkpt>
      <trkpt lat="46.11985" lon="2.43963">
        <ele>484</ele>
        <time>2015-04-16T13:01:07Z</time>
      </trkpt>
      <trkpt lat="46.11985" lon="2.4396">
        <ele>484</ele>
        <time>2015-04-16T13:01:09Z</time>
      </trkpt>
      <trkpt lat="46.11985" lon="2.43956">
        <ele>485</ele>
        <time>2015-04-16T13:01:11Z</time>
      </trkpt>
      <trkpt lat="46.11984" lon="2.43953">
        <ele>485</ele>
        <time>2015-04-16T13:01:13Z</time>
      </trkpt>
      <trkpt lat="46.11984" lon="2.4395">
        <ele>485</ele>
        <time>2015-04-16T13:01:15Z</time>
      </trkpt>
      <trkpt lat="46.11985" lon="2.43946">
        <ele>486</ele>
        <time>2015-04-16T13:01:17Z</time>
      </trkpt>
      <trkpt lat="46.11985" lon="2.43942">
        <ele>486</ele>
        <time>2015-04-16T13:01:19Z</time>
      </trkpt>
      <trkpt lat="46.11985" lon="2.43939">
        <ele>486</ele>
        <time>2015-04-16T13:01:21Z</time>
      </trkpt>
      <trkpt lat="46.11985" lon="2.43935">
        <ele>487</ele>
        <time>2015-04-16T13:01:23Z</time>
      </trkpt>
      <trkpt lat="46.11986" lon="2.43931">
        <ele>487</ele>
        <time>2015-04-16T13:01:25Z</time>
      </trkpt>
      <trkpt lat="46.11987" lon="2.43928">
        <ele>487</ele>
        <time>2015-04-16T13:01:27Z</time>
      </trkpt>
      <trkpt lat="46.11988" lon="2.43924">
        <ele>487</ele>
        <time>2015-04-16T13:01:29Z</time>
      </trkpt>
      <trkpt lat="46.1199" lon="2.43921">
        <ele>487</ele>
        <time>2015-04-16T13:01:31Z</time>
      </trkpt>
      <trkpt lat="46.11991" lon="2.43917">
        <ele>487</ele>
        <time>2015-04-16T13:01:34Z</time>
      </trkpt>
      <trkpt lat="46.11993" lon="2.43914">
        <ele>487</ele>
        <time>2015-04-16T13:01:36Z</time>
      </trkpt>
      <trkpt lat="46.11995" lon="2.4391">
        <ele>487</ele>
        <time>2015-04-16T13:01:38Z</time>
      </trkpt>
      <trkpt lat="46.11996" lon="2.43907">
        <ele>487</ele>
        <time>2015-04-16T13:01:40Z</time>
      </trkpt>
      <trkpt lat="46.11998" lon="2.43904">
        <ele>487</ele>
        <time>2015-04-16T13:01:42Z</time>
      </trkpt>
      <trkpt lat="46.12" lon="2.43901">
        <ele>487</ele>
        <time>2015-04-16T13:01:44Z</time>
      </trkpt>
      <trkpt lat="46.12002" lon="2.43898">
        <ele>487</ele>
        <time>2015-04-16T13:01:46Z</time>
      </trkpt>
      <trkpt lat="46.12003" lon="2.43894">
        <ele>487</ele>
        <time>2015-04-16T13:01:48Z</time>
      </trkpt>
      <trkpt lat="46.12005" lon="2.43891">
        <ele>487</ele>
        <time>2015-04-16T13:01:50Z</time>
      </trkpt>
      <trkpt lat="46.12006" lon="2.43887">
        <ele>487</ele>
        <time>2015-04-16T13:01:52Z</time>
      </trkpt>
      <trkpt lat="46.12007" lon="2.43883">
        <ele>487</ele>
        <time>2015-04-16T13:01:54Z</time>
      </trkpt>
      <trkpt lat="46.12007" lon="2.43879">
        <ele>487</ele>
        <time>2015-04-16T13:01:56Z</time>
      </trkpt>
      <trkpt lat="46.12007" lon="2.43876">
        <ele>487</ele>
        <time>2015-04-16T13:01:58Z</time>
      </trkpt>
      <trkpt lat="46.12007" lon="2.43872">
        <ele>487</ele>
        <time>2015-04-16T13:02:00Z</time>
      </trkpt>
      <trkpt lat="46.12006" lon="2.43869">
        <ele>488</ele>
        <time>2015-04-16T13:02:02Z</time>
      </trkpt>
      <trkpt lat="46.12004" lon="2.43866">
        <ele>488</ele>
        <time>2015-04-16T13:02:04Z</time>
      </trkpt>
      <trkpt lat="46.12003" lon="2.43863">
        <ele>489</ele>
        <time>2015-04-16T13:02:06Z</time>
      </trkpt>
      <trkpt lat="46.12002" lon="2.43861">
        <ele>489</ele>
        <time>2015-04-16T13:02:08Z</time>
      </trkpt>
      <trkpt lat="46.12" lon="2.43858">
        <ele>489</ele>
        <time>2015-04-16T13:02:10Z</time>
      </trkpt>
      <trkpt lat="46.11998" lon="2.43856">
        <ele>489</ele>
        <time>2015-04-16T13:02:12Z</time>
      </trkpt>
      <trkpt lat="46.11996" lon="2.43851">
        <ele>489</ele>
        <time>2015-04-16T13:02:15Z</time>
      </trkpt>
      <trkpt lat="46.11995" lon="2.43848">
        <ele>489</ele>
        <time>2015-04-16T13:02:17Z</time>
      </trkpt>
      <trkpt lat="46.11993" lon="2.43844">
        <ele>489</ele>
        <time>2015-04-16T13:02:19Z</time>
      </trkpt>
      <trkpt lat="46.11992" lon="2.43841">
        <ele>489</ele>
        <time>2015-04-16T13:02:21Z</time>
      </trkpt>
      <trkpt lat="46.11991" lon="2.43837">
        <ele>490</ele>
        <time>2015-04-16T13:02:23Z</time>
      </trkpt>
      <trkpt lat="46.1199" lon="2.43834">
        <ele>490</ele>
        <time>2015-04-16T13:02:25Z</time>
      </trkpt>
      <trkpt lat="46.11989" lon="2.4383">
        <ele>491</ele>
        <time>2015-04-16T13:02:27Z</time>
      </trkpt>
      <trkpt lat="46.11988" lon="2.43827">
        <ele>491</ele>
        <time>2015-04-16T13:02:29Z</time>
      </trkpt>
      <trkpt lat="46.11988" lon="2.43823">
        <ele>492</ele>
        <time>2015-04-16T13:02:31Z</time>
      </trkpt>
      <trkpt lat="46.11987" lon="2.43819">
        <ele>492</ele>
        <time>2015-04-16T13:02:33Z</time>
      </trkpt>
      <trkpt lat="46.11986" lon="2.43816">
        <ele>493</ele>
        <time>2015-04-16T13:02:35Z</time>
      </trkpt>
      <trkpt lat="46.11985" lon="2.43812">
        <ele>493</ele>
        <time>2015-04-16T13:02:37Z</time>
      </trkpt>
      <trkpt lat="46.11985" lon="2.43809">
        <ele>494</ele>
        <time>2015-04-16T13:02:39Z</time>
      </trkpt>
      <trkpt lat="46.11983" lon="2.43805">
        <ele>494</ele>
        <time>2015-04-16T13:02:41Z</time>
      </trkpt>
      <trkpt lat="46.11983" lon="2.43801">
        <ele>494</ele>
        <time>2015-04-16T13:02:43Z</time>
      </trkpt>
      <trkpt lat="46.11982" lon="2.43797">
        <ele>494</ele>
        <time>2015-04-16T13:02:45Z</time>
      </trkpt>
      <trkpt lat="46.11981" lon="2.43792">
        <ele>495</ele>
        <time>2015-04-16T13:02:48Z</time>
      </trkpt>
      <trkpt lat="46.1198" lon="2.43788">
        <ele>495</ele>
        <time>2015-04-16T13:02:50Z</time>
      </trkpt>
      <trkpt lat="46.11979" lon="2.43784">
        <ele>495</ele>
        <time>2015-04-16T13:02:52Z</time>
      </trkpt>
      <trkpt lat="46.11978" lon="2.4378">
        <ele>495</ele>
        <time>2015-04-16T13:02:54Z</time>
      </trkpt>
      <trkpt lat="46.11977" lon="2.43776">
        <ele>495</ele>
        <time>2015-04-16T13:02:56Z</time>
      </trkpt>
      <trkpt lat="46.11977" lon="2.43773">
        <ele>496</ele>
        <time>2015-04-16T13:02:58Z</time>
      </trkpt>
      <trkpt lat="46.11976" lon="2.4377">
        <ele>496</ele>
        <time>2015-04-16T13:03:00Z</time>
      </trkpt>
      <trkpt lat="46.11975" lon="2.43766">
        <ele>496</ele>
        <time>2015-04-16T13:03:02Z</time>
      </trkpt>
      <trkpt lat="46.11974" lon="2.43762">
        <ele>496</ele>
        <time>2015-04-16T13:03:04Z</time>
      </trkpt>
      <trkpt lat="46.11973" lon="2.43759">
        <ele>497</ele>
        <time>2015-04-16T13:03:06Z</time>
      </trkpt>
      <trkpt lat="46.11972" lon="2.43756">
        <ele>497</ele>
        <time>2015-04-16T13:03:08Z</time>
      </trkpt>
      <trkpt lat="46.11971" lon="2.43752">
        <ele>497</ele>
        <time>2015-04-16T13:03:10Z</time>
      </trkpt>
      <trkpt lat="46.11971" lon="2.43749">
        <ele>498</ele>
        <time>2015-04-16T13:03:12Z</time>
      </trkpt>
      <trkpt lat="46.1197" lon="2.43745">
        <ele>498</ele>
        <time>2015-04-16T13:03:14Z</time>
      </trkpt>
      <trkpt lat="46.11969" lon="2.43742">
        <ele>498</ele>
        <time>2015-04-16T13:03:16Z</time>
      </trkpt>
      <trkpt lat="46.11968" lon="2.43738">
        <ele>498</ele>
        <time>2015-04-16T13:03:18Z</time>
      </trkpt>
      <trkpt lat="46.11967" lon="2.43735">
        <ele>499</ele>
        <time>2015-04-16T13:03:20Z</time>
      </trkpt>
      <trkpt lat="46.11966" lon="2.4373">
        <ele>499</ele>
        <time>2015-04-16T13:03:23Z</time>
      </trkpt>
      <trkpt lat="46.11965" lon="2.43726">
        <ele>499</ele>
        <time>2015-04-16T13:03:25Z</time>
      </trkpt>
      <trkpt lat="46.11964" lon="2.43722">
        <ele>499</ele>
        <time>2015-04-16T13:03:28Z</time>
      </trkpt>
      <trkpt lat="46.11963" lon="2.43717">
        <ele>499</ele>
        <time>2015-04-16T13:03:31Z</time>
      </trkpt>
      <trkpt lat="46.11962" lon="2.43713">
        <ele>500</ele>
        <time>2015-04-16T13:03:33Z</time>
      </trkpt>
      <trkpt lat="46.11961" lon="2.43709">
        <ele>500</ele>
        <time>2015-04-16T13:03:35Z</time>
      </trkpt>
      <trkpt lat="46.1196" lon="2.43704">
        <ele>501</ele>
        <time>2015-04-16T13:03:38Z</time>
      </trkpt>
      <trkpt lat="46.11959" lon="2.43701">
        <ele>501</ele>
        <time>2015-04-16T13:03:40Z</time>
      </trkpt>
      <trkpt lat="46.11958" lon="2.43696">
        <ele>501</ele>
        <time>2015-04-16T13:03:43Z</time>
      </trkpt>
      <trkpt lat="46.11957" lon="2.43693">
        <ele>502</ele>
        <time>2015-04-16T13:03:45Z</time>
      </trkpt>
      <trkpt lat="46.11956" lon="2.43689">
        <ele>503</ele>
        <time>2015-04-16T13:03:48Z</time>
      </trkpt>
      <trkpt lat="46.11955" lon="2.43686">
        <ele>503</ele>
        <time>2015-04-16T13:03:50Z</time>
      </trkpt>
      <trkpt lat="46.11953" lon="2.43681">
        <ele>504</ele>
        <time>2015-04-16T13:03:54Z</time>
      </trkpt>
      <trkpt lat="46.11953" lon="2.43677">
        <ele>505</ele>
        <time>2015-04-16T13:03:56Z</time>
      </trkpt>
      <trkpt lat="46.11952" lon="2.43674">
        <ele>505</ele>
        <time>2015-04-16T13:03:58Z</time>
      </trkpt>
      <trkpt lat="46.11952" lon="2.43671">
        <ele>506</ele>
        <time>2015-04-16T13:04:00Z</time>
      </trkpt>
      <trkpt lat="46.11952" lon="2.43668">
        <ele>506</ele>
        <time>2015-04-16T13:04:02Z</time>
      </trkpt>
      <trkpt lat="46.11951" lon="2.43664">
        <ele>507</ele>
        <time>2015-04-16T13:04:04Z</time>
      </trkpt>
      <trkpt lat="46.11951" lon="2.43661">
        <ele>507</ele>
        <time>2015-04-16T13:04:06Z</time>
      </trkpt>
      <trkpt lat="46.11951" lon="2.43656">
        <ele>507</ele>
        <time>2015-04-16T13:04:09Z</time>
      </trkpt>
      <trkpt lat="46.11951" lon="2.43651">
        <ele>507</ele>
        <time>2015-04-16T13:04:12Z</time>
      </trkpt>
      <trkpt lat="46.11951" lon="2.43648">
        <ele>507</ele>
        <time>2015-04-16T13:04:14Z</time>
      </trkpt>
      <trkpt lat="46.1195" lon="2.43644">
        <ele>507</ele>
        <time>2015-04-16T13:04:18Z</time>
      </trkpt>
      <trkpt lat="46.11951" lon="2.43642">
        <ele>507</ele>
        <time>2015-04-16T13:04:27Z</time>
      </trkpt>
      <trkpt lat="46.1195" lon="2.4364">
        <ele>507</ele>
        <time>2015-04-16T13:04:29Z</time>
      </trkpt>
      <trkpt lat="46.11949" lon="2.43634">
        <ele>507</ele>
        <time>2015-04-16T13:04:32Z</time>
      </trkpt>
      <trkpt lat="46.11948" lon="2.43631">
        <ele>507</ele>
        <time>2015-04-16T13:04:34Z</time>
      </trkpt>
      <trkpt lat="46.11948" lon="2.43626">
        <ele>508</ele>
        <time>2015-04-16T13:04:37Z</time>
      </trkpt>
      <trkpt lat="46.11947" lon="2.4362">
        <ele>509</ele>
        <time>2015-04-16T13:04:41Z</time>
      </trkpt>
      <trkpt lat="46.11947" lon="2.43618">
        <ele>509</ele>
        <time>2015-04-16T13:04:43Z</time>
      </trkpt>
      <trkpt lat="46.11946" lon="2.43615">
        <ele>510</ele>
        <time>2015-04-16T13:04:51Z</time>
      </trkpt>
      <trkpt lat="46.11946" lon="2.43612">
        <ele>510</ele>
        <time>2015-04-16T13:04:53Z</time>
      </trkpt>
      <trkpt lat="46.11945" lon="2.43606">
        <ele>510</ele>
        <time>2015-04-16T13:04:56Z</time>
      </trkpt>
      <trkpt lat="46.11945" lon="2.43603">
        <ele>510</ele>
        <time>2015-04-16T13:04:58Z</time>
      </trkpt>
      <trkpt lat="46.11945" lon="2.43598">
        <ele>510</ele>
        <time>2015-04-16T13:05:01Z</time>
      </trkpt>
      <trkpt lat="46.11944" lon="2.43592">
        <ele>511</ele>
        <time>2015-04-16T13:05:04Z</time>
      </trkpt>
      <trkpt lat="46.11943" lon="2.43589">
        <ele>511</ele>
        <time>2015-04-16T13:05:06Z</time>
      </trkpt>
      <trkpt lat="46.11943" lon="2.43585">
        <ele>512</ele>
        <time>2015-04-16T13:05:08Z</time>
      </trkpt>
      <trkpt lat="46.11942" lon="2.43582">
        <ele>512</ele>
        <time>2015-04-16T13:05:10Z</time>
      </trkpt>
      <trkpt lat="46.11942" lon="2.43579">
        <ele>513</ele>
        <time>2015-04-16T13:05:12Z</time>
      </trkpt>
      <trkpt lat="46.11942" lon="2.43575">
        <ele>513</ele>
        <time>2015-04-16T13:05:14Z</time>
      </trkpt>
      <trkpt lat="46.11941" lon="2.4357">
        <ele>514</ele>
        <time>2015-04-16T13:05:17Z</time>
      </trkpt>
      <trkpt lat="46.1194" lon="2.43564">
        <ele>514</ele>
        <time>2015-04-16T13:05:21Z</time>
      </trkpt>
      <trkpt lat="46.1194" lon="2.4356">
        <ele>515</ele>
        <time>2015-04-16T13:05:23Z</time>
      </trkpt>
      <trkpt lat="46.11939" lon="2.43556">
        <ele>515</ele>
        <time>2015-04-16T13:05:25Z</time>
      </trkpt>
      <trkpt lat="46.11939" lon="2.43551">
        <ele>515</ele>
        <time>2015-04-16T13:05:28Z</time>
      </trkpt>
      <trkpt lat="46.11938" lon="2.43547">
        <ele>515</ele>
        <time>2015-04-16T13:05:30Z</time>
      </trkpt>
      <trkpt lat="46.11938" lon="2.43541">
        <ele>515</ele>
        <time>2015-04-16T13:05:33Z</time>
      </trkpt>
      <trkpt lat="46.11938" lon="2.43537">
        <ele>515</ele>
        <time>2015-04-16T13:05:35Z</time>
      </trkpt>
      <trkpt lat="46.11938" lon="2.43531">
        <ele>515</ele>
        <time>2015-04-16T13:05:38Z</time>
      </trkpt>
      <trkpt lat="46.11938" lon="2.43527">
        <ele>515</ele>
        <time>2015-04-16T13:05:40Z</time>
      </trkpt>
      <trkpt lat="46.11938" lon="2.43523">
        <ele>515</ele>
        <time>2015-04-16T13:05:42Z</time>
      </trkpt>
      <trkpt lat="46.11937" lon="2.43518">
        <ele>515</ele>
        <time>2015-04-16T13:05:44Z</time>
      </trkpt>
      <trkpt lat="46.11937" lon="2.43513">
        <ele>515</ele>
        <time>2015-04-16T13:05:47Z</time>
      </trkpt>
      <trkpt lat="46.11937" lon="2.43509">
        <ele>515</ele>
        <time>2015-04-16T13:05:49Z</time>
      </trkpt>
      <trkpt lat="46.11937" lon="2.43503">
        <ele>516</ele>
        <time>2015-04-16T13:05:52Z</time>
      </trkpt>
      <trkpt lat="46.11938" lon="2.435">
        <ele>516</ele>
        <time>2015-04-16T13:05:54Z</time>
      </trkpt>
      <trkpt lat="46.11938" lon="2.43495">
        <ele>516</ele>
        <time>2015-04-16T13:05:57Z</time>
      </trkpt>
      <trkpt lat="46.11939" lon="2.43492">
        <ele>516</ele>
        <time>2015-04-16T13:05:59Z</time>
      </trkpt>
      <trkpt lat="46.1194" lon="2.43486">
        <ele>517</ele>
        <time>2015-04-16T13:06:02Z</time>
      </trkpt>
      <trkpt lat="46.1194" lon="2.43483">
        <ele>517</ele>
        <time>2015-04-16T13:06:04Z</time>
      </trkpt>
      <trkpt lat="46.11941" lon="2.43478">
        <ele>517</ele>
        <time>2015-04-16T13:06:07Z</time>
      </trkpt>
      <trkpt lat="46.11942" lon="2.43474">
        <ele>518</ele>
        <time>2015-04-16T13:06:09Z</time>
      </trkpt>
      <trkpt lat="46.11943" lon="2.43471">
        <ele>518</ele>
        <time>2015-04-16T13:06:11Z</time>
      </trkpt>
      <trkpt lat="46.11945" lon="2.43467">
        <ele>519</ele>
        <time>2015-04-16T13:06:15Z</time>
      </trkpt>
      <trkpt lat="46.11945" lon="2.43464">
        <ele>519</ele>
        <time>2015-04-16T13:06:21Z</time>
      </trkpt>
      <trkpt lat="46.11946" lon="2.43458">
        <ele>519</ele>
        <time>2015-04-16T13:06:24Z</time>
      </trkpt>
      <trkpt lat="46.11947" lon="2.43454">
        <ele>519</ele>
        <time>2015-04-16T13:06:26Z</time>
      </trkpt>
      <trkpt lat="46.11949" lon="2.43448">
        <ele>519</ele>
        <time>2015-04-16T13:06:29Z</time>
      </trkpt>
      <trkpt lat="46.1195" lon="2.43444">
        <ele>519</ele>
        <time>2015-04-16T13:06:31Z</time>
      </trkpt>
      <trkpt lat="46.11951" lon="2.43438">
        <ele>519</ele>
        <time>2015-04-16T13:06:34Z</time>
      </trkpt>
      <trkpt lat="46.11952" lon="2.43435">
        <ele>520</ele>
        <time>2015-04-16T13:06:36Z</time>
      </trkpt>
      <trkpt lat="46.11953" lon="2.43429">
        <ele>520</ele>
        <time>2015-04-16T13:06:39Z</time>
      </trkpt>
      <trkpt lat="46.11954" lon="2.43425">
        <ele>520</ele>
        <time>2015-04-16T13:06:41Z</time>
      </trkpt>
      <trkpt lat="46.11955" lon="2.43419">
        <ele>520</ele>
        <time>2015-04-16T13:06:44Z</time>
      </trkpt>
      <trkpt lat="46.11956" lon="2.43415">
        <ele>520</ele>
        <time>2015-04-16T13:06:46Z</time>
      </trkpt>
      <trkpt lat="46.11957" lon="2.43409">
        <ele>520</ele>
        <time>2015-04-16T13:06:49Z</time>
      </trkpt>
      <trkpt lat="46.11958" lon="2.43406">
        <ele>520</ele>
        <time>2015-04-16T13:06:51Z</time>
      </trkpt>
      <trkpt lat="46.11959" lon="2.43402">
        <ele>521</ele>
        <time>2015-04-16T13:06:53Z</time>
      </trkpt>
      <trkpt lat="46.1196" lon="2.43395">
        <ele>521</ele>
        <time>2015-04-16T13:06:56Z</time>
      </trkpt>
      <trkpt lat="46.11961" lon="2.4339">
        <ele>521</ele>
        <time>2015-04-16T13:06:59Z</time>
      </trkpt>
      <trkpt lat="46.11962" lon="2.43386">
        <ele>521</ele>
        <time>2015-04-16T13:07:01Z</time>
      </trkpt>
      <trkpt lat="46.11964" lon="2.4338">
        <ele>521</ele>
        <time>2015-04-16T13:07:04Z</time>
      </trkpt>
      <trkpt lat="46.11965" lon="2.43376">
        <ele>521</ele>
        <time>2015-04-16T13:07:06Z</time>
      </trkpt>
      <trkpt lat="46.11966" lon="2.43371">
        <ele>522</ele>
        <time>2015-04-16T13:07:09Z</time>
      </trkpt>
      <trkpt lat="46.11967" lon="2.43367">
        <ele>522</ele>
        <time>2015-04-16T13:07:11Z</time>
      </trkpt>
      <trkpt lat="46.11968" lon="2.43361">
        <ele>522</ele>
        <time>2015-04-16T13:07:14Z</time>
      </trkpt>
      <trkpt lat="46.11968" lon="2.43358">
        <ele>522</ele>
        <time>2015-04-16T13:07:16Z</time>
      </trkpt>
      <trkpt lat="46.11969" lon="2.43355">
        <ele>522</ele>
        <time>2015-04-16T13:07:19Z</time>
      </trkpt>
      <trkpt lat="46.1197" lon="2.43351">
        <ele>522</ele>
        <time>2015-04-16T13:07:21Z</time>
      </trkpt>
      <trkpt lat="46.11971" lon="2.43345">
        <ele>522</ele>
        <time>2015-04-16T13:07:24Z</time>
      </trkpt>
      <trkpt lat="46.11972" lon="2.43341">
        <ele>522</ele>
        <time>2015-04-16T13:07:26Z</time>
      </trkpt>
      <trkpt lat="46.11973" lon="2.43336">
        <ele>523</ele>
        <time>2015-04-16T13:07:29Z</time>
      </trkpt>
      <trkpt lat="46.11974" lon="2.43332">
        <ele>523</ele>
        <time>2015-04-16T13:07:31Z</time>
      </trkpt>
      <trkpt lat="46.11975" lon="2.43327">
        <ele>523</ele>
        <time>2015-04-16T13:07:34Z</time>
      </trkpt>
      <trkpt lat="46.11976" lon="2.43323">
        <ele>524</ele>
        <time>2015-04-16T13:07:36Z</time>
      </trkpt>
      <trkpt lat="46.11977" lon="2.43317">
        <ele>525</ele>
        <time>2015-04-16T13:07:39Z</time>
      </trkpt>
      <trkpt lat="46.11978" lon="2.43313">
        <ele>525</ele>
        <time>2015-04-16T13:07:41Z</time>
      </trkpt>
      <trkpt lat="46.11979" lon="2.43308">
        <ele>526</ele>
        <time>2015-04-16T13:07:44Z</time>
      </trkpt>
      <trkpt lat="46.11979" lon="2.43303">
        <ele>526</ele>
        <time>2015-04-16T13:07:46Z</time>
      </trkpt>
      <trkpt lat="46.1198" lon="2.43298">
        <ele>526</ele>
        <time>2015-04-16T13:07:49Z</time>
      </trkpt>
      <trkpt lat="46.1198" lon="2.43294">
        <ele>526</ele>
        <time>2015-04-16T13:07:51Z</time>
      </trkpt>
      <trkpt lat="46.1198" lon="2.43287">
        <ele>526</ele>
        <time>2015-04-16T13:07:54Z</time>
      </trkpt>
      <trkpt lat="46.1198" lon="2.43283">
        <ele>527</ele>
        <time>2015-04-16T13:07:56Z</time>
      </trkpt>
      <trkpt lat="46.11979" lon="2.43277">
        <ele>527</ele>
        <time>2015-04-16T13:07:59Z</time>
      </trkpt>
      <trkpt lat="46.11978" lon="2.43273">
        <ele>528</ele>
        <time>2015-04-16T13:08:01Z</time>
      </trkpt>
      <trkpt lat="46.11977" lon="2.43267">
        <ele>528</ele>
        <time>2015-04-16T13:08:04Z</time>
      </trkpt>
      <trkpt lat="46.11976" lon="2.43264">
        <ele>528</ele>
        <time>2015-04-16T13:08:06Z</time>
      </trkpt>
      <trkpt lat="46.11975" lon="2.43258">
        <ele>528</ele>
        <time>2015-04-16T13:08:09Z</time>
      </trkpt>
      <trkpt lat="46.11974" lon="2.43254">
        <ele>528</ele>
        <time>2015-04-16T13:08:11Z</time>
      </trkpt>
      <trkpt lat="46.11972" lon="2.4325">
        <ele>528</ele>
        <time>2015-04-16T13:08:14Z</time>
      </trkpt>
      <trkpt lat="46.11971" lon="2.43247">
        <ele>528</ele>
        <time>2015-04-16T13:08:16Z</time>
      </trkpt>
      <trkpt lat="46.11969" lon="2.43242">
        <ele>528</ele>
        <time>2015-04-16T13:08:19Z</time>
      </trkpt>
      <trkpt lat="46.11967" lon="2.43238">
        <ele>528</ele>
        <time>2015-04-16T13:08:21Z</time>
      </trkpt>
      <trkpt lat="46.11966" lon="2.43234">
        <ele>528</ele>
        <time>2015-04-16T13:08:24Z</time>
      </trkpt>
      <trkpt lat="46.11964" lon="2.43231">
        <ele>528</ele>
        <time>2015-04-16T13:08:26Z</time>
      </trkpt>
      <trkpt lat="46.11962" lon="2.43226">
        <ele>528</ele>
        <time>2015-04-16T13:08:29Z</time>
      </trkpt>
      <trkpt lat="46.11961" lon="2.43222">
        <ele>528</ele>
        <time>2015-04-16T13:08:31Z</time>
      </trkpt>
      <trkpt lat="46.11959" lon="2.43217">
        <ele>528</ele>
        <time>2015-04-16T13:08:34Z</time>
      </trkpt>
      <trkpt lat="46.11958" lon="2.43214">
        <ele>528</ele>
        <time>2015-04-16T13:08:36Z</time>
      </trkpt>
      <trkpt lat="46.11955" lon="2.43209">
        <ele>528</ele>
        <time>2015-04-16T13:08:39Z</time>
      </trkpt>
      <trkpt lat="46.11953" lon="2.43204">
        <ele>528</ele>
        <time>2015-04-16T13:08:42Z</time>
      </trkpt>
      <trkpt lat="46.11951" lon="2.43199">
        <ele>528</ele>
        <time>2015-04-16T13:08:45Z</time>
      </trkpt>
      <trkpt lat="46.1195" lon="2.43196">
        <ele>528</ele>
        <time>2015-04-16T13:08:47Z</time>
      </trkpt>
      <trkpt lat="46.11948" lon="2.43191">
        <ele>528</ele>
        <time>2015-04-16T13:08:50Z</time>
      </trkpt>
      <trkpt lat="46.11947" lon="2.43187">
        <ele>528</ele>
        <time>2015-04-16T13:08:52Z</time>
      </trkpt>
      <trkpt lat="46.11946" lon="2.43182">
        <ele>528</ele>
        <time>2015-04-16T13:08:55Z</time>
      </trkpt>
      <trkpt lat="46.11944" lon="2.43179">
        <ele>528</ele>
        <time>2015-04-16T13:08:57Z</time>
      </trkpt>
      <trkpt lat="46.11942" lon="2.43174">
        <ele>528</ele>
        <time>2015-04-16T13:09:00Z</time>
      </trkpt>
      <trkpt lat="46.11941" lon="2.4317">
        <ele>528</ele>
        <time>2015-04-16T13:09:02Z</time>
      </trkpt>
      <trkpt lat="46.1194" lon="2.43167">
        <ele>528</ele>
        <time>2015-04-16T13:09:04Z</time>
      </trkpt>
      <trkpt lat="46.11938" lon="2.43164">
        <ele>528</ele>
        <time>2015-04-16T13:09:06Z</time>
      </trkpt>
      <trkpt lat="46.11937" lon="2.4316">
        <ele>528</ele>
        <time>2015-04-16T13:09:08Z</time>
      </trkpt>
      <trkpt lat="46.11935" lon="2.43157">
        <ele>528</ele>
        <time>2015-04-16T13:09:10Z</time>
      </trkpt>
      <trkpt lat="46.11934" lon="2.43153">
        <ele>528</ele>
        <time>2015-04-16T13:09:12Z</time>
      </trkpt>
      <trkpt lat="46.11932" lon="2.43148">
        <ele>528</ele>
        <time>2015-04-16T13:09:15Z</time>
      </trkpt>
      <trkpt lat="46.1193" lon="2.43145">
        <ele>528</ele>
        <time>2015-04-16T13:09:17Z</time>
      </trkpt>
      <trkpt lat="46.11928" lon="2.43139">
        <ele>528</ele>
        <time>2015-04-16T13:09:20Z</time>
      </trkpt>
      <trkpt lat="46.11926" lon="2.43136">
        <ele>528</ele>
        <time>2015-04-16T13:09:22Z</time>
      </trkpt>
      <trkpt lat="46.11924" lon="2.43131">
        <ele>528</ele>
        <time>2015-04-16T13:09:25Z</time>
      </trkpt>
      <trkpt lat="46.11922" lon="2.43127">
        <ele>528</ele>
        <time>2015-04-16T13:09:27Z</time>
      </trkpt>
      <trkpt lat="46.1192" lon="2.43122">
        <ele>528</ele>
        <time>2015-04-16T13:09:30Z</time>
      </trkpt>
      <trkpt lat="46.11918" lon="2.43118">
        <ele>528</ele>
        <time>2015-04-16T13:09:32Z</time>
      </trkpt>
      <trkpt lat="46.11916" lon="2.43112">
        <ele>528</ele>
        <time>2015-04-16T13:09:35Z</time>
      </trkpt>
      <trkpt lat="46.11914" lon="2.43109">
        <ele>528</ele>
        <time>2015-04-16T13:09:37Z</time>
      </trkpt>
      <trkpt lat="46.11911" lon="2.43104">
        <ele>528</ele>
        <time>2015-04-16T13:09:40Z</time>
      </trkpt>
      <trkpt lat="46.1191" lon="2.431">
        <ele>528</ele>
        <time>2015-04-16T13:09:42Z</time>
      </trkpt>
      <trkpt lat="46.11908" lon="2.43095">
        <ele>528</ele>
        <time>2015-04-16T13:09:45Z</time>
      </trkpt>
      <trkpt lat="46.11906" lon="2.43092">
        <ele>528</ele>
        <time>2015-04-16T13:09:47Z</time>
      </trkpt>
      <trkpt lat="46.11904" lon="2.43087">
        <ele>528</ele>
        <time>2015-04-16T13:09:50Z</time>
      </trkpt>
      <trkpt lat="46.11903" lon="2.43083">
        <ele>528</ele>
        <time>2015-04-16T13:09:52Z</time>
      </trkpt>
      <trkpt lat="46.119" lon="2.43078">
        <ele>528</ele>
        <time>2015-04-16T13:09:55Z</time>
      </trkpt>
      <trkpt lat="46.11899" lon="2.43075">
        <ele>528</ele>
        <time>2015-04-16T13:09:57Z</time>
      </trkpt>
      <trkpt lat="46.11896" lon="2.4307">
        <ele>528</ele>
        <time>2015-04-16T13:10:00Z</time>
      </trkpt>
      <trkpt lat="46.11895" lon="2.43066">
        <ele>528</ele>
        <time>2015-04-16T13:10:02Z</time>
      </trkpt>
      <trkpt lat="46.11893" lon="2.43061">
        <ele>528</ele>
        <time>2015-04-16T13:10:05Z</time>
      </trkpt>
      <trkpt lat="46.11892" lon="2.43058">
        <ele>528</ele>
        <time>2015-04-16T13:10:07Z</time>
      </trkpt>
      <trkpt lat="46.1189" lon="2.43053">
        <ele>528</ele>
        <time>2015-04-16T13:10:10Z</time>
      </trkpt>
      <trkpt lat="46.11888" lon="2.4305">
        <ele>528</ele>
        <time>2015-04-16T13:10:12Z</time>
      </trkpt>
      <trkpt lat="46.11886" lon="2.43046">
        <ele>528</ele>
        <time>2015-04-16T13:10:15Z</time>
      </trkpt>
      <trkpt lat="46.11885" lon="2.43043">
        <ele>528</ele>
        <time>2015-04-16T13:10:17Z</time>
      </trkpt>
      <trkpt lat="46.11882" lon="2.43038">
        <ele>528</ele>
        <time>2015-04-16T13:10:20Z</time>
      </trkpt>
      <trkpt lat="46.11881" lon="2.43035">
        <ele>528</ele>
        <time>2015-04-16T13:10:22Z</time>
      </trkpt>
      <trkpt lat="46.11879" lon="2.43031">
        <ele>528</ele>
        <time>2015-04-16T13:10:25Z</time>
      </trkpt>
      <trkpt lat="46.11877" lon="2.43027">
        <ele>528</ele>
        <time>2015-04-16T13:10:27Z</time>
      </trkpt>
      <trkpt lat="46.11875" lon="2.43023">
        <ele>528</ele>
        <time>2015-04-16T13:10:30Z</time>
      </trkpt>
      <trkpt lat="46.11874" lon="2.4302">
        <ele>528</ele>
        <time>2015-04-16T13:10:32Z</time>
      </trkpt>
      <trkpt lat="46.11871" lon="2.43015">
        <ele>528</ele>
        <time>2015-04-16T13:10:35Z</time>
      </trkpt>
      <trkpt lat="46.1187" lon="2.43012">
        <ele>528</ele>
        <time>2015-04-16T13:10:37Z</time>
      </trkpt>
      <trkpt lat="46.11868" lon="2.43007">
        <ele>528</ele>
        <time>2015-04-16T13:10:40Z</time>
      </trkpt>
      <trkpt lat="46.11866" lon="2.43003">
        <ele>528</ele>
        <time>2015-04-16T13:10:42Z</time>
      </trkpt>
      <trkpt lat="46.11864" lon="2.43">
        <ele>528</ele>
        <time>2015-04-16T13:10:44Z</time>
      </trkpt>
      <trkpt lat="46.11863" lon="2.42996">
        <ele>528</ele>
        <time>2015-04-16T13:10:46Z</time>
      </trkpt>
      <trkpt lat="46.11861" lon="2.42992">
        <ele>528</ele>
        <time>2015-04-16T13:10:48Z</time>
      </trkpt>
      <trkpt lat="46.1186" lon="2.4299">
        <ele>528</ele>
        <time>2015-04-16T13:10:50Z</time>
      </trkpt>
      <trkpt lat="46.11858" lon="2.42986">
        <ele>528</ele>
        <time>2015-04-16T13:10:52Z</time>
      </trkpt>
      <trkpt lat="46.11856" lon="2.42983">
        <ele>528</ele>
        <time>2015-04-16T13:10:54Z</time>
      </trkpt>
      <trkpt lat="46.11855" lon="2.42979">
        <ele>528</ele>
        <time>2015-04-16T13:10:56Z</time>
      </trkpt>
      <trkpt lat="46.11853" lon="2.42976">
        <ele>528</ele>
        <time>2015-04-16T13:10:58Z</time>
      </trkpt>
      <trkpt lat="46.11851" lon="2.42973">
        <ele>528</ele>
        <time>2015-04-16T13:11:00Z</time>
      </trkpt>
      <trkpt lat="46.1185" lon="2.42969">
        <ele>528</ele>
        <time>2015-04-16T13:11:02Z</time>
      </trkpt>
      <trkpt lat="46.11848" lon="2.42967">
        <ele>528</ele>
        <time>2015-04-16T13:11:04Z</time>
      </trkpt>
      <trkpt lat="46.11847" lon="2.42963">
        <ele>528</ele>
        <time>2015-04-16T13:11:06Z</time>
      </trkpt>
      <trkpt lat="46.11846" lon="2.42961">
        <ele>528</ele>
        <time>2015-04-16T13:11:08Z</time>
      </trkpt>
      <trkpt lat="46.11844" lon="2.42957">
        <ele>528</ele>
        <time>2015-04-16T13:11:10Z</time>
      </trkpt>
      <trkpt lat="46.11843" lon="2.42954">
        <ele>528</ele>
        <time>2015-04-16T13:11:12Z</time>
      </trkpt>
      <trkpt lat="46.11841" lon="2.42951">
        <ele>528</ele>
        <time>2015-04-16T13:11:14Z</time>
      </trkpt>
      <trkpt lat="46.1184" lon="2.42948">
        <ele>528</ele>
        <time>2015-04-16T13:11:16Z</time>
      </trkpt>
      <trkpt lat="46.11838" lon="2.42945">
        <ele>528</ele>
        <time>2015-04-16T13:11:18Z</time>
      </trkpt>
      <trkpt lat="46.11837" lon="2.42941">
        <ele>528</ele>
        <time>2015-04-16T13:11:20Z</time>
      </trkpt>
      <trkpt lat="46.11835" lon="2.42937">
        <ele>528</ele>
        <time>2015-04-16T13:11:22Z</time>
      </trkpt>
      <trkpt lat="46.11833" lon="2.42933">
        <ele>528</ele>
        <time>2015-04-16T13:11:24Z</time>
      </trkpt>
      <trkpt lat="46.11831" lon="2.42929">
        <ele>528</ele>
        <time>2015-04-16T13:11:26Z</time>
      </trkpt>
      <trkpt lat="46.11829" lon="2.42925">
        <ele>528</ele>
        <time>2015-04-16T13:11:29Z</time>
      </trkpt>
      <trkpt lat="46.11826" lon="2.4292">
        <ele>528</ele>
        <time>2015-04-16T13:11:32Z</time>
      </trkpt>
      <trkpt lat="46.11823" lon="2.42918">
        <ele>528</ele>
        <time>2015-04-16T13:11:34Z</time>
      </trkpt>
      <trkpt lat="46.11821" lon="2.42916">
        <ele>528</ele>
        <time>2015-04-16T13:11:36Z</time>
      </trkpt>
      <trkpt lat="46.11818" lon="2.42913">
        <ele>528</ele>
        <time>2015-04-16T13:11:39Z</time>
      </trkpt>
      <trkpt lat="46.11815" lon="2.42911">
        <ele>528</ele>
        <time>2015-04-16T13:11:41Z</time>
      </trkpt>
      <trkpt lat="46.11812" lon="2.42909">
        <ele>528</ele>
        <time>2015-04-16T13:11:43Z</time>
      </trkpt>
      <trkpt lat="46.11809" lon="2.42906">
        <ele>528</ele>
        <time>2015-04-16T13:11:46Z</time>
      </trkpt>
      <trkpt lat="46.11806" lon="2.42904">
        <ele>528</ele>
        <time>2015-04-16T13:11:48Z</time>
      </trkpt>
      <trkpt lat="46.11804" lon="2.42902">
        <ele>528</ele>
        <time>2015-04-16T13:11:50Z</time>
      </trkpt>
      <trkpt lat="46.11802" lon="2.429">
        <ele>528</ele>
        <time>2015-04-16T13:11:52Z</time>
      </trkpt>
      <trkpt lat="46.11798" lon="2.42897">
        <ele>528</ele>
        <time>2015-04-16T13:11:55Z</time>
      </trkpt>
      <trkpt lat="46.11796" lon="2.42895">
        <ele>528</ele>
        <time>2015-04-16T13:11:57Z</time>
      </trkpt>
      <trkpt lat="46.11793" lon="2.42893">
        <ele>528</ele>
        <time>2015-04-16T13:11:59Z</time>
      </trkpt>
      <trkpt lat="46.11791" lon="2.42891">
        <ele>528</ele>
        <time>2015-04-16T13:12:01Z</time>
      </trkpt>
      <trkpt lat="46.11788" lon="2.42889">
        <ele>528</ele>
        <time>2015-04-16T13:12:03Z</time>
      </trkpt>
      <trkpt lat="46.11786" lon="2.42887">
        <ele>528</ele>
        <time>2015-04-16T13:12:05Z</time>
      </trkpt>
      <trkpt lat="46.11783" lon="2.42885">
        <ele>528</ele>
        <time>2015-04-16T13:12:07Z</time>
      </trkpt>
      <trkpt lat="46.11781" lon="2.42882">
        <ele>528</ele>
        <time>2015-04-16T13:12:09Z</time>
      </trkpt>
      <trkpt lat="46.11779" lon="2.42879">
        <ele>528</ele>
        <time>2015-04-16T13:12:11Z</time>
      </trkpt>
      <trkpt lat="46.11777" lon="2.42874">
        <ele>528</ele>
        <time>2015-04-16T13:12:14Z</time>
      </trkpt>
      <trkpt lat="46.11773" lon="2.4287">
        <ele>528</ele>
        <time>2015-04-16T13:12:17Z</time>
      </trkpt>
      <trkpt lat="46.1177" lon="2.42867">
        <ele>528</ele>
        <time>2015-04-16T13:12:20Z</time>
      </trkpt>
      <trkpt lat="46.11768" lon="2.42866">
        <ele>528</ele>
        <time>2015-04-16T13:12:22Z</time>
      </trkpt>
      <trkpt lat="46.11765" lon="2.42864">
        <ele>528</ele>
        <time>2015-04-16T13:12:24Z</time>
      </trkpt>
      <trkpt lat="46.11762" lon="2.42861">
        <ele>528</ele>
        <time>2015-04-16T13:12:27Z</time>
      </trkpt>
      <trkpt lat="46.1176" lon="2.42858">
        <ele>528</ele>
        <time>2015-04-16T13:12:29Z</time>
      </trkpt>
      <trkpt lat="46.11758" lon="2.42855">
        <ele>528</ele>
        <time>2015-04-16T13:12:31Z</time>
      </trkpt>
      <trkpt lat="46.11757" lon="2.42852">
        <ele>528</ele>
        <time>2015-04-16T13:12:33Z</time>
      </trkpt>
      <trkpt lat="46.11755" lon="2.42849">
        <ele>528</ele>
        <time>2015-04-16T13:12:35Z</time>
      </trkpt>
      <trkpt lat="46.11755" lon="2.42846">
        <ele>528</ele>
        <time>2015-04-16T13:12:37Z</time>
      </trkpt>
      <trkpt lat="46.11755" lon="2.42841">
        <ele>529</ele>
        <time>2015-04-16T13:12:39Z</time>
      </trkpt>
      <trkpt lat="46.11755" lon="2.42836">
        <ele>529</ele>
        <time>2015-04-16T13:12:41Z</time>
      </trkpt>
      <trkpt lat="46.11755" lon="2.42832">
        <ele>530</ele>
        <time>2015-04-16T13:12:43Z</time>
      </trkpt>
      <trkpt lat="46.11755" lon="2.42828">
        <ele>531</ele>
        <time>2015-04-16T13:12:45Z</time>
      </trkpt>
      <trkpt lat="46.11755" lon="2.42824">
        <ele>531</ele>
        <time>2015-04-16T13:12:47Z</time>
      </trkpt>
      <trkpt lat="46.11755" lon="2.4282">
        <ele>532</ele>
        <time>2015-04-16T13:12:49Z</time>
      </trkpt>
      <trkpt lat="46.11755" lon="2.42817">
        <ele>532</ele>
        <time>2015-04-16T13:12:51Z</time>
      </trkpt>
      <trkpt lat="46.11754" lon="2.42813">
        <ele>532</ele>
        <time>2015-04-16T13:12:53Z</time>
      </trkpt>
      <trkpt lat="46.11754" lon="2.42809">
        <ele>532</ele>
        <time>2015-04-16T13:12:55Z</time>
      </trkpt>
      <trkpt lat="46.11754" lon="2.42805">
        <ele>532</ele>
        <time>2015-04-16T13:12:57Z</time>
      </trkpt>
      <trkpt lat="46.11753" lon="2.42801">
        <ele>532</ele>
        <time>2015-04-16T13:12:59Z</time>
      </trkpt>
      <trkpt lat="46.11753" lon="2.42798">
        <ele>532</ele>
        <time>2015-04-16T13:13:01Z</time>
      </trkpt>
      <trkpt lat="46.11753" lon="2.42794">
        <ele>532</ele>
        <time>2015-04-16T13:13:03Z</time>
      </trkpt>
      <trkpt lat="46.11753" lon="2.4279">
        <ele>532</ele>
        <time>2015-04-16T13:13:05Z</time>
      </trkpt>
      <trkpt lat="46.11753" lon="2.42786">
        <ele>532</ele>
        <time>2015-04-16T13:13:07Z</time>
      </trkpt>
      <trkpt lat="46.11752" lon="2.42782">
        <ele>532</ele>
        <time>2015-04-16T13:13:09Z</time>
      </trkpt>
      <trkpt lat="46.11752" lon="2.42778">
        <ele>532</ele>
        <time>2015-04-16T13:13:11Z</time>
      </trkpt>
      <trkpt lat="46.11752" lon="2.42775">
        <ele>532</ele>
        <time>2015-04-16T13:13:13Z</time>
      </trkpt>
      <trkpt lat="46.11752" lon="2.42771">
        <ele>532</ele>
        <time>2015-04-16T13:13:15Z</time>
      </trkpt>
      <trkpt lat="46.11752" lon="2.42767">
        <ele>532</ele>
        <time>2015-04-16T13:13:17Z</time>
      </trkpt>
      <trkpt lat="46.11751" lon="2.42763">
        <ele>532</ele>
        <time>2015-04-16T13:13:19Z</time>
      </trkpt>
      <trkpt lat="46.11751" lon="2.4276">
        <ele>532</ele>
        <time>2015-04-16T13:13:21Z</time>
      </trkpt>
      <trkpt lat="46.11751" lon="2.42756">
        <ele>532</ele>
        <time>2015-04-16T13:13:23Z</time>
      </trkpt>
      <trkpt lat="46.11751" lon="2.42751">
        <ele>532</ele>
        <time>2015-04-16T13:13:25Z</time>
      </trkpt>
      <trkpt lat="46.1175" lon="2.42747">
        <ele>532</ele>
        <time>2015-04-16T13:13:27Z</time>
      </trkpt>
      <trkpt lat="46.1175" lon="2.42742">
        <ele>532</ele>
        <time>2015-04-16T13:13:29Z</time>
      </trkpt>
      <trkpt lat="46.1175" lon="2.42738">
        <ele>532</ele>
        <time>2015-04-16T13:13:31Z</time>
      </trkpt>
      <trkpt lat="46.1175" lon="2.42733">
        <ele>532</ele>
        <time>2015-04-16T13:13:33Z</time>
      </trkpt>
      <trkpt lat="46.1175" lon="2.42729">
        <ele>533</ele>
        <time>2015-04-16T13:13:35Z</time>
      </trkpt>
      <trkpt lat="46.1175" lon="2.42724">
        <ele>533</ele>
        <time>2015-04-16T13:13:37Z</time>
      </trkpt>
      <trkpt lat="46.1175" lon="2.4272">
        <ele>533</ele>
        <time>2015-04-16T13:13:39Z</time>
      </trkpt>
      <trkpt lat="46.1175" lon="2.42716">
        <ele>533</ele>
        <time>2015-04-16T13:13:41Z</time>
      </trkpt>
      <trkpt lat="46.1175" lon="2.42712">
        <ele>533</ele>
        <time>2015-04-16T13:13:43Z</time>
      </trkpt>
      <trkpt lat="46.1175" lon="2.42707">
        <ele>534</ele>
        <time>2015-04-16T13:13:45Z</time>
      </trkpt>
      <trkpt lat="46.1175" lon="2.42703">
        <ele>534</ele>
        <time>2015-04-16T13:13:47Z</time>
      </trkpt>
      <trkpt lat="46.1175" lon="2.42699">
        <ele>535</ele>
        <time>2015-04-16T13:13:49Z</time>
      </trkpt>
      <trkpt lat="46.1175" lon="2.42694">
        <ele>535</ele>
        <time>2015-04-16T13:13:51Z</time>
      </trkpt>
      <trkpt lat="46.1175" lon="2.4269">
        <ele>535</ele>
        <time>2015-04-16T13:13:53Z</time>
      </trkpt>
      <trkpt lat="46.11751" lon="2.42687">
        <ele>535</ele>
        <time>2015-04-16T13:13:55Z</time>
      </trkpt>
      <trkpt lat="46.11751" lon="2.42682">
        <ele>535</ele>
        <time>2015-04-16T13:13:57Z</time>
      </trkpt>
      <trkpt lat="46.11751" lon="2.42678">
        <ele>535</ele>
        <time>2015-04-16T13:13:59Z</time>
      </trkpt>
      <trkpt lat="46.11751" lon="2.42674">
        <ele>535</ele>
        <time>2015-04-16T13:14:01Z</time>
      </trkpt>
      <trkpt lat="46.11752" lon="2.4267">
        <ele>535</ele>
        <time>2015-04-16T13:14:03Z</time>
      </trkpt>
      <trkpt lat="46.11752" lon="2.42666">
        <ele>535</ele>
        <time>2015-04-16T13:14:05Z</time>
      </trkpt>
      <trkpt lat="46.11752" lon="2.42662">
        <ele>535</ele>
        <time>2015-04-16T13:14:07Z</time>
      </trkpt>
      <trkpt lat="46.11752" lon="2.42658">
        <ele>535</ele>
        <time>2015-04-16T13:14:09Z</time>
      </trkpt>
      <trkpt lat="46.11753" lon="2.42654">
        <ele>535</ele>
        <time>2015-04-16T13:14:11Z</time>
      </trkpt>
      <trkpt lat="46.11753" lon="2.42649">
        <ele>535</ele>
        <time>2015-04-16T13:14:13Z</time>
      </trkpt>
      <trkpt lat="46.11754" lon="2.42645">
        <ele>536</ele>
        <time>2015-04-16T13:14:15Z</time>
      </trkpt>
      <trkpt lat="46.11755" lon="2.42641">
        <ele>536</ele>
        <time>2015-04-16T13:14:17Z</time>
      </trkpt>
      <trkpt lat="46.11755" lon="2.42636">
        <ele>536</ele>
        <time>2015-04-16T13:14:19Z</time>
      </trkpt>
      <trkpt lat="46.11756" lon="2.42632">
        <ele>536</ele>
        <time>2015-04-16T13:14:21Z</time>
      </trkpt>
      <trkpt lat="46.11756" lon="2.42629">
        <ele>536</ele>
        <time>2015-04-16T13:14:23Z</time>
      </trkpt>
      <trkpt lat="46.11757" lon="2.42625">
        <ele>536</ele>
        <time>2015-04-16T13:14:25Z</time>
      </trkpt>
      <trkpt lat="46.11758" lon="2.42621">
        <ele>536</ele>
        <time>2015-04-16T13:14:27Z</time>
      </trkpt>
      <trkpt lat="46.11758" lon="2.42616">
        <ele>536</ele>
        <time>2015-04-16T13:14:29Z</time>
      </trkpt>
      <trkpt lat="46.1176" lon="2.42613">
        <ele>536</ele>
        <time>2015-04-16T13:14:31Z</time>
      </trkpt>
      <trkpt lat="46.1176" lon="2.4261">
        <ele>536</ele>
        <time>2015-04-16T13:14:33Z</time>
      </trkpt>
      <trkpt lat="46.11761" lon="2.42606">
        <ele>536</ele>
        <time>2015-04-16T13:14:35Z</time>
      </trkpt>
      <trkpt lat="46.11762" lon="2.42601">
        <ele>536</ele>
        <time>2015-04-16T13:14:37Z</time>
      </trkpt>
      <trkpt lat="46.11763" lon="2.42598">
        <ele>536</ele>
        <time>2015-04-16T13:14:39Z</time>
      </trkpt>
      <trkpt lat="46.11764" lon="2.42594">
        <ele>536</ele>
        <time>2015-04-16T13:14:41Z</time>
      </trkpt>
      <trkpt lat="46.11765" lon="2.4259">
        <ele>536</ele>
        <time>2015-04-16T13:14:43Z</time>
      </trkpt>
      <trkpt lat="46.11766" lon="2.42587">
        <ele>537</ele>
        <time>2015-04-16T13:14:45Z</time>
      </trkpt>
      <trkpt lat="46.11768" lon="2.42583">
        <ele>537</ele>
        <time>2015-04-16T13:14:47Z</time>
      </trkpt>
      <trkpt lat="46.11769" lon="2.4258">
        <ele>537</ele>
        <time>2015-04-16T13:14:49Z</time>
      </trkpt>
      <trkpt lat="46.1177" lon="2.42576">
        <ele>537</ele>
        <time>2015-04-16T13:14:51Z</time>
      </trkpt>
      <trkpt lat="46.11771" lon="2.42573">
        <ele>537</ele>
        <time>2015-04-16T13:14:53Z</time>
      </trkpt>
      <trkpt lat="46.11772" lon="2.42569">
        <ele>537</ele>
        <time>2015-04-16T13:14:55Z</time>
      </trkpt>
      <trkpt lat="46.11774" lon="2.42566">
        <ele>537</ele>
        <time>2015-04-16T13:14:57Z</time>
      </trkpt>
      <trkpt lat="46.11776" lon="2.42563">
        <ele>537</ele>
        <time>2015-04-16T13:14:59Z</time>
      </trkpt>
      <trkpt lat="46.11778" lon="2.42561">
        <ele>537</ele>
        <time>2015-04-16T13:15:01Z</time>
      </trkpt>
      <trkpt lat="46.11781" lon="2.42557">
        <ele>537</ele>
        <time>2015-04-16T13:15:04Z</time>
      </trkpt>
      <trkpt lat="46.11784" lon="2.42554">
        <ele>537</ele>
        <time>2015-04-16T13:15:07Z</time>
      </trkpt>
      <trkpt lat="46.11786" lon="2.42551">
        <ele>537</ele>
        <time>2015-04-16T13:15:09Z</time>
      </trkpt>
      <trkpt lat="46.11789" lon="2.42548">
        <ele>537</ele>
        <time>2015-04-16T13:15:12Z</time>
      </trkpt>
      <trkpt lat="46.11791" lon="2.42546">
        <ele>537</ele>
        <time>2015-04-16T13:15:14Z</time>
      </trkpt>
      <trkpt lat="46.11794" lon="2.42543">
        <ele>537</ele>
        <time>2015-04-16T13:15:16Z</time>
      </trkpt>
      <trkpt lat="46.11797" lon="2.4254">
        <ele>537</ele>
        <time>2015-04-16T13:15:18Z</time>
      </trkpt>
      <trkpt lat="46.11799" lon="2.42538">
        <ele>537</ele>
        <time>2015-04-16T13:15:20Z</time>
      </trkpt>
      <trkpt lat="46.11802" lon="2.42536">
        <ele>537</ele>
        <time>2015-04-16T13:15:22Z</time>
      </trkpt>
      <trkpt lat="46.11804" lon="2.42534">
        <ele>537</ele>
        <time>2015-04-16T13:15:24Z</time>
      </trkpt>
      <trkpt lat="46.11806" lon="2.42532">
        <ele>537</ele>
        <time>2015-04-16T13:15:26Z</time>
      </trkpt>
      <trkpt lat="46.11808" lon="2.42532">
        <ele>537</ele>
        <time>2015-04-16T13:15:28Z</time>
      </trkpt>
      <trkpt lat="46.11811" lon="2.42531">
        <ele>537</ele>
        <time>2015-04-16T13:15:30Z</time>
      </trkpt>
      <trkpt lat="46.11814" lon="2.42531">
        <ele>537</ele>
        <time>2015-04-16T13:15:32Z</time>
      </trkpt>
      <trkpt lat="46.11816" lon="2.42531">
        <ele>537</ele>
        <time>2015-04-16T13:15:34Z</time>
      </trkpt>
      <trkpt lat="46.11818" lon="2.42531">
        <ele>537</ele>
        <time>2015-04-16T13:15:36Z</time>
      </trkpt>
      <trkpt lat="46.11822" lon="2.42534">
        <ele>537</ele>
        <time>2015-04-16T13:15:39Z</time>
      </trkpt>
      <trkpt lat="46.11824" lon="2.42535">
        <ele>537</ele>
        <time>2015-04-16T13:15:41Z</time>
      </trkpt>
      <trkpt lat="46.11827" lon="2.42536">
        <ele>537</ele>
        <time>2015-04-16T13:15:43Z</time>
      </trkpt>
      <trkpt lat="46.1183" lon="2.42536">
        <ele>537</ele>
        <time>2015-04-16T13:15:45Z</time>
      </trkpt>
      <trkpt lat="46.11832" lon="2.42538">
        <ele>537</ele>
        <time>2015-04-16T13:15:47Z</time>
      </trkpt>
      <trkpt lat="46.11834" lon="2.42539">
        <ele>537</ele>
        <time>2015-04-16T13:15:49Z</time>
      </trkpt>
      <trkpt lat="46.11837" lon="2.4254">
        <ele>537</ele>
        <time>2015-04-16T13:15:51Z</time>
      </trkpt>
      <trkpt lat="46.1184" lon="2.42541">
        <ele>537</ele>
        <time>2015-04-16T13:15:53Z</time>
      </trkpt>
      <trkpt lat="46.11843" lon="2.42541">
        <ele>537</ele>
        <time>2015-04-16T13:15:55Z</time>
      </trkpt>
      <trkpt lat="46.11845" lon="2.42542">
        <ele>537</ele>
        <time>2015-04-16T13:15:57Z</time>
      </trkpt>
      <trkpt lat="46.11848" lon="2.42543">
        <ele>537</ele>
        <time>2015-04-16T13:15:59Z</time>
      </trkpt>
      <trkpt lat="46.11851" lon="2.42544">
        <ele>537</ele>
        <time>2015-04-16T13:16:01Z</time>
      </trkpt>
      <trkpt lat="46.11854" lon="2.42545">
        <ele>537</ele>
        <time>2015-04-16T13:16:03Z</time>
      </trkpt>
      <trkpt lat="46.11856" lon="2.42546">
        <ele>537</ele>
        <time>2015-04-16T13:16:05Z</time>
      </trkpt>
      <trkpt lat="46.11858" lon="2.42547">
        <ele>537</ele>
        <time>2015-04-16T13:16:07Z</time>
      </trkpt>
      <trkpt lat="46.11859" lon="2.4255">
        <ele>537</ele>
        <time>2015-04-16T13:16:09Z</time>
      </trkpt>
      <trkpt lat="46.11862" lon="2.42552">
        <ele>537</ele>
        <time>2015-04-16T13:16:11Z</time>
      </trkpt>
      <trkpt lat="46.11864" lon="2.42553">
        <ele>537</ele>
        <time>2015-04-16T13:16:13Z</time>
      </trkpt>
      <trkpt lat="46.11867" lon="2.42554">
        <ele>537</ele>
        <time>2015-04-16T13:16:15Z</time>
      </trkpt>
      <trkpt lat="46.1187" lon="2.42556">
        <ele>537</ele>
        <time>2015-04-16T13:16:17Z</time>
      </trkpt>
      <trkpt lat="46.11872" lon="2.42557">
        <ele>537</ele>
        <time>2015-04-16T13:16:19Z</time>
      </trkpt>
      <trkpt lat="46.11875" lon="2.42558">
        <ele>537</ele>
        <time>2015-04-16T13:16:21Z</time>
      </trkpt>
      <trkpt lat="46.11876" lon="2.42558">
        <ele>537</ele>
        <time>2015-04-16T13:16:23Z</time>
      </trkpt>
      <trkpt lat="46.11877" lon="2.42559">
        <ele>537</ele>
        <time>2015-04-16T13:16:28Z</time>
      </trkpt>
      <trkpt lat="46.1188" lon="2.42561">
        <ele>537</ele>
        <time>2015-04-16T13:16:30Z</time>
      </trkpt>
      <trkpt lat="46.11882" lon="2.42564">
        <ele>537</ele>
        <time>2015-04-16T13:16:32Z</time>
      </trkpt>
      <trkpt lat="46.11885" lon="2.42566">
        <ele>537</ele>
        <time>2015-04-16T13:16:34Z</time>
      </trkpt>
      <trkpt lat="46.11887" lon="2.42568">
        <ele>537</ele>
        <time>2015-04-16T13:16:36Z</time>
      </trkpt>
      <trkpt lat="46.1189" lon="2.4257">
        <ele>537</ele>
        <time>2015-04-16T13:16:38Z</time>
      </trkpt>
      <trkpt lat="46.11892" lon="2.42572">
        <ele>537</ele>
        <time>2015-04-16T13:16:40Z</time>
      </trkpt>
      <trkpt lat="46.11895" lon="2.42575">
        <ele>537</ele>
        <time>2015-04-16T13:16:42Z</time>
      </trkpt>
      <trkpt lat="46.11898" lon="2.42577">
        <ele>537</ele>
        <time>2015-04-16T13:16:44Z</time>
      </trkpt>
      <trkpt lat="46.119" lon="2.42579">
        <ele>536</ele>
        <time>2015-04-16T13:16:46Z</time>
      </trkpt>
      <trkpt lat="46.11903" lon="2.42581">
        <ele>536</ele>
        <time>2015-04-16T13:16:48Z</time>
      </trkpt>
      <trkpt lat="46.11905" lon="2.42583">
        <ele>535</ele>
        <time>2015-04-16T13:16:50Z</time>
      </trkpt>
      <trkpt lat="46.11907" lon="2.42586">
        <ele>535</ele>
        <time>2015-04-16T13:16:52Z</time>
      </trkpt>
      <trkpt lat="46.1191" lon="2.42587">
        <ele>535</ele>
        <time>2015-04-16T13:16:54Z</time>
      </trkpt>
      <trkpt lat="46.11913" lon="2.42589">
        <ele>534</ele>
        <time>2015-04-16T13:16:56Z</time>
      </trkpt>
      <trkpt lat="46.11915" lon="2.42591">
        <ele>534</ele>
        <time>2015-04-16T13:16:58Z</time>
      </trkpt>
      <trkpt lat="46.11918" lon="2.42593">
        <ele>534</ele>
        <time>2015-04-16T13:17:00Z</time>
      </trkpt>
      <trkpt lat="46.1192" lon="2.42595">
        <ele>533</ele>
        <time>2015-04-16T13:17:02Z</time>
      </trkpt>
      <trkpt lat="46.11923" lon="2.42597">
        <ele>533</ele>
        <time>2015-04-16T13:17:04Z</time>
      </trkpt>
      <trkpt lat="46.11926" lon="2.42599">
        <ele>533</ele>
        <time>2015-04-16T13:17:06Z</time>
      </trkpt>
      <trkpt lat="46.11928" lon="2.42601">
        <ele>532</ele>
        <time>2015-04-16T13:17:08Z</time>
      </trkpt>
      <trkpt lat="46.11931" lon="2.42603">
        <ele>532</ele>
        <time>2015-04-16T13:17:10Z</time>
      </trkpt>
      <trkpt lat="46.11933" lon="2.42605">
        <ele>531</ele>
        <time>2015-04-16T13:17:12Z</time>
      </trkpt>
      <trkpt lat="46.11936" lon="2.42607">
        <ele>531</ele>
        <time>2015-04-16T13:17:14Z</time>
      </trkpt>
      <trkpt lat="46.11939" lon="2.42609">
        <ele>531</ele>
        <time>2015-04-16T13:17:16Z</time>
      </trkpt>
      <trkpt lat="46.11941" lon="2.4261">
        <ele>531</ele>
        <time>2015-04-16T13:17:18Z</time>
      </trkpt>
      <trkpt lat="46.11944" lon="2.42612">
        <ele>531</ele>
        <time>2015-04-16T13:17:20Z</time>
      </trkpt>
      <trkpt lat="46.11946" lon="2.42614">
        <ele>530</ele>
        <time>2015-04-16T13:17:22Z</time>
      </trkpt>
      <trkpt lat="46.11949" lon="2.42616">
        <ele>530</ele>
        <time>2015-04-16T13:17:24Z</time>
      </trkpt>
      <trkpt lat="46.11951" lon="2.42618">
        <ele>530</ele>
        <time>2015-04-16T13:17:26Z</time>
      </trkpt>
      <trkpt lat="46.11954" lon="2.42619">
        <ele>530</ele>
        <time>2015-04-16T13:17:28Z</time>
      </trkpt>
      <trkpt lat="46.11957" lon="2.4262">
        <ele>530</ele>
        <time>2015-04-16T13:17:30Z</time>
      </trkpt>
      <trkpt lat="46.1196" lon="2.42622">
        <ele>530</ele>
        <time>2015-04-16T13:17:32Z</time>
      </trkpt>
      <trkpt lat="46.11963" lon="2.42622">
        <ele>530</ele>
        <time>2015-04-16T13:17:34Z</time>
      </trkpt>
      <trkpt lat="46.11966" lon="2.42623">
        <ele>530</ele>
        <time>2015-04-16T13:17:36Z</time>
      </trkpt>
      <trkpt lat="46.11968" lon="2.42625">
        <ele>530</ele>
        <time>2015-04-16T13:17:38Z</time>
      </trkpt>
      <trkpt lat="46.11971" lon="2.42626">
        <ele>530</ele>
        <time>2015-04-16T13:17:40Z</time>
      </trkpt>
      <trkpt lat="46.11974" lon="2.42627">
        <ele>530</ele>
        <time>2015-04-16T13:17:42Z</time>
      </trkpt>
      <trkpt lat="46.11976" lon="2.42628">
        <ele>530</ele>
        <time>2015-04-16T13:17:44Z</time>
      </trkpt>
      <trkpt lat="46.11979" lon="2.42628">
        <ele>530</ele>
        <time>2015-04-16T13:17:46Z</time>
      </trkpt>
      <trkpt lat="46.11982" lon="2.42628">
        <ele>530</ele>
        <time>2015-04-16T13:17:48Z</time>
      </trkpt>
      <trkpt lat="46.11985" lon="2.42629">
        <ele>530</ele>
        <time>2015-04-16T13:17:50Z</time>
      </trkpt>
      <trkpt lat="46.11987" lon="2.42629">
        <ele>530</ele>
        <time>2015-04-16T13:17:52Z</time>
      </trkpt>
      <trkpt lat="46.1199" lon="2.42629">
        <ele>530</ele>
        <time>2015-04-16T13:17:54Z</time>
      </trkpt>
      <trkpt lat="46.11993" lon="2.42629">
        <ele>530</ele>
        <time>2015-04-16T13:17:56Z</time>
      </trkpt>
      <trkpt lat="46.11995" lon="2.42629">
        <ele>530</ele>
        <time>2015-04-16T13:17:58Z</time>
      </trkpt>
      <trkpt lat="46.11998" lon="2.42629">
        <ele>530</ele>
        <time>2015-04-16T13:18:00Z</time>
      </trkpt>
      <trkpt lat="46.12001" lon="2.42628">
        <ele>529</ele>
        <time>2015-04-16T13:18:02Z</time>
      </trkpt>
      <trkpt lat="46.12004" lon="2.42628">
        <ele>529</ele>
        <time>2015-04-16T13:18:04Z</time>
      </trkpt>
      <trkpt lat="46.12007" lon="2.42628">
        <ele>528</ele>
        <time>2015-04-16T13:18:06Z</time>
      </trkpt>
      <trkpt lat="46.1201" lon="2.42627">
        <ele>528</ele>
        <time>2015-04-16T13:18:08Z</time>
      </trkpt>
      <trkpt lat="46.12014" lon="2.42626">
        <ele>528</ele>
        <time>2015-04-16T13:18:10Z</time>
      </trkpt>
      <trkpt lat="46.12017" lon="2.42625">
        <ele>528</ele>
        <time>2015-04-16T13:18:12Z</time>
      </trkpt>
      <trkpt lat="46.12019" lon="2.42625">
        <ele>528</ele>
        <time>2015-04-16T13:18:14Z</time>
      </trkpt>
      <trkpt lat="46.12022" lon="2.42625">
        <ele>527</ele>
        <time>2015-04-16T13:18:16Z</time>
      </trkpt>
      <trkpt lat="46.12025" lon="2.42624">
        <ele>527</ele>
        <time>2015-04-16T13:18:18Z</time>
      </trkpt>
      <trkpt lat="46.12028" lon="2.42624">
        <ele>527</ele>
        <time>2015-04-16T13:18:20Z</time>
      </trkpt>
      <trkpt lat="46.12031" lon="2.42624">
        <ele>527</ele>
        <time>2015-04-16T13:18:22Z</time>
      </trkpt>
      <trkpt lat="46.12034" lon="2.42623">
        <ele>527</ele>
        <time>2015-04-16T13:18:24Z</time>
      </trkpt>
      <trkpt lat="46.12037" lon="2.42623">
        <ele>527</ele>
        <time>2015-04-16T13:18:26Z</time>
      </trkpt>
      <trkpt lat="46.1204" lon="2.42623">
        <ele>527</ele>
        <time>2015-04-16T13:18:28Z</time>
      </trkpt>
      <trkpt lat="46.12043" lon="2.42622">
        <ele>527</ele>
        <time>2015-04-16T13:18:30Z</time>
      </trkpt>
      <trkpt lat="46.12046" lon="2.42622">
        <ele>527</ele>
        <time>2015-04-16T13:18:32Z</time>
      </trkpt>
      <trkpt lat="46.12048" lon="2.42621">
        <ele>527</ele>
        <time>2015-04-16T13:18:34Z</time>
      </trkpt>
      <trkpt lat="46.12051" lon="2.42621">
        <ele>527</ele>
        <time>2015-04-16T13:18:36Z</time>
      </trkpt>
      <trkpt lat="46.12054" lon="2.4262">
        <ele>527</ele>
        <time>2015-04-16T13:18:38Z</time>
      </trkpt>
      <trkpt lat="46.12057" lon="2.4262">
        <ele>526</ele>
        <time>2015-04-16T13:18:40Z</time>
      </trkpt>
      <trkpt lat="46.1206" lon="2.42619">
        <ele>526</ele>
        <time>2015-04-16T13:18:42Z</time>
      </trkpt>
      <trkpt lat="46.12062" lon="2.42618">
        <ele>526</ele>
        <time>2015-04-16T13:18:44Z</time>
      </trkpt>
      <trkpt lat="46.12065" lon="2.42617">
        <ele>526</ele>
        <time>2015-04-16T13:18:46Z</time>
      </trkpt>
      <trkpt lat="46.12068" lon="2.42616">
        <ele>526</ele>
        <time>2015-04-16T13:18:48Z</time>
      </trkpt>
      <trkpt lat="46.12071" lon="2.42616">
        <ele>526</ele>
        <time>2015-04-16T13:18:50Z</time>
      </trkpt>
      <trkpt lat="46.12074" lon="2.42616">
        <ele>526</ele>
        <time>2015-04-16T13:18:52Z</time>
      </trkpt>
      <trkpt lat="46.12077" lon="2.42615">
        <ele>525</ele>
        <time>2015-04-16T13:18:54Z</time>
      </trkpt>
      <trkpt lat="46.12079" lon="2.42615">
        <ele>525</ele>
        <time>2015-04-16T13:18:56Z</time>
      </trkpt>
      <trkpt lat="46.12082" lon="2.42615">
        <ele>525</ele>
        <time>2015-04-16T13:18:58Z</time>
      </trkpt>
      <trkpt lat="46.12085" lon="2.42615">
        <ele>525</ele>
        <time>2015-04-16T13:19:00Z</time>
      </trkpt>
      <trkpt lat="46.12088" lon="2.42615">
        <ele>525</ele>
        <time>2015-04-16T13:19:02Z</time>
      </trkpt>
      <trkpt lat="46.12091" lon="2.42615">
        <ele>525</ele>
        <time>2015-04-16T13:19:04Z</time>
      </trkpt>
      <trkpt lat="46.12094" lon="2.42615">
        <ele>525</ele>
        <time>2015-04-16T13:19:06Z</time>
      </trkpt>
      <trkpt lat="46.12096" lon="2.42615">
        <ele>525</ele>
        <time>2015-04-16T13:19:08Z</time>
      </trkpt>
      <trkpt lat="46.12099" lon="2.42615">
        <ele>525</ele>
        <time>2015-04-16T13:19:10Z</time>
      </trkpt>
      <trkpt lat="46.12102" lon="2.42615">
        <ele>525</ele>
        <time>2015-04-16T13:19:12Z</time>
      </trkpt>
      <trkpt lat="46.12105" lon="2.42615">
        <ele>525</ele>
        <time>2015-04-16T13:19:14Z</time>
      </trkpt>
      <trkpt lat="46.12108" lon="2.42615">
        <ele>524</ele>
        <time>2015-04-16T13:19:16Z</time>
      </trkpt>
      <trkpt lat="46.12111" lon="2.42615">
        <ele>524</ele>
        <time>2015-04-16T13:19:18Z</time>
      </trkpt>
      <trkpt lat="46.12113" lon="2.42615">
        <ele>524</ele>
        <time>2015-04-16T13:19:20Z</time>
      </trkpt>
      <trkpt lat="46.12116" lon="2.42615">
        <ele>524</ele>
        <time>2015-04-16T13:19:22Z</time>
      </trkpt>
      <trkpt lat="46.12119" lon="2.42614">
        <ele>523</ele>
        <time>2015-04-16T13:19:24Z</time>
      </trkpt>
      <trkpt lat="46.12122" lon="2.42614">
        <ele>523</ele>
        <time>2015-04-16T13:19:26Z</time>
      </trkpt>
      <trkpt lat="46.12125" lon="2.42614">
        <ele>523</ele>
        <time>2015-04-16T13:19:28Z</time>
      </trkpt>
      <trkpt lat="46.12128" lon="2.42613">
        <ele>523</ele>
        <time>2015-04-16T13:19:30Z</time>
      </trkpt>
      <trkpt lat="46.12131" lon="2.42613">
        <ele>523</ele>
        <time>2015-04-16T13:19:32Z</time>
      </trkpt>
      <trkpt lat="46.12134" lon="2.42613">
        <ele>523</ele>
        <time>2015-04-16T13:19:34Z</time>
      </trkpt>
      <trkpt lat="46.12137" lon="2.42612">
        <ele>523</ele>
        <time>2015-04-16T13:19:36Z</time>
      </trkpt>
      <trkpt lat="46.1214" lon="2.42611">
        <ele>523</ele>
        <time>2015-04-16T13:19:38Z</time>
      </trkpt>
      <trkpt lat="46.12143" lon="2.42611">
        <ele>523</ele>
        <time>2015-04-16T13:19:40Z</time>
      </trkpt>
      <trkpt lat="46.12146" lon="2.4261">
        <ele>523</ele>
        <time>2015-04-16T13:19:42Z</time>
      </trkpt>
      <trkpt lat="46.12149" lon="2.42609">
        <ele>523</ele>
        <time>2015-04-16T13:19:44Z</time>
      </trkpt>
      <trkpt lat="46.12151" lon="2.42609">
        <ele>523</ele>
        <time>2015-04-16T13:19:46Z</time>
      </trkpt>
      <trkpt lat="46.12154" lon="2.42608">
        <ele>523</ele>
        <time>2015-04-16T13:19:48Z</time>
      </trkpt>
      <trkpt lat="46.12157" lon="2.42607">
        <ele>523</ele>
        <time>2015-04-16T13:19:50Z</time>
      </trkpt>
      <trkpt lat="46.1216" lon="2.42606">
        <ele>523</ele>
        <time>2015-04-16T13:19:52Z</time>
      </trkpt>
      <trkpt lat="46.12163" lon="2.42606">
        <ele>523</ele>
        <time>2015-04-16T13:19:54Z</time>
      </trkpt>
      <trkpt lat="46.12166" lon="2.42605">
        <ele>522</ele>
        <time>2015-04-16T13:19:56Z</time>
      </trkpt>
      <trkpt lat="46.12169" lon="2.42604">
        <ele>522</ele>
        <time>2015-04-16T13:19:58Z</time>
      </trkpt>
      <trkpt lat="46.12172" lon="2.42604">
        <ele>522</ele>
        <time>2015-04-16T13:20:00Z</time>
      </trkpt>
      <trkpt lat="46.12175" lon="2.42603">
        <ele>522</ele>
        <time>2015-04-16T13:20:02Z</time>
      </trkpt>
      <trkpt lat="46.12178" lon="2.42602">
        <ele>522</ele>
        <time>2015-04-16T13:20:04Z</time>
      </trkpt>
      <trkpt lat="46.1218" lon="2.42602">
        <ele>521</ele>
        <time>2015-04-16T13:20:06Z</time>
      </trkpt>
      <trkpt lat="46.12183" lon="2.42601">
        <ele>521</ele>
        <time>2015-04-16T13:20:08Z</time>
      </trkpt>
      <trkpt lat="46.12186" lon="2.426">
        <ele>520</ele>
        <time>2015-04-16T13:20:10Z</time>
      </trkpt>
      <trkpt lat="46.12189" lon="2.42599">
        <ele>520</ele>
        <time>2015-04-16T13:20:12Z</time>
      </trkpt>
      <trkpt lat="46.12191" lon="2.42598">
        <ele>520</ele>
        <time>2015-04-16T13:20:14Z</time>
      </trkpt>
      <trkpt lat="46.12194" lon="2.42598">
        <ele>520</ele>
        <time>2015-04-16T13:20:16Z</time>
      </trkpt>
      <trkpt lat="46.12197" lon="2.42598">
        <ele>520</ele>
        <time>2015-04-16T13:20:18Z</time>
      </trkpt>
      <trkpt lat="46.122" lon="2.42597">
        <ele>519</ele>
        <time>2015-04-16T13:20:20Z</time>
      </trkpt>
      <trkpt lat="46.12203" lon="2.42596">
        <ele>519</ele>
        <time>2015-04-16T13:20:22Z</time>
      </trkpt>
      <trkpt lat="46.12206" lon="2.42595">
        <ele>519</ele>
        <time>2015-04-16T13:20:24Z</time>
      </trkpt>
      <trkpt lat="46.12209" lon="2.42594">
        <ele>519</ele>
        <time>2015-04-16T13:20:26Z</time>
      </trkpt>
      <trkpt lat="46.12212" lon="2.42594">
        <ele>519</ele>
        <time>2015-04-16T13:20:28Z</time>
      </trkpt>
      <trkpt lat="46.12215" lon="2.42593">
        <ele>519</ele>
        <time>2015-04-16T13:20:30Z</time>
      </trkpt>
      <trkpt lat="46.12217" lon="2.42592">
        <ele>518</ele>
        <time>2015-04-16T13:20:32Z</time>
      </trkpt>
      <trkpt lat="46.1222" lon="2.42591">
        <ele>518</ele>
        <time>2015-04-16T13:20:34Z</time>
      </trkpt>
      <trkpt lat="46.12223" lon="2.42591">
        <ele>518</ele>
        <time>2015-04-16T13:20:36Z</time>
      </trkpt>
      <trkpt lat="46.12226" lon="2.4259">
        <ele>518</ele>
        <time>2015-04-16T13:20:38Z</time>
      </trkpt>
      <trkpt lat="46.12229" lon="2.4259">
        <ele>518</ele>
        <time>2015-04-16T13:20:40Z</time>
      </trkpt>
      <trkpt lat="46.12232" lon="2.42589">
        <ele>518</ele>
        <time>2015-04-16T13:20:42Z</time>
      </trkpt>
      <trkpt lat="46.12235" lon="2.42588">
        <ele>517</ele>
        <time>2015-04-16T13:20:44Z</time>
      </trkpt>
      <trkpt lat="46.12237" lon="2.42588">
        <ele>517</ele>
        <time>2015-04-16T13:20:46Z</time>
      </trkpt>
      <trkpt lat="46.1224" lon="2.42587">
        <ele>517</ele>
        <time>2015-04-16T13:20:48Z</time>
      </trkpt>
      <trkpt lat="46.12243" lon="2.42586">
        <ele>517</ele>
        <time>2015-04-16T13:20:50Z</time>
      </trkpt>
      <trkpt lat="46.12246" lon="2.42586">
        <ele>517</ele>
        <time>2015-04-16T13:20:52Z</time>
      </trkpt>
      <trkpt lat="46.12248" lon="2.42586">
        <ele>516</ele>
        <time>2015-04-16T13:20:54Z</time>
      </trkpt>
      <trkpt lat="46.12251" lon="2.42585">
        <ele>516</ele>
        <time>2015-04-16T13:20:56Z</time>
      </trkpt>
      <trkpt lat="46.12254" lon="2.42584">
        <ele>516</ele>
        <time>2015-04-16T13:20:58Z</time>
      </trkpt>
      <trkpt lat="46.12256" lon="2.42584">
        <ele>515</ele>
        <time>2015-04-16T13:21:00Z</time>
      </trkpt>
      <trkpt lat="46.12259" lon="2.42584">
        <ele>515</ele>
        <time>2015-04-16T13:21:02Z</time>
      </trkpt>
      <trkpt lat="46.12262" lon="2.42582">
        <ele>515</ele>
        <time>2015-04-16T13:21:04Z</time>
      </trkpt>
      <trkpt lat="46.12264" lon="2.42581">
        <ele>514</ele>
        <time>2015-04-16T13:21:06Z</time>
      </trkpt>
      <trkpt lat="46.12267" lon="2.42581">
        <ele>514</ele>
        <time>2015-04-16T13:21:08Z</time>
      </trkpt>
      <trkpt lat="46.12269" lon="2.4258">
        <ele>513</ele>
        <time>2015-04-16T13:21:10Z</time>
      </trkpt>
      <trkpt lat="46.12272" lon="2.4258">
        <ele>513</ele>
        <time>2015-04-16T13:21:12Z</time>
      </trkpt>
      <trkpt lat="46.12275" lon="2.4258">
        <ele>512</ele>
        <time>2015-04-16T13:21:14Z</time>
      </trkpt>
      <trkpt lat="46.12278" lon="2.4258">
        <ele>512</ele>
        <time>2015-04-16T13:21:16Z</time>
      </trkpt>
      <trkpt lat="46.1228" lon="2.4258">
        <ele>511</ele>
        <time>2015-04-16T13:21:18Z</time>
      </trkpt>
      <trkpt lat="46.12283" lon="2.42582">
        <ele>511</ele>
        <time>2015-04-16T13:21:20Z</time>
      </trkpt>
      <trkpt lat="46.12285" lon="2.42584">
        <ele>510</ele>
        <time>2015-04-16T13:21:22Z</time>
      </trkpt>
      <trkpt lat="46.12287" lon="2.42587">
        <ele>510</ele>
        <time>2015-04-16T13:21:24Z</time>
      </trkpt>
      <trkpt lat="46.12289" lon="2.4259">
        <ele>510</ele>
        <time>2015-04-16T13:21:26Z</time>
      </trkpt>
      <trkpt lat="46.12292" lon="2.42593">
        <ele>510</ele>
        <time>2015-04-16T13:21:29Z</time>
      </trkpt>
      <trkpt lat="46.12295" lon="2.42595">
        <ele>510</ele>
        <time>2015-04-16T13:21:31Z</time>
      </trkpt>
      <trkpt lat="46.12297" lon="2.42597">
        <ele>510</ele>
        <time>2015-04-16T13:21:33Z</time>
      </trkpt>
      <trkpt lat="46.12301" lon="2.42601">
        <ele>510</ele>
        <time>2015-04-16T13:21:36Z</time>
      </trkpt>
      <trkpt lat="46.12304" lon="2.42603">
        <ele>510</ele>
        <time>2015-04-16T13:21:38Z</time>
      </trkpt>
      <trkpt lat="46.12306" lon="2.42605">
        <ele>510</ele>
        <time>2015-04-16T13:21:40Z</time>
      </trkpt>
      <trkpt lat="46.12308" lon="2.42607">
        <ele>510</ele>
        <time>2015-04-16T13:21:42Z</time>
      </trkpt>
      <trkpt lat="46.12311" lon="2.42609">
        <ele>510</ele>
        <time>2015-04-16T13:21:44Z</time>
      </trkpt>
      <trkpt lat="46.12313" lon="2.42613">
        <ele>509</ele>
        <time>2015-04-16T13:21:47Z</time>
      </trkpt>
      <trkpt lat="46.12315" lon="2.42616">
        <ele>509</ele>
        <time>2015-04-16T13:21:49Z</time>
      </trkpt>
      <trkpt lat="46.12316" lon="2.42617">
        <ele>509</ele>
        <time>2015-04-16T13:21:51Z</time>
      </trkpt>
      <trkpt lat="46.12318" lon="2.42618">
        <ele>509</ele>
        <time>2015-04-16T13:21:53Z</time>
      </trkpt>
      <trkpt lat="46.1232" lon="2.4262">
        <ele>509</ele>
        <time>2015-04-16T13:21:55Z</time>
      </trkpt>
      <trkpt lat="46.12321" lon="2.42622">
        <ele>509</ele>
        <time>2015-04-16T13:21:57Z</time>
      </trkpt>
      <trkpt lat="46.12322" lon="2.42624">
        <ele>509</ele>
        <time>2015-04-16T13:21:59Z</time>
      </trkpt>
      <trkpt lat="46.12323" lon="2.42626">
        <ele>509</ele>
        <time>2015-04-16T13:22:01Z</time>
      </trkpt>
      <trkpt lat="46.12325" lon="2.42628">
        <ele>508</ele>
        <time>2015-04-16T13:22:03Z</time>
      </trkpt>
      <trkpt lat="46.12326" lon="2.42631">
        <ele>508</ele>
        <time>2015-04-16T13:22:05Z</time>
      </trkpt>
      <trkpt lat="46.12328" lon="2.42633">
        <ele>508</ele>
        <time>2015-04-16T13:22:07Z</time>
      </trkpt>
      <trkpt lat="46.12329" lon="2.42636">
        <ele>508</ele>
        <time>2015-04-16T13:22:09Z</time>
      </trkpt>
      <trkpt lat="46.12331" lon="2.42638">
        <ele>507</ele>
        <time>2015-04-16T13:22:11Z</time>
      </trkpt>
      <trkpt lat="46.12333" lon="2.4264">
        <ele>507</ele>
        <time>2015-04-16T13:22:13Z</time>
      </trkpt>
      <trkpt lat="46.12336" lon="2.42645">
        <ele>507</ele>
        <time>2015-04-16T13:22:16Z</time>
      </trkpt>
      <trkpt lat="46.12339" lon="2.4265">
        <ele>507</ele>
        <time>2015-04-16T13:22:19Z</time>
      </trkpt>
      <trkpt lat="46.1234" lon="2.42653">
        <ele>507</ele>
        <time>2015-04-16T13:22:21Z</time>
      </trkpt>
      <trkpt lat="46.12343" lon="2.42657">
        <ele>507</ele>
        <time>2015-04-16T13:22:23Z</time>
      </trkpt>
      <trkpt lat="46.12345" lon="2.4266">
        <ele>507</ele>
        <time>2015-04-16T13:22:25Z</time>
      </trkpt>
      <trkpt lat="46.12348" lon="2.42661">
        <ele>507</ele>
        <time>2015-04-16T13:22:27Z</time>
      </trkpt>
      <trkpt lat="46.12351" lon="2.42661">
        <ele>507</ele>
        <time>2015-04-16T13:22:29Z</time>
      </trkpt>
      <trkpt lat="46.12353" lon="2.42661">
        <ele>506</ele>
        <time>2015-04-16T13:22:31Z</time>
      </trkpt>
      <trkpt lat="46.12356" lon="2.42659">
        <ele>505</ele>
        <time>2015-04-16T13:22:33Z</time>
      </trkpt>
      <trkpt lat="46.12359" lon="2.42658">
        <ele>504</ele>
        <time>2015-04-16T13:22:35Z</time>
      </trkpt>
      <trkpt lat="46.12362" lon="2.42656">
        <ele>504</ele>
        <time>2015-04-16T13:22:37Z</time>
      </trkpt>
      <trkpt lat="46.12365" lon="2.42653">
        <ele>504</ele>
        <time>2015-04-16T13:22:39Z</time>
      </trkpt>
      <trkpt lat="46.12368" lon="2.42651">
        <ele>504</ele>
        <time>2015-04-16T13:22:41Z</time>
      </trkpt>
      <trkpt lat="46.12371" lon="2.42649">
        <ele>504</ele>
        <time>2015-04-16T13:22:43Z</time>
      </trkpt>
      <trkpt lat="46.12374" lon="2.42647">
        <ele>504</ele>
        <time>2015-04-16T13:22:45Z</time>
      </trkpt>
      <trkpt lat="46.12376" lon="2.42644">
        <ele>504</ele>
        <time>2015-04-16T13:22:47Z</time>
      </trkpt>
      <trkpt lat="46.12379" lon="2.42643">
        <ele>504</ele>
        <time>2015-04-16T13:22:49Z</time>
      </trkpt>
      <trkpt lat="46.12381" lon="2.42641">
        <ele>504</ele>
        <time>2015-04-16T13:22:51Z</time>
      </trkpt>
      <trkpt lat="46.12384" lon="2.42638">
        <ele>504</ele>
        <time>2015-04-16T13:22:53Z</time>
      </trkpt>
      <trkpt lat="46.12387" lon="2.42636">
        <ele>504</ele>
        <time>2015-04-16T13:22:55Z</time>
      </trkpt>
      <trkpt lat="46.12389" lon="2.42635">
        <ele>504</ele>
        <time>2015-04-16T13:22:57Z</time>
      </trkpt>
      <trkpt lat="46.12392" lon="2.42633">
        <ele>504</ele>
        <time>2015-04-16T13:22:59Z</time>
      </trkpt>
      <trkpt lat="46.12395" lon="2.42631">
        <ele>504</ele>
        <time>2015-04-16T13:23:01Z</time>
      </trkpt>
      <trkpt lat="46.12397" lon="2.4263">
        <ele>504</ele>
        <time>2015-04-16T13:23:03Z</time>
      </trkpt>
      <trkpt lat="46.124" lon="2.42628">
        <ele>504</ele>
        <time>2015-04-16T13:23:05Z</time>
      </trkpt>
      <trkpt lat="46.12402" lon="2.42627">
        <ele>504</ele>
        <time>2015-04-16T13:23:07Z</time>
      </trkpt>
      <trkpt lat="46.12405" lon="2.42625">
        <ele>504</ele>
        <time>2015-04-16T13:23:09Z</time>
      </trkpt>
      <trkpt lat="46.12408" lon="2.42623">
        <ele>504</ele>
        <time>2015-04-16T13:23:11Z</time>
      </trkpt>
      <trkpt lat="46.12411" lon="2.42622">
        <ele>504</ele>
        <time>2015-04-16T13:23:13Z</time>
      </trkpt>
      <trkpt lat="46.12413" lon="2.42621">
        <ele>504</ele>
        <time>2015-04-16T13:23:15Z</time>
      </trkpt>
      <trkpt lat="46.12416" lon="2.42619">
        <ele>504</ele>
        <time>2015-04-16T13:23:17Z</time>
      </trkpt>
      <trkpt lat="46.12419" lon="2.42617">
        <ele>504</ele>
        <time>2015-04-16T13:23:19Z</time>
      </trkpt>
      <trkpt lat="46.12421" lon="2.42616">
        <ele>504</ele>
        <time>2015-04-16T13:23:21Z</time>
      </trkpt>
      <trkpt lat="46.12424" lon="2.42614">
        <ele>504</ele>
        <time>2015-04-16T13:23:23Z</time>
      </trkpt>
      <trkpt lat="46.12426" lon="2.42613">
        <ele>504</ele>
        <time>2015-04-16T13:23:25Z</time>
      </trkpt>
      <trkpt lat="46.12429" lon="2.42611">
        <ele>504</ele>
        <time>2015-04-16T13:23:27Z</time>
      </trkpt>
      <trkpt lat="46.12432" lon="2.4261">
        <ele>504</ele>
        <time>2015-04-16T13:23:29Z</time>
      </trkpt>
      <trkpt lat="46.12435" lon="2.42608">
        <ele>504</ele>
        <time>2015-04-16T13:23:31Z</time>
      </trkpt>
      <trkpt lat="46.12437" lon="2.42606">
        <ele>504</ele>
        <time>2015-04-16T13:23:33Z</time>
      </trkpt>
      <trkpt lat="46.1244" lon="2.42605">
        <ele>504</ele>
        <time>2015-04-16T13:23:35Z</time>
      </trkpt>
      <trkpt lat="46.12443" lon="2.42603">
        <ele>504</ele>
        <time>2015-04-16T13:23:37Z</time>
      </trkpt>
      <trkpt lat="46.12446" lon="2.42602">
        <ele>504</ele>
        <time>2015-04-16T13:23:39Z</time>
      </trkpt>
      <trkpt lat="46.12449" lon="2.42601">
        <ele>505</ele>
        <time>2015-04-16T13:23:41Z</time>
      </trkpt>
      <trkpt lat="46.12451" lon="2.426">
        <ele>505</ele>
        <time>2015-04-16T13:23:43Z</time>
      </trkpt>
      <trkpt lat="46.12454" lon="2.42598">
        <ele>505</ele>
        <time>2015-04-16T13:23:45Z</time>
      </trkpt>
      <trkpt lat="46.12457" lon="2.42596">
        <ele>505</ele>
        <time>2015-04-16T13:23:47Z</time>
      </trkpt>
      <trkpt lat="46.1246" lon="2.42594">
        <ele>505</ele>
        <time>2015-04-16T13:23:49Z</time>
      </trkpt>
      <trkpt lat="46.12462" lon="2.42593">
        <ele>505</ele>
        <time>2015-04-16T13:23:51Z</time>
      </trkpt>
      <trkpt lat="46.12465" lon="2.42591">
        <ele>505</ele>
        <time>2015-04-16T13:23:53Z</time>
      </trkpt>
      <trkpt lat="46.12467" lon="2.42589">
        <ele>505</ele>
        <time>2015-04-16T13:23:55Z</time>
      </trkpt>
      <trkpt lat="46.12469" lon="2.42588">
        <ele>505</ele>
        <time>2015-04-16T13:23:57Z</time>
      </trkpt>
      <trkpt lat="46.12472" lon="2.42586">
        <ele>505</ele>
        <time>2015-04-16T13:23:59Z</time>
      </trkpt>
      <trkpt lat="46.12475" lon="2.42585">
        <ele>505</ele>
        <time>2015-04-16T13:24:01Z</time>
      </trkpt>
      <trkpt lat="46.12477" lon="2.42583">
        <ele>505</ele>
        <time>2015-04-16T13:24:03Z</time>
      </trkpt>
      <trkpt lat="46.1248" lon="2.42582">
        <ele>505</ele>
        <time>2015-04-16T13:24:05Z</time>
      </trkpt>
      <trkpt lat="46.12482" lon="2.4258">
        <ele>505</ele>
        <time>2015-04-16T13:24:07Z</time>
      </trkpt>
      <trkpt lat="46.12485" lon="2.42579">
        <ele>505</ele>
        <time>2015-04-16T13:24:09Z</time>
      </trkpt>
      <trkpt lat="46.12487" lon="2.42577">
        <ele>505</ele>
        <time>2015-04-16T13:24:11Z</time>
      </trkpt>
      <trkpt lat="46.12489" lon="2.42576">
        <ele>505</ele>
        <time>2015-04-16T13:24:13Z</time>
      </trkpt>
      <trkpt lat="46.12492" lon="2.42574">
        <ele>505</ele>
        <time>2015-04-16T13:24:16Z</time>
      </trkpt>
      <trkpt lat="46.12496" lon="2.42572">
        <ele>505</ele>
        <time>2015-04-16T13:24:19Z</time>
      </trkpt>
      <trkpt lat="46.12498" lon="2.42571">
        <ele>505</ele>
        <time>2015-04-16T13:24:21Z</time>
      </trkpt>
      <trkpt lat="46.125" lon="2.4257">
        <ele>505</ele>
        <time>2015-04-16T13:24:23Z</time>
      </trkpt>
      <trkpt lat="46.12503" lon="2.42568">
        <ele>505</ele>
        <time>2015-04-16T13:24:25Z</time>
      </trkpt>
      <trkpt lat="46.12505" lon="2.42566">
        <ele>505</ele>
        <time>2015-04-16T13:24:27Z</time>
      </trkpt>
      <trkpt lat="46.12507" lon="2.42565">
        <ele>505</ele>
        <time>2015-04-16T13:24:29Z</time>
      </trkpt>
      <trkpt lat="46.1251" lon="2.42563">
        <ele>505</ele>
        <time>2015-04-16T13:24:31Z</time>
      </trkpt>
      <trkpt lat="46.12512" lon="2.42562">
        <ele>505</ele>
        <time>2015-04-16T13:24:33Z</time>
      </trkpt>
      <trkpt lat="46.12515" lon="2.42561">
        <ele>505</ele>
        <time>2015-04-16T13:24:35Z</time>
      </trkpt>
      <trkpt lat="46.12517" lon="2.42559">
        <ele>505</ele>
        <time>2015-04-16T13:24:37Z</time>
      </trkpt>
      <trkpt lat="46.12519" lon="2.42557">
        <ele>505</ele>
        <time>2015-04-16T13:24:39Z</time>
      </trkpt>
      <trkpt lat="46.12522" lon="2.42555">
        <ele>505</ele>
        <time>2015-04-16T13:24:41Z</time>
      </trkpt>
      <trkpt lat="46.12524" lon="2.42553">
        <ele>505</ele>
        <time>2015-04-16T13:24:43Z</time>
      </trkpt>
      <trkpt lat="46.12527" lon="2.42551">
        <ele>505</ele>
        <time>2015-04-16T13:24:45Z</time>
      </trkpt>
      <trkpt lat="46.12529" lon="2.42549">
        <ele>505</ele>
        <time>2015-04-16T13:24:47Z</time>
      </trkpt>
      <trkpt lat="46.12532" lon="2.42547">
        <ele>505</ele>
        <time>2015-04-16T13:24:49Z</time>
      </trkpt>
      <trkpt lat="46.12534" lon="2.42545">
        <ele>505</ele>
        <time>2015-04-16T13:24:51Z</time>
      </trkpt>
      <trkpt lat="46.12537" lon="2.42541">
        <ele>505</ele>
        <time>2015-04-16T13:24:54Z</time>
      </trkpt>
      <trkpt lat="46.1254" lon="2.42538">
        <ele>505</ele>
        <time>2015-04-16T13:24:56Z</time>
      </trkpt>
      <trkpt lat="46.12542" lon="2.42536">
        <ele>505</ele>
        <time>2015-04-16T13:24:58Z</time>
      </trkpt>
      <trkpt lat="46.12545" lon="2.42534">
        <ele>505</ele>
        <time>2015-04-16T13:25:00Z</time>
      </trkpt>
      <trkpt lat="46.12547" lon="2.42532">
        <ele>505</ele>
        <time>2015-04-16T13:25:02Z</time>
      </trkpt>
      <trkpt lat="46.1255" lon="2.4253">
        <ele>505</ele>
        <time>2015-04-16T13:25:04Z</time>
      </trkpt>
      <trkpt lat="46.12552" lon="2.42528">
        <ele>505</ele>
        <time>2015-04-16T13:25:06Z</time>
      </trkpt>
      <trkpt lat="46.12555" lon="2.42527">
        <ele>505</ele>
        <time>2015-04-16T13:25:08Z</time>
      </trkpt>
      <trkpt lat="46.12558" lon="2.42526">
        <ele>505</ele>
        <time>2015-04-16T13:25:10Z</time>
      </trkpt>
      <trkpt lat="46.12561" lon="2.42526">
        <ele>505</ele>
        <time>2015-04-16T13:25:12Z</time>
      </trkpt>
      <trkpt lat="46.12564" lon="2.42525">
        <ele>505</ele>
        <time>2015-04-16T13:25:14Z</time>
      </trkpt>
      <trkpt lat="46.12567" lon="2.42525">
        <ele>505</ele>
        <time>2015-04-16T13:25:16Z</time>
      </trkpt>
      <trkpt lat="46.1257" lon="2.42525">
        <ele>505</ele>
        <time>2015-04-16T13:25:18Z</time>
      </trkpt>
      <trkpt lat="46.12573" lon="2.42524">
        <ele>505</ele>
        <time>2015-04-16T13:25:20Z</time>
      </trkpt>
      <trkpt lat="46.12576" lon="2.42525">
        <ele>505</ele>
        <time>2015-04-16T13:25:22Z</time>
      </trkpt>
      <trkpt lat="46.12579" lon="2.42525">
        <ele>505</ele>
        <time>2015-04-16T13:25:24Z</time>
      </trkpt>
      <trkpt lat="46.12582" lon="2.42526">
        <ele>505</ele>
        <time>2015-04-16T13:25:26Z</time>
      </trkpt>
      <trkpt lat="46.12585" lon="2.42526">
        <ele>505</ele>
        <time>2015-04-16T13:25:28Z</time>
      </trkpt>
      <trkpt lat="46.12588" lon="2.42526">
        <ele>505</ele>
        <time>2015-04-16T13:25:30Z</time>
      </trkpt>
      <trkpt lat="46.12591" lon="2.42526">
        <ele>505</ele>
        <time>2015-04-16T13:25:32Z</time>
      </trkpt>
      <trkpt lat="46.12594" lon="2.42526">
        <ele>505</ele>
        <time>2015-04-16T13:25:34Z</time>
      </trkpt>
      <trkpt lat="46.12596" lon="2.42525">
        <ele>505</ele>
        <time>2015-04-16T13:25:36Z</time>
      </trkpt>
      <trkpt lat="46.12599" lon="2.42524">
        <ele>505</ele>
        <time>2015-04-16T13:25:38Z</time>
      </trkpt>
      <trkpt lat="46.12602" lon="2.42525">
        <ele>505</ele>
        <time>2015-04-16T13:25:40Z</time>
      </trkpt>
      <trkpt lat="46.12605" lon="2.42526">
        <ele>505</ele>
        <time>2015-04-16T13:25:42Z</time>
      </trkpt>
      <trkpt lat="46.12608" lon="2.42526">
        <ele>505</ele>
        <time>2015-04-16T13:25:44Z</time>
      </trkpt>
      <trkpt lat="46.12611" lon="2.42525">
        <ele>505</ele>
        <time>2015-04-16T13:25:46Z</time>
      </trkpt>
      <trkpt lat="46.12614" lon="2.42525">
        <ele>505</ele>
        <time>2015-04-16T13:25:48Z</time>
      </trkpt>
      <trkpt lat="46.12617" lon="2.42524">
        <ele>505</ele>
        <time>2015-04-16T13:25:50Z</time>
      </trkpt>
      <trkpt lat="46.1262" lon="2.42524">
        <ele>505</ele>
        <time>2015-04-16T13:25:52Z</time>
      </trkpt>
      <trkpt lat="46.12623" lon="2.42525">
        <ele>505</ele>
        <time>2015-04-16T13:25:54Z</time>
      </trkpt>
      <trkpt lat="46.12626" lon="2.42525">
        <ele>505</ele>
        <time>2015-04-16T13:25:56Z</time>
      </trkpt>
      <trkpt lat="46.12629" lon="2.42525">
        <ele>505</ele>
        <time>2015-04-16T13:25:58Z</time>
      </trkpt>
      <trkpt lat="46.12632" lon="2.42525">
        <ele>505</ele>
        <time>2015-04-16T13:26:00Z</time>
      </trkpt>
      <trkpt lat="46.12635" lon="2.42525">
        <ele>505</ele>
        <time>2015-04-16T13:26:02Z</time>
      </trkpt>
      <trkpt lat="46.12638" lon="2.42526">
        <ele>505</ele>
        <time>2015-04-16T13:26:04Z</time>
      </trkpt>
      <trkpt lat="46.12641" lon="2.42527">
        <ele>505</ele>
        <time>2015-04-16T13:26:06Z</time>
      </trkpt>
      <trkpt lat="46.12644" lon="2.42528">
        <ele>505</ele>
        <time>2015-04-16T13:26:08Z</time>
      </trkpt>
      <trkpt lat="46.12646" lon="2.42529">
        <ele>505</ele>
        <time>2015-04-16T13:26:10Z</time>
      </trkpt>
      <trkpt lat="46.12649" lon="2.4253">
        <ele>505</ele>
        <time>2015-04-16T13:26:12Z</time>
      </trkpt>
      <trkpt lat="46.12652" lon="2.4253">
        <ele>505</ele>
        <time>2015-04-16T13:26:14Z</time>
      </trkpt>
      <trkpt lat="46.12655" lon="2.42531">
        <ele>505</ele>
        <time>2015-04-16T13:26:16Z</time>
      </trkpt>
      <trkpt lat="46.12658" lon="2.42532">
        <ele>505</ele>
        <time>2015-04-16T13:26:18Z</time>
      </trkpt>
      <trkpt lat="46.12661" lon="2.42532">
        <ele>505</ele>
        <time>2015-04-16T13:26:20Z</time>
      </trkpt>
      <trkpt lat="46.12663" lon="2.42532">
        <ele>505</ele>
        <time>2015-04-16T13:26:22Z</time>
      </trkpt>
      <trkpt lat="46.12666" lon="2.42532">
        <ele>505</ele>
        <time>2015-04-16T13:26:24Z</time>
      </trkpt>
      <trkpt lat="46.12668" lon="2.42533">
        <ele>505</ele>
        <time>2015-04-16T13:26:26Z</time>
      </trkpt>
      <trkpt lat="46.12671" lon="2.42533">
        <ele>505</ele>
        <time>2015-04-16T13:26:28Z</time>
      </trkpt>
      <trkpt lat="46.12674" lon="2.42533">
        <ele>505</ele>
        <time>2015-04-16T13:26:30Z</time>
      </trkpt>
      <trkpt lat="46.12677" lon="2.42533">
        <ele>505</ele>
        <time>2015-04-16T13:26:32Z</time>
      </trkpt>
      <trkpt lat="46.1268" lon="2.42534">
        <ele>505</ele>
        <time>2015-04-16T13:26:34Z</time>
      </trkpt>
      <trkpt lat="46.12683" lon="2.42534">
        <ele>505</ele>
        <time>2015-04-16T13:26:36Z</time>
      </trkpt>
      <trkpt lat="46.12685" lon="2.42535">
        <ele>505</ele>
        <time>2015-04-16T13:26:38Z</time>
      </trkpt>
      <trkpt lat="46.12688" lon="2.42535">
        <ele>505</ele>
        <time>2015-04-16T13:26:40Z</time>
      </trkpt>
      <trkpt lat="46.12691" lon="2.42535">
        <ele>505</ele>
        <time>2015-04-16T13:26:42Z</time>
      </trkpt>
      <trkpt lat="46.12695" lon="2.42534">
        <ele>505</ele>
        <time>2015-04-16T13:26:44Z</time>
      </trkpt>
      <trkpt lat="46.12698" lon="2.42534">
        <ele>505</ele>
        <time>2015-04-16T13:26:46Z</time>
      </trkpt>
      <trkpt lat="46.12701" lon="2.42535">
        <ele>505</ele>
        <time>2015-04-16T13:26:48Z</time>
      </trkpt>
      <trkpt lat="46.12704" lon="2.42535">
        <ele>505</ele>
        <time>2015-04-16T13:26:50Z</time>
      </trkpt>
      <trkpt lat="46.12706" lon="2.42535">
        <ele>505</ele>
        <time>2015-04-16T13:26:52Z</time>
      </trkpt>
      <trkpt lat="46.12709" lon="2.42535">
        <ele>505</ele>
        <time>2015-04-16T13:26:54Z</time>
      </trkpt>
      <trkpt lat="46.12712" lon="2.42535">
        <ele>505</ele>
        <time>2015-04-16T13:26:56Z</time>
      </trkpt>
      <trkpt lat="46.12716" lon="2.42536">
        <ele>505</ele>
        <time>2015-04-16T13:26:58Z</time>
      </trkpt>
      <trkpt lat="46.12719" lon="2.42536">
        <ele>505</ele>
        <time>2015-04-16T13:27:00Z</time>
      </trkpt>
      <trkpt lat="46.12722" lon="2.42536">
        <ele>505</ele>
        <time>2015-04-16T13:27:02Z</time>
      </trkpt>
      <trkpt lat="46.12724" lon="2.42536">
        <ele>505</ele>
        <time>2015-04-16T13:27:04Z</time>
      </trkpt>
      <trkpt lat="46.12727" lon="2.42536">
        <ele>505</ele>
        <time>2015-04-16T13:27:06Z</time>
      </trkpt>
      <trkpt lat="46.1273" lon="2.42536">
        <ele>505</ele>
        <time>2015-04-16T13:27:08Z</time>
      </trkpt>
      <trkpt lat="46.12733" lon="2.42536">
        <ele>505</ele>
        <time>2015-04-16T13:27:10Z</time>
      </trkpt>
      <trkpt lat="46.12736" lon="2.42536">
        <ele>505</ele>
        <time>2015-04-16T13:27:12Z</time>
      </trkpt>
      <trkpt lat="46.12739" lon="2.42536">
        <ele>505</ele>
        <time>2015-04-16T13:27:14Z</time>
      </trkpt>
      <trkpt lat="46.12742" lon="2.42536">
        <ele>505</ele>
        <time>2015-04-16T13:27:16Z</time>
      </trkpt>
      <trkpt lat="46.12745" lon="2.42536">
        <ele>505</ele>
        <time>2015-04-16T13:27:18Z</time>
      </trkpt>
      <trkpt lat="46.12748" lon="2.42536">
        <ele>505</ele>
        <time>2015-04-16T13:27:20Z</time>
      </trkpt>
      <trkpt lat="46.12751" lon="2.42536">
        <ele>505</ele>
        <time>2015-04-16T13:27:22Z</time>
      </trkpt>
      <trkpt lat="46.12754" lon="2.42537">
        <ele>505</ele>
        <time>2015-04-16T13:27:24Z</time>
      </trkpt>
      <trkpt lat="46.12756" lon="2.42537">
        <ele>505</ele>
        <time>2015-04-16T13:27:26Z</time>
      </trkpt>
      <trkpt lat="46.12759" lon="2.42537">
        <ele>505</ele>
        <time>2015-04-16T13:27:28Z</time>
      </trkpt>
      <trkpt lat="46.12762" lon="2.42536">
        <ele>504</ele>
        <time>2015-04-16T13:27:30Z</time>
      </trkpt>
      <trkpt lat="46.12764" lon="2.42536">
        <ele>504</ele>
        <time>2015-04-16T13:27:32Z</time>
      </trkpt>
      <trkpt lat="46.12768" lon="2.42536">
        <ele>504</ele>
        <time>2015-04-16T13:27:34Z</time>
      </trkpt>
      <trkpt lat="46.12771" lon="2.42536">
        <ele>504</ele>
        <time>2015-04-16T13:27:36Z</time>
      </trkpt>
      <trkpt lat="46.12774" lon="2.42536">
        <ele>504</ele>
        <time>2015-04-16T13:27:38Z</time>
      </trkpt>
      <trkpt lat="46.12777" lon="2.42535">
        <ele>504</ele>
        <time>2015-04-16T13:27:40Z</time>
      </trkpt>
      <trkpt lat="46.1278" lon="2.42535">
        <ele>504</ele>
        <time>2015-04-16T13:27:42Z</time>
      </trkpt>
      <trkpt lat="46.12783" lon="2.42534">
        <ele>504</ele>
        <time>2015-04-16T13:27:44Z</time>
      </trkpt>
      <trkpt lat="46.12786" lon="2.42534">
        <ele>504</ele>
        <time>2015-04-16T13:27:46Z</time>
      </trkpt>
      <trkpt lat="46.12789" lon="2.42534">
        <ele>504</ele>
        <time>2015-04-16T13:27:48Z</time>
      </trkpt>
      <trkpt lat="46.12792" lon="2.42533">
        <ele>504</ele>
        <time>2015-04-16T13:27:50Z</time>
      </trkpt>
      <trkpt lat="46.12795" lon="2.42533">
        <ele>504</ele>
        <time>2015-04-16T13:27:52Z</time>
      </trkpt>
      <trkpt lat="46.12798" lon="2.42533">
        <ele>504</ele>
        <time>2015-04-16T13:27:54Z</time>
      </trkpt>
      <trkpt lat="46.12801" lon="2.42532">
        <ele>504</ele>
        <time>2015-04-16T13:27:56Z</time>
      </trkpt>
      <trkpt lat="46.12803" lon="2.42532">
        <ele>504</ele>
        <time>2015-04-16T13:27:58Z</time>
      </trkpt>
      <trkpt lat="46.12806" lon="2.42531">
        <ele>504</ele>
        <time>2015-04-16T13:28:00Z</time>
      </trkpt>
      <trkpt lat="46.12809" lon="2.42531">
        <ele>504</ele>
        <time>2015-04-16T13:28:02Z</time>
      </trkpt>
      <trkpt lat="46.12812" lon="2.4253">
        <ele>504</ele>
        <time>2015-04-16T13:28:04Z</time>
      </trkpt>
      <trkpt lat="46.12815" lon="2.4253">
        <ele>504</ele>
        <time>2015-04-16T13:28:06Z</time>
      </trkpt>
      <trkpt lat="46.12817" lon="2.4253">
        <ele>503</ele>
        <time>2015-04-16T13:28:08Z</time>
      </trkpt>
      <trkpt lat="46.1282" lon="2.42529">
        <ele>503</ele>
        <time>2015-04-16T13:28:10Z</time>
      </trkpt>
      <trkpt lat="46.12823" lon="2.42529">
        <ele>503</ele>
        <time>2015-04-16T13:28:12Z</time>
      </trkpt>
      <trkpt lat="46.12826" lon="2.42528">
        <ele>503</ele>
        <time>2015-04-16T13:28:14Z</time>
      </trkpt>
      <trkpt lat="46.12829" lon="2.42528">
        <ele>503</ele>
        <time>2015-04-16T13:28:16Z</time>
      </trkpt>
      <trkpt lat="46.12832" lon="2.42528">
        <ele>503</ele>
        <time>2015-04-16T13:28:18Z</time>
      </trkpt>
      <trkpt lat="46.12835" lon="2.42527">
        <ele>503</ele>
        <time>2015-04-16T13:28:20Z</time>
      </trkpt>
      <trkpt lat="46.12838" lon="2.42526">
        <ele>503</ele>
        <time>2015-04-16T13:28:22Z</time>
      </trkpt>
      <trkpt lat="46.12841" lon="2.42525">
        <ele>503</ele>
        <time>2015-04-16T13:28:24Z</time>
      </trkpt>
      <trkpt lat="46.12844" lon="2.42524">
        <ele>503</ele>
        <time>2015-04-16T13:28:26Z</time>
      </trkpt>
      <trkpt lat="46.12847" lon="2.42523">
        <ele>503</ele>
        <time>2015-04-16T13:28:28Z</time>
      </trkpt>
      <trkpt lat="46.12849" lon="2.42522">
        <ele>503</ele>
        <time>2015-04-16T13:28:30Z</time>
      </trkpt>
      <trkpt lat="46.12852" lon="2.4252">
        <ele>503</ele>
        <time>2015-04-16T13:28:32Z</time>
      </trkpt>
      <trkpt lat="46.12855" lon="2.42519">
        <ele>503</ele>
        <time>2015-04-16T13:28:34Z</time>
      </trkpt>
      <trkpt lat="46.12858" lon="2.42518">
        <ele>503</ele>
        <time>2015-04-16T13:28:36Z</time>
      </trkpt>
      <trkpt lat="46.12861" lon="2.42517">
        <ele>503</ele>
        <time>2015-04-16T13:28:38Z</time>
      </trkpt>
      <trkpt lat="46.12864" lon="2.42516">
        <ele>503</ele>
        <time>2015-04-16T13:28:40Z</time>
      </trkpt>
      <trkpt lat="46.12867" lon="2.42514">
        <ele>503</ele>
        <time>2015-04-16T13:28:42Z</time>
      </trkpt>
      <trkpt lat="46.1287" lon="2.42513">
        <ele>502</ele>
        <time>2015-04-16T13:28:44Z</time>
      </trkpt>
      <trkpt lat="46.12873" lon="2.42513">
        <ele>502</ele>
        <time>2015-04-16T13:28:46Z</time>
      </trkpt>
      <trkpt lat="46.12875" lon="2.42512">
        <ele>502</ele>
        <time>2015-04-16T13:28:48Z</time>
      </trkpt>
      <trkpt lat="46.12878" lon="2.42511">
        <ele>502</ele>
        <time>2015-04-16T13:28:50Z</time>
      </trkpt>
      <trkpt lat="46.12881" lon="2.42509">
        <ele>502</ele>
        <time>2015-04-16T13:28:52Z</time>
      </trkpt>
      <trkpt lat="46.12884" lon="2.42509">
        <ele>502</ele>
        <time>2015-04-16T13:28:54Z</time>
      </trkpt>
      <trkpt lat="46.12887" lon="2.42508">
        <ele>501</ele>
        <time>2015-04-16T13:28:56Z</time>
      </trkpt>
      <trkpt lat="46.1289" lon="2.42508">
        <ele>501</ele>
        <time>2015-04-16T13:28:58Z</time>
      </trkpt>
      <trkpt lat="46.12893" lon="2.42508">
        <ele>501</ele>
        <time>2015-04-16T13:29:00Z</time>
      </trkpt>
      <trkpt lat="46.12896" lon="2.42507">
        <ele>501</ele>
        <time>2015-04-16T13:29:02Z</time>
      </trkpt>
      <trkpt lat="46.12899" lon="2.42507">
        <ele>501</ele>
        <time>2015-04-16T13:29:04Z</time>
      </trkpt>
      <trkpt lat="46.12902" lon="2.42506">
        <ele>501</ele>
        <time>2015-04-16T13:29:06Z</time>
      </trkpt>
      <trkpt lat="46.12904" lon="2.42506">
        <ele>501</ele>
        <time>2015-04-16T13:29:08Z</time>
      </trkpt>
      <trkpt lat="46.12907" lon="2.42506">
        <ele>501</ele>
        <time>2015-04-16T13:29:10Z</time>
      </trkpt>
      <trkpt lat="46.1291" lon="2.42506">
        <ele>501</ele>
        <time>2015-04-16T13:29:12Z</time>
      </trkpt>
      <trkpt lat="46.12913" lon="2.42505">
        <ele>501</ele>
        <time>2015-04-16T13:29:14Z</time>
      </trkpt>
      <trkpt lat="46.12916" lon="2.42505">
        <ele>501</ele>
        <time>2015-04-16T13:29:16Z</time>
      </trkpt>
      <trkpt lat="46.12919" lon="2.42505">
        <ele>501</ele>
        <time>2015-04-16T13:29:18Z</time>
      </trkpt>
      <trkpt lat="46.12922" lon="2.42505">
        <ele>501</ele>
        <time>2015-04-16T13:29:20Z</time>
      </trkpt>
      <trkpt lat="46.12925" lon="2.42506">
        <ele>501</ele>
        <time>2015-04-16T13:29:22Z</time>
      </trkpt>
      <trkpt lat="46.12928" lon="2.42506">
        <ele>501</ele>
        <time>2015-04-16T13:29:24Z</time>
      </trkpt>
      <trkpt lat="46.12931" lon="2.42506">
        <ele>501</ele>
        <time>2015-04-16T13:29:26Z</time>
      </trkpt>
      <trkpt lat="46.12933" lon="2.42506">
        <ele>501</ele>
        <time>2015-04-16T13:29:28Z</time>
      </trkpt>
      <trkpt lat="46.12936" lon="2.42506">
        <ele>501</ele>
        <time>2015-04-16T13:29:30Z</time>
      </trkpt>
      <trkpt lat="46.12939" lon="2.42507">
        <ele>501</ele>
        <time>2015-04-16T13:29:32Z</time>
      </trkpt>
      <trkpt lat="46.12943" lon="2.42507">
        <ele>501</ele>
        <time>2015-04-16T13:29:34Z</time>
      </trkpt>
      <trkpt lat="46.12946" lon="2.42508">
        <ele>501</ele>
        <time>2015-04-16T13:29:36Z</time>
      </trkpt>
      <trkpt lat="46.12949" lon="2.42508">
        <ele>501</ele>
        <time>2015-04-16T13:29:38Z</time>
      </trkpt>
      <trkpt lat="46.12952" lon="2.42509">
        <ele>500</ele>
        <time>2015-04-16T13:29:40Z</time>
      </trkpt>
      <trkpt lat="46.12954" lon="2.42509">
        <ele>500</ele>
        <time>2015-04-16T13:29:42Z</time>
      </trkpt>
      <trkpt lat="46.12957" lon="2.4251">
        <ele>500</ele>
        <time>2015-04-16T13:29:44Z</time>
      </trkpt>
      <trkpt lat="46.1296" lon="2.42511">
        <ele>500</ele>
        <time>2015-04-16T13:29:46Z</time>
      </trkpt>
      <trkpt lat="46.12963" lon="2.42512">
        <ele>500</ele>
        <time>2015-04-16T13:29:48Z</time>
      </trkpt>
      <trkpt lat="46.12966" lon="2.42512">
        <ele>500</ele>
        <time>2015-04-16T13:29:50Z</time>
      </trkpt>
      <trkpt lat="46.12969" lon="2.42513">
        <ele>500</ele>
        <time>2015-04-16T13:29:52Z</time>
      </trkpt>
      <trkpt lat="46.12972" lon="2.42514">
        <ele>500</ele>
        <time>2015-04-16T13:29:54Z</time>
      </trkpt>
      <trkpt lat="46.12975" lon="2.42515">
        <ele>500</ele>
        <time>2015-04-16T13:29:56Z</time>
      </trkpt>
      <trkpt lat="46.12978" lon="2.42516">
        <ele>500</ele>
        <time>2015-04-16T13:29:58Z</time>
      </trkpt>
      <trkpt lat="46.12981" lon="2.42517">
        <ele>499</ele>
        <time>2015-04-16T13:30:00Z</time>
      </trkpt>
      <trkpt lat="46.12983" lon="2.42517">
        <ele>499</ele>
        <time>2015-04-16T13:30:02Z</time>
      </trkpt>
      <trkpt lat="46.12986" lon="2.42518">
        <ele>499</ele>
        <time>2015-04-16T13:30:04Z</time>
      </trkpt>
      <trkpt lat="46.12989" lon="2.42518">
        <ele>499</ele>
        <time>2015-04-16T13:30:06Z</time>
      </trkpt>
      <trkpt lat="46.12992" lon="2.42519">
        <ele>498</ele>
        <time>2015-04-16T13:30:08Z</time>
      </trkpt>
      <trkpt lat="46.12995" lon="2.4252">
        <ele>498</ele>
        <time>2015-04-16T13:30:10Z</time>
      </trkpt>
      <trkpt lat="46.12998" lon="2.42521">
        <ele>498</ele>
        <time>2015-04-16T13:30:12Z</time>
      </trkpt>
      <trkpt lat="46.13001" lon="2.42522">
        <ele>498</ele>
        <time>2015-04-16T13:30:14Z</time>
      </trkpt>
      <trkpt lat="46.13003" lon="2.42523">
        <ele>498</ele>
        <time>2015-04-16T13:30:16Z</time>
      </trkpt>
      <trkpt lat="46.13006" lon="2.42524">
        <ele>497</ele>
        <time>2015-04-16T13:30:18Z</time>
      </trkpt>
      <trkpt lat="46.1301" lon="2.42524">
        <ele>497</ele>
        <time>2015-04-16T13:30:21Z</time>
      </trkpt>
      <trkpt lat="46.13012" lon="2.42525">
        <ele>497</ele>
        <time>2015-04-16T13:30:23Z</time>
      </trkpt>
      <trkpt lat="46.13015" lon="2.42525">
        <ele>497</ele>
        <time>2015-04-16T13:30:25Z</time>
      </trkpt>
      <trkpt lat="46.13018" lon="2.42526">
        <ele>497</ele>
        <time>2015-04-16T13:30:27Z</time>
      </trkpt>
      <trkpt lat="46.1302" lon="2.42526">
        <ele>497</ele>
        <time>2015-04-16T13:30:29Z</time>
      </trkpt>
      <trkpt lat="46.13023" lon="2.42527">
        <ele>497</ele>
        <time>2015-04-16T13:30:31Z</time>
      </trkpt>
      <trkpt lat="46.13026" lon="2.42527">
        <ele>496</ele>
        <time>2015-04-16T13:30:33Z</time>
      </trkpt>
      <trkpt lat="46.13028" lon="2.42528">
        <ele>496</ele>
        <time>2015-04-16T13:30:35Z</time>
      </trkpt>
      <trkpt lat="46.13032" lon="2.42529">
        <ele>496</ele>
        <time>2015-04-16T13:30:37Z</time>
      </trkpt>
      <trkpt lat="46.13035" lon="2.4253">
        <ele>496</ele>
        <time>2015-04-16T13:30:39Z</time>
      </trkpt>
      <trkpt lat="46.13038" lon="2.4253">
        <ele>496</ele>
        <time>2015-04-16T13:30:41Z</time>
      </trkpt>
      <trkpt lat="46.13042" lon="2.4253">
        <ele>496</ele>
        <time>2015-04-16T13:30:43Z</time>
      </trkpt>
      <trkpt lat="46.13044" lon="2.42531">
        <ele>495</ele>
        <time>2015-04-16T13:30:45Z</time>
      </trkpt>
      <trkpt lat="46.13048" lon="2.42532">
        <ele>495</ele>
        <time>2015-04-16T13:30:47Z</time>
      </trkpt>
      <trkpt lat="46.13051" lon="2.42532">
        <ele>495</ele>
        <time>2015-04-16T13:30:49Z</time>
      </trkpt>
      <trkpt lat="46.13054" lon="2.42532">
        <ele>495</ele>
        <time>2015-04-16T13:30:51Z</time>
      </trkpt>
      <trkpt lat="46.13057" lon="2.42533">
        <ele>494</ele>
        <time>2015-04-16T13:30:53Z</time>
      </trkpt>
      <trkpt lat="46.1306" lon="2.42533">
        <ele>494</ele>
        <time>2015-04-16T13:30:55Z</time>
      </trkpt>
      <trkpt lat="46.13062" lon="2.42534">
        <ele>493</ele>
        <time>2015-04-16T13:30:57Z</time>
      </trkpt>
      <trkpt lat="46.13065" lon="2.42535">
        <ele>493</ele>
        <time>2015-04-16T13:30:59Z</time>
      </trkpt>
      <trkpt lat="46.13068" lon="2.42535">
        <ele>493</ele>
        <time>2015-04-16T13:31:01Z</time>
      </trkpt>
      <trkpt lat="46.13071" lon="2.42536">
        <ele>493</ele>
        <time>2015-04-16T13:31:03Z</time>
      </trkpt>
      <trkpt lat="46.13074" lon="2.42536">
        <ele>493</ele>
        <time>2015-04-16T13:31:05Z</time>
      </trkpt>
      <trkpt lat="46.13077" lon="2.42537">
        <ele>493</ele>
        <time>2015-04-16T13:31:07Z</time>
      </trkpt>
      <trkpt lat="46.1308" lon="2.42538">
        <ele>493</ele>
        <time>2015-04-16T13:31:09Z</time>
      </trkpt>
      <trkpt lat="46.13083" lon="2.42538">
        <ele>492</ele>
        <time>2015-04-16T13:31:11Z</time>
      </trkpt>
      <trkpt lat="46.13086" lon="2.42539">
        <ele>492</ele>
        <time>2015-04-16T13:31:13Z</time>
      </trkpt>
      <trkpt lat="46.13089" lon="2.4254">
        <ele>492</ele>
        <time>2015-04-16T13:31:15Z</time>
      </trkpt>
      <trkpt lat="46.13092" lon="2.4254">
        <ele>491</ele>
        <time>2015-04-16T13:31:17Z</time>
      </trkpt>
      <trkpt lat="46.13095" lon="2.42541">
        <ele>491</ele>
        <time>2015-04-16T13:31:19Z</time>
      </trkpt>
      <trkpt lat="46.13098" lon="2.42541">
        <ele>491</ele>
        <time>2015-04-16T13:31:21Z</time>
      </trkpt>
      <trkpt lat="46.13101" lon="2.42542">
        <ele>491</ele>
        <time>2015-04-16T13:31:23Z</time>
      </trkpt>
      <trkpt lat="46.13104" lon="2.42543">
        <ele>491</ele>
        <time>2015-04-16T13:31:25Z</time>
      </trkpt>
      <trkpt lat="46.13107" lon="2.42543">
        <ele>491</ele>
        <time>2015-04-16T13:31:27Z</time>
      </trkpt>
      <trkpt lat="46.1311" lon="2.42544">
        <ele>491</ele>
        <time>2015-04-16T13:31:29Z</time>
      </trkpt>
      <trkpt lat="46.13113" lon="2.42544">
        <ele>491</ele>
        <time>2015-04-16T13:31:31Z</time>
      </trkpt>
      <trkpt lat="46.13116" lon="2.42544">
        <ele>491</ele>
        <time>2015-04-16T13:31:33Z</time>
      </trkpt>
      <trkpt lat="46.13119" lon="2.42545">
        <ele>491</ele>
        <time>2015-04-16T13:31:35Z</time>
      </trkpt>
      <trkpt lat="46.13121" lon="2.42545">
        <ele>491</ele>
        <time>2015-04-16T13:31:37Z</time>
      </trkpt>
      <trkpt lat="46.13124" lon="2.42545">
        <ele>491</ele>
        <time>2015-04-16T13:31:39Z</time>
      </trkpt>
      <trkpt lat="46.13127" lon="2.42544">
        <ele>491</ele>
        <time>2015-04-16T13:31:41Z</time>
      </trkpt>
      <trkpt lat="46.1313" lon="2.42544">
        <ele>491</ele>
        <time>2015-04-16T13:31:43Z</time>
      </trkpt>
      <trkpt lat="46.13133" lon="2.42543">
        <ele>491</ele>
        <time>2015-04-16T13:31:45Z</time>
      </trkpt>
      <trkpt lat="46.13136" lon="2.42542">
        <ele>491</ele>
        <time>2015-04-16T13:31:47Z</time>
      </trkpt>
      <trkpt lat="46.13139" lon="2.42539">
        <ele>491</ele>
        <time>2015-04-16T13:31:50Z</time>
      </trkpt>
      <trkpt lat="46.13142" lon="2.42536">
        <ele>491</ele>
        <time>2015-04-16T13:31:52Z</time>
      </trkpt>
      <trkpt lat="46.13144" lon="2.42533">
        <ele>491</ele>
        <time>2015-04-16T13:31:54Z</time>
      </trkpt>
      <trkpt lat="46.13146" lon="2.4253">
        <ele>491</ele>
        <time>2015-04-16T13:31:56Z</time>
      </trkpt>
      <trkpt lat="46.13147" lon="2.42527">
        <ele>491</ele>
        <time>2015-04-16T13:31:58Z</time>
      </trkpt>
      <trkpt lat="46.13149" lon="2.42524">
        <ele>491</ele>
        <time>2015-04-16T13:32:00Z</time>
      </trkpt>
      <trkpt lat="46.1315" lon="2.42521">
        <ele>491</ele>
        <time>2015-04-16T13:32:03Z</time>
      </trkpt>
      <trkpt lat="46.13151" lon="2.42519">
        <ele>491</ele>
        <time>2015-04-16T13:32:06Z</time>
      </trkpt>
      <trkpt lat="46.13153" lon="2.42516">
        <ele>491</ele>
        <time>2015-04-16T13:32:08Z</time>
      </trkpt>
      <trkpt lat="46.13155" lon="2.42512">
        <ele>491</ele>
        <time>2015-04-16T13:32:10Z</time>
      </trkpt>
      <trkpt lat="46.13156" lon="2.42509">
        <ele>491</ele>
        <time>2015-04-16T13:32:12Z</time>
      </trkpt>
      <trkpt lat="46.13157" lon="2.42505">
        <ele>491</ele>
        <time>2015-04-16T13:32:14Z</time>
      </trkpt>
      <trkpt lat="46.13159" lon="2.42502">
        <ele>491</ele>
        <time>2015-04-16T13:32:16Z</time>
      </trkpt>
      <trkpt lat="46.1316" lon="2.42498">
        <ele>491</ele>
        <time>2015-04-16T13:32:18Z</time>
      </trkpt>
      <trkpt lat="46.13161" lon="2.42495">
        <ele>491</ele>
        <time>2015-04-16T13:32:20Z</time>
      </trkpt>
      <trkpt lat="46.13163" lon="2.42492">
        <ele>491</ele>
        <time>2015-04-16T13:32:22Z</time>
      </trkpt>
      <trkpt lat="46.13164" lon="2.42488">
        <ele>491</ele>
        <time>2015-04-16T13:32:24Z</time>
      </trkpt>
      <trkpt lat="46.13165" lon="2.42485">
        <ele>491</ele>
        <time>2015-04-16T13:32:26Z</time>
      </trkpt>
      <trkpt lat="46.13166" lon="2.42481">
        <ele>491</ele>
        <time>2015-04-16T13:32:28Z</time>
      </trkpt>
      <trkpt lat="46.13168" lon="2.42477">
        <ele>491</ele>
        <time>2015-04-16T13:32:30Z</time>
      </trkpt>
      <trkpt lat="46.13169" lon="2.42474">
        <ele>491</ele>
        <time>2015-04-16T13:32:32Z</time>
      </trkpt>
      <trkpt lat="46.1317" lon="2.4247">
        <ele>491</ele>
        <time>2015-04-16T13:32:34Z</time>
      </trkpt>
      <trkpt lat="46.13171" lon="2.42466">
        <ele>491</ele>
        <time>2015-04-16T13:32:36Z</time>
      </trkpt>
      <trkpt lat="46.13173" lon="2.42462">
        <ele>491</ele>
        <time>2015-04-16T13:32:38Z</time>
      </trkpt>
      <trkpt lat="46.13174" lon="2.42458">
        <ele>491</ele>
        <time>2015-04-16T13:32:40Z</time>
      </trkpt>
      <trkpt lat="46.13175" lon="2.42455">
        <ele>491</ele>
        <time>2015-04-16T13:32:42Z</time>
      </trkpt>
      <trkpt lat="46.13176" lon="2.42451">
        <ele>491</ele>
        <time>2015-04-16T13:32:44Z</time>
      </trkpt>
      <trkpt lat="46.13178" lon="2.42447">
        <ele>491</ele>
        <time>2015-04-16T13:32:46Z</time>
      </trkpt>
      <trkpt lat="46.13179" lon="2.42444">
        <ele>491</ele>
        <time>2015-04-16T13:32:48Z</time>
      </trkpt>
      <trkpt lat="46.1318" lon="2.4244">
        <ele>491</ele>
        <time>2015-04-16T13:32:50Z</time>
      </trkpt>
      <trkpt lat="46.13181" lon="2.42437">
        <ele>491</ele>
        <time>2015-04-16T13:32:52Z</time>
      </trkpt>
      <trkpt lat="46.13182" lon="2.42433">
        <ele>491</ele>
        <time>2015-04-16T13:32:54Z</time>
      </trkpt>
      <trkpt lat="46.13183" lon="2.42429">
        <ele>490</ele>
        <time>2015-04-16T13:32:56Z</time>
      </trkpt>
      <trkpt lat="46.13184" lon="2.42426">
        <ele>490</ele>
        <time>2015-04-16T13:32:58Z</time>
      </trkpt>
      <trkpt lat="46.13185" lon="2.42422">
        <ele>490</ele>
        <time>2015-04-16T13:33:00Z</time>
      </trkpt>
      <trkpt lat="46.13186" lon="2.42419">
        <ele>489</ele>
        <time>2015-04-16T13:33:02Z</time>
      </trkpt>
      <trkpt lat="46.13187" lon="2.42415">
        <ele>489</ele>
        <time>2015-04-16T13:33:04Z</time>
      </trkpt>
      <trkpt lat="46.13189" lon="2.42412">
        <ele>488</ele>
        <time>2015-04-16T13:33:06Z</time>
      </trkpt>
      <trkpt lat="46.13191" lon="2.42409">
        <ele>488</ele>
        <time>2015-04-16T13:33:08Z</time>
      </trkpt>
      <trkpt lat="46.13194" lon="2.42407">
        <ele>488</ele>
        <time>2015-04-16T13:33:10Z</time>
      </trkpt>
      <trkpt lat="46.13196" lon="2.42407">
        <ele>488</ele>
        <time>2015-04-16T13:33:12Z</time>
      </trkpt>
      <trkpt lat="46.13199" lon="2.42407">
        <ele>488</ele>
        <time>2015-04-16T13:33:14Z</time>
      </trkpt>
      <trkpt lat="46.13202" lon="2.42408">
        <ele>488</ele>
        <time>2015-04-16T13:33:16Z</time>
      </trkpt>
      <trkpt lat="46.13205" lon="2.4241">
        <ele>488</ele>
        <time>2015-04-16T13:33:18Z</time>
      </trkpt>
      <trkpt lat="46.13207" lon="2.42412">
        <ele>488</ele>
        <time>2015-04-16T13:33:20Z</time>
      </trkpt>
      <trkpt lat="46.1321" lon="2.42413">
        <ele>488</ele>
        <time>2015-04-16T13:33:22Z</time>
      </trkpt>
      <trkpt lat="46.13212" lon="2.42415">
        <ele>488</ele>
        <time>2015-04-16T13:33:24Z</time>
      </trkpt>
      <trkpt lat="46.13215" lon="2.42417">
        <ele>488</ele>
        <time>2015-04-16T13:33:26Z</time>
      </trkpt>
      <trkpt lat="46.13218" lon="2.42421">
        <ele>487</ele>
        <time>2015-04-16T13:33:29Z</time>
      </trkpt>
      <trkpt lat="46.13221" lon="2.42423">
        <ele>487</ele>
        <time>2015-04-16T13:33:31Z</time>
      </trkpt>
      <trkpt lat="46.13223" lon="2.42425">
        <ele>486</ele>
        <time>2015-04-16T13:33:33Z</time>
      </trkpt>
      <trkpt lat="46.13226" lon="2.42428">
        <ele>486</ele>
        <time>2015-04-16T13:33:35Z</time>
      </trkpt>
      <trkpt lat="46.13229" lon="2.4243">
        <ele>486</ele>
        <time>2015-04-16T13:33:37Z</time>
      </trkpt>
      <trkpt lat="46.13231" lon="2.42433">
        <ele>486</ele>
        <time>2015-04-16T13:33:39Z</time>
      </trkpt>
      <trkpt lat="46.13234" lon="2.42436">
        <ele>485</ele>
        <time>2015-04-16T13:33:42Z</time>
      </trkpt>
      <trkpt lat="46.13237" lon="2.42438">
        <ele>485</ele>
        <time>2015-04-16T13:33:44Z</time>
      </trkpt>
      <trkpt lat="46.13239" lon="2.42441">
        <ele>484</ele>
        <time>2015-04-16T13:33:46Z</time>
      </trkpt>
      <trkpt lat="46.13242" lon="2.42444">
        <ele>484</ele>
        <time>2015-04-16T13:33:49Z</time>
      </trkpt>
      <trkpt lat="46.13245" lon="2.42447">
        <ele>484</ele>
        <time>2015-04-16T13:33:51Z</time>
      </trkpt>
      <trkpt lat="46.13247" lon="2.42449">
        <ele>484</ele>
        <time>2015-04-16T13:33:53Z</time>
      </trkpt>
      <trkpt lat="46.13249" lon="2.42451">
        <ele>484</ele>
        <time>2015-04-16T13:33:55Z</time>
      </trkpt>
      <trkpt lat="46.13251" lon="2.42454">
        <ele>484</ele>
        <time>2015-04-16T13:33:57Z</time>
      </trkpt>
      <trkpt lat="46.13253" lon="2.42456">
        <ele>484</ele>
        <time>2015-04-16T13:33:59Z</time>
      </trkpt>
      <trkpt lat="46.13256" lon="2.4246">
        <ele>484</ele>
        <time>2015-04-16T13:34:02Z</time>
      </trkpt>
      <trkpt lat="46.13259" lon="2.42462">
        <ele>484</ele>
        <time>2015-04-16T13:34:04Z</time>
      </trkpt>
      <trkpt lat="46.13262" lon="2.42464">
        <ele>484</ele>
        <time>2015-04-16T13:34:06Z</time>
      </trkpt>
      <trkpt lat="46.13264" lon="2.42467">
        <ele>484</ele>
        <time>2015-04-16T13:34:08Z</time>
      </trkpt>
      <trkpt lat="46.13266" lon="2.4247">
        <ele>484</ele>
        <time>2015-04-16T13:34:10Z</time>
      </trkpt>
      <trkpt lat="46.13269" lon="2.42472">
        <ele>484</ele>
        <time>2015-04-16T13:34:12Z</time>
      </trkpt>
      <trkpt lat="46.13272" lon="2.42475">
        <ele>484</ele>
        <time>2015-04-16T13:34:14Z</time>
      </trkpt>
      <trkpt lat="46.13274" lon="2.42477">
        <ele>484</ele>
        <time>2015-04-16T13:34:16Z</time>
      </trkpt>
      <trkpt lat="46.13277" lon="2.42478">
        <ele>484</ele>
        <time>2015-04-16T13:34:18Z</time>
      </trkpt>
      <trkpt lat="46.13279" lon="2.4248">
        <ele>484</ele>
        <time>2015-04-16T13:34:20Z</time>
      </trkpt>
      <trkpt lat="46.13282" lon="2.42483">
        <ele>484</ele>
        <time>2015-04-16T13:34:22Z</time>
      </trkpt>
      <trkpt lat="46.13285" lon="2.42485">
        <ele>484</ele>
        <time>2015-04-16T13:34:24Z</time>
      </trkpt>
      <trkpt lat="46.13287" lon="2.42487">
        <ele>484</ele>
        <time>2015-04-16T13:34:26Z</time>
      </trkpt>
      <trkpt lat="46.1329" lon="2.42489">
        <ele>484</ele>
        <time>2015-04-16T13:34:28Z</time>
      </trkpt>
      <trkpt lat="46.13293" lon="2.4249">
        <ele>484</ele>
        <time>2015-04-16T13:34:30Z</time>
      </trkpt>
      <trkpt lat="46.13296" lon="2.42492">
        <ele>484</ele>
        <time>2015-04-16T13:34:32Z</time>
      </trkpt>
      <trkpt lat="46.13298" lon="2.42494">
        <ele>484</ele>
        <time>2015-04-16T13:34:34Z</time>
      </trkpt>
      <trkpt lat="46.13301" lon="2.42495">
        <ele>484</ele>
        <time>2015-04-16T13:34:36Z</time>
      </trkpt>
      <trkpt lat="46.13303" lon="2.42497">
        <ele>484</ele>
        <time>2015-04-16T13:34:38Z</time>
      </trkpt>
      <trkpt lat="46.13306" lon="2.42499">
        <ele>484</ele>
        <time>2015-04-16T13:34:40Z</time>
      </trkpt>
      <trkpt lat="46.13309" lon="2.42501">
        <ele>484</ele>
        <time>2015-04-16T13:34:42Z</time>
      </trkpt>
      <trkpt lat="46.13311" lon="2.42503">
        <ele>484</ele>
        <time>2015-04-16T13:34:44Z</time>
      </trkpt>
      <trkpt lat="46.13314" lon="2.42505">
        <ele>484</ele>
        <time>2015-04-16T13:34:46Z</time>
      </trkpt>
      <trkpt lat="46.13316" lon="2.42507">
        <ele>484</ele>
        <time>2015-04-16T13:34:48Z</time>
      </trkpt>
      <trkpt lat="46.13319" lon="2.42509">
        <ele>484</ele>
        <time>2015-04-16T13:34:50Z</time>
      </trkpt>
      <trkpt lat="46.13322" lon="2.42511">
        <ele>484</ele>
        <time>2015-04-16T13:34:52Z</time>
      </trkpt>
      <trkpt lat="46.13324" lon="2.42512">
        <ele>484</ele>
        <time>2015-04-16T13:34:54Z</time>
      </trkpt>
      <trkpt lat="46.13327" lon="2.42514">
        <ele>484</ele>
        <time>2015-04-16T13:34:56Z</time>
      </trkpt>
      <trkpt lat="46.1333" lon="2.42516">
        <ele>484</ele>
        <time>2015-04-16T13:34:58Z</time>
      </trkpt>
      <trkpt lat="46.13332" lon="2.42518">
        <ele>484</ele>
        <time>2015-04-16T13:35:00Z</time>
      </trkpt>
      <trkpt lat="46.13335" lon="2.4252">
        <ele>484</ele>
        <time>2015-04-16T13:35:02Z</time>
      </trkpt>
      <trkpt lat="46.13337" lon="2.42523">
        <ele>484</ele>
        <time>2015-04-16T13:35:04Z</time>
      </trkpt>
      <trkpt lat="46.1334" lon="2.42525">
        <ele>484</ele>
        <time>2015-04-16T13:35:06Z</time>
      </trkpt>
      <trkpt lat="46.13342" lon="2.42527">
        <ele>484</ele>
        <time>2015-04-16T13:35:08Z</time>
      </trkpt>
      <trkpt lat="46.13344" lon="2.42529">
        <ele>484</ele>
        <time>2015-04-16T13:35:10Z</time>
      </trkpt>
      <trkpt lat="46.13347" lon="2.42531">
        <ele>484</ele>
        <time>2015-04-16T13:35:12Z</time>
      </trkpt>
      <trkpt lat="46.13349" lon="2.42533">
        <ele>484</ele>
        <time>2015-04-16T13:35:14Z</time>
      </trkpt>
      <trkpt lat="46.13351" lon="2.42536">
        <ele>484</ele>
        <time>2015-04-16T13:35:16Z</time>
      </trkpt>
      <trkpt lat="46.13354" lon="2.4254">
        <ele>484</ele>
        <time>2015-04-16T13:35:19Z</time>
      </trkpt>
      <trkpt lat="46.13357" lon="2.42543">
        <ele>484</ele>
        <time>2015-04-16T13:35:21Z</time>
      </trkpt>
      <trkpt lat="46.1336" lon="2.42547">
        <ele>484</ele>
        <time>2015-04-16T13:35:24Z</time>
      </trkpt>
      <trkpt lat="46.13362" lon="2.42549">
        <ele>484</ele>
        <time>2015-04-16T13:35:26Z</time>
      </trkpt>
      <trkpt lat="46.13364" lon="2.42553">
        <ele>484</ele>
        <time>2015-04-16T13:35:28Z</time>
      </trkpt>
      <trkpt lat="46.13367" lon="2.42556">
        <ele>484</ele>
        <time>2015-04-16T13:35:30Z</time>
      </trkpt>
      <trkpt lat="46.13369" lon="2.42559">
        <ele>484</ele>
        <time>2015-04-16T13:35:32Z</time>
      </trkpt>
      <trkpt lat="46.13371" lon="2.42562">
        <ele>484</ele>
        <time>2015-04-16T13:35:34Z</time>
      </trkpt>
      <trkpt lat="46.13373" lon="2.42564">
        <ele>484</ele>
        <time>2015-04-16T13:35:36Z</time>
      </trkpt>
      <trkpt lat="46.13375" lon="2.42565">
        <ele>484</ele>
        <time>2015-04-16T13:35:38Z</time>
      </trkpt>
      <trkpt lat="46.13377" lon="2.42567">
        <ele>484</ele>
        <time>2015-04-16T13:35:41Z</time>
      </trkpt>
      <trkpt lat="46.13378" lon="2.42567">
        <ele>484</ele>
        <time>2015-04-16T13:35:43Z</time>
      </trkpt>
      <trkpt lat="46.13379" lon="2.42569">
        <ele>484</ele>
        <time>2015-04-16T13:35:46Z</time>
      </trkpt>
      <trkpt lat="46.13381" lon="2.42569">
        <ele>484</ele>
        <time>2015-04-16T13:35:48Z</time>
      </trkpt>
      <trkpt lat="46.13383" lon="2.4257">
        <ele>484</ele>
        <time>2015-04-16T13:35:50Z</time>
      </trkpt>
      <trkpt lat="46.13386" lon="2.4257">
        <ele>484</ele>
        <time>2015-04-16T13:35:53Z</time>
      </trkpt>
      <trkpt lat="46.13388" lon="2.42571">
        <ele>484</ele>
        <time>2015-04-16T13:35:55Z</time>
      </trkpt>
      <trkpt lat="46.1339" lon="2.42571">
        <ele>484</ele>
        <time>2015-04-16T13:35:57Z</time>
      </trkpt>
      <trkpt lat="46.13391" lon="2.42571">
        <ele>484</ele>
        <time>2015-04-16T13:35:59Z</time>
      </trkpt>
      <trkpt lat="46.13393" lon="2.42572">
        <ele>484</ele>
        <time>2015-04-16T13:36:01Z</time>
      </trkpt>
      <trkpt lat="46.13395" lon="2.42572">
        <ele>484</ele>
        <time>2015-04-16T13:36:03Z</time>
      </trkpt>
      <trkpt lat="46.13397" lon="2.42572">
        <ele>484</ele>
        <time>2015-04-16T13:36:05Z</time>
      </trkpt>
      <trkpt lat="46.13401" lon="2.42572">
        <ele>484</ele>
        <time>2015-04-16T13:36:08Z</time>
      </trkpt>
      <trkpt lat="46.13404" lon="2.42572">
        <ele>484</ele>
        <time>2015-04-16T13:36:11Z</time>
      </trkpt>
      <trkpt lat="46.13406" lon="2.42572">
        <ele>484</ele>
        <time>2015-04-16T13:36:13Z</time>
      </trkpt>
      <trkpt lat="46.13407" lon="2.42572">
        <ele>484</ele>
        <time>2015-04-16T13:36:15Z</time>
      </trkpt>
      <trkpt lat="46.13409" lon="2.42572">
        <ele>484</ele>
        <time>2015-04-16T13:36:17Z</time>
      </trkpt>
      <trkpt lat="46.13412" lon="2.42573">
        <ele>484</ele>
        <time>2015-04-16T13:36:19Z</time>
      </trkpt>
      <trkpt lat="46.13415" lon="2.42574">
        <ele>484</ele>
        <time>2015-04-16T13:36:21Z</time>
      </trkpt>
      <trkpt lat="46.13417" lon="2.42574">
        <ele>484</ele>
        <time>2015-04-16T13:36:23Z</time>
      </trkpt>
      <trkpt lat="46.1342" lon="2.42575">
        <ele>484</ele>
        <time>2015-04-16T13:36:25Z</time>
      </trkpt>
      <trkpt lat="46.13423" lon="2.42575">
        <ele>484</ele>
        <time>2015-04-16T13:36:27Z</time>
      </trkpt>
      <trkpt lat="46.13425" lon="2.42575">
        <ele>484</ele>
        <time>2015-04-16T13:36:29Z</time>
      </trkpt>
      <trkpt lat="46.13429" lon="2.42575">
        <ele>484</ele>
        <time>2015-04-16T13:36:32Z</time>
      </trkpt>
      <trkpt lat="46.13431" lon="2.42575">
        <ele>483</ele>
        <time>2015-04-16T13:36:34Z</time>
      </trkpt>
      <trkpt lat="46.13434" lon="2.42575">
        <ele>483</ele>
        <time>2015-04-16T13:36:36Z</time>
      </trkpt>
      <trkpt lat="46.13437" lon="2.42575">
        <ele>483</ele>
        <time>2015-04-16T13:36:38Z</time>
      </trkpt>
      <trkpt lat="46.1344" lon="2.42575">
        <ele>483</ele>
        <time>2015-04-16T13:36:40Z</time>
      </trkpt>
      <trkpt lat="46.13443" lon="2.42574">
        <ele>483</ele>
        <time>2015-04-16T13:36:42Z</time>
      </trkpt>
      <trkpt lat="46.13446" lon="2.42574">
        <ele>483</ele>
        <time>2015-04-16T13:36:44Z</time>
      </trkpt>
      <trkpt lat="46.13448" lon="2.42573">
        <ele>483</ele>
        <time>2015-04-16T13:36:46Z</time>
      </trkpt>
      <trkpt lat="46.13451" lon="2.42573">
        <ele>483</ele>
        <time>2015-04-16T13:36:48Z</time>
      </trkpt>
      <trkpt lat="46.13453" lon="2.4257">
        <ele>483</ele>
        <time>2015-04-16T13:36:50Z</time>
      </trkpt>
      <trkpt lat="46.13454" lon="2.42567">
        <ele>483</ele>
        <time>2015-04-16T13:36:52Z</time>
      </trkpt>
      <trkpt lat="46.13457" lon="2.42563">
        <ele>483</ele>
        <time>2015-04-16T13:36:55Z</time>
      </trkpt>
      <trkpt lat="46.13459" lon="2.42562">
        <ele>483</ele>
        <time>2015-04-16T13:36:57Z</time>
      </trkpt>
      <trkpt lat="46.13462" lon="2.4256">
        <ele>483</ele>
        <time>2015-04-16T13:36:59Z</time>
      </trkpt>
      <trkpt lat="46.13464" lon="2.42558">
        <ele>483</ele>
        <time>2015-04-16T13:37:01Z</time>
      </trkpt>
      <trkpt lat="46.13467" lon="2.42557">
        <ele>483</ele>
        <time>2015-04-16T13:37:03Z</time>
      </trkpt>
      <trkpt lat="46.1347" lon="2.42555">
        <ele>483</ele>
        <time>2015-04-16T13:37:05Z</time>
      </trkpt>
      <trkpt lat="46.13473" lon="2.42553">
        <ele>483</ele>
        <time>2015-04-16T13:37:08Z</time>
      </trkpt>
      <trkpt lat="46.13475" lon="2.42551">
        <ele>483</ele>
        <time>2015-04-16T13:37:10Z</time>
      </trkpt>
      <trkpt lat="46.13477" lon="2.4255">
        <ele>483</ele>
        <time>2015-04-16T13:37:12Z</time>
      </trkpt>
      <trkpt lat="46.13481" lon="2.42548">
        <ele>483</ele>
        <time>2015-04-16T13:37:15Z</time>
      </trkpt>
      <trkpt lat="46.13483" lon="2.42546">
        <ele>483</ele>
        <time>2015-04-16T13:37:17Z</time>
      </trkpt>
      <trkpt lat="46.13485" lon="2.42544">
        <ele>483</ele>
        <time>2015-04-16T13:37:19Z</time>
      </trkpt>
      <trkpt lat="46.13487" lon="2.42543">
        <ele>483</ele>
        <time>2015-04-16T13:37:21Z</time>
      </trkpt>
      <trkpt lat="46.13488" lon="2.42541">
        <ele>483</ele>
        <time>2015-04-16T13:37:23Z</time>
      </trkpt>
      <trkpt lat="46.13491" lon="2.42539">
        <ele>483</ele>
        <time>2015-04-16T13:37:25Z</time>
      </trkpt>
      <trkpt lat="46.13493" lon="2.42537">
        <ele>483</ele>
        <time>2015-04-16T13:37:27Z</time>
      </trkpt>
      <trkpt lat="46.13496" lon="2.42535">
        <ele>483</ele>
        <time>2015-04-16T13:37:29Z</time>
      </trkpt>
      <trkpt lat="46.13498" lon="2.42533">
        <ele>483</ele>
        <time>2015-04-16T13:37:31Z</time>
      </trkpt>
      <trkpt lat="46.135" lon="2.42531">
        <ele>483</ele>
        <time>2015-04-16T13:37:33Z</time>
      </trkpt>
      <trkpt lat="46.13502" lon="2.4253">
        <ele>483</ele>
        <time>2015-04-16T13:37:35Z</time>
      </trkpt>
      <trkpt lat="46.13505" lon="2.42528">
        <ele>483</ele>
        <time>2015-04-16T13:37:37Z</time>
      </trkpt>
      <trkpt lat="46.13507" lon="2.42526">
        <ele>483</ele>
        <time>2015-04-16T13:37:39Z</time>
      </trkpt>
      <trkpt lat="46.1351" lon="2.42524">
        <ele>483</ele>
        <time>2015-04-16T13:37:41Z</time>
      </trkpt>
      <trkpt lat="46.13512" lon="2.42523">
        <ele>483</ele>
        <time>2015-04-16T13:37:43Z</time>
      </trkpt>
      <trkpt lat="46.13515" lon="2.42521">
        <ele>483</ele>
        <time>2015-04-16T13:37:45Z</time>
      </trkpt>
      <trkpt lat="46.13517" lon="2.4252">
        <ele>482</ele>
        <time>2015-04-16T13:37:47Z</time>
      </trkpt>
      <trkpt lat="46.1352" lon="2.42518">
        <ele>482</ele>
        <time>2015-04-16T13:37:49Z</time>
      </trkpt>
      <trkpt lat="46.13522" lon="2.42517">
        <ele>482</ele>
        <time>2015-04-16T13:37:51Z</time>
      </trkpt>
      <trkpt lat="46.13525" lon="2.42516">
        <ele>481</ele>
        <time>2015-04-16T13:37:53Z</time>
      </trkpt>
      <trkpt lat="46.13527" lon="2.42514">
        <ele>481</ele>
        <time>2015-04-16T13:37:55Z</time>
      </trkpt>
      <trkpt lat="46.1353" lon="2.42513">
        <ele>481</ele>
        <time>2015-04-16T13:37:57Z</time>
      </trkpt>
      <trkpt lat="46.13532" lon="2.42511">
        <ele>481</ele>
        <time>2015-04-16T13:37:59Z</time>
      </trkpt>
      <trkpt lat="46.13534" lon="2.4251">
        <ele>481</ele>
        <time>2015-04-16T13:38:01Z</time>
      </trkpt>
      <trkpt lat="46.13536" lon="2.42508">
        <ele>481</ele>
        <time>2015-04-16T13:38:03Z</time>
      </trkpt>
      <trkpt lat="46.13539" lon="2.42507">
        <ele>481</ele>
        <time>2015-04-16T13:38:05Z</time>
      </trkpt>
      <trkpt lat="46.13541" lon="2.42506">
        <ele>481</ele>
        <time>2015-04-16T13:38:07Z</time>
      </trkpt>
      <trkpt lat="46.13543" lon="2.42505">
        <ele>480</ele>
        <time>2015-04-16T13:38:09Z</time>
      </trkpt>
      <trkpt lat="46.13546" lon="2.42504">
        <ele>480</ele>
        <time>2015-04-16T13:38:11Z</time>
      </trkpt>
      <trkpt lat="46.13548" lon="2.42504">
        <ele>480</ele>
        <time>2015-04-16T13:38:13Z</time>
      </trkpt>
      <trkpt lat="46.13551" lon="2.42504">
        <ele>480</ele>
        <time>2015-04-16T13:38:15Z</time>
      </trkpt>
      <trkpt lat="46.13553" lon="2.42505">
        <ele>480</ele>
        <time>2015-04-16T13:38:17Z</time>
      </trkpt>
      <trkpt lat="46.13556" lon="2.42505">
        <ele>480</ele>
        <time>2015-04-16T13:38:19Z</time>
      </trkpt>
      <trkpt lat="46.13558" lon="2.42506">
        <ele>480</ele>
        <time>2015-04-16T13:38:21Z</time>
      </trkpt>
      <trkpt lat="46.13561" lon="2.42506">
        <ele>480</ele>
        <time>2015-04-16T13:38:23Z</time>
      </trkpt>
      <trkpt lat="46.13563" lon="2.42507">
        <ele>480</ele>
        <time>2015-04-16T13:38:25Z</time>
      </trkpt>
      <trkpt lat="46.13566" lon="2.42508">
        <ele>480</ele>
        <time>2015-04-16T13:38:27Z</time>
      </trkpt>
      <trkpt lat="46.13568" lon="2.42508">
        <ele>480</ele>
        <time>2015-04-16T13:38:29Z</time>
      </trkpt>
      <trkpt lat="46.13571" lon="2.42509">
        <ele>480</ele>
        <time>2015-04-16T13:38:31Z</time>
      </trkpt>
      <trkpt lat="46.13573" lon="2.4251">
        <ele>480</ele>
        <time>2015-04-16T13:38:33Z</time>
      </trkpt>
      <trkpt lat="46.13576" lon="2.4251">
        <ele>480</ele>
        <time>2015-04-16T13:38:35Z</time>
      </trkpt>
      <trkpt lat="46.13578" lon="2.42511">
        <ele>480</ele>
        <time>2015-04-16T13:38:37Z</time>
      </trkpt>
      <trkpt lat="46.13581" lon="2.42511">
        <ele>480</ele>
        <time>2015-04-16T13:38:39Z</time>
      </trkpt>
      <trkpt lat="46.13584" lon="2.42511">
        <ele>480</ele>
        <time>2015-04-16T13:38:41Z</time>
      </trkpt>
      <trkpt lat="46.13586" lon="2.42512">
        <ele>480</ele>
        <time>2015-04-16T13:38:43Z</time>
      </trkpt>
      <trkpt lat="46.13589" lon="2.42512">
        <ele>480</ele>
        <time>2015-04-16T13:38:45Z</time>
      </trkpt>
      <trkpt lat="46.13591" lon="2.42512">
        <ele>480</ele>
        <time>2015-04-16T13:38:47Z</time>
      </trkpt>
      <trkpt lat="46.13594" lon="2.42512">
        <ele>480</ele>
        <time>2015-04-16T13:38:49Z</time>
      </trkpt>
      <trkpt lat="46.13597" lon="2.42511">
        <ele>479</ele>
        <time>2015-04-16T13:38:51Z</time>
      </trkpt>
      <trkpt lat="46.136" lon="2.4251">
        <ele>479</ele>
        <time>2015-04-16T13:38:53Z</time>
      </trkpt>
      <trkpt lat="46.13602" lon="2.42509">
        <ele>479</ele>
        <time>2015-04-16T13:38:55Z</time>
      </trkpt>
      <trkpt lat="46.13605" lon="2.42509">
        <ele>478</ele>
        <time>2015-04-16T13:38:57Z</time>
      </trkpt>
      <trkpt lat="46.13605" lon="2.4251">
        <ele>478</ele>
        <time>2015-04-16T13:39:01Z</time>
      </trkpt>
      <trkpt lat="46.13605" lon="2.42513">
        <ele>478</ele>
        <time>2015-04-16T13:39:03Z</time>
      </trkpt>
      <trkpt lat="46.13605" lon="2.42511">
        <ele>478</ele>
        <time>2015-04-16T13:39:10Z</time>
      </trkpt>
      <trkpt lat="46.13606" lon="2.42509">
        <ele>478</ele>
        <time>2015-04-16T13:39:12Z</time>
      </trkpt>
      <trkpt lat="46.1361" lon="2.42508">
        <ele>478</ele>
        <time>2015-04-16T13:39:15Z</time>
      </trkpt>
      <trkpt lat="46.13612" lon="2.42508">
        <ele>478</ele>
        <time>2015-04-16T13:39:17Z</time>
      </trkpt>
      <trkpt lat="46.13615" lon="2.42508">
        <ele>477</ele>
        <time>2015-04-16T13:39:19Z</time>
      </trkpt>
      <trkpt lat="46.13617" lon="2.42509">
        <ele>477</ele>
        <time>2015-04-16T13:39:21Z</time>
      </trkpt>
      <trkpt lat="46.13619" lon="2.42511">
        <ele>477</ele>
        <time>2015-04-16T13:39:23Z</time>
      </trkpt>
      <trkpt lat="46.13621" lon="2.42512">
        <ele>477</ele>
        <time>2015-04-16T13:39:25Z</time>
      </trkpt>
      <trkpt lat="46.13623" lon="2.42515">
        <ele>477</ele>
        <time>2015-04-16T13:39:27Z</time>
      </trkpt>
      <trkpt lat="46.13624" lon="2.42517">
        <ele>477</ele>
        <time>2015-04-16T13:39:29Z</time>
      </trkpt>
      <trkpt lat="46.13626" lon="2.42519">
        <ele>477</ele>
        <time>2015-04-16T13:39:31Z</time>
      </trkpt>
      <trkpt lat="46.13628" lon="2.42521">
        <ele>477</ele>
        <time>2015-04-16T13:39:33Z</time>
      </trkpt>
      <trkpt lat="46.1363" lon="2.42523">
        <ele>476</ele>
        <time>2015-04-16T13:39:35Z</time>
      </trkpt>
      <trkpt lat="46.13632" lon="2.42525">
        <ele>476</ele>
        <time>2015-04-16T13:39:37Z</time>
      </trkpt>
      <trkpt lat="46.13634" lon="2.42528">
        <ele>476</ele>
        <time>2015-04-16T13:39:39Z</time>
      </trkpt>
      <trkpt lat="46.13636" lon="2.4253">
        <ele>476</ele>
        <time>2015-04-16T13:39:41Z</time>
      </trkpt>
      <trkpt lat="46.13638" lon="2.42532">
        <ele>476</ele>
        <time>2015-04-16T13:39:43Z</time>
      </trkpt>
      <trkpt lat="46.13639" lon="2.42535">
        <ele>476</ele>
        <time>2015-04-16T13:39:45Z</time>
      </trkpt>
      <trkpt lat="46.13641" lon="2.42537">
        <ele>475</ele>
        <time>2015-04-16T13:39:47Z</time>
      </trkpt>
      <trkpt lat="46.13643" lon="2.42539">
        <ele>475</ele>
        <time>2015-04-16T13:39:49Z</time>
      </trkpt>
      <trkpt lat="46.13645" lon="2.42541">
        <ele>475</ele>
        <time>2015-04-16T13:39:51Z</time>
      </trkpt>
      <trkpt lat="46.13647" lon="2.42543">
        <ele>475</ele>
        <time>2015-04-16T13:39:53Z</time>
      </trkpt>
      <trkpt lat="46.13649" lon="2.42545">
        <ele>475</ele>
        <time>2015-04-16T13:39:55Z</time>
      </trkpt>
      <trkpt lat="46.1365" lon="2.42548">
        <ele>475</ele>
        <time>2015-04-16T13:39:57Z</time>
      </trkpt>
      <trkpt lat="46.13654" lon="2.42552">
        <ele>475</ele>
        <time>2015-04-16T13:40:00Z</time>
      </trkpt>
      <trkpt lat="46.13655" lon="2.42555">
        <ele>475</ele>
        <time>2015-04-16T13:40:02Z</time>
      </trkpt>
      <trkpt lat="46.13658" lon="2.42559">
        <ele>474</ele>
        <time>2015-04-16T13:40:04Z</time>
      </trkpt>
      <trkpt lat="46.1366" lon="2.42562">
        <ele>474</ele>
        <time>2015-04-16T13:40:06Z</time>
      </trkpt>
      <trkpt lat="46.13662" lon="2.42565">
        <ele>473</ele>
        <time>2015-04-16T13:40:08Z</time>
      </trkpt>
      <trkpt lat="46.13664" lon="2.42567">
        <ele>473</ele>
        <time>2015-04-16T13:40:10Z</time>
      </trkpt>
      <trkpt lat="46.13666" lon="2.4257">
        <ele>472</ele>
        <time>2015-04-16T13:40:12Z</time>
      </trkpt>
      <trkpt lat="46.13669" lon="2.42573">
        <ele>472</ele>
        <time>2015-04-16T13:40:14Z</time>
      </trkpt>
      <trkpt lat="46.13671" lon="2.42575">
        <ele>472</ele>
        <time>2015-04-16T13:40:16Z</time>
      </trkpt>
      <trkpt lat="46.13674" lon="2.4258">
        <ele>471</ele>
        <time>2015-04-16T13:40:19Z</time>
      </trkpt>
      <trkpt lat="46.13677" lon="2.42582">
        <ele>470</ele>
        <time>2015-04-16T13:40:21Z</time>
      </trkpt>
      <trkpt lat="46.1368" lon="2.42584">
        <ele>470</ele>
        <time>2015-04-16T13:40:23Z</time>
      </trkpt>
      <trkpt lat="46.13682" lon="2.42587">
        <ele>469</ele>
        <time>2015-04-16T13:40:25Z</time>
      </trkpt>
      <trkpt lat="46.13684" lon="2.42589">
        <ele>469</ele>
        <time>2015-04-16T13:40:27Z</time>
      </trkpt>
      <trkpt lat="46.13686" lon="2.42592">
        <ele>468</ele>
        <time>2015-04-16T13:40:29Z</time>
      </trkpt>
      <trkpt lat="46.1369" lon="2.42596">
        <ele>467</ele>
        <time>2015-04-16T13:40:32Z</time>
      </trkpt>
      <trkpt lat="46.13692" lon="2.42599">
        <ele>467</ele>
        <time>2015-04-16T13:40:34Z</time>
      </trkpt>
      <trkpt lat="46.13694" lon="2.42602">
        <ele>467</ele>
        <time>2015-04-16T13:40:36Z</time>
      </trkpt>
      <trkpt lat="46.13697" lon="2.42606">
        <ele>467</ele>
        <time>2015-04-16T13:40:39Z</time>
      </trkpt>
      <trkpt lat="46.13701" lon="2.42611">
        <ele>467</ele>
        <time>2015-04-16T13:40:42Z</time>
      </trkpt>
      <trkpt lat="46.13703" lon="2.42614">
        <ele>467</ele>
        <time>2015-04-16T13:40:44Z</time>
      </trkpt>
      <trkpt lat="46.13705" lon="2.42617">
        <ele>467</ele>
        <time>2015-04-16T13:40:46Z</time>
      </trkpt>
      <trkpt lat="46.13706" lon="2.4262">
        <ele>467</ele>
        <time>2015-04-16T13:40:48Z</time>
      </trkpt>
      <trkpt lat="46.13708" lon="2.42623">
        <ele>466</ele>
        <time>2015-04-16T13:40:50Z</time>
      </trkpt>
      <trkpt lat="46.1371" lon="2.42627">
        <ele>466</ele>
        <time>2015-04-16T13:40:52Z</time>
      </trkpt>
      <trkpt lat="46.13712" lon="2.4263">
        <ele>466</ele>
        <time>2015-04-16T13:40:54Z</time>
      </trkpt>
      <trkpt lat="46.13713" lon="2.42634">
        <ele>466</ele>
        <time>2015-04-16T13:40:56Z</time>
      </trkpt>
      <trkpt lat="46.13715" lon="2.42638">
        <ele>466</ele>
        <time>2015-04-16T13:40:58Z</time>
      </trkpt>
      <trkpt lat="46.13717" lon="2.42641">
        <ele>466</ele>
        <time>2015-04-16T13:41:00Z</time>
      </trkpt>
      <trkpt lat="46.13718" lon="2.42645">
        <ele>466</ele>
        <time>2015-04-16T13:41:02Z</time>
      </trkpt>
      <trkpt lat="46.1372" lon="2.42648">
        <ele>466</ele>
        <time>2015-04-16T13:41:04Z</time>
      </trkpt>
      <trkpt lat="46.13721" lon="2.42652">
        <ele>466</ele>
        <time>2015-04-16T13:41:06Z</time>
      </trkpt>
      <trkpt lat="46.13724" lon="2.42656">
        <ele>466</ele>
        <time>2015-04-16T13:41:09Z</time>
      </trkpt>
      <trkpt lat="46.13726" lon="2.42659">
        <ele>466</ele>
        <time>2015-04-16T13:41:11Z</time>
      </trkpt>
      <trkpt lat="46.13728" lon="2.42662">
        <ele>466</ele>
        <time>2015-04-16T13:41:13Z</time>
      </trkpt>
      <trkpt lat="46.1373" lon="2.42664">
        <ele>466</ele>
        <time>2015-04-16T13:41:15Z</time>
      </trkpt>
      <trkpt lat="46.13732" lon="2.42666">
        <ele>466</ele>
        <time>2015-04-16T13:41:17Z</time>
      </trkpt>
      <trkpt lat="46.13735" lon="2.42667">
        <ele>466</ele>
        <time>2015-04-16T13:41:19Z</time>
      </trkpt>
      <trkpt lat="46.13737" lon="2.42668">
        <ele>466</ele>
        <time>2015-04-16T13:41:21Z</time>
      </trkpt>
      <trkpt lat="46.13741" lon="2.42667">
        <ele>466</ele>
        <time>2015-04-16T13:41:23Z</time>
      </trkpt>
      <trkpt lat="46.13743" lon="2.42667">
        <ele>466</ele>
        <time>2015-04-16T13:41:25Z</time>
      </trkpt>
      <trkpt lat="46.13746" lon="2.42667">
        <ele>466</ele>
        <time>2015-04-16T13:41:27Z</time>
      </trkpt>
      <trkpt lat="46.13749" lon="2.42667">
        <ele>466</ele>
        <time>2015-04-16T13:41:29Z</time>
      </trkpt>
      <trkpt lat="46.13752" lon="2.42666">
        <ele>466</ele>
        <time>2015-04-16T13:41:31Z</time>
      </trkpt>
      <trkpt lat="46.13754" lon="2.42666">
        <ele>466</ele>
        <time>2015-04-16T13:41:33Z</time>
      </trkpt>
      <trkpt lat="46.13757" lon="2.42665">
        <ele>466</ele>
        <time>2015-04-16T13:41:35Z</time>
      </trkpt>
      <trkpt lat="46.1376" lon="2.42665">
        <ele>466</ele>
        <time>2015-04-16T13:41:37Z</time>
      </trkpt>
      <trkpt lat="46.13763" lon="2.42665">
        <ele>466</ele>
        <time>2015-04-16T13:41:39Z</time>
      </trkpt>
      <trkpt lat="46.13766" lon="2.42665">
        <ele>466</ele>
        <time>2015-04-16T13:41:41Z</time>
      </trkpt>
      <trkpt lat="46.13769" lon="2.42664">
        <ele>466</ele>
        <time>2015-04-16T13:41:43Z</time>
      </trkpt>
      <trkpt lat="46.13771" lon="2.42664">
        <ele>466</ele>
        <time>2015-04-16T13:41:45Z</time>
      </trkpt>
      <trkpt lat="46.13774" lon="2.42664">
        <ele>466</ele>
        <time>2015-04-16T13:41:47Z</time>
      </trkpt>
      <trkpt lat="46.13776" lon="2.42665">
        <ele>466</ele>
        <time>2015-04-16T13:41:49Z</time>
      </trkpt>
      <trkpt lat="46.13779" lon="2.42666">
        <ele>466</ele>
        <time>2015-04-16T13:41:51Z</time>
      </trkpt>
      <trkpt lat="46.13781" lon="2.42667">
        <ele>466</ele>
        <time>2015-04-16T13:41:53Z</time>
      </trkpt>
      <trkpt lat="46.13784" lon="2.42668">
        <ele>466</ele>
        <time>2015-04-16T13:41:55Z</time>
      </trkpt>
      <trkpt lat="46.13786" lon="2.42669">
        <ele>466</ele>
        <time>2015-04-16T13:41:57Z</time>
      </trkpt>
      <trkpt lat="46.13788" lon="2.4267">
        <ele>466</ele>
        <time>2015-04-16T13:41:59Z</time>
      </trkpt>
      <trkpt lat="46.13791" lon="2.4267">
        <ele>466</ele>
        <time>2015-04-16T13:42:01Z</time>
      </trkpt>
      <trkpt lat="46.13793" lon="2.42671">
        <ele>466</ele>
        <time>2015-04-16T13:42:03Z</time>
      </trkpt>
      <trkpt lat="46.13796" lon="2.42672">
        <ele>466</ele>
        <time>2015-04-16T13:42:05Z</time>
      </trkpt>
      <trkpt lat="46.13798" lon="2.42673">
        <ele>466</ele>
        <time>2015-04-16T13:42:07Z</time>
      </trkpt>
      <trkpt lat="46.138" lon="2.42674">
        <ele>466</ele>
        <time>2015-04-16T13:42:09Z</time>
      </trkpt>
      <trkpt lat="46.13803" lon="2.42676">
        <ele>466</ele>
        <time>2015-04-16T13:42:11Z</time>
      </trkpt>
      <trkpt lat="46.13805" lon="2.42677">
        <ele>466</ele>
        <time>2015-04-16T13:42:13Z</time>
      </trkpt>
      <trkpt lat="46.13808" lon="2.42679">
        <ele>466</ele>
        <time>2015-04-16T13:42:15Z</time>
      </trkpt>
      <trkpt lat="46.13809" lon="2.42681">
        <ele>466</ele>
        <time>2015-04-16T13:42:17Z</time>
      </trkpt>
      <trkpt lat="46.13811" lon="2.42682">
        <ele>466</ele>
        <time>2015-04-16T13:42:19Z</time>
      </trkpt>
      <trkpt lat="46.13813" lon="2.42684">
        <ele>466</ele>
        <time>2015-04-16T13:42:21Z</time>
      </trkpt>
      <trkpt lat="46.13814" lon="2.42684">
        <ele>466</ele>
        <time>2015-04-16T13:42:23Z</time>
      </trkpt>
      <trkpt lat="46.13816" lon="2.42684">
        <ele>466</ele>
        <time>2015-04-16T13:42:25Z</time>
      </trkpt>
      <trkpt lat="46.13817" lon="2.42686">
        <ele>466</ele>
        <time>2015-04-16T13:42:27Z</time>
      </trkpt>
      <trkpt lat="46.1382" lon="2.42687">
        <ele>466</ele>
        <time>2015-04-16T13:42:29Z</time>
      </trkpt>
      <trkpt lat="46.13822" lon="2.42689">
        <ele>466</ele>
        <time>2015-04-16T13:42:31Z</time>
      </trkpt>
      <trkpt lat="46.13825" lon="2.4269">
        <ele>467</ele>
        <time>2015-04-16T13:42:33Z</time>
      </trkpt>
      <trkpt lat="46.13828" lon="2.4269">
        <ele>467</ele>
        <time>2015-04-16T13:42:35Z</time>
      </trkpt>
      <trkpt lat="46.1383" lon="2.42691">
        <ele>467</ele>
        <time>2015-04-16T13:42:37Z</time>
      </trkpt>
      <trkpt lat="46.13833" lon="2.42693">
        <ele>467</ele>
        <time>2015-04-16T13:42:39Z</time>
      </trkpt>
      <trkpt lat="46.13836" lon="2.42694">
        <ele>467</ele>
        <time>2015-04-16T13:42:41Z</time>
      </trkpt>
      <trkpt lat="46.13838" lon="2.42695">
        <ele>468</ele>
        <time>2015-04-16T13:42:43Z</time>
      </trkpt>
      <trkpt lat="46.13841" lon="2.42696">
        <ele>468</ele>
        <time>2015-04-16T13:42:45Z</time>
      </trkpt>
      <trkpt lat="46.13844" lon="2.42696">
        <ele>468</ele>
        <time>2015-04-16T13:42:47Z</time>
      </trkpt>
      <trkpt lat="46.13846" lon="2.42697">
        <ele>468</ele>
        <time>2015-04-16T13:42:49Z</time>
      </trkpt>
      <trkpt lat="46.13848" lon="2.42698">
        <ele>468</ele>
        <time>2015-04-16T13:42:51Z</time>
      </trkpt>
      <trkpt lat="46.13851" lon="2.42699">
        <ele>468</ele>
        <time>2015-04-16T13:42:53Z</time>
      </trkpt>
      <trkpt lat="46.13854" lon="2.42699">
        <ele>468</ele>
        <time>2015-04-16T13:42:55Z</time>
      </trkpt>
      <trkpt lat="46.13856" lon="2.427">
        <ele>468</ele>
        <time>2015-04-16T13:42:57Z</time>
      </trkpt>
      <trkpt lat="46.13859" lon="2.42701">
        <ele>469</ele>
        <time>2015-04-16T13:42:59Z</time>
      </trkpt>
      <trkpt lat="46.13862" lon="2.42701">
        <ele>469</ele>
        <time>2015-04-16T13:43:01Z</time>
      </trkpt>
      <trkpt lat="46.13864" lon="2.42701">
        <ele>469</ele>
        <time>2015-04-16T13:43:03Z</time>
      </trkpt>
      <trkpt lat="46.13867" lon="2.42701">
        <ele>469</ele>
        <time>2015-04-16T13:43:05Z</time>
      </trkpt>
      <trkpt lat="46.13869" lon="2.42702">
        <ele>469</ele>
        <time>2015-04-16T13:43:07Z</time>
      </trkpt>
      <trkpt lat="46.13872" lon="2.42703">
        <ele>469</ele>
        <time>2015-04-16T13:43:09Z</time>
      </trkpt>
      <trkpt lat="46.13874" lon="2.42703">
        <ele>469</ele>
        <time>2015-04-16T13:43:11Z</time>
      </trkpt>
      <trkpt lat="46.13877" lon="2.42703">
        <ele>470</ele>
        <time>2015-04-16T13:43:13Z</time>
      </trkpt>
      <trkpt lat="46.13879" lon="2.42703">
        <ele>470</ele>
        <time>2015-04-16T13:43:15Z</time>
      </trkpt>
      <trkpt lat="46.13882" lon="2.42704">
        <ele>470</ele>
        <time>2015-04-16T13:43:17Z</time>
      </trkpt>
      <trkpt lat="46.13885" lon="2.42704">
        <ele>470</ele>
        <time>2015-04-16T13:43:19Z</time>
      </trkpt>
      <trkpt lat="46.13888" lon="2.42704">
        <ele>470</ele>
        <time>2015-04-16T13:43:22Z</time>
      </trkpt>
      <trkpt lat="46.13891" lon="2.42704">
        <ele>470</ele>
        <time>2015-04-16T13:43:24Z</time>
      </trkpt>
      <trkpt lat="46.13894" lon="2.42704">
        <ele>470</ele>
        <time>2015-04-16T13:43:26Z</time>
      </trkpt>
      <trkpt lat="46.13895" lon="2.42704">
        <ele>470</ele>
        <time>2015-04-16T13:43:28Z</time>
      </trkpt>
      <trkpt lat="46.13898" lon="2.42704">
        <ele>470</ele>
        <time>2015-04-16T13:43:30Z</time>
      </trkpt>
      <trkpt lat="46.13901" lon="2.42705">
        <ele>470</ele>
        <time>2015-04-16T13:43:32Z</time>
      </trkpt>
      <trkpt lat="46.13904" lon="2.42705">
        <ele>470</ele>
        <time>2015-04-16T13:43:34Z</time>
      </trkpt>
      <trkpt lat="46.13907" lon="2.42705">
        <ele>470</ele>
        <time>2015-04-16T13:43:36Z</time>
      </trkpt>
      <trkpt lat="46.1391" lon="2.42707">
        <ele>470</ele>
        <time>2015-04-16T13:43:38Z</time>
      </trkpt>
      <trkpt lat="46.13912" lon="2.42708">
        <ele>470</ele>
        <time>2015-04-16T13:43:40Z</time>
      </trkpt>
      <trkpt lat="46.13914" lon="2.42708">
        <ele>470</ele>
        <time>2015-04-16T13:43:42Z</time>
      </trkpt>
      <trkpt lat="46.13917" lon="2.4271">
        <ele>470</ele>
        <time>2015-04-16T13:43:44Z</time>
      </trkpt>
      <trkpt lat="46.13919" lon="2.42712">
        <ele>470</ele>
        <time>2015-04-16T13:43:46Z</time>
      </trkpt>
      <trkpt lat="46.13923" lon="2.42715">
        <ele>470</ele>
        <time>2015-04-16T13:43:49Z</time>
      </trkpt>
      <trkpt lat="46.13926" lon="2.42718">
        <ele>470</ele>
        <time>2015-04-16T13:43:52Z</time>
      </trkpt>
      <trkpt lat="46.13929" lon="2.42722">
        <ele>470</ele>
        <time>2015-04-16T13:43:55Z</time>
      </trkpt>
      <trkpt lat="46.1393" lon="2.42725">
        <ele>470</ele>
        <time>2015-04-16T13:43:57Z</time>
      </trkpt>
      <trkpt lat="46.13931" lon="2.42728">
        <ele>470</ele>
        <time>2015-04-16T13:43:59Z</time>
      </trkpt>
      <trkpt lat="46.13932" lon="2.42731">
        <ele>470</ele>
        <time>2015-04-16T13:44:01Z</time>
      </trkpt>
      <trkpt lat="46.13933" lon="2.42735">
        <ele>470</ele>
        <time>2015-04-16T13:44:03Z</time>
      </trkpt>
      <trkpt lat="46.13933" lon="2.42738">
        <ele>470</ele>
        <time>2015-04-16T13:44:05Z</time>
      </trkpt>
      <trkpt lat="46.13933" lon="2.42742">
        <ele>470</ele>
        <time>2015-04-16T13:44:07Z</time>
      </trkpt>
      <trkpt lat="46.13934" lon="2.42745">
        <ele>470</ele>
        <time>2015-04-16T13:44:09Z</time>
      </trkpt>
      <trkpt lat="46.13935" lon="2.42748">
        <ele>470</ele>
        <time>2015-04-16T13:44:11Z</time>
      </trkpt>
      <trkpt lat="46.13936" lon="2.42751">
        <ele>470</ele>
        <time>2015-04-16T13:44:13Z</time>
      </trkpt>
      <trkpt lat="46.13938" lon="2.42755">
        <ele>470</ele>
        <time>2015-04-16T13:44:16Z</time>
      </trkpt>
      <trkpt lat="46.1394" lon="2.42759">
        <ele>470</ele>
        <time>2015-04-16T13:44:19Z</time>
      </trkpt>
      <trkpt lat="46.13942" lon="2.42762">
        <ele>470</ele>
        <time>2015-04-16T13:44:21Z</time>
      </trkpt>
      <trkpt lat="46.13943" lon="2.42765">
        <ele>470</ele>
        <time>2015-04-16T13:44:23Z</time>
      </trkpt>
      <trkpt lat="46.13945" lon="2.42768">
        <ele>470</ele>
        <time>2015-04-16T13:44:25Z</time>
      </trkpt>
      <trkpt lat="46.13947" lon="2.4277">
        <ele>470</ele>
        <time>2015-04-16T13:44:27Z</time>
      </trkpt>
      <trkpt lat="46.13948" lon="2.42773">
        <ele>470</ele>
        <time>2015-04-16T13:44:29Z</time>
      </trkpt>
      <trkpt lat="46.1395" lon="2.42775">
        <ele>470</ele>
        <time>2015-04-16T13:44:31Z</time>
      </trkpt>
      <trkpt lat="46.13951" lon="2.42778">
        <ele>470</ele>
        <time>2015-04-16T13:44:33Z</time>
      </trkpt>
      <trkpt lat="46.13952" lon="2.42781">
        <ele>470</ele>
        <time>2015-04-16T13:44:35Z</time>
      </trkpt>
      <trkpt lat="46.13953" lon="2.42784">
        <ele>470</ele>
        <time>2015-04-16T13:44:37Z</time>
      </trkpt>
      <trkpt lat="46.13953" lon="2.42788">
        <ele>470</ele>
        <time>2015-04-16T13:44:39Z</time>
      </trkpt>
      <trkpt lat="46.13954" lon="2.42792">
        <ele>470</ele>
        <time>2015-04-16T13:44:41Z</time>
      </trkpt>
      <trkpt lat="46.13954" lon="2.42795">
        <ele>470</ele>
        <time>2015-04-16T13:44:43Z</time>
      </trkpt>
      <trkpt lat="46.13954" lon="2.42799">
        <ele>471</ele>
        <time>2015-04-16T13:44:45Z</time>
      </trkpt>
      <trkpt lat="46.13953" lon="2.42803">
        <ele>472</ele>
        <time>2015-04-16T13:44:47Z</time>
      </trkpt>
      <trkpt lat="46.13951" lon="2.42808">
        <ele>473</ele>
        <time>2015-04-16T13:44:49Z</time>
      </trkpt>
      <trkpt lat="46.13951" lon="2.42811">
        <ele>474</ele>
        <time>2015-04-16T13:44:51Z</time>
      </trkpt>
      <trkpt lat="46.1395" lon="2.42815">
        <ele>475</ele>
        <time>2015-04-16T13:44:53Z</time>
      </trkpt>
      <trkpt lat="46.1395" lon="2.42819">
        <ele>475</ele>
        <time>2015-04-16T13:44:55Z</time>
      </trkpt>
      <trkpt lat="46.1395" lon="2.42822">
        <ele>475</ele>
        <time>2015-04-16T13:44:57Z</time>
      </trkpt>
      <trkpt lat="46.1395" lon="2.42826">
        <ele>475</ele>
        <time>2015-04-16T13:44:59Z</time>
      </trkpt>
      <trkpt lat="46.1395" lon="2.4283">
        <ele>476</ele>
        <time>2015-04-16T13:45:01Z</time>
      </trkpt>
      <trkpt lat="46.1395" lon="2.42833">
        <ele>476</ele>
        <time>2015-04-16T13:45:03Z</time>
      </trkpt>
      <trkpt lat="46.1395" lon="2.42837">
        <ele>477</ele>
        <time>2015-04-16T13:45:05Z</time>
      </trkpt>
      <trkpt lat="46.13951" lon="2.42841">
        <ele>477</ele>
        <time>2015-04-16T13:45:07Z</time>
      </trkpt>
      <trkpt lat="46.13951" lon="2.42844">
        <ele>478</ele>
        <time>2015-04-16T13:45:09Z</time>
      </trkpt>
      <trkpt lat="46.13952" lon="2.42848">
        <ele>479</ele>
        <time>2015-04-16T13:45:11Z</time>
      </trkpt>
      <trkpt lat="46.13952" lon="2.42852">
        <ele>480</ele>
        <time>2015-04-16T13:45:13Z</time>
      </trkpt>
      <trkpt lat="46.13952" lon="2.42855">
        <ele>480</ele>
        <time>2015-04-16T13:45:16Z</time>
      </trkpt>
      <trkpt lat="46.13952" lon="2.42856">
        <ele>481</ele>
        <time>2015-04-16T13:45:18Z</time>
      </trkpt>
      <trkpt lat="46.13952" lon="2.42859">
        <ele>481</ele>
        <time>2015-04-16T13:45:20Z</time>
      </trkpt>
      <trkpt lat="46.13953" lon="2.42861">
        <ele>481</ele>
        <time>2015-04-16T13:45:22Z</time>
      </trkpt>
      <trkpt lat="46.13953" lon="2.42864">
        <ele>481</ele>
        <time>2015-04-16T13:45:24Z</time>
      </trkpt>
      <trkpt lat="46.13954" lon="2.42868">
        <ele>481</ele>
        <time>2015-04-16T13:45:27Z</time>
      </trkpt>
      <trkpt lat="46.13955" lon="2.42871">
        <ele>481</ele>
        <time>2015-04-16T13:45:29Z</time>
      </trkpt>
      <trkpt lat="46.13957" lon="2.42875">
        <ele>481</ele>
        <time>2015-04-16T13:45:32Z</time>
      </trkpt>
      <trkpt lat="46.13958" lon="2.42878">
        <ele>481</ele>
        <time>2015-04-16T13:45:34Z</time>
      </trkpt>
      <trkpt lat="46.1396" lon="2.42881">
        <ele>481</ele>
        <time>2015-04-16T13:45:36Z</time>
      </trkpt>
      <trkpt lat="46.13961" lon="2.42883">
        <ele>481</ele>
        <time>2015-04-16T13:45:38Z</time>
      </trkpt>
      <trkpt lat="46.13963" lon="2.42886">
        <ele>481</ele>
        <time>2015-04-16T13:45:40Z</time>
      </trkpt>
      <trkpt lat="46.13966" lon="2.42888">
        <ele>481</ele>
        <time>2015-04-16T13:45:42Z</time>
      </trkpt>
      <trkpt lat="46.13967" lon="2.42891">
        <ele>481</ele>
        <time>2015-04-16T13:45:44Z</time>
      </trkpt>
      <trkpt lat="46.13971" lon="2.42894">
        <ele>481</ele>
        <time>2015-04-16T13:45:47Z</time>
      </trkpt>
      <trkpt lat="46.13973" lon="2.42896">
        <ele>481</ele>
        <time>2015-04-16T13:45:49Z</time>
      </trkpt>
      <trkpt lat="46.13976" lon="2.42899">
        <ele>481</ele>
        <time>2015-04-16T13:45:51Z</time>
      </trkpt>
      <trkpt lat="46.13978" lon="2.42902">
        <ele>481</ele>
        <time>2015-04-16T13:45:54Z</time>
      </trkpt>
      <trkpt lat="46.1398" lon="2.42904">
        <ele>481</ele>
        <time>2015-04-16T13:45:56Z</time>
      </trkpt>
      <trkpt lat="46.13982" lon="2.42907">
        <ele>481</ele>
        <time>2015-04-16T13:45:58Z</time>
      </trkpt>
      <trkpt lat="46.13985" lon="2.42911">
        <ele>481</ele>
        <time>2015-04-16T13:46:00Z</time>
      </trkpt>
      <trkpt lat="46.13987" lon="2.42913">
        <ele>482</ele>
        <time>2015-04-16T13:46:02Z</time>
      </trkpt>
      <trkpt lat="46.13989" lon="2.42915">
        <ele>482</ele>
        <time>2015-04-16T13:46:04Z</time>
      </trkpt>
      <trkpt lat="46.13992" lon="2.42917">
        <ele>482</ele>
        <time>2015-04-16T13:46:06Z</time>
      </trkpt>
      <trkpt lat="46.13994" lon="2.42919">
        <ele>482</ele>
        <time>2015-04-16T13:46:08Z</time>
      </trkpt>
      <trkpt lat="46.13997" lon="2.42921">
        <ele>482</ele>
        <time>2015-04-16T13:46:10Z</time>
      </trkpt>
      <trkpt lat="46.13999" lon="2.42923">
        <ele>482</ele>
        <time>2015-04-16T13:46:12Z</time>
      </trkpt>
      <trkpt lat="46.14001" lon="2.42926">
        <ele>482</ele>
        <time>2015-04-16T13:46:14Z</time>
      </trkpt>
      <trkpt lat="46.14004" lon="2.42929">
        <ele>482</ele>
        <time>2015-04-16T13:46:16Z</time>
      </trkpt>
      <trkpt lat="46.14007" lon="2.42932">
        <ele>482</ele>
        <time>2015-04-16T13:46:19Z</time>
      </trkpt>
      <trkpt lat="46.14009" lon="2.42934">
        <ele>482</ele>
        <time>2015-04-16T13:46:21Z</time>
      </trkpt>
      <trkpt lat="46.14012" lon="2.42936">
        <ele>482</ele>
        <time>2015-04-16T13:46:23Z</time>
      </trkpt>
      <trkpt lat="46.14014" lon="2.42938">
        <ele>482</ele>
        <time>2015-04-16T13:46:25Z</time>
      </trkpt>
      <trkpt lat="46.14017" lon="2.42941">
        <ele>482</ele>
        <time>2015-04-16T13:46:27Z</time>
      </trkpt>
      <trkpt lat="46.14019" lon="2.42943">
        <ele>482</ele>
        <time>2015-04-16T13:46:29Z</time>
      </trkpt>
      <trkpt lat="46.14023" lon="2.42946">
        <ele>482</ele>
        <time>2015-04-16T13:46:32Z</time>
      </trkpt>
      <trkpt lat="46.14025" lon="2.42949">
        <ele>482</ele>
        <time>2015-04-16T13:46:34Z</time>
      </trkpt>
      <trkpt lat="46.14027" lon="2.4295">
        <ele>482</ele>
        <time>2015-04-16T13:46:36Z</time>
      </trkpt>
      <trkpt lat="46.14029" lon="2.42952">
        <ele>483</ele>
        <time>2015-04-16T13:46:38Z</time>
      </trkpt>
      <trkpt lat="46.14031" lon="2.42954">
        <ele>483</ele>
        <time>2015-04-16T13:46:40Z</time>
      </trkpt>
      <trkpt lat="46.14034" lon="2.42956">
        <ele>483</ele>
        <time>2015-04-16T13:46:42Z</time>
      </trkpt>
      <trkpt lat="46.14037" lon="2.42957">
        <ele>483</ele>
        <time>2015-04-16T13:46:45Z</time>
      </trkpt>
      <trkpt lat="46.14038" lon="2.42958">
        <ele>483</ele>
        <time>2015-04-16T13:46:47Z</time>
      </trkpt>
      <trkpt lat="46.1404" lon="2.4296">
        <ele>483</ele>
        <time>2015-04-16T13:46:49Z</time>
      </trkpt>
      <trkpt lat="46.14042" lon="2.42963">
        <ele>483</ele>
        <time>2015-04-16T13:46:51Z</time>
      </trkpt>
      <trkpt lat="46.14044" lon="2.42966">
        <ele>483</ele>
        <time>2015-04-16T13:46:53Z</time>
      </trkpt>
      <trkpt lat="46.14047" lon="2.42968">
        <ele>483</ele>
        <time>2015-04-16T13:46:55Z</time>
      </trkpt>
      <trkpt lat="46.14049" lon="2.4297">
        <ele>483</ele>
        <time>2015-04-16T13:46:57Z</time>
      </trkpt>
      <trkpt lat="46.14052" lon="2.42972">
        <ele>483</ele>
        <time>2015-04-16T13:46:59Z</time>
      </trkpt>
      <trkpt lat="46.14054" lon="2.42975">
        <ele>483</ele>
        <time>2015-04-16T13:47:01Z</time>
      </trkpt>
      <trkpt lat="46.14058" lon="2.42977">
        <ele>483</ele>
        <time>2015-04-16T13:47:04Z</time>
      </trkpt>
      <trkpt lat="46.1406" lon="2.4298">
        <ele>483</ele>
        <time>2015-04-16T13:47:06Z</time>
      </trkpt>
      <trkpt lat="46.14062" lon="2.42981">
        <ele>482</ele>
        <time>2015-04-16T13:47:08Z</time>
      </trkpt>
      <trkpt lat="46.14065" lon="2.42985">
        <ele>481</ele>
        <time>2015-04-16T13:47:11Z</time>
      </trkpt>
      <trkpt lat="46.14067" lon="2.42988">
        <ele>479</ele>
        <time>2015-04-16T13:47:14Z</time>
      </trkpt>
      <trkpt lat="46.14069" lon="2.4299">
        <ele>477</ele>
        <time>2015-04-16T13:47:16Z</time>
      </trkpt>
      <trkpt lat="46.14072" lon="2.42993">
        <ele>475</ele>
        <time>2015-04-16T13:47:19Z</time>
      </trkpt>
      <trkpt lat="46.14074" lon="2.42995">
        <ele>475</ele>
        <time>2015-04-16T13:47:21Z</time>
      </trkpt>
      <trkpt lat="46.14077" lon="2.42999">
        <ele>473</ele>
        <time>2015-04-16T13:47:24Z</time>
      </trkpt>
      <trkpt lat="46.14079" lon="2.43002">
        <ele>472</ele>
        <time>2015-04-16T13:47:26Z</time>
      </trkpt>
      <trkpt lat="46.1408" lon="2.43004">
        <ele>471</ele>
        <time>2015-04-16T13:47:28Z</time>
      </trkpt>
      <trkpt lat="46.14082" lon="2.43006">
        <ele>470</ele>
        <time>2015-04-16T13:47:30Z</time>
      </trkpt>
      <trkpt lat="46.14084" lon="2.4301">
        <ele>470</ele>
        <time>2015-04-16T13:47:32Z</time>
      </trkpt>
      <trkpt lat="46.14084" lon="2.43016">
        <ele>470</ele>
        <time>2015-04-16T13:47:34Z</time>
      </trkpt>
      <trkpt lat="46.14087" lon="2.43018">
        <ele>470</ele>
        <time>2015-04-16T13:47:36Z</time>
      </trkpt>
      <trkpt lat="46.14089" lon="2.43021">
        <ele>472</ele>
        <time>2015-04-16T13:47:38Z</time>
      </trkpt>
      <trkpt lat="46.14092" lon="2.43022">
        <ele>472</ele>
        <time>2015-04-16T13:47:40Z</time>
      </trkpt>
      <trkpt lat="46.14095" lon="2.43024">
        <ele>472</ele>
        <time>2015-04-16T13:47:43Z</time>
      </trkpt>
      <trkpt lat="46.14097" lon="2.43025">
        <ele>473</ele>
        <time>2015-04-16T13:47:45Z</time>
      </trkpt>
      <trkpt lat="46.141" lon="2.43028">
        <ele>474</ele>
        <time>2015-04-16T13:47:47Z</time>
      </trkpt>
      <trkpt lat="46.14101" lon="2.43033">
        <ele>474</ele>
        <time>2015-04-16T13:47:49Z</time>
      </trkpt>
      <trkpt lat="46.14104" lon="2.43036">
        <ele>475</ele>
        <time>2015-04-16T13:47:51Z</time>
      </trkpt>
      <trkpt lat="46.14105" lon="2.43039">
        <ele>475</ele>
        <time>2015-04-16T13:47:53Z</time>
      </trkpt>
      <trkpt lat="46.14108" lon="2.4304">
        <ele>475</ele>
        <time>2015-04-16T13:47:55Z</time>
      </trkpt>
      <trkpt lat="46.14111" lon="2.43043">
        <ele>475</ele>
        <time>2015-04-16T13:47:58Z</time>
      </trkpt>
      <trkpt lat="46.14114" lon="2.43045">
        <ele>475</ele>
        <time>2015-04-16T13:48:00Z</time>
      </trkpt>
      <trkpt lat="46.14117" lon="2.43049">
        <ele>476</ele>
        <time>2015-04-16T13:48:03Z</time>
      </trkpt>
      <trkpt lat="46.14119" lon="2.43052">
        <ele>479</ele>
        <time>2015-04-16T13:48:06Z</time>
      </trkpt>
      <trkpt lat="46.14122" lon="2.43053">
        <ele>481</ele>
        <time>2015-04-16T13:48:08Z</time>
      </trkpt>
      <trkpt lat="46.14124" lon="2.43056">
        <ele>483</ele>
        <time>2015-04-16T13:48:10Z</time>
      </trkpt>
      <trkpt lat="46.14127" lon="2.43059">
        <ele>485</ele>
        <time>2015-04-16T13:48:12Z</time>
      </trkpt>
      <trkpt lat="46.14129" lon="2.4306">
        <ele>486</ele>
        <time>2015-04-16T13:48:14Z</time>
      </trkpt>
      <trkpt lat="46.14131" lon="2.43064">
        <ele>486</ele>
        <time>2015-04-16T13:48:16Z</time>
      </trkpt>
      <trkpt lat="46.14133" lon="2.43069">
        <ele>486</ele>
        <time>2015-04-16T13:48:18Z</time>
      </trkpt>
      <trkpt lat="46.14135" lon="2.43071">
        <ele>487</ele>
        <time>2015-04-16T13:48:20Z</time>
      </trkpt>
      <trkpt lat="46.14138" lon="2.43072">
        <ele>488</ele>
        <time>2015-04-16T13:48:22Z</time>
      </trkpt>
      <trkpt lat="46.1414" lon="2.43073">
        <ele>489</ele>
        <time>2015-04-16T13:48:24Z</time>
      </trkpt>
      <trkpt lat="46.14144" lon="2.43073">
        <ele>489</ele>
        <time>2015-04-16T13:48:26Z</time>
      </trkpt>
      <trkpt lat="46.14146" lon="2.43077">
        <ele>489</ele>
        <time>2015-04-16T13:48:28Z</time>
      </trkpt>
      <trkpt lat="46.14149" lon="2.43079">
        <ele>490</ele>
        <time>2015-04-16T13:48:30Z</time>
      </trkpt>
      <trkpt lat="46.14151" lon="2.4308">
        <ele>491</ele>
        <time>2015-04-16T13:48:32Z</time>
      </trkpt>
      <trkpt lat="46.14153" lon="2.43081">
        <ele>491</ele>
        <time>2015-04-16T13:48:34Z</time>
      </trkpt>
      <trkpt lat="46.14157" lon="2.43083">
        <ele>492</ele>
        <time>2015-04-16T13:48:37Z</time>
      </trkpt>
      <trkpt lat="46.14159" lon="2.43083">
        <ele>492</ele>
        <time>2015-04-16T13:48:39Z</time>
      </trkpt>
      <trkpt lat="46.14162" lon="2.43083">
        <ele>492</ele>
        <time>2015-04-16T13:48:41Z</time>
      </trkpt>
      <trkpt lat="46.14164" lon="2.43085">
        <ele>493</ele>
        <time>2015-04-16T13:48:43Z</time>
      </trkpt>
      <trkpt lat="46.14166" lon="2.43086">
        <ele>493</ele>
        <time>2015-04-16T13:48:45Z</time>
      </trkpt>
      <trkpt lat="46.14169" lon="2.43088">
        <ele>493</ele>
        <time>2015-04-16T13:48:47Z</time>
      </trkpt>
      <trkpt lat="46.14172" lon="2.43088">
        <ele>493</ele>
        <time>2015-04-16T13:48:49Z</time>
      </trkpt>
      <trkpt lat="46.14174" lon="2.43089">
        <ele>493</ele>
        <time>2015-04-16T13:48:51Z</time>
      </trkpt>
      <trkpt lat="46.14177" lon="2.43088">
        <ele>493</ele>
        <time>2015-04-16T13:48:53Z</time>
      </trkpt>
      <trkpt lat="46.1418" lon="2.43088">
        <ele>493</ele>
        <time>2015-04-16T13:48:55Z</time>
      </trkpt>
      <trkpt lat="46.14182" lon="2.43089">
        <ele>493</ele>
        <time>2015-04-16T13:48:57Z</time>
      </trkpt>
      <trkpt lat="46.14185" lon="2.43089">
        <ele>493</ele>
        <time>2015-04-16T13:48:59Z</time>
      </trkpt>
      <trkpt lat="46.14188" lon="2.4309">
        <ele>493</ele>
        <time>2015-04-16T13:49:01Z</time>
      </trkpt>
      <trkpt lat="46.14191" lon="2.43091">
        <ele>493</ele>
        <time>2015-04-16T13:49:03Z</time>
      </trkpt>
      <trkpt lat="46.14193" lon="2.43092">
        <ele>493</ele>
        <time>2015-04-16T13:49:05Z</time>
      </trkpt>
      <trkpt lat="46.14196" lon="2.43093">
        <ele>494</ele>
        <time>2015-04-16T13:49:07Z</time>
      </trkpt>
      <trkpt lat="46.14199" lon="2.43093">
        <ele>495</ele>
        <time>2015-04-16T13:49:09Z</time>
      </trkpt>
      <trkpt lat="46.14201" lon="2.43094">
        <ele>495</ele>
        <time>2015-04-16T13:49:11Z</time>
      </trkpt>
      <trkpt lat="46.14203" lon="2.43095">
        <ele>496</ele>
        <time>2015-04-16T13:49:13Z</time>
      </trkpt>
      <trkpt lat="46.14205" lon="2.43095">
        <ele>497</ele>
        <time>2015-04-16T13:49:15Z</time>
      </trkpt>
      <trkpt lat="46.14207" lon="2.43096">
        <ele>499</ele>
        <time>2015-04-16T13:49:17Z</time>
      </trkpt>
      <trkpt lat="46.1421" lon="2.43097">
        <ele>501</ele>
        <time>2015-04-16T13:49:20Z</time>
      </trkpt>
      <trkpt lat="46.14213" lon="2.43098">
        <ele>502</ele>
        <time>2015-04-16T13:49:22Z</time>
      </trkpt>
      <trkpt lat="46.14216" lon="2.431">
        <ele>503</ele>
        <time>2015-04-16T13:49:24Z</time>
      </trkpt>
      <trkpt lat="46.14219" lon="2.43101">
        <ele>503</ele>
        <time>2015-04-16T13:49:26Z</time>
      </trkpt>
      <trkpt lat="46.14222" lon="2.43101">
        <ele>504</ele>
        <time>2015-04-16T13:49:28Z</time>
      </trkpt>
      <trkpt lat="46.14225" lon="2.43102">
        <ele>505</ele>
        <time>2015-04-16T13:49:30Z</time>
      </trkpt>
      <trkpt lat="46.14228" lon="2.43102">
        <ele>505</ele>
        <time>2015-04-16T13:49:32Z</time>
      </trkpt>
      <trkpt lat="46.1423" lon="2.43102">
        <ele>505</ele>
        <time>2015-04-16T13:49:34Z</time>
      </trkpt>
      <trkpt lat="46.14233" lon="2.43105">
        <ele>505</ele>
        <time>2015-04-16T13:49:36Z</time>
      </trkpt>
      <trkpt lat="46.14235" lon="2.43108">
        <ele>506</ele>
        <time>2015-04-16T13:49:38Z</time>
      </trkpt>
      <trkpt lat="46.14238" lon="2.43109">
        <ele>507</ele>
        <time>2015-04-16T13:49:40Z</time>
      </trkpt>
      <trkpt lat="46.1424" lon="2.4311">
        <ele>508</ele>
        <time>2015-04-16T13:49:43Z</time>
      </trkpt>
      <trkpt lat="46.14242" lon="2.4311">
        <ele>508</ele>
        <time>2015-04-16T13:49:45Z</time>
      </trkpt>
      <trkpt lat="46.14245" lon="2.4311">
        <ele>509</ele>
        <time>2015-04-16T13:49:47Z</time>
      </trkpt>
      <trkpt lat="46.14249" lon="2.43112">
        <ele>509</ele>
        <time>2015-04-16T13:49:50Z</time>
      </trkpt>
      <trkpt lat="46.14252" lon="2.43113">
        <ele>510</ele>
        <time>2015-04-16T13:49:52Z</time>
      </trkpt>
      <trkpt lat="46.14255" lon="2.43112">
        <ele>510</ele>
        <time>2015-04-16T13:49:54Z</time>
      </trkpt>
      <trkpt lat="46.14257" lon="2.43112">
        <ele>510</ele>
        <time>2015-04-16T13:49:56Z</time>
      </trkpt>
      <trkpt lat="46.1426" lon="2.43112">
        <ele>510</ele>
        <time>2015-04-16T13:49:58Z</time>
      </trkpt>
      <trkpt lat="46.14263" lon="2.43112">
        <ele>510</ele>
        <time>2015-04-16T13:50:00Z</time>
      </trkpt>
      <trkpt lat="46.14266" lon="2.43113">
        <ele>510</ele>
        <time>2015-04-16T13:50:02Z</time>
      </trkpt>
      <trkpt lat="46.14267" lon="2.43113">
        <ele>510</ele>
        <time>2015-04-16T13:50:04Z</time>
      </trkpt>
      <trkpt lat="46.1427" lon="2.43113">
        <ele>510</ele>
        <time>2015-04-16T13:50:06Z</time>
      </trkpt>
      <trkpt lat="46.14272" lon="2.43111">
        <ele>510</ele>
        <time>2015-04-16T13:50:08Z</time>
      </trkpt>
      <trkpt lat="46.14275" lon="2.43111">
        <ele>510</ele>
        <time>2015-04-16T13:50:10Z</time>
      </trkpt>
      <trkpt lat="46.14277" lon="2.43112">
        <ele>510</ele>
        <time>2015-04-16T13:50:12Z</time>
      </trkpt>
      <trkpt lat="46.1428" lon="2.43112">
        <ele>510</ele>
        <time>2015-04-16T13:50:14Z</time>
      </trkpt>
      <trkpt lat="46.14283" lon="2.43112">
        <ele>510</ele>
        <time>2015-04-16T13:50:16Z</time>
      </trkpt>
      <trkpt lat="46.14286" lon="2.43113">
        <ele>510</ele>
        <time>2015-04-16T13:50:18Z</time>
      </trkpt>
      <trkpt lat="46.14289" lon="2.43113">
        <ele>510</ele>
        <time>2015-04-16T13:50:20Z</time>
      </trkpt>
      <trkpt lat="46.14292" lon="2.43113">
        <ele>510</ele>
        <time>2015-04-16T13:50:22Z</time>
      </trkpt>
      <trkpt lat="46.14295" lon="2.43113">
        <ele>509</ele>
        <time>2015-04-16T13:50:24Z</time>
      </trkpt>
      <trkpt lat="46.14298" lon="2.43115">
        <ele>509</ele>
        <time>2015-04-16T13:50:26Z</time>
      </trkpt>
      <trkpt lat="46.14301" lon="2.43116">
        <ele>509</ele>
        <time>2015-04-16T13:50:28Z</time>
      </trkpt>
      <trkpt lat="46.14304" lon="2.43118">
        <ele>509</ele>
        <time>2015-04-16T13:50:30Z</time>
      </trkpt>
      <trkpt lat="46.14307" lon="2.43119">
        <ele>509</ele>
        <time>2015-04-16T13:50:32Z</time>
      </trkpt>
      <trkpt lat="46.1431" lon="2.4312">
        <ele>509</ele>
        <time>2015-04-16T13:50:34Z</time>
      </trkpt>
      <trkpt lat="46.14312" lon="2.43122">
        <ele>509</ele>
        <time>2015-04-16T13:50:36Z</time>
      </trkpt>
      <trkpt lat="46.14315" lon="2.43124">
        <ele>509</ele>
        <time>2015-04-16T13:50:38Z</time>
      </trkpt>
      <trkpt lat="46.14317" lon="2.43125">
        <ele>509</ele>
        <time>2015-04-16T13:50:40Z</time>
      </trkpt>
      <trkpt lat="46.1432" lon="2.43127">
        <ele>509</ele>
        <time>2015-04-16T13:50:42Z</time>
      </trkpt>
      <trkpt lat="46.14323" lon="2.43127">
        <ele>509</ele>
        <time>2015-04-16T13:50:44Z</time>
      </trkpt>
      <trkpt lat="46.14326" lon="2.43127">
        <ele>509</ele>
        <time>2015-04-16T13:50:46Z</time>
      </trkpt>
      <trkpt lat="46.14329" lon="2.43127">
        <ele>509</ele>
        <time>2015-04-16T13:50:48Z</time>
      </trkpt>
      <trkpt lat="46.14331" lon="2.43127">
        <ele>509</ele>
        <time>2015-04-16T13:50:50Z</time>
      </trkpt>
      <trkpt lat="46.14334" lon="2.43129">
        <ele>509</ele>
        <time>2015-04-16T13:50:52Z</time>
      </trkpt>
      <trkpt lat="46.14337" lon="2.43131">
        <ele>509</ele>
        <time>2015-04-16T13:50:55Z</time>
      </trkpt>
      <trkpt lat="46.1434" lon="2.43132">
        <ele>509</ele>
        <time>2015-04-16T13:50:57Z</time>
      </trkpt>
      <trkpt lat="46.14343" lon="2.43133">
        <ele>509</ele>
        <time>2015-04-16T13:51:00Z</time>
      </trkpt>
      <trkpt lat="46.14345" lon="2.43134">
        <ele>509</ele>
        <time>2015-04-16T13:51:02Z</time>
      </trkpt>
      <trkpt lat="46.14347" lon="2.43136">
        <ele>509</ele>
        <time>2015-04-16T13:51:04Z</time>
      </trkpt>
      <trkpt lat="46.14349" lon="2.43138">
        <ele>509</ele>
        <time>2015-04-16T13:51:06Z</time>
      </trkpt>
      <trkpt lat="46.14352" lon="2.4314">
        <ele>509</ele>
        <time>2015-04-16T13:51:08Z</time>
      </trkpt>
      <trkpt lat="46.14354" lon="2.43141">
        <ele>509</ele>
        <time>2015-04-16T13:51:10Z</time>
      </trkpt>
      <trkpt lat="46.14357" lon="2.43142">
        <ele>509</ele>
        <time>2015-04-16T13:51:12Z</time>
      </trkpt>
      <trkpt lat="46.14359" lon="2.43142">
        <ele>509</ele>
        <time>2015-04-16T13:51:14Z</time>
      </trkpt>
      <trkpt lat="46.14361" lon="2.43145">
        <ele>509</ele>
        <time>2015-04-16T13:51:16Z</time>
      </trkpt>
      <trkpt lat="46.14364" lon="2.43147">
        <ele>509</ele>
        <time>2015-04-16T13:51:18Z</time>
      </trkpt>
      <trkpt lat="46.14366" lon="2.43148">
        <ele>509</ele>
        <time>2015-04-16T13:51:20Z</time>
      </trkpt>
      <trkpt lat="46.14368" lon="2.43149">
        <ele>509</ele>
        <time>2015-04-16T13:51:22Z</time>
      </trkpt>
      <trkpt lat="46.14371" lon="2.43149">
        <ele>509</ele>
        <time>2015-04-16T13:51:24Z</time>
      </trkpt>
      <trkpt lat="46.14373" lon="2.43148">
        <ele>509</ele>
        <time>2015-04-16T13:51:26Z</time>
      </trkpt>
      <trkpt lat="46.14376" lon="2.43147">
        <ele>509</ele>
        <time>2015-04-16T13:51:28Z</time>
      </trkpt>
      <trkpt lat="46.14378" lon="2.4315">
        <ele>509</ele>
        <time>2015-04-16T13:51:31Z</time>
      </trkpt>
      <trkpt lat="46.1438" lon="2.43153">
        <ele>509</ele>
        <time>2015-04-16T13:51:33Z</time>
      </trkpt>
      <trkpt lat="46.14383" lon="2.43156">
        <ele>509</ele>
        <time>2015-04-16T13:51:35Z</time>
      </trkpt>
      <trkpt lat="46.14385" lon="2.43158">
        <ele>509</ele>
        <time>2015-04-16T13:51:37Z</time>
      </trkpt>
      <trkpt lat="46.14388" lon="2.43161">
        <ele>509</ele>
        <time>2015-04-16T13:51:40Z</time>
      </trkpt>
      <trkpt lat="46.1439" lon="2.43163">
        <ele>509</ele>
        <time>2015-04-16T13:51:42Z</time>
      </trkpt>
      <trkpt lat="46.14393" lon="2.43164">
        <ele>509</ele>
        <time>2015-04-16T13:51:44Z</time>
      </trkpt>
      <trkpt lat="46.14397" lon="2.43164">
        <ele>509</ele>
        <time>2015-04-16T13:51:46Z</time>
      </trkpt>
      <trkpt lat="46.14399" lon="2.43164">
        <ele>509</ele>
        <time>2015-04-16T13:51:48Z</time>
      </trkpt>
      <trkpt lat="46.14402" lon="2.43163">
        <ele>509</ele>
        <time>2015-04-16T13:51:50Z</time>
      </trkpt>
      <trkpt lat="46.14406" lon="2.43162">
        <ele>509</ele>
        <time>2015-04-16T13:51:53Z</time>
      </trkpt>
      <trkpt lat="46.14409" lon="2.43162">
        <ele>509</ele>
        <time>2015-04-16T13:51:55Z</time>
      </trkpt>
      <trkpt lat="46.14412" lon="2.43163">
        <ele>509</ele>
        <time>2015-04-16T13:51:57Z</time>
      </trkpt>
      <trkpt lat="46.14414" lon="2.43165">
        <ele>509</ele>
        <time>2015-04-16T13:51:59Z</time>
      </trkpt>
      <trkpt lat="46.14416" lon="2.43169">
        <ele>509</ele>
        <time>2015-04-16T13:52:01Z</time>
      </trkpt>
      <trkpt lat="46.14418" lon="2.43171">
        <ele>509</ele>
        <time>2015-04-16T13:52:03Z</time>
      </trkpt>
      <trkpt lat="46.14421" lon="2.43172">
        <ele>509</ele>
        <time>2015-04-16T13:52:05Z</time>
      </trkpt>
      <trkpt lat="46.14423" lon="2.43173">
        <ele>509</ele>
        <time>2015-04-16T13:52:07Z</time>
      </trkpt>
      <trkpt lat="46.14426" lon="2.43176">
        <ele>509</ele>
        <time>2015-04-16T13:52:10Z</time>
      </trkpt>
      <trkpt lat="46.1443" lon="2.43177">
        <ele>509</ele>
        <time>2015-04-16T13:52:13Z</time>
      </trkpt>
      <trkpt lat="46.14432" lon="2.43178">
        <ele>509</ele>
        <time>2015-04-16T13:52:15Z</time>
      </trkpt>
      <trkpt lat="46.14435" lon="2.4318">
        <ele>509</ele>
        <time>2015-04-16T13:52:17Z</time>
      </trkpt>
      <trkpt lat="46.14437" lon="2.43182">
        <ele>509</ele>
        <time>2015-04-16T13:52:19Z</time>
      </trkpt>
      <trkpt lat="46.14439" lon="2.43186">
        <ele>509</ele>
        <time>2015-04-16T13:52:21Z</time>
      </trkpt>
      <trkpt lat="46.14441" lon="2.43189">
        <ele>509</ele>
        <time>2015-04-16T13:52:23Z</time>
      </trkpt>
      <trkpt lat="46.14443" lon="2.43193">
        <ele>509</ele>
        <time>2015-04-16T13:52:25Z</time>
      </trkpt>
      <trkpt lat="46.14446" lon="2.43196">
        <ele>510</ele>
        <time>2015-04-16T13:52:28Z</time>
      </trkpt>
      <trkpt lat="46.14449" lon="2.43199">
        <ele>511</ele>
        <time>2015-04-16T13:52:31Z</time>
      </trkpt>
      <trkpt lat="46.14453" lon="2.43199">
        <ele>511</ele>
        <time>2015-04-16T13:52:34Z</time>
      </trkpt>
      <trkpt lat="46.14456" lon="2.43199">
        <ele>511</ele>
        <time>2015-04-16T13:52:36Z</time>
      </trkpt>
      <trkpt lat="46.1446" lon="2.432">
        <ele>511</ele>
        <time>2015-04-16T13:52:39Z</time>
      </trkpt>
      <trkpt lat="46.14463" lon="2.432">
        <ele>511</ele>
        <time>2015-04-16T13:52:41Z</time>
      </trkpt>
      <trkpt lat="46.14466" lon="2.432">
        <ele>510</ele>
        <time>2015-04-16T13:52:43Z</time>
      </trkpt>
      <trkpt lat="46.14468" lon="2.43201">
        <ele>509</ele>
        <time>2015-04-16T13:52:45Z</time>
      </trkpt>
      <trkpt lat="46.1447" lon="2.43201">
        <ele>509</ele>
        <time>2015-04-16T13:52:47Z</time>
      </trkpt>
      <trkpt lat="46.14473" lon="2.43203">
        <ele>509</ele>
        <time>2015-04-16T13:52:49Z</time>
      </trkpt>
      <trkpt lat="46.14476" lon="2.43203">
        <ele>509</ele>
        <time>2015-04-16T13:52:51Z</time>
      </trkpt>
      <trkpt lat="46.14479" lon="2.43203">
        <ele>509</ele>
        <time>2015-04-16T13:52:53Z</time>
      </trkpt>
      <trkpt lat="46.14481" lon="2.43203">
        <ele>509</ele>
        <time>2015-04-16T13:52:55Z</time>
      </trkpt>
      <trkpt lat="46.14483" lon="2.43205">
        <ele>509</ele>
        <time>2015-04-16T13:52:57Z</time>
      </trkpt>
      <trkpt lat="46.14485" lon="2.43207">
        <ele>509</ele>
        <time>2015-04-16T13:52:59Z</time>
      </trkpt>
      <trkpt lat="46.14488" lon="2.4321">
        <ele>509</ele>
        <time>2015-04-16T13:53:01Z</time>
      </trkpt>
      <trkpt lat="46.14491" lon="2.43214">
        <ele>509</ele>
        <time>2015-04-16T13:53:03Z</time>
      </trkpt>
      <trkpt lat="46.14494" lon="2.43215">
        <ele>509</ele>
        <time>2015-04-16T13:53:05Z</time>
      </trkpt>
      <trkpt lat="46.14497" lon="2.43216">
        <ele>509</ele>
        <time>2015-04-16T13:53:07Z</time>
      </trkpt>
      <trkpt lat="46.14499" lon="2.43217">
        <ele>509</ele>
        <time>2015-04-16T13:53:09Z</time>
      </trkpt>
      <trkpt lat="46.14502" lon="2.43218">
        <ele>509</ele>
        <time>2015-04-16T13:53:12Z</time>
      </trkpt>
      <trkpt lat="46.14505" lon="2.43219">
        <ele>509</ele>
        <time>2015-04-16T13:53:14Z</time>
      </trkpt>
      <trkpt lat="46.14508" lon="2.4322">
        <ele>509</ele>
        <time>2015-04-16T13:53:17Z</time>
      </trkpt>
      <trkpt lat="46.14512" lon="2.43223">
        <ele>509</ele>
        <time>2015-04-16T13:53:20Z</time>
      </trkpt>
      <trkpt lat="46.14514" lon="2.43225">
        <ele>509</ele>
        <time>2015-04-16T13:53:22Z</time>
      </trkpt>
      <trkpt lat="46.14517" lon="2.43226">
        <ele>509</ele>
        <time>2015-04-16T13:53:24Z</time>
      </trkpt>
      <trkpt lat="46.1452" lon="2.43227">
        <ele>509</ele>
        <time>2015-04-16T13:53:26Z</time>
      </trkpt>
      <trkpt lat="46.14523" lon="2.43228">
        <ele>509</ele>
        <time>2015-04-16T13:53:28Z</time>
      </trkpt>
      <trkpt lat="46.14526" lon="2.4323">
        <ele>509</ele>
        <time>2015-04-16T13:53:30Z</time>
      </trkpt>
      <trkpt lat="46.14529" lon="2.43233">
        <ele>510</ele>
        <time>2015-04-16T13:53:33Z</time>
      </trkpt>
      <trkpt lat="46.14532" lon="2.43236">
        <ele>511</ele>
        <time>2015-04-16T13:53:35Z</time>
      </trkpt>
      <trkpt lat="46.14535" lon="2.43236">
        <ele>512</ele>
        <time>2015-04-16T13:53:38Z</time>
      </trkpt>
      <trkpt lat="46.14537" lon="2.43236">
        <ele>512</ele>
        <time>2015-04-16T13:53:40Z</time>
      </trkpt>
      <trkpt lat="46.1454" lon="2.43238">
        <ele>512</ele>
        <time>2015-04-16T13:53:42Z</time>
      </trkpt>
      <trkpt lat="46.14542" lon="2.43241">
        <ele>512</ele>
        <time>2015-04-16T13:53:44Z</time>
      </trkpt>
      <trkpt lat="46.14545" lon="2.43243">
        <ele>512</ele>
        <time>2015-04-16T13:53:46Z</time>
      </trkpt>
      <trkpt lat="46.14547" lon="2.43245">
        <ele>512</ele>
        <time>2015-04-16T13:53:48Z</time>
      </trkpt>
      <trkpt lat="46.1455" lon="2.43247">
        <ele>512</ele>
        <time>2015-04-16T13:53:50Z</time>
      </trkpt>
      <trkpt lat="46.14553" lon="2.43249">
        <ele>512</ele>
        <time>2015-04-16T13:53:52Z</time>
      </trkpt>
      <trkpt lat="46.14555" lon="2.4325">
        <ele>512</ele>
        <time>2015-04-16T13:53:54Z</time>
      </trkpt>
      <trkpt lat="46.14557" lon="2.43252">
        <ele>512</ele>
        <time>2015-04-16T13:53:56Z</time>
      </trkpt>
      <trkpt lat="46.14559" lon="2.43253">
        <ele>512</ele>
        <time>2015-04-16T13:53:58Z</time>
      </trkpt>
      <trkpt lat="46.1456" lon="2.43255">
        <ele>513</ele>
        <time>2015-04-16T13:54:00Z</time>
      </trkpt>
      <trkpt lat="46.14561" lon="2.43259">
        <ele>514</ele>
        <time>2015-04-16T13:54:02Z</time>
      </trkpt>
      <trkpt lat="46.14563" lon="2.43261">
        <ele>515</ele>
        <time>2015-04-16T13:54:04Z</time>
      </trkpt>
      <trkpt lat="46.14578" lon="2.4328">
        <ele>519</ele>
        <time>2015-04-16T13:54:08Z</time>
      </trkpt>
      <trkpt lat="46.14579" lon="2.43285">
        <ele>519</ele>
        <time>2015-04-16T13:54:11Z</time>
      </trkpt>
      <trkpt lat="46.1458" lon="2.43288">
        <ele>519</ele>
        <time>2015-04-16T13:54:13Z</time>
      </trkpt>
      <trkpt lat="46.14582" lon="2.43292">
        <ele>519</ele>
        <time>2015-04-16T13:54:16Z</time>
      </trkpt>
      <trkpt lat="46.14584" lon="2.43294">
        <ele>519</ele>
        <time>2015-04-16T13:54:18Z</time>
      </trkpt>
      <trkpt lat="46.14584" lon="2.433">
        <ele>519</ele>
        <time>2015-04-16T13:54:21Z</time>
      </trkpt>
      <trkpt lat="46.14585" lon="2.43303">
        <ele>519</ele>
        <time>2015-04-16T13:54:23Z</time>
      </trkpt>
      <trkpt lat="46.14588" lon="2.43309">
        <ele>517</ele>
        <time>2015-04-16T13:54:27Z</time>
      </trkpt>
      <trkpt lat="46.1459" lon="2.43311">
        <ele>515</ele>
        <time>2015-04-16T13:54:29Z</time>
      </trkpt>
      <trkpt lat="46.14592" lon="2.43315">
        <ele>512</ele>
        <time>2015-04-16T13:54:32Z</time>
      </trkpt>
      <trkpt lat="46.14592" lon="2.43318">
        <ele>511</ele>
        <time>2015-04-16T13:54:34Z</time>
      </trkpt>
      <trkpt lat="46.14594" lon="2.43323">
        <ele>509</ele>
        <time>2015-04-16T13:54:37Z</time>
      </trkpt>
      <trkpt lat="46.14595" lon="2.43327">
        <ele>508</ele>
        <time>2015-04-16T13:54:39Z</time>
      </trkpt>
      <trkpt lat="46.14597" lon="2.43332">
        <ele>507</ele>
        <time>2015-04-16T13:54:42Z</time>
      </trkpt>
      <trkpt lat="46.14598" lon="2.43336">
        <ele>506</ele>
        <time>2015-04-16T13:54:44Z</time>
      </trkpt>
      <trkpt lat="46.146" lon="2.43342">
        <ele>505</ele>
        <time>2015-04-16T13:54:48Z</time>
      </trkpt>
      <trkpt lat="46.14602" lon="2.43344">
        <ele>504</ele>
        <time>2015-04-16T13:54:50Z</time>
      </trkpt>
      <trkpt lat="46.14603" lon="2.4335">
        <ele>503</ele>
        <time>2015-04-16T13:54:53Z</time>
      </trkpt>
      <trkpt lat="46.14604" lon="2.43353">
        <ele>502</ele>
        <time>2015-04-16T13:54:55Z</time>
      </trkpt>
      <trkpt lat="46.14605" lon="2.43359">
        <ele>501</ele>
        <time>2015-04-16T13:54:58Z</time>
      </trkpt>
      <trkpt lat="46.14606" lon="2.43363">
        <ele>500</ele>
        <time>2015-04-16T13:55:00Z</time>
      </trkpt>
      <trkpt lat="46.14608" lon="2.43368">
        <ele>500</ele>
        <time>2015-04-16T13:55:03Z</time>
      </trkpt>
      <trkpt lat="46.14609" lon="2.43372">
        <ele>500</ele>
        <time>2015-04-16T13:55:05Z</time>
      </trkpt>
      <trkpt lat="46.14612" lon="2.43376">
        <ele>499</ele>
        <time>2015-04-16T13:55:08Z</time>
      </trkpt>
      <trkpt lat="46.14613" lon="2.4338">
        <ele>498</ele>
        <time>2015-04-16T13:55:10Z</time>
      </trkpt>
      <trkpt lat="46.14614" lon="2.43386">
        <ele>497</ele>
        <time>2015-04-16T13:55:13Z</time>
      </trkpt>
      <trkpt lat="46.14616" lon="2.4339">
        <ele>497</ele>
        <time>2015-04-16T13:55:16Z</time>
      </trkpt>
      <trkpt lat="46.14618" lon="2.43396">
        <ele>497</ele>
        <time>2015-04-16T13:55:19Z</time>
      </trkpt>
      <trkpt lat="46.14619" lon="2.434">
        <ele>497</ele>
        <time>2015-04-16T13:55:21Z</time>
      </trkpt>
      <trkpt lat="46.14619" lon="2.43405">
        <ele>497</ele>
        <time>2015-04-16T13:55:24Z</time>
      </trkpt>
      <trkpt lat="46.1462" lon="2.4341">
        <ele>497</ele>
        <time>2015-04-16T13:55:26Z</time>
      </trkpt>
      <trkpt lat="46.14621" lon="2.43414">
        <ele>497</ele>
        <time>2015-04-16T13:55:28Z</time>
      </trkpt>
      <trkpt lat="46.14622" lon="2.43418">
        <ele>497</ele>
        <time>2015-04-16T13:55:30Z</time>
      </trkpt>
      <trkpt lat="46.14622" lon="2.43421">
        <ele>496</ele>
        <time>2015-04-16T13:55:32Z</time>
      </trkpt>
      <trkpt lat="46.14624" lon="2.43425">
        <ele>496</ele>
        <time>2015-04-16T13:55:34Z</time>
      </trkpt>
      <trkpt lat="46.14624" lon="2.43429">
        <ele>496</ele>
        <time>2015-04-16T13:55:36Z</time>
      </trkpt>
      <trkpt lat="46.14626" lon="2.43434">
        <ele>496</ele>
        <time>2015-04-16T13:55:39Z</time>
      </trkpt>
      <trkpt lat="46.14626" lon="2.43439">
        <ele>496</ele>
        <time>2015-04-16T13:55:41Z</time>
      </trkpt>
      <trkpt lat="46.14627" lon="2.43443">
        <ele>496</ele>
        <time>2015-04-16T13:55:43Z</time>
      </trkpt>
      <trkpt lat="46.14628" lon="2.43447">
        <ele>496</ele>
        <time>2015-04-16T13:55:45Z</time>
      </trkpt>
      <trkpt lat="46.14629" lon="2.4345">
        <ele>496</ele>
        <time>2015-04-16T13:55:47Z</time>
      </trkpt>
      <trkpt lat="46.1463" lon="2.43455">
        <ele>496</ele>
        <time>2015-04-16T13:55:50Z</time>
      </trkpt>
      <trkpt lat="46.14631" lon="2.43458">
        <ele>496</ele>
        <time>2015-04-16T13:55:52Z</time>
      </trkpt>
      <trkpt lat="46.14631" lon="2.43461">
        <ele>496</ele>
        <time>2015-04-16T13:55:54Z</time>
      </trkpt>
      <trkpt lat="46.14631" lon="2.43465">
        <ele>496</ele>
        <time>2015-04-16T13:55:56Z</time>
      </trkpt>
      <trkpt lat="46.14632" lon="2.4347">
        <ele>496</ele>
        <time>2015-04-16T13:55:58Z</time>
      </trkpt>
      <trkpt lat="46.14632" lon="2.43474">
        <ele>496</ele>
        <time>2015-04-16T13:56:00Z</time>
      </trkpt>
      <trkpt lat="46.14634" lon="2.4348">
        <ele>496</ele>
        <time>2015-04-16T13:56:03Z</time>
      </trkpt>
      <trkpt lat="46.14635" lon="2.43484">
        <ele>496</ele>
        <time>2015-04-16T13:56:05Z</time>
      </trkpt>
      <trkpt lat="46.14635" lon="2.43487">
        <ele>496</ele>
        <time>2015-04-16T13:56:07Z</time>
      </trkpt>
      <trkpt lat="46.14635" lon="2.43492">
        <ele>496</ele>
        <time>2015-04-16T13:56:09Z</time>
      </trkpt>
      <trkpt lat="46.14636" lon="2.43495">
        <ele>496</ele>
        <time>2015-04-16T13:56:11Z</time>
      </trkpt>
      <trkpt lat="46.14637" lon="2.435">
        <ele>496</ele>
        <time>2015-04-16T13:56:13Z</time>
      </trkpt>
      <trkpt lat="46.14637" lon="2.43505">
        <ele>496</ele>
        <time>2015-04-16T13:56:15Z</time>
      </trkpt>
      <trkpt lat="46.14638" lon="2.43508">
        <ele>496</ele>
        <time>2015-04-16T13:56:17Z</time>
      </trkpt>
      <trkpt lat="46.14639" lon="2.43511">
        <ele>496</ele>
        <time>2015-04-16T13:56:19Z</time>
      </trkpt>
      <trkpt lat="46.1464" lon="2.43515">
        <ele>496</ele>
        <time>2015-04-16T13:56:21Z</time>
      </trkpt>
      <trkpt lat="46.14639" lon="2.43518">
        <ele>499</ele>
        <time>2015-04-16T13:56:25Z</time>
      </trkpt>
      <trkpt lat="46.14639" lon="2.4352">
        <ele>501</ele>
        <time>2015-04-16T13:56:28Z</time>
      </trkpt>
      <trkpt lat="46.14639" lon="2.43524">
        <ele>502</ele>
        <time>2015-04-16T13:56:30Z</time>
      </trkpt>
      <trkpt lat="46.14639" lon="2.4353">
        <ele>502</ele>
        <time>2015-04-16T13:56:33Z</time>
      </trkpt>
      <trkpt lat="46.1464" lon="2.43534">
        <ele>502</ele>
        <time>2015-04-16T13:56:36Z</time>
      </trkpt>
      <trkpt lat="46.1464" lon="2.43538">
        <ele>502</ele>
        <time>2015-04-16T13:56:39Z</time>
      </trkpt>
      <trkpt lat="46.14641" lon="2.43542">
        <ele>502</ele>
        <time>2015-04-16T13:56:41Z</time>
      </trkpt>
      <trkpt lat="46.14642" lon="2.43546">
        <ele>502</ele>
        <time>2015-04-16T13:56:43Z</time>
      </trkpt>
      <trkpt lat="46.14645" lon="2.4355">
        <ele>502</ele>
        <time>2015-04-16T13:56:46Z</time>
      </trkpt>
      <trkpt lat="46.14646" lon="2.43552">
        <ele>502</ele>
        <time>2015-04-16T13:56:48Z</time>
      </trkpt>
      <trkpt lat="46.14647" lon="2.43554">
        <ele>502</ele>
        <time>2015-04-16T13:56:50Z</time>
      </trkpt>
      <trkpt lat="46.14646" lon="2.43558">
        <ele>502</ele>
        <time>2015-04-16T13:56:52Z</time>
      </trkpt>
      <trkpt lat="46.14646" lon="2.43562">
        <ele>502</ele>
        <time>2015-04-16T13:56:54Z</time>
      </trkpt>
      <trkpt lat="46.14647" lon="2.43565">
        <ele>502</ele>
        <time>2015-04-16T13:56:56Z</time>
      </trkpt>
      <trkpt lat="46.14648" lon="2.43571">
        <ele>502</ele>
        <time>2015-04-16T13:56:59Z</time>
      </trkpt>
      <trkpt lat="46.1465" lon="2.43575">
        <ele>502</ele>
        <time>2015-04-16T13:57:01Z</time>
      </trkpt>
      <trkpt lat="46.14652" lon="2.43578">
        <ele>502</ele>
        <time>2015-04-16T13:57:03Z</time>
      </trkpt>
      <trkpt lat="46.14653" lon="2.43581">
        <ele>502</ele>
        <time>2015-04-16T13:57:05Z</time>
      </trkpt>
      <trkpt lat="46.14653" lon="2.43585">
        <ele>503</ele>
        <time>2015-04-16T13:57:08Z</time>
      </trkpt>
      <trkpt lat="46.14652" lon="2.43586">
        <ele>503</ele>
        <time>2015-04-16T13:57:10Z</time>
      </trkpt>
      <trkpt lat="46.14652" lon="2.4359">
        <ele>503</ele>
        <time>2015-04-16T13:57:12Z</time>
      </trkpt>
      <trkpt lat="46.14653" lon="2.43592">
        <ele>503</ele>
        <time>2015-04-16T13:57:14Z</time>
      </trkpt>
      <trkpt lat="46.14654" lon="2.43596">
        <ele>503</ele>
        <time>2015-04-16T13:57:16Z</time>
      </trkpt>
      <trkpt lat="46.14655" lon="2.43599">
        <ele>503</ele>
        <time>2015-04-16T13:57:18Z</time>
      </trkpt>
      <trkpt lat="46.14656" lon="2.43601">
        <ele>503</ele>
        <time>2015-04-16T13:57:20Z</time>
      </trkpt>
      <trkpt lat="46.14657" lon="2.43602">
        <ele>503</ele>
        <time>2015-04-16T13:57:23Z</time>
      </trkpt>
      <trkpt lat="46.14658" lon="2.43605">
        <ele>504</ele>
        <time>2015-04-16T13:57:25Z</time>
      </trkpt>
      <trkpt lat="46.14659" lon="2.43609">
        <ele>504</ele>
        <time>2015-04-16T13:57:27Z</time>
      </trkpt>
      <trkpt lat="46.1466" lon="2.43614">
        <ele>504</ele>
        <time>2015-04-16T13:57:29Z</time>
      </trkpt>
      <trkpt lat="46.1466" lon="2.43618">
        <ele>504</ele>
        <time>2015-04-16T13:57:31Z</time>
      </trkpt>
      <trkpt lat="46.14662" lon="2.43621">
        <ele>504</ele>
        <time>2015-04-16T13:57:33Z</time>
      </trkpt>
      <trkpt lat="46.14663" lon="2.43624">
        <ele>504</ele>
        <time>2015-04-16T13:57:35Z</time>
      </trkpt>
      <trkpt lat="46.14665" lon="2.43629">
        <ele>504</ele>
        <time>2015-04-16T13:57:37Z</time>
      </trkpt>
      <trkpt lat="46.14665" lon="2.43633">
        <ele>504</ele>
        <time>2015-04-16T13:57:39Z</time>
      </trkpt>
      <trkpt lat="46.14666" lon="2.43635">
        <ele>504</ele>
        <time>2015-04-16T13:57:41Z</time>
      </trkpt>
      <trkpt lat="46.14667" lon="2.43639">
        <ele>504</ele>
        <time>2015-04-16T13:57:43Z</time>
      </trkpt>
      <trkpt lat="46.14667" lon="2.43643">
        <ele>504</ele>
        <time>2015-04-16T13:57:45Z</time>
      </trkpt>
      <trkpt lat="46.14668" lon="2.43647">
        <ele>504</ele>
        <time>2015-04-16T13:57:47Z</time>
      </trkpt>
      <trkpt lat="46.14668" lon="2.4365">
        <ele>504</ele>
        <time>2015-04-16T13:57:49Z</time>
      </trkpt>
      <trkpt lat="46.14668" lon="2.43653">
        <ele>504</ele>
        <time>2015-04-16T13:57:51Z</time>
      </trkpt>
      <trkpt lat="46.14668" lon="2.43658">
        <ele>504</ele>
        <time>2015-04-16T13:57:53Z</time>
      </trkpt>
      <trkpt lat="46.14669" lon="2.43662">
        <ele>504</ele>
        <time>2015-04-16T13:57:55Z</time>
      </trkpt>
      <trkpt lat="46.1467" lon="2.43666">
        <ele>504</ele>
        <time>2015-04-16T13:57:57Z</time>
      </trkpt>
      <trkpt lat="46.14672" lon="2.43671">
        <ele>504</ele>
        <time>2015-04-16T13:58:00Z</time>
      </trkpt>
      <trkpt lat="46.14673" lon="2.43674">
        <ele>504</ele>
        <time>2015-04-16T13:58:02Z</time>
      </trkpt>
      <trkpt lat="46.14674" lon="2.43677">
        <ele>504</ele>
        <time>2015-04-16T13:58:04Z</time>
      </trkpt>
      <trkpt lat="46.14675" lon="2.43679">
        <ele>504</ele>
        <time>2015-04-16T13:58:06Z</time>
      </trkpt>
      <trkpt lat="46.14675" lon="2.43684">
        <ele>504</ele>
        <time>2015-04-16T13:58:09Z</time>
      </trkpt>
      <trkpt lat="46.14676" lon="2.43688">
        <ele>504</ele>
        <time>2015-04-16T13:58:11Z</time>
      </trkpt>
      <trkpt lat="46.14677" lon="2.43692">
        <ele>504</ele>
        <time>2015-04-16T13:58:13Z</time>
      </trkpt>
      <trkpt lat="46.14678" lon="2.43697">
        <ele>504</ele>
        <time>2015-04-16T13:58:15Z</time>
      </trkpt>
      <trkpt lat="46.14679" lon="2.43703">
        <ele>504</ele>
        <time>2015-04-16T13:58:17Z</time>
      </trkpt>
      <trkpt lat="46.1468" lon="2.43707">
        <ele>504</ele>
        <time>2015-04-16T13:58:19Z</time>
      </trkpt>
      <trkpt lat="46.14681" lon="2.4371">
        <ele>504</ele>
        <time>2015-04-16T13:58:21Z</time>
      </trkpt>
      <trkpt lat="46.14682" lon="2.43713">
        <ele>504</ele>
        <time>2015-04-16T13:58:23Z</time>
      </trkpt>
      <trkpt lat="46.14682" lon="2.43717">
        <ele>504</ele>
        <time>2015-04-16T13:58:25Z</time>
      </trkpt>
      <trkpt lat="46.14684" lon="2.4372">
        <ele>504</ele>
        <time>2015-04-16T13:58:27Z</time>
      </trkpt>
      <trkpt lat="46.14685" lon="2.43723">
        <ele>504</ele>
        <time>2015-04-16T13:58:29Z</time>
      </trkpt>
      <trkpt lat="46.14685" lon="2.43726">
        <ele>504</ele>
        <time>2015-04-16T13:58:32Z</time>
      </trkpt>
      <trkpt lat="46.14687" lon="2.43728">
        <ele>504</ele>
        <time>2015-04-16T13:58:38Z</time>
      </trkpt>
      <trkpt lat="46.14684" lon="2.43737">
        <ele>514</ele>
        <time>2015-04-16T13:58:42Z</time>
      </trkpt>
      <trkpt lat="46.14685" lon="2.43741">
        <ele>514</ele>
        <time>2015-04-16T13:58:44Z</time>
      </trkpt>
      <trkpt lat="46.14687" lon="2.43744">
        <ele>513</ele>
        <time>2015-04-16T13:58:46Z</time>
      </trkpt>
      <trkpt lat="46.14687" lon="2.43747">
        <ele>512</ele>
        <time>2015-04-16T13:58:48Z</time>
      </trkpt>
      <trkpt lat="46.14688" lon="2.4375">
        <ele>511</ele>
        <time>2015-04-16T13:58:50Z</time>
      </trkpt>
      <trkpt lat="46.1469" lon="2.43754">
        <ele>511</ele>
        <time>2015-04-16T13:58:52Z</time>
      </trkpt>
      <trkpt lat="46.1469" lon="2.43757">
        <ele>510</ele>
        <time>2015-04-16T13:58:54Z</time>
      </trkpt>
      <trkpt lat="46.14691" lon="2.4376">
        <ele>509</ele>
        <time>2015-04-16T13:58:56Z</time>
      </trkpt>
      <trkpt lat="46.14692" lon="2.43764">
        <ele>508</ele>
        <time>2015-04-16T13:58:58Z</time>
      </trkpt>
      <trkpt lat="46.14694" lon="2.43766">
        <ele>508</ele>
        <time>2015-04-16T13:59:00Z</time>
      </trkpt>
      <trkpt lat="46.14695" lon="2.43767">
        <ele>508</ele>
        <time>2015-04-16T13:59:02Z</time>
      </trkpt>
      <trkpt lat="46.14697" lon="2.43769">
        <ele>508</ele>
        <time>2015-04-16T13:59:04Z</time>
      </trkpt>
      <trkpt lat="46.14698" lon="2.43771">
        <ele>508</ele>
        <time>2015-04-16T13:59:06Z</time>
      </trkpt>
      <trkpt lat="46.147" lon="2.43774">
        <ele>508</ele>
        <time>2015-04-16T13:59:08Z</time>
      </trkpt>
      <trkpt lat="46.14701" lon="2.43776">
        <ele>508</ele>
        <time>2015-04-16T13:59:10Z</time>
      </trkpt>
      <trkpt lat="46.14702" lon="2.43778">
        <ele>508</ele>
        <time>2015-04-16T13:59:12Z</time>
      </trkpt>
      <trkpt lat="46.14703" lon="2.4378">
        <ele>508</ele>
        <time>2015-04-16T13:59:14Z</time>
      </trkpt>
      <trkpt lat="46.14704" lon="2.43784">
        <ele>508</ele>
        <time>2015-04-16T13:59:16Z</time>
      </trkpt>
      <trkpt lat="46.14705" lon="2.43786">
        <ele>508</ele>
        <time>2015-04-16T13:59:18Z</time>
      </trkpt>
      <trkpt lat="46.14706" lon="2.43788">
        <ele>508</ele>
        <time>2015-04-16T13:59:21Z</time>
      </trkpt>
      <trkpt lat="46.14707" lon="2.43791">
        <ele>508</ele>
        <time>2015-04-16T13:59:23Z</time>
      </trkpt>
      <trkpt lat="46.14708" lon="2.43796">
        <ele>508</ele>
        <time>2015-04-16T13:59:26Z</time>
      </trkpt>
      <trkpt lat="46.14709" lon="2.438">
        <ele>508</ele>
        <time>2015-04-16T13:59:29Z</time>
      </trkpt>
      <trkpt lat="46.14708" lon="2.43803">
        <ele>508</ele>
        <time>2015-04-16T13:59:31Z</time>
      </trkpt>
      <trkpt lat="46.14709" lon="2.43807">
        <ele>508</ele>
        <time>2015-04-16T13:59:34Z</time>
      </trkpt>
      <trkpt lat="46.14708" lon="2.43808">
        <ele>508</ele>
        <time>2015-04-16T13:59:36Z</time>
      </trkpt>
      <trkpt lat="46.14707" lon="2.4381">
        <ele>508</ele>
        <time>2015-04-16T13:59:38Z</time>
      </trkpt>
      <trkpt lat="46.14704" lon="2.43811">
        <ele>508</ele>
        <time>2015-04-16T13:59:40Z</time>
      </trkpt>
      <trkpt lat="46.14703" lon="2.43814">
        <ele>508</ele>
        <time>2015-04-16T13:59:42Z</time>
      </trkpt>
      <trkpt lat="46.14705" lon="2.43817">
        <ele>508</ele>
        <time>2015-04-16T13:59:44Z</time>
      </trkpt>
      <trkpt lat="46.14706" lon="2.43822">
        <ele>508</ele>
        <time>2015-04-16T13:59:47Z</time>
      </trkpt>
      <trkpt lat="46.14708" lon="2.43826">
        <ele>507</ele>
        <time>2015-04-16T13:59:49Z</time>
      </trkpt>
      <trkpt lat="46.1471" lon="2.43832">
        <ele>506</ele>
        <time>2015-04-16T13:59:51Z</time>
      </trkpt>
      <trkpt lat="46.14711" lon="2.43836">
        <ele>506</ele>
        <time>2015-04-16T13:59:54Z</time>
      </trkpt>
      <trkpt lat="46.1471" lon="2.4384">
        <ele>506</ele>
        <time>2015-04-16T13:59:57Z</time>
      </trkpt>
      <trkpt lat="46.1471" lon="2.43842">
        <ele>506</ele>
        <time>2015-04-16T13:59:59Z</time>
      </trkpt>
      <trkpt lat="46.14711" lon="2.43845">
        <ele>506</ele>
        <time>2015-04-16T14:00:01Z</time>
      </trkpt>
      <trkpt lat="46.14711" lon="2.43848">
        <ele>506</ele>
        <time>2015-04-16T14:00:03Z</time>
      </trkpt>
      <trkpt lat="46.14712" lon="2.43851">
        <ele>506</ele>
        <time>2015-04-16T14:00:06Z</time>
      </trkpt>
      <trkpt lat="46.14713" lon="2.43853">
        <ele>506</ele>
        <time>2015-04-16T14:00:08Z</time>
      </trkpt>
      <trkpt lat="46.14714" lon="2.43858">
        <ele>506</ele>
        <time>2015-04-16T14:00:11Z</time>
      </trkpt>
      <trkpt lat="46.14715" lon="2.4386">
        <ele>506</ele>
        <time>2015-04-16T14:00:13Z</time>
      </trkpt>
      <trkpt lat="46.14713" lon="2.43861">
        <ele>506</ele>
        <time>2015-04-16T14:00:15Z</time>
      </trkpt>
      <trkpt lat="46.14712" lon="2.43864">
        <ele>506</ele>
        <time>2015-04-16T14:00:17Z</time>
      </trkpt>
      <trkpt lat="46.14712" lon="2.43868">
        <ele>506</ele>
        <time>2015-04-16T14:00:19Z</time>
      </trkpt>
      <trkpt lat="46.14712" lon="2.43872">
        <ele>506</ele>
        <time>2015-04-16T14:00:21Z</time>
      </trkpt>
      <trkpt lat="46.14712" lon="2.43876">
        <ele>506</ele>
        <time>2015-04-16T14:00:24Z</time>
      </trkpt>
      <trkpt lat="46.14712" lon="2.43878">
        <ele>506</ele>
        <time>2015-04-16T14:00:26Z</time>
      </trkpt>
      <trkpt lat="46.14712" lon="2.43881">
        <ele>506</ele>
        <time>2015-04-16T14:00:28Z</time>
      </trkpt>
      <trkpt lat="46.14711" lon="2.43883">
        <ele>506</ele>
        <time>2015-04-16T14:00:31Z</time>
      </trkpt>
      <trkpt lat="46.14711" lon="2.43885">
        <ele>506</ele>
        <time>2015-04-16T14:00:34Z</time>
      </trkpt>
      <trkpt lat="46.14711" lon="2.43886">
        <ele>507</ele>
        <time>2015-04-16T14:00:39Z</time>
      </trkpt>
      <trkpt lat="46.14711" lon="2.4389">
        <ele>508</ele>
        <time>2015-04-16T14:00:41Z</time>
      </trkpt>
      <trkpt lat="46.14711" lon="2.43893">
        <ele>508</ele>
        <time>2015-04-16T14:00:43Z</time>
      </trkpt>
      <trkpt lat="46.14712" lon="2.43892">
        <ele>508</ele>
        <time>2015-04-16T14:00:47Z</time>
      </trkpt>
      <trkpt lat="46.14712" lon="2.43891">
        <ele>508</ele>
        <time>2015-04-16T14:00:49Z</time>
      </trkpt>
      <trkpt lat="46.14712" lon="2.43888">
        <ele>508</ele>
        <time>2015-04-16T14:00:51Z</time>
      </trkpt>
      <trkpt lat="46.14711" lon="2.43887">
        <ele>509</ele>
        <time>2015-04-16T14:00:54Z</time>
      </trkpt>
      <trkpt lat="46.14711" lon="2.43889">
        <ele>510</ele>
        <time>2015-04-16T14:00:57Z</time>
      </trkpt>
      <trkpt lat="46.14711" lon="2.43891">
        <ele>511</ele>
        <time>2015-04-16T14:00:59Z</time>
      </trkpt>
      <trkpt lat="46.1471" lon="2.43893">
        <ele>512</ele>
        <time>2015-04-16T14:01:05Z</time>
      </trkpt>
      <trkpt lat="46.1471" lon="2.43896">
        <ele>512</ele>
        <time>2015-04-16T14:01:07Z</time>
      </trkpt>
      <trkpt lat="46.1471" lon="2.43899">
        <ele>512</ele>
        <time>2015-04-16T14:01:09Z</time>
      </trkpt>
      <trkpt lat="46.14709" lon="2.43902">
        <ele>512</ele>
        <time>2015-04-16T14:01:11Z</time>
      </trkpt>
      <trkpt lat="46.14709" lon="2.43906">
        <ele>512</ele>
        <time>2015-04-16T14:01:13Z</time>
      </trkpt>
      <trkpt lat="46.14708" lon="2.43908">
        <ele>512</ele>
        <time>2015-04-16T14:01:15Z</time>
      </trkpt>
      <trkpt lat="46.14708" lon="2.43911">
        <ele>512</ele>
        <time>2015-04-16T14:01:17Z</time>
      </trkpt>
      <trkpt lat="46.14707" lon="2.43913">
        <ele>512</ele>
        <time>2015-04-16T14:01:19Z</time>
      </trkpt>
      <trkpt lat="46.14706" lon="2.43917">
        <ele>512</ele>
        <time>2015-04-16T14:01:22Z</time>
      </trkpt>
      <trkpt lat="46.14706" lon="2.43922">
        <ele>512</ele>
        <time>2015-04-16T14:01:25Z</time>
      </trkpt>
      <trkpt lat="46.14706" lon="2.43926">
        <ele>511</ele>
        <time>2015-04-16T14:01:27Z</time>
      </trkpt>
      <trkpt lat="46.14706" lon="2.43929">
        <ele>510</ele>
        <time>2015-04-16T14:01:29Z</time>
      </trkpt>
      <trkpt lat="46.14706" lon="2.43933">
        <ele>510</ele>
        <time>2015-04-16T14:01:31Z</time>
      </trkpt>
      <trkpt lat="46.14706" lon="2.43937">
        <ele>509</ele>
        <time>2015-04-16T14:01:33Z</time>
      </trkpt>
      <trkpt lat="46.14706" lon="2.43941">
        <ele>508</ele>
        <time>2015-04-16T14:01:35Z</time>
      </trkpt>
      <trkpt lat="46.14705" lon="2.43944">
        <ele>507</ele>
        <time>2015-04-16T14:01:37Z</time>
      </trkpt>
      <trkpt lat="46.14705" lon="2.43947">
        <ele>507</ele>
        <time>2015-04-16T14:01:39Z</time>
      </trkpt>
      <trkpt lat="46.14705" lon="2.43951">
        <ele>506</ele>
        <time>2015-04-16T14:01:41Z</time>
      </trkpt>
      <trkpt lat="46.14706" lon="2.43954">
        <ele>505</ele>
        <time>2015-04-16T14:01:43Z</time>
      </trkpt>
      <trkpt lat="46.14706" lon="2.43958">
        <ele>505</ele>
        <time>2015-04-16T14:01:45Z</time>
      </trkpt>
      <trkpt lat="46.14705" lon="2.43962">
        <ele>504</ele>
        <time>2015-04-16T14:01:47Z</time>
      </trkpt>
      <trkpt lat="46.14705" lon="2.43966">
        <ele>504</ele>
        <time>2015-04-16T14:01:49Z</time>
      </trkpt>
      <trkpt lat="46.14706" lon="2.4397">
        <ele>503</ele>
        <time>2015-04-16T14:01:51Z</time>
      </trkpt>
      <trkpt lat="46.14706" lon="2.43974">
        <ele>503</ele>
        <time>2015-04-16T14:01:53Z</time>
      </trkpt>
      <trkpt lat="46.14706" lon="2.43977">
        <ele>502</ele>
        <time>2015-04-16T14:01:55Z</time>
      </trkpt>
      <trkpt lat="46.14706" lon="2.43982">
        <ele>501</ele>
        <time>2015-04-16T14:01:57Z</time>
      </trkpt>
      <trkpt lat="46.14707" lon="2.43986">
        <ele>501</ele>
        <time>2015-04-16T14:01:59Z</time>
      </trkpt>
      <trkpt lat="46.14707" lon="2.4399">
        <ele>501</ele>
        <time>2015-04-16T14:02:01Z</time>
      </trkpt>
      <trkpt lat="46.14708" lon="2.43993">
        <ele>501</ele>
        <time>2015-04-16T14:02:03Z</time>
      </trkpt>
      <trkpt lat="46.14708" lon="2.43999">
        <ele>501</ele>
        <time>2015-04-16T14:02:05Z</time>
      </trkpt>
      <trkpt lat="46.14709" lon="2.44003">
        <ele>501</ele>
        <time>2015-04-16T14:02:07Z</time>
      </trkpt>
      <trkpt lat="46.14709" lon="2.44008">
        <ele>501</ele>
        <time>2015-04-16T14:02:09Z</time>
      </trkpt>
      <trkpt lat="46.1471" lon="2.4401">
        <ele>501</ele>
        <time>2015-04-16T14:02:11Z</time>
      </trkpt>
      <trkpt lat="46.1471" lon="2.44015">
        <ele>501</ele>
        <time>2015-04-16T14:02:13Z</time>
      </trkpt>
      <trkpt lat="46.1471" lon="2.44019">
        <ele>501</ele>
        <time>2015-04-16T14:02:15Z</time>
      </trkpt>
      <trkpt lat="46.14711" lon="2.44024">
        <ele>500</ele>
        <time>2015-04-16T14:02:17Z</time>
      </trkpt>
      <trkpt lat="46.14711" lon="2.44028">
        <ele>500</ele>
        <time>2015-04-16T14:02:19Z</time>
      </trkpt>
      <trkpt lat="46.14712" lon="2.44032">
        <ele>499</ele>
        <time>2015-04-16T14:02:21Z</time>
      </trkpt>
      <trkpt lat="46.14713" lon="2.44036">
        <ele>499</ele>
        <time>2015-04-16T14:02:23Z</time>
      </trkpt>
      <trkpt lat="46.14714" lon="2.4404">
        <ele>499</ele>
        <time>2015-04-16T14:02:25Z</time>
      </trkpt>
      <trkpt lat="46.14714" lon="2.44043">
        <ele>498</ele>
        <time>2015-04-16T14:02:27Z</time>
      </trkpt>
      <trkpt lat="46.14714" lon="2.44047">
        <ele>498</ele>
        <time>2015-04-16T14:02:29Z</time>
      </trkpt>
      <trkpt lat="46.14714" lon="2.4405">
        <ele>497</ele>
        <time>2015-04-16T14:02:31Z</time>
      </trkpt>
      <trkpt lat="46.14715" lon="2.44052">
        <ele>497</ele>
        <time>2015-04-16T14:02:33Z</time>
      </trkpt>
      <trkpt lat="46.14716" lon="2.44056">
        <ele>497</ele>
        <time>2015-04-16T14:02:36Z</time>
      </trkpt>
      <trkpt lat="46.14717" lon="2.44058">
        <ele>497</ele>
        <time>2015-04-16T14:02:38Z</time>
      </trkpt>
      <trkpt lat="46.14718" lon="2.4406">
        <ele>497</ele>
        <time>2015-04-16T14:02:40Z</time>
      </trkpt>
      <trkpt lat="46.14719" lon="2.44064">
        <ele>497</ele>
        <time>2015-04-16T14:02:42Z</time>
      </trkpt>
      <trkpt lat="46.14719" lon="2.44067">
        <ele>497</ele>
        <time>2015-04-16T14:02:44Z</time>
      </trkpt>
      <trkpt lat="46.1472" lon="2.4407">
        <ele>497</ele>
        <time>2015-04-16T14:02:46Z</time>
      </trkpt>
      <trkpt lat="46.1472" lon="2.44075">
        <ele>496</ele>
        <time>2015-04-16T14:02:49Z</time>
      </trkpt>
      <trkpt lat="46.14721" lon="2.44078">
        <ele>496</ele>
        <time>2015-04-16T14:02:51Z</time>
      </trkpt>
      <trkpt lat="46.14721" lon="2.44082">
        <ele>495</ele>
        <time>2015-04-16T14:02:53Z</time>
      </trkpt>
      <trkpt lat="46.14722" lon="2.44085">
        <ele>495</ele>
        <time>2015-04-16T14:02:55Z</time>
      </trkpt>
      <trkpt lat="46.14722" lon="2.44089">
        <ele>495</ele>
        <time>2015-04-16T14:02:57Z</time>
      </trkpt>
      <trkpt lat="46.14722" lon="2.44092">
        <ele>494</ele>
        <time>2015-04-16T14:02:59Z</time>
      </trkpt>
      <trkpt lat="46.14723" lon="2.44095">
        <ele>494</ele>
        <time>2015-04-16T14:03:01Z</time>
      </trkpt>
      <trkpt lat="46.14724" lon="2.441">
        <ele>494</ele>
        <time>2015-04-16T14:03:03Z</time>
      </trkpt>
      <trkpt lat="46.14726" lon="2.44105">
        <ele>494</ele>
        <time>2015-04-16T14:03:06Z</time>
      </trkpt>
      <trkpt lat="46.14727" lon="2.44109">
        <ele>494</ele>
        <time>2015-04-16T14:03:08Z</time>
      </trkpt>
      <trkpt lat="46.14729" lon="2.44113">
        <ele>494</ele>
        <time>2015-04-16T14:03:10Z</time>
      </trkpt>
      <trkpt lat="46.14731" lon="2.44115">
        <ele>494</ele>
        <time>2015-04-16T14:03:12Z</time>
      </trkpt>
      <trkpt lat="46.14733" lon="2.44119">
        <ele>494</ele>
        <time>2015-04-16T14:03:14Z</time>
      </trkpt>
      <trkpt lat="46.14735" lon="2.44122">
        <ele>494</ele>
        <time>2015-04-16T14:03:16Z</time>
      </trkpt>
      <trkpt lat="46.14737" lon="2.44124">
        <ele>494</ele>
        <time>2015-04-16T14:03:18Z</time>
      </trkpt>
      <trkpt lat="46.14739" lon="2.44128">
        <ele>493</ele>
        <time>2015-04-16T14:03:20Z</time>
      </trkpt>
      <trkpt lat="46.1474" lon="2.44131">
        <ele>493</ele>
        <time>2015-04-16T14:03:22Z</time>
      </trkpt>
      <trkpt lat="46.14742" lon="2.44135">
        <ele>493</ele>
        <time>2015-04-16T14:03:25Z</time>
      </trkpt>
      <trkpt lat="46.14745" lon="2.44139">
        <ele>493</ele>
        <time>2015-04-16T14:03:27Z</time>
      </trkpt>
      <trkpt lat="46.14746" lon="2.44142">
        <ele>493</ele>
        <time>2015-04-16T14:03:29Z</time>
      </trkpt>
      <trkpt lat="46.14751" lon="2.44145">
        <ele>492</ele>
        <time>2015-04-16T14:03:32Z</time>
      </trkpt>
      <trkpt lat="46.14754" lon="2.44147">
        <ele>492</ele>
        <time>2015-04-16T14:03:34Z</time>
      </trkpt>
      <trkpt lat="46.14756" lon="2.4415">
        <ele>491</ele>
        <time>2015-04-16T14:03:36Z</time>
      </trkpt>
      <trkpt lat="46.14757" lon="2.44155">
        <ele>491</ele>
        <time>2015-04-16T14:03:38Z</time>
      </trkpt>
      <trkpt lat="46.1476" lon="2.44158">
        <ele>491</ele>
        <time>2015-04-16T14:03:40Z</time>
      </trkpt>
      <trkpt lat="46.14763" lon="2.44159">
        <ele>491</ele>
        <time>2015-04-16T14:03:42Z</time>
      </trkpt>
      <trkpt lat="46.14766" lon="2.4416">
        <ele>491</ele>
        <time>2015-04-16T14:03:44Z</time>
      </trkpt>
      <trkpt lat="46.14768" lon="2.44165">
        <ele>490</ele>
        <time>2015-04-16T14:03:47Z</time>
      </trkpt>
      <trkpt lat="46.1477" lon="2.44167">
        <ele>489</ele>
        <time>2015-04-16T14:03:49Z</time>
      </trkpt>
      <trkpt lat="46.14772" lon="2.4417">
        <ele>488</ele>
        <time>2015-04-16T14:03:51Z</time>
      </trkpt>
      <trkpt lat="46.14775" lon="2.44174">
        <ele>487</ele>
        <time>2015-04-16T14:03:54Z</time>
      </trkpt>
      <trkpt lat="46.14777" lon="2.44176">
        <ele>486</ele>
        <time>2015-04-16T14:03:56Z</time>
      </trkpt>
      <trkpt lat="46.1478" lon="2.4418">
        <ele>484</ele>
        <time>2015-04-16T14:03:59Z</time>
      </trkpt>
      <trkpt lat="46.14782" lon="2.44183">
        <ele>483</ele>
        <time>2015-04-16T14:04:01Z</time>
      </trkpt>
      <trkpt lat="46.14785" lon="2.44186">
        <ele>482</ele>
        <time>2015-04-16T14:04:04Z</time>
      </trkpt>
      <trkpt lat="46.14787" lon="2.44189">
        <ele>482</ele>
        <time>2015-04-16T14:04:06Z</time>
      </trkpt>
      <trkpt lat="46.14788" lon="2.44193">
        <ele>481</ele>
        <time>2015-04-16T14:04:08Z</time>
      </trkpt>
      <trkpt lat="46.14789" lon="2.44197">
        <ele>481</ele>
        <time>2015-04-16T14:04:10Z</time>
      </trkpt>
      <trkpt lat="46.1479" lon="2.44201">
        <ele>481</ele>
        <time>2015-04-16T14:04:12Z</time>
      </trkpt>
      <trkpt lat="46.14791" lon="2.44204">
        <ele>481</ele>
        <time>2015-04-16T14:04:14Z</time>
      </trkpt>
      <trkpt lat="46.14793" lon="2.44207">
        <ele>481</ele>
        <time>2015-04-16T14:04:16Z</time>
      </trkpt>
      <trkpt lat="46.14793" lon="2.4421">
        <ele>481</ele>
        <time>2015-04-16T14:04:18Z</time>
      </trkpt>
      <trkpt lat="46.14793" lon="2.44214">
        <ele>481</ele>
        <time>2015-04-16T14:04:20Z</time>
      </trkpt>
      <trkpt lat="46.14792" lon="2.44216">
        <ele>481</ele>
        <time>2015-04-16T14:04:23Z</time>
      </trkpt>
      <trkpt lat="46.14792" lon="2.44217">
        <ele>481</ele>
        <time>2015-04-16T14:04:25Z</time>
      </trkpt>
      <trkpt lat="46.14793" lon="2.44221">
        <ele>481</ele>
        <time>2015-04-16T14:04:27Z</time>
      </trkpt>
      <trkpt lat="46.14793" lon="2.44225">
        <ele>481</ele>
        <time>2015-04-16T14:04:29Z</time>
      </trkpt>
      <trkpt lat="46.14793" lon="2.4423">
        <ele>481</ele>
        <time>2015-04-16T14:04:32Z</time>
      </trkpt>
      <trkpt lat="46.14794" lon="2.44234">
        <ele>481</ele>
        <time>2015-04-16T14:04:34Z</time>
      </trkpt>
      <trkpt lat="46.14795" lon="2.4424">
        <ele>482</ele>
        <time>2015-04-16T14:04:36Z</time>
      </trkpt>
      <trkpt lat="46.14796" lon="2.44244">
        <ele>482</ele>
        <time>2015-04-16T14:04:38Z</time>
      </trkpt>
      <trkpt lat="46.14798" lon="2.44248">
        <ele>483</ele>
        <time>2015-04-16T14:04:40Z</time>
      </trkpt>
      <trkpt lat="46.148" lon="2.44252">
        <ele>483</ele>
        <time>2015-04-16T14:04:42Z</time>
      </trkpt>
      <trkpt lat="46.14801" lon="2.44257">
        <ele>484</ele>
        <time>2015-04-16T14:04:44Z</time>
      </trkpt>
      <trkpt lat="46.14802" lon="2.44261">
        <ele>484</ele>
        <time>2015-04-16T14:04:46Z</time>
      </trkpt>
      <trkpt lat="46.14803" lon="2.44266">
        <ele>484</ele>
        <time>2015-04-16T14:04:48Z</time>
      </trkpt>
      <trkpt lat="46.14805" lon="2.4427">
        <ele>484</ele>
        <time>2015-04-16T14:04:50Z</time>
      </trkpt>
      <trkpt lat="46.14805" lon="2.44274">
        <ele>484</ele>
        <time>2015-04-16T14:04:52Z</time>
      </trkpt>
      <trkpt lat="46.14805" lon="2.44277">
        <ele>484</ele>
        <time>2015-04-16T14:04:54Z</time>
      </trkpt>
      <trkpt lat="46.14806" lon="2.44282">
        <ele>484</ele>
        <time>2015-04-16T14:04:56Z</time>
      </trkpt>
      <trkpt lat="46.14807" lon="2.44286">
        <ele>484</ele>
        <time>2015-04-16T14:04:58Z</time>
      </trkpt>
      <trkpt lat="46.14808" lon="2.44289">
        <ele>484</ele>
        <time>2015-04-16T14:05:00Z</time>
      </trkpt>
      <trkpt lat="46.14809" lon="2.44293">
        <ele>484</ele>
        <time>2015-04-16T14:05:02Z</time>
      </trkpt>
      <trkpt lat="46.1481" lon="2.44297">
        <ele>484</ele>
        <time>2015-04-16T14:05:04Z</time>
      </trkpt>
      <trkpt lat="46.14811" lon="2.44301">
        <ele>484</ele>
        <time>2015-04-16T14:05:06Z</time>
      </trkpt>
      <trkpt lat="46.14812" lon="2.44303">
        <ele>484</ele>
        <time>2015-04-16T14:05:08Z</time>
      </trkpt>
      <trkpt lat="46.14813" lon="2.44306">
        <ele>484</ele>
        <time>2015-04-16T14:05:10Z</time>
      </trkpt>
      <trkpt lat="46.14815" lon="2.4431">
        <ele>483</ele>
        <time>2015-04-16T14:05:12Z</time>
      </trkpt>
      <trkpt lat="46.14816" lon="2.44313">
        <ele>483</ele>
        <time>2015-04-16T14:05:14Z</time>
      </trkpt>
      <trkpt lat="46.14817" lon="2.44318">
        <ele>482</ele>
        <time>2015-04-16T14:05:16Z</time>
      </trkpt>
      <trkpt lat="46.14819" lon="2.44322">
        <ele>481</ele>
        <time>2015-04-16T14:05:18Z</time>
      </trkpt>
      <trkpt lat="46.1482" lon="2.44327">
        <ele>481</ele>
        <time>2015-04-16T14:05:20Z</time>
      </trkpt>
      <trkpt lat="46.14821" lon="2.4433">
        <ele>481</ele>
        <time>2015-04-16T14:05:22Z</time>
      </trkpt>
      <trkpt lat="46.14821" lon="2.44334">
        <ele>481</ele>
        <time>2015-04-16T14:05:25Z</time>
      </trkpt>
      <trkpt lat="46.14822" lon="2.44338">
        <ele>480</ele>
        <time>2015-04-16T14:05:27Z</time>
      </trkpt>
      <trkpt lat="46.14823" lon="2.44341">
        <ele>480</ele>
        <time>2015-04-16T14:05:29Z</time>
      </trkpt>
      <trkpt lat="46.14824" lon="2.44344">
        <ele>480</ele>
        <time>2015-04-16T14:05:31Z</time>
      </trkpt>
      <trkpt lat="46.14826" lon="2.44349">
        <ele>480</ele>
        <time>2015-04-16T14:05:33Z</time>
      </trkpt>
      <trkpt lat="46.14828" lon="2.44354">
        <ele>479</ele>
        <time>2015-04-16T14:05:36Z</time>
      </trkpt>
      <trkpt lat="46.14829" lon="2.44358">
        <ele>479</ele>
        <time>2015-04-16T14:05:38Z</time>
      </trkpt>
      <trkpt lat="46.14831" lon="2.44361">
        <ele>479</ele>
        <time>2015-04-16T14:05:40Z</time>
      </trkpt>
      <trkpt lat="46.14833" lon="2.44365">
        <ele>479</ele>
        <time>2015-04-16T14:05:42Z</time>
      </trkpt>
      <trkpt lat="46.14834" lon="2.44368">
        <ele>479</ele>
        <time>2015-04-16T14:05:44Z</time>
      </trkpt>
      <trkpt lat="46.14835" lon="2.44371">
        <ele>479</ele>
        <time>2015-04-16T14:05:46Z</time>
      </trkpt>
      <trkpt lat="46.14837" lon="2.44375">
        <ele>479</ele>
        <time>2015-04-16T14:05:48Z</time>
      </trkpt>
      <trkpt lat="46.14837" lon="2.44378">
        <ele>479</ele>
        <time>2015-04-16T14:05:50Z</time>
      </trkpt>
      <trkpt lat="46.14838" lon="2.44382">
        <ele>479</ele>
        <time>2015-04-16T14:05:52Z</time>
      </trkpt>
      <trkpt lat="46.14839" lon="2.44385">
        <ele>479</ele>
        <time>2015-04-16T14:05:54Z</time>
      </trkpt>
      <trkpt lat="46.1484" lon="2.44389">
        <ele>480</ele>
        <time>2015-04-16T14:05:56Z</time>
      </trkpt>
      <trkpt lat="46.1484" lon="2.44394">
        <ele>481</ele>
        <time>2015-04-16T14:05:58Z</time>
      </trkpt>
      <trkpt lat="46.1484" lon="2.44398">
        <ele>481</ele>
        <time>2015-04-16T14:06:00Z</time>
      </trkpt>
      <trkpt lat="46.14841" lon="2.44403">
        <ele>482</ele>
        <time>2015-04-16T14:06:02Z</time>
      </trkpt>
      <trkpt lat="46.14841" lon="2.44408">
        <ele>482</ele>
        <time>2015-04-16T14:06:04Z</time>
      </trkpt>
      <trkpt lat="46.14841" lon="2.44412">
        <ele>482</ele>
        <time>2015-04-16T14:06:06Z</time>
      </trkpt>
      <trkpt lat="46.14843" lon="2.44418">
        <ele>483</ele>
        <time>2015-04-16T14:06:09Z</time>
      </trkpt>
      <trkpt lat="46.14844" lon="2.44423">
        <ele>483</ele>
        <time>2015-04-16T14:06:11Z</time>
      </trkpt>
      <trkpt lat="46.14846" lon="2.44427">
        <ele>483</ele>
        <time>2015-04-16T14:06:13Z</time>
      </trkpt>
      <trkpt lat="46.14846" lon="2.44432">
        <ele>483</ele>
        <time>2015-04-16T14:06:15Z</time>
      </trkpt>
      <trkpt lat="46.14847" lon="2.44436">
        <ele>483</ele>
        <time>2015-04-16T14:06:17Z</time>
      </trkpt>
      <trkpt lat="46.14848" lon="2.44441">
        <ele>483</ele>
        <time>2015-04-16T14:06:19Z</time>
      </trkpt>
      <trkpt lat="46.14849" lon="2.44444">
        <ele>483</ele>
        <time>2015-04-16T14:06:21Z</time>
      </trkpt>
      <trkpt lat="46.1485" lon="2.44447">
        <ele>483</ele>
        <time>2015-04-16T14:06:23Z</time>
      </trkpt>
      <trkpt lat="46.14851" lon="2.44452">
        <ele>483</ele>
        <time>2015-04-16T14:06:26Z</time>
      </trkpt>
      <trkpt lat="46.14851" lon="2.44455">
        <ele>483</ele>
        <time>2015-04-16T14:06:28Z</time>
      </trkpt>
      <trkpt lat="46.14852" lon="2.44458">
        <ele>483</ele>
        <time>2015-04-16T14:06:30Z</time>
      </trkpt>
      <trkpt lat="46.14853" lon="2.44461">
        <ele>483</ele>
        <time>2015-04-16T14:06:32Z</time>
      </trkpt>
      <trkpt lat="46.14855" lon="2.44463">
        <ele>483</ele>
        <time>2015-04-16T14:06:34Z</time>
      </trkpt>
      <trkpt lat="46.14856" lon="2.44466">
        <ele>483</ele>
        <time>2015-04-16T14:06:36Z</time>
      </trkpt>
      <trkpt lat="46.14857" lon="2.4447">
        <ele>483</ele>
        <time>2015-04-16T14:06:38Z</time>
      </trkpt>
      <trkpt lat="46.14859" lon="2.44473">
        <ele>483</ele>
        <time>2015-04-16T14:06:40Z</time>
      </trkpt>
      <trkpt lat="46.14859" lon="2.44477">
        <ele>483</ele>
        <time>2015-04-16T14:06:42Z</time>
      </trkpt>
      <trkpt lat="46.1486" lon="2.4448">
        <ele>483</ele>
        <time>2015-04-16T14:06:44Z</time>
      </trkpt>
      <trkpt lat="46.14861" lon="2.44484">
        <ele>483</ele>
        <time>2015-04-16T14:06:47Z</time>
      </trkpt>
      <trkpt lat="46.14861" lon="2.44489">
        <ele>483</ele>
        <time>2015-04-16T14:06:50Z</time>
      </trkpt>
      <trkpt lat="46.14862" lon="2.44493">
        <ele>483</ele>
        <time>2015-04-16T14:06:52Z</time>
      </trkpt>
      <trkpt lat="46.14863" lon="2.44498">
        <ele>483</ele>
        <time>2015-04-16T14:06:54Z</time>
      </trkpt>
      <trkpt lat="46.14864" lon="2.44502">
        <ele>483</ele>
        <time>2015-04-16T14:06:56Z</time>
      </trkpt>
      <trkpt lat="46.14864" lon="2.44506">
        <ele>483</ele>
        <time>2015-04-16T14:06:58Z</time>
      </trkpt>
      <trkpt lat="46.14865" lon="2.44511">
        <ele>483</ele>
        <time>2015-04-16T14:07:00Z</time>
      </trkpt>
      <trkpt lat="46.14866" lon="2.44515">
        <ele>483</ele>
        <time>2015-04-16T14:07:02Z</time>
      </trkpt>
      <trkpt lat="46.14867" lon="2.44518">
        <ele>483</ele>
        <time>2015-04-16T14:07:04Z</time>
      </trkpt>
      <trkpt lat="46.14868" lon="2.44521">
        <ele>483</ele>
        <time>2015-04-16T14:07:07Z</time>
      </trkpt>
      <trkpt lat="46.1487" lon="2.44522">
        <ele>483</ele>
        <time>2015-04-16T14:07:09Z</time>
      </trkpt>
      <trkpt lat="46.14871" lon="2.44523">
        <ele>483</ele>
        <time>2015-04-16T14:07:11Z</time>
      </trkpt>
      <trkpt lat="46.14872" lon="2.44525">
        <ele>483</ele>
        <time>2015-04-16T14:07:13Z</time>
      </trkpt>
      <trkpt lat="46.14874" lon="2.44528">
        <ele>483</ele>
        <time>2015-04-16T14:07:15Z</time>
      </trkpt>
      <trkpt lat="46.14875" lon="2.44531">
        <ele>483</ele>
        <time>2015-04-16T14:07:17Z</time>
      </trkpt>
      <trkpt lat="46.14876" lon="2.44535">
        <ele>483</ele>
        <time>2015-04-16T14:07:19Z</time>
      </trkpt>
      <trkpt lat="46.14878" lon="2.44539">
        <ele>483</ele>
        <time>2015-04-16T14:07:22Z</time>
      </trkpt>
      <trkpt lat="46.14879" lon="2.44543">
        <ele>483</ele>
        <time>2015-04-16T14:07:24Z</time>
      </trkpt>
      <trkpt lat="46.14881" lon="2.44547">
        <ele>483</ele>
        <time>2015-04-16T14:07:27Z</time>
      </trkpt>
      <trkpt lat="46.14882" lon="2.4455">
        <ele>483</ele>
        <time>2015-04-16T14:07:29Z</time>
      </trkpt>
      <trkpt lat="46.14883" lon="2.44554">
        <ele>483</ele>
        <time>2015-04-16T14:07:31Z</time>
      </trkpt>
      <trkpt lat="46.14883" lon="2.44556">
        <ele>483</ele>
        <time>2015-04-16T14:07:33Z</time>
      </trkpt>
      <trkpt lat="46.14884" lon="2.44559">
        <ele>483</ele>
        <time>2015-04-16T14:07:35Z</time>
      </trkpt>
      <trkpt lat="46.14886" lon="2.44562">
        <ele>483</ele>
        <time>2015-04-16T14:07:38Z</time>
      </trkpt>
      <trkpt lat="46.14885" lon="2.44564">
        <ele>483</ele>
        <time>2015-04-16T14:07:42Z</time>
      </trkpt>
      <trkpt lat="46.14885" lon="2.44566">
        <ele>483</ele>
        <time>2015-04-16T14:07:45Z</time>
      </trkpt>
      <trkpt lat="46.14886" lon="2.44568">
        <ele>483</ele>
        <time>2015-04-16T14:07:47Z</time>
      </trkpt>
      <trkpt lat="46.14887" lon="2.44568">
        <ele>483</ele>
        <time>2015-04-16T14:07:49Z</time>
      </trkpt>
      <trkpt lat="46.14888" lon="2.44567">
        <ele>483</ele>
        <time>2015-04-16T14:07:55Z</time>
      </trkpt>
      <trkpt lat="46.14888" lon="2.44568">
        <ele>483</ele>
        <time>2015-04-16T14:08:03Z</time>
      </trkpt>
      <trkpt lat="46.1489" lon="2.44568">
        <ele>483</ele>
        <time>2015-04-16T14:08:06Z</time>
      </trkpt>
      <trkpt lat="46.14891" lon="2.44567">
        <ele>483</ele>
        <time>2015-04-16T14:08:08Z</time>
      </trkpt>
      <trkpt lat="46.14893" lon="2.44567">
        <ele>483</ele>
        <time>2015-04-16T14:08:10Z</time>
      </trkpt>
      <trkpt lat="46.14895" lon="2.44568">
        <ele>483</ele>
        <time>2015-04-16T14:08:14Z</time>
      </trkpt>
      <trkpt lat="46.14897" lon="2.44567">
        <ele>483</ele>
        <time>2015-04-16T14:08:16Z</time>
      </trkpt>
      <trkpt lat="46.149" lon="2.44566">
        <ele>483</ele>
        <time>2015-04-16T14:08:18Z</time>
      </trkpt>
      <trkpt lat="46.14903" lon="2.44565">
        <ele>483</ele>
        <time>2015-04-16T14:08:20Z</time>
      </trkpt>
      <trkpt lat="46.14905" lon="2.44565">
        <ele>483</ele>
        <time>2015-04-16T14:08:22Z</time>
      </trkpt>
      <trkpt lat="46.14908" lon="2.44566">
        <ele>483</ele>
        <time>2015-04-16T14:08:24Z</time>
      </trkpt>
      <trkpt lat="46.14911" lon="2.44565">
        <ele>483</ele>
        <time>2015-04-16T14:08:26Z</time>
      </trkpt>
      <trkpt lat="46.14913" lon="2.44564">
        <ele>483</ele>
        <time>2015-04-16T14:08:28Z</time>
      </trkpt>
      <trkpt lat="46.14915" lon="2.44563">
        <ele>482</ele>
        <time>2015-04-16T14:08:30Z</time>
      </trkpt>
      <trkpt lat="46.14918" lon="2.44562">
        <ele>482</ele>
        <time>2015-04-16T14:08:32Z</time>
      </trkpt>
      <trkpt lat="46.14921" lon="2.4456">
        <ele>481</ele>
        <time>2015-04-16T14:08:34Z</time>
      </trkpt>
      <trkpt lat="46.14924" lon="2.44558">
        <ele>480</ele>
        <time>2015-04-16T14:08:36Z</time>
      </trkpt>
      <trkpt lat="46.14927" lon="2.44555">
        <ele>480</ele>
        <time>2015-04-16T14:08:38Z</time>
      </trkpt>
      <trkpt lat="46.1493" lon="2.44553">
        <ele>480</ele>
        <time>2015-04-16T14:08:40Z</time>
      </trkpt>
      <trkpt lat="46.14933" lon="2.44551">
        <ele>479</ele>
        <time>2015-04-16T14:08:42Z</time>
      </trkpt>
      <trkpt lat="46.14935" lon="2.4455">
        <ele>479</ele>
        <time>2015-04-16T14:08:44Z</time>
      </trkpt>
      <trkpt lat="46.14939" lon="2.44547">
        <ele>478</ele>
        <time>2015-04-16T14:08:47Z</time>
      </trkpt>
      <trkpt lat="46.14941" lon="2.44547">
        <ele>478</ele>
        <time>2015-04-16T14:08:49Z</time>
      </trkpt>
      <trkpt lat="46.14944" lon="2.44545">
        <ele>478</ele>
        <time>2015-04-16T14:08:51Z</time>
      </trkpt>
      <trkpt lat="46.14946" lon="2.44543">
        <ele>477</ele>
        <time>2015-04-16T14:08:53Z</time>
      </trkpt>
      <trkpt lat="46.14951" lon="2.4454">
        <ele>477</ele>
        <time>2015-04-16T14:08:56Z</time>
      </trkpt>
      <trkpt lat="46.14953" lon="2.44538">
        <ele>477</ele>
        <time>2015-04-16T14:08:58Z</time>
      </trkpt>
      <trkpt lat="46.14956" lon="2.44537">
        <ele>477</ele>
        <time>2015-04-16T14:09:00Z</time>
      </trkpt>
      <trkpt lat="46.14959" lon="2.44535">
        <ele>476</ele>
        <time>2015-04-16T14:09:03Z</time>
      </trkpt>
      <trkpt lat="46.14962" lon="2.44534">
        <ele>476</ele>
        <time>2015-04-16T14:09:05Z</time>
      </trkpt>
      <trkpt lat="46.14965" lon="2.44533">
        <ele>476</ele>
        <time>2015-04-16T14:09:07Z</time>
      </trkpt>
      <trkpt lat="46.14967" lon="2.44531">
        <ele>476</ele>
        <time>2015-04-16T14:09:09Z</time>
      </trkpt>
      <trkpt lat="46.1497" lon="2.4453">
        <ele>476</ele>
        <time>2015-04-16T14:09:11Z</time>
      </trkpt>
      <trkpt lat="46.14973" lon="2.4453">
        <ele>475</ele>
        <time>2015-04-16T14:09:13Z</time>
      </trkpt>
      <trkpt lat="46.14976" lon="2.44529">
        <ele>475</ele>
        <time>2015-04-16T14:09:15Z</time>
      </trkpt>
      <trkpt lat="46.14979" lon="2.44528">
        <ele>475</ele>
        <time>2015-04-16T14:09:17Z</time>
      </trkpt>
      <trkpt lat="46.14982" lon="2.44527">
        <ele>474</ele>
        <time>2015-04-16T14:09:19Z</time>
      </trkpt>
      <trkpt lat="46.14985" lon="2.44526">
        <ele>474</ele>
        <time>2015-04-16T14:09:21Z</time>
      </trkpt>
      <trkpt lat="46.14988" lon="2.44526">
        <ele>474</ele>
        <time>2015-04-16T14:09:23Z</time>
      </trkpt>
      <trkpt lat="46.14991" lon="2.44526">
        <ele>474</ele>
        <time>2015-04-16T14:09:25Z</time>
      </trkpt>
      <trkpt lat="46.14994" lon="2.44525">
        <ele>474</ele>
        <time>2015-04-16T14:09:27Z</time>
      </trkpt>
      <trkpt lat="46.14997" lon="2.44525">
        <ele>473</ele>
        <time>2015-04-16T14:09:29Z</time>
      </trkpt>
      <trkpt lat="46.15" lon="2.44524">
        <ele>473</ele>
        <time>2015-04-16T14:09:31Z</time>
      </trkpt>
      <trkpt lat="46.15003" lon="2.44523">
        <ele>473</ele>
        <time>2015-04-16T14:09:33Z</time>
      </trkpt>
      <trkpt lat="46.15006" lon="2.44523">
        <ele>473</ele>
        <time>2015-04-16T14:09:35Z</time>
      </trkpt>
      <trkpt lat="46.15009" lon="2.44521">
        <ele>473</ele>
        <time>2015-04-16T14:09:37Z</time>
      </trkpt>
      <trkpt lat="46.15012" lon="2.44519">
        <ele>473</ele>
        <time>2015-04-16T14:09:39Z</time>
      </trkpt>
      <trkpt lat="46.15015" lon="2.44518">
        <ele>473</ele>
        <time>2015-04-16T14:09:41Z</time>
      </trkpt>
      <trkpt lat="46.15018" lon="2.44516">
        <ele>473</ele>
        <time>2015-04-16T14:09:43Z</time>
      </trkpt>
      <trkpt lat="46.15022" lon="2.44515">
        <ele>473</ele>
        <time>2015-04-16T14:09:46Z</time>
      </trkpt>
      <trkpt lat="46.15024" lon="2.44515">
        <ele>473</ele>
        <time>2015-04-16T14:09:48Z</time>
      </trkpt>
      <trkpt lat="46.15027" lon="2.44513">
        <ele>473</ele>
        <time>2015-04-16T14:09:50Z</time>
      </trkpt>
      <trkpt lat="46.1503" lon="2.44513">
        <ele>473</ele>
        <time>2015-04-16T14:09:52Z</time>
      </trkpt>
      <trkpt lat="46.15032" lon="2.44512">
        <ele>473</ele>
        <time>2015-04-16T14:09:54Z</time>
      </trkpt>
      <trkpt lat="46.15034" lon="2.44511">
        <ele>473</ele>
        <time>2015-04-16T14:09:56Z</time>
      </trkpt>
      <trkpt lat="46.15037" lon="2.4451">
        <ele>472</ele>
        <time>2015-04-16T14:09:58Z</time>
      </trkpt>
      <trkpt lat="46.1504" lon="2.44508">
        <ele>472</ele>
        <time>2015-04-16T14:10:00Z</time>
      </trkpt>
      <trkpt lat="46.15042" lon="2.44507">
        <ele>471</ele>
        <time>2015-04-16T14:10:02Z</time>
      </trkpt>
      <trkpt lat="46.15045" lon="2.44505">
        <ele>470</ele>
        <time>2015-04-16T14:10:04Z</time>
      </trkpt>
      <trkpt lat="46.15048" lon="2.44504">
        <ele>470</ele>
        <time>2015-04-16T14:10:07Z</time>
      </trkpt>
      <trkpt lat="46.15051" lon="2.44501">
        <ele>470</ele>
        <time>2015-04-16T14:10:09Z</time>
      </trkpt>
      <trkpt lat="46.15053" lon="2.445">
        <ele>470</ele>
        <time>2015-04-16T14:10:11Z</time>
      </trkpt>
      <trkpt lat="46.15056" lon="2.44499">
        <ele>470</ele>
        <time>2015-04-16T14:10:13Z</time>
      </trkpt>
      <trkpt lat="46.15058" lon="2.44498">
        <ele>470</ele>
        <time>2015-04-16T14:10:15Z</time>
      </trkpt>
      <trkpt lat="46.15062" lon="2.44498">
        <ele>470</ele>
        <time>2015-04-16T14:10:18Z</time>
      </trkpt>
      <trkpt lat="46.15065" lon="2.44498">
        <ele>470</ele>
        <time>2015-04-16T14:10:20Z</time>
      </trkpt>
      <trkpt lat="46.15068" lon="2.44498">
        <ele>470</ele>
        <time>2015-04-16T14:10:22Z</time>
      </trkpt>
      <trkpt lat="46.1507" lon="2.445">
        <ele>470</ele>
        <time>2015-04-16T14:10:24Z</time>
      </trkpt>
      <trkpt lat="46.15073" lon="2.44501">
        <ele>470</ele>
        <time>2015-04-16T14:10:26Z</time>
      </trkpt>
      <trkpt lat="46.15075" lon="2.44504">
        <ele>470</ele>
        <time>2015-04-16T14:10:28Z</time>
      </trkpt>
      <trkpt lat="46.15077" lon="2.44507">
        <ele>470</ele>
        <time>2015-04-16T14:10:31Z</time>
      </trkpt>
      <trkpt lat="46.15079" lon="2.44508">
        <ele>470</ele>
        <time>2015-04-16T14:10:33Z</time>
      </trkpt>
      <trkpt lat="46.15081" lon="2.44508">
        <ele>470</ele>
        <time>2015-04-16T14:10:35Z</time>
      </trkpt>
      <trkpt lat="46.15084" lon="2.4451">
        <ele>470</ele>
        <time>2015-04-16T14:10:38Z</time>
      </trkpt>
      <trkpt lat="46.15087" lon="2.44511">
        <ele>470</ele>
        <time>2015-04-16T14:10:40Z</time>
      </trkpt>
      <trkpt lat="46.1509" lon="2.44514">
        <ele>470</ele>
        <time>2015-04-16T14:10:43Z</time>
      </trkpt>
      <trkpt lat="46.15092" lon="2.44515">
        <ele>471</ele>
        <time>2015-04-16T14:10:45Z</time>
      </trkpt>
      <trkpt lat="46.15095" lon="2.44516">
        <ele>472</ele>
        <time>2015-04-16T14:10:47Z</time>
      </trkpt>
      <trkpt lat="46.15098" lon="2.44518">
        <ele>472</ele>
        <time>2015-04-16T14:10:49Z</time>
      </trkpt>
      <trkpt lat="46.151" lon="2.44521">
        <ele>472</ele>
        <time>2015-04-16T14:10:52Z</time>
      </trkpt>
      <trkpt lat="46.15103" lon="2.44522">
        <ele>472</ele>
        <time>2015-04-16T14:10:54Z</time>
      </trkpt>
      <trkpt lat="46.15105" lon="2.44524">
        <ele>472</ele>
        <time>2015-04-16T14:10:56Z</time>
      </trkpt>
      <trkpt lat="46.15107" lon="2.44525">
        <ele>472</ele>
        <time>2015-04-16T14:10:58Z</time>
      </trkpt>
      <trkpt lat="46.15108" lon="2.44526">
        <ele>472</ele>
        <time>2015-04-16T14:11:00Z</time>
      </trkpt>
      <trkpt lat="46.1511" lon="2.44527">
        <ele>472</ele>
        <time>2015-04-16T14:11:02Z</time>
      </trkpt>
      <trkpt lat="46.15112" lon="2.44528">
        <ele>472</ele>
        <time>2015-04-16T14:11:04Z</time>
      </trkpt>
      <trkpt lat="46.15113" lon="2.44529">
        <ele>472</ele>
        <time>2015-04-16T14:11:06Z</time>
      </trkpt>
      <trkpt lat="46.15115" lon="2.4453">
        <ele>472</ele>
        <time>2015-04-16T14:11:11Z</time>
      </trkpt>
      <trkpt lat="46.15116" lon="2.44532">
        <ele>474</ele>
        <time>2015-04-16T14:11:16Z</time>
      </trkpt>
      <trkpt lat="46.15118" lon="2.44533">
        <ele>474</ele>
        <time>2015-04-16T14:11:18Z</time>
      </trkpt>
      <trkpt lat="46.1512" lon="2.44536">
        <ele>475</ele>
        <time>2015-04-16T14:11:20Z</time>
      </trkpt>
      <trkpt lat="46.15122" lon="2.44537">
        <ele>475</ele>
        <time>2015-04-16T14:11:22Z</time>
      </trkpt>
      <trkpt lat="46.15124" lon="2.44535">
        <ele>476</ele>
        <time>2015-04-16T14:11:24Z</time>
      </trkpt>
      <trkpt lat="46.15125" lon="2.44534">
        <ele>476</ele>
        <time>2015-04-16T14:11:26Z</time>
      </trkpt>
      <trkpt lat="46.15127" lon="2.44534">
        <ele>476</ele>
        <time>2015-04-16T14:11:29Z</time>
      </trkpt>
      <trkpt lat="46.15128" lon="2.44535">
        <ele>476</ele>
        <time>2015-04-16T14:11:31Z</time>
      </trkpt>
      <trkpt lat="46.1513" lon="2.44537">
        <ele>476</ele>
        <time>2015-04-16T14:11:33Z</time>
      </trkpt>
      <trkpt lat="46.15132" lon="2.44538">
        <ele>476</ele>
        <time>2015-04-16T14:11:35Z</time>
      </trkpt>
      <trkpt lat="46.15134" lon="2.4454">
        <ele>476</ele>
        <time>2015-04-16T14:11:37Z</time>
      </trkpt>
      <trkpt lat="46.15136" lon="2.44544">
        <ele>476</ele>
        <time>2015-04-16T14:11:40Z</time>
      </trkpt>
      <trkpt lat="46.15138" lon="2.44547">
        <ele>476</ele>
        <time>2015-04-16T14:11:42Z</time>
      </trkpt>
      <trkpt lat="46.15139" lon="2.44548">
        <ele>476</ele>
        <time>2015-04-16T14:11:44Z</time>
      </trkpt>
      <trkpt lat="46.1514" lon="2.44549">
        <ele>476</ele>
        <time>2015-04-16T14:11:46Z</time>
      </trkpt>
      <trkpt lat="46.15143" lon="2.4455">
        <ele>477</ele>
        <time>2015-04-16T14:11:49Z</time>
      </trkpt>
      <trkpt lat="46.15144" lon="2.44551">
        <ele>477</ele>
        <time>2015-04-16T14:11:52Z</time>
      </trkpt>
      <trkpt lat="46.15145" lon="2.44553">
        <ele>477</ele>
        <time>2015-04-16T14:11:54Z</time>
      </trkpt>
      <trkpt lat="46.15148" lon="2.44556">
        <ele>478</ele>
        <time>2015-04-16T14:11:56Z</time>
      </trkpt>
      <trkpt lat="46.1515" lon="2.44557">
        <ele>478</ele>
        <time>2015-04-16T14:11:58Z</time>
      </trkpt>
      <trkpt lat="46.15152" lon="2.4456">
        <ele>478</ele>
        <time>2015-04-16T14:12:00Z</time>
      </trkpt>
      <trkpt lat="46.15154" lon="2.44565">
        <ele>478</ele>
        <time>2015-04-16T14:12:03Z</time>
      </trkpt>
      <trkpt lat="46.15155" lon="2.44567">
        <ele>478</ele>
        <time>2015-04-16T14:12:05Z</time>
      </trkpt>
      <trkpt lat="46.15157" lon="2.44569">
        <ele>478</ele>
        <time>2015-04-16T14:12:07Z</time>
      </trkpt>
      <trkpt lat="46.15157" lon="2.4457">
        <ele>477</ele>
        <time>2015-04-16T14:12:09Z</time>
      </trkpt>
      <trkpt lat="46.15159" lon="2.44573">
        <ele>476</ele>
        <time>2015-04-16T14:12:11Z</time>
      </trkpt>
      <trkpt lat="46.15161" lon="2.44576">
        <ele>475</ele>
        <time>2015-04-16T14:12:13Z</time>
      </trkpt>
      <trkpt lat="46.15162" lon="2.44579">
        <ele>474</ele>
        <time>2015-04-16T14:12:15Z</time>
      </trkpt>
      <trkpt lat="46.15165" lon="2.44584">
        <ele>473</ele>
        <time>2015-04-16T14:12:17Z</time>
      </trkpt>
      <trkpt lat="46.15166" lon="2.44587">
        <ele>472</ele>
        <time>2015-04-16T14:12:19Z</time>
      </trkpt>
      <trkpt lat="46.15168" lon="2.44591">
        <ele>472</ele>
        <time>2015-04-16T14:12:21Z</time>
      </trkpt>
      <trkpt lat="46.15171" lon="2.44596">
        <ele>471</ele>
        <time>2015-04-16T14:12:24Z</time>
      </trkpt>
      <trkpt lat="46.15174" lon="2.44601">
        <ele>471</ele>
        <time>2015-04-16T14:12:27Z</time>
      </trkpt>
      <trkpt lat="46.15176" lon="2.44604">
        <ele>471</ele>
        <time>2015-04-16T14:12:29Z</time>
      </trkpt>
      <trkpt lat="46.15178" lon="2.44606">
        <ele>471</ele>
        <time>2015-04-16T14:12:31Z</time>
      </trkpt>
      <trkpt lat="46.1518" lon="2.4461">
        <ele>471</ele>
        <time>2015-04-16T14:12:33Z</time>
      </trkpt>
      <trkpt lat="46.15183" lon="2.44612">
        <ele>471</ele>
        <time>2015-04-16T14:12:35Z</time>
      </trkpt>
      <trkpt lat="46.15186" lon="2.44614">
        <ele>471</ele>
        <time>2015-04-16T14:12:38Z</time>
      </trkpt>
      <trkpt lat="46.15188" lon="2.44616">
        <ele>470</ele>
        <time>2015-04-16T14:12:40Z</time>
      </trkpt>
      <trkpt lat="46.15191" lon="2.44619">
        <ele>469</ele>
        <time>2015-04-16T14:12:43Z</time>
      </trkpt>
      <trkpt lat="46.15194" lon="2.44621">
        <ele>468</ele>
        <time>2015-04-16T14:12:45Z</time>
      </trkpt>
      <trkpt lat="46.15197" lon="2.44623">
        <ele>468</ele>
        <time>2015-04-16T14:12:47Z</time>
      </trkpt>
      <trkpt lat="46.15199" lon="2.44625">
        <ele>468</ele>
        <time>2015-04-16T14:12:49Z</time>
      </trkpt>
      <trkpt lat="46.15202" lon="2.44627">
        <ele>467</ele>
        <time>2015-04-16T14:12:51Z</time>
      </trkpt>
      <trkpt lat="46.15205" lon="2.44629">
        <ele>467</ele>
        <time>2015-04-16T14:12:53Z</time>
      </trkpt>
      <trkpt lat="46.15207" lon="2.44631">
        <ele>467</ele>
        <time>2015-04-16T14:12:55Z</time>
      </trkpt>
      <trkpt lat="46.1521" lon="2.44632">
        <ele>467</ele>
        <time>2015-04-16T14:12:57Z</time>
      </trkpt>
      <trkpt lat="46.15212" lon="2.44634">
        <ele>467</ele>
        <time>2015-04-16T14:12:59Z</time>
      </trkpt>
      <trkpt lat="46.15214" lon="2.44636">
        <ele>467</ele>
        <time>2015-04-16T14:13:01Z</time>
      </trkpt>
      <trkpt lat="46.15216" lon="2.44636">
        <ele>467</ele>
        <time>2015-04-16T14:13:03Z</time>
      </trkpt>
      <trkpt lat="46.15218" lon="2.44639">
        <ele>468</ele>
        <time>2015-04-16T14:13:06Z</time>
      </trkpt>
      <trkpt lat="46.15221" lon="2.44643">
        <ele>469</ele>
        <time>2015-04-16T14:13:08Z</time>
      </trkpt>
      <trkpt lat="46.15223" lon="2.44646">
        <ele>470</ele>
        <time>2015-04-16T14:13:10Z</time>
      </trkpt>
      <trkpt lat="46.15227" lon="2.44648">
        <ele>471</ele>
        <time>2015-04-16T14:13:12Z</time>
      </trkpt>
      <trkpt lat="46.1523" lon="2.4465">
        <ele>472</ele>
        <time>2015-04-16T14:13:14Z</time>
      </trkpt>
      <trkpt lat="46.15233" lon="2.44655">
        <ele>473</ele>
        <time>2015-04-16T14:13:17Z</time>
      </trkpt>
      <trkpt lat="46.15236" lon="2.44657">
        <ele>474</ele>
        <time>2015-04-16T14:13:19Z</time>
      </trkpt>
      <trkpt lat="46.15239" lon="2.44658">
        <ele>475</ele>
        <time>2015-04-16T14:13:21Z</time>
      </trkpt>
      <trkpt lat="46.15241" lon="2.4466">
        <ele>477</ele>
        <time>2015-04-16T14:13:23Z</time>
      </trkpt>
      <trkpt lat="46.15245" lon="2.44663">
        <ele>477</ele>
        <time>2015-04-16T14:13:26Z</time>
      </trkpt>
      <trkpt lat="46.15248" lon="2.44666">
        <ele>477</ele>
        <time>2015-04-16T14:13:28Z</time>
      </trkpt>
      <trkpt lat="46.15251" lon="2.4467">
        <ele>477</ele>
        <time>2015-04-16T14:13:30Z</time>
      </trkpt>
      <trkpt lat="46.15255" lon="2.44672">
        <ele>478</ele>
        <time>2015-04-16T14:13:33Z</time>
      </trkpt>
      <trkpt lat="46.15258" lon="2.44674">
        <ele>478</ele>
        <time>2015-04-16T14:13:35Z</time>
      </trkpt>
      <trkpt lat="46.15262" lon="2.44674">
        <ele>479</ele>
        <time>2015-04-16T14:13:38Z</time>
      </trkpt>
      <trkpt lat="46.15263" lon="2.44676">
        <ele>480</ele>
        <time>2015-04-16T14:13:40Z</time>
      </trkpt>
      <trkpt lat="46.15267" lon="2.44678">
        <ele>481</ele>
        <time>2015-04-16T14:13:43Z</time>
      </trkpt>
      <trkpt lat="46.1527" lon="2.4468">
        <ele>481</ele>
        <time>2015-04-16T14:13:45Z</time>
      </trkpt>
      <trkpt lat="46.15273" lon="2.44682">
        <ele>481</ele>
        <time>2015-04-16T14:13:47Z</time>
      </trkpt>
      <trkpt lat="46.15275" lon="2.44684">
        <ele>481</ele>
        <time>2015-04-16T14:13:49Z</time>
      </trkpt>
      <trkpt lat="46.15277" lon="2.44687">
        <ele>481</ele>
        <time>2015-04-16T14:13:51Z</time>
      </trkpt>
      <trkpt lat="46.1528" lon="2.4469">
        <ele>481</ele>
        <time>2015-04-16T14:13:53Z</time>
      </trkpt>
      <trkpt lat="46.15282" lon="2.44694">
        <ele>481</ele>
        <time>2015-04-16T14:13:55Z</time>
      </trkpt>
      <trkpt lat="46.15284" lon="2.44697">
        <ele>481</ele>
        <time>2015-04-16T14:13:57Z</time>
      </trkpt>
      <trkpt lat="46.15287" lon="2.44697">
        <ele>481</ele>
        <time>2015-04-16T14:13:59Z</time>
      </trkpt>
      <trkpt lat="46.15289" lon="2.44699">
        <ele>481</ele>
        <time>2015-04-16T14:14:01Z</time>
      </trkpt>
      <trkpt lat="46.15292" lon="2.44702">
        <ele>481</ele>
        <time>2015-04-16T14:14:04Z</time>
      </trkpt>
      <trkpt lat="46.15295" lon="2.44704">
        <ele>481</ele>
        <time>2015-04-16T14:14:07Z</time>
      </trkpt>
      <trkpt lat="46.15298" lon="2.44707">
        <ele>481</ele>
        <time>2015-04-16T14:14:09Z</time>
      </trkpt>
      <trkpt lat="46.153" lon="2.4471">
        <ele>481</ele>
        <time>2015-04-16T14:14:11Z</time>
      </trkpt>
      <trkpt lat="46.15302" lon="2.44714">
        <ele>481</ele>
        <time>2015-04-16T14:14:14Z</time>
      </trkpt>
      <trkpt lat="46.15305" lon="2.44716">
        <ele>480</ele>
        <time>2015-04-16T14:14:16Z</time>
      </trkpt>
      <trkpt lat="46.15306" lon="2.44718">
        <ele>480</ele>
        <time>2015-04-16T14:14:18Z</time>
      </trkpt>
      <trkpt lat="46.15308" lon="2.44722">
        <ele>480</ele>
        <time>2015-04-16T14:14:20Z</time>
      </trkpt>
      <trkpt lat="46.15311" lon="2.44725">
        <ele>480</ele>
        <time>2015-04-16T14:14:22Z</time>
      </trkpt>
      <trkpt lat="46.15313" lon="2.44728">
        <ele>479</ele>
        <time>2015-04-16T14:14:24Z</time>
      </trkpt>
      <trkpt lat="46.15315" lon="2.4473">
        <ele>479</ele>
        <time>2015-04-16T14:14:26Z</time>
      </trkpt>
      <trkpt lat="46.15317" lon="2.44733">
        <ele>479</ele>
        <time>2015-04-16T14:14:28Z</time>
      </trkpt>
      <trkpt lat="46.1532" lon="2.44734">
        <ele>479</ele>
        <time>2015-04-16T14:14:30Z</time>
      </trkpt>
      <trkpt lat="46.15323" lon="2.44736">
        <ele>479</ele>
        <time>2015-04-16T14:14:32Z</time>
      </trkpt>
      <trkpt lat="46.15326" lon="2.44737">
        <ele>479</ele>
        <time>2015-04-16T14:14:34Z</time>
      </trkpt>
      <trkpt lat="46.15328" lon="2.44739">
        <ele>479</ele>
        <time>2015-04-16T14:14:36Z</time>
      </trkpt>
      <trkpt lat="46.1533" lon="2.44742">
        <ele>479</ele>
        <time>2015-04-16T14:14:38Z</time>
      </trkpt>
      <trkpt lat="46.15332" lon="2.44744">
        <ele>478</ele>
        <time>2015-04-16T14:14:40Z</time>
      </trkpt>
      <trkpt lat="46.15334" lon="2.44746">
        <ele>477</ele>
        <time>2015-04-16T14:14:42Z</time>
      </trkpt>
      <trkpt lat="46.15337" lon="2.44749">
        <ele>476</ele>
        <time>2015-04-16T14:14:44Z</time>
      </trkpt>
      <trkpt lat="46.15339" lon="2.44751">
        <ele>476</ele>
        <time>2015-04-16T14:14:46Z</time>
      </trkpt>
      <trkpt lat="46.15342" lon="2.44752">
        <ele>475</ele>
        <time>2015-04-16T14:14:48Z</time>
      </trkpt>
      <trkpt lat="46.15345" lon="2.44754">
        <ele>475</ele>
        <time>2015-04-16T14:14:51Z</time>
      </trkpt>
      <trkpt lat="46.15347" lon="2.44756">
        <ele>475</ele>
        <time>2015-04-16T14:14:53Z</time>
      </trkpt>
      <trkpt lat="46.15349" lon="2.44757">
        <ele>475</ele>
        <time>2015-04-16T14:14:55Z</time>
      </trkpt>
      <trkpt lat="46.15352" lon="2.44759">
        <ele>474</ele>
        <time>2015-04-16T14:14:57Z</time>
      </trkpt>
      <trkpt lat="46.15355" lon="2.4476">
        <ele>474</ele>
        <time>2015-04-16T14:15:00Z</time>
      </trkpt>
      <trkpt lat="46.15355" lon="2.44761">
        <ele>473</ele>
        <time>2015-04-16T14:15:03Z</time>
      </trkpt>
      <trkpt lat="46.15355" lon="2.44763">
        <ele>473</ele>
        <time>2015-04-16T14:15:05Z</time>
      </trkpt>
      <trkpt lat="46.15354" lon="2.44765">
        <ele>472</ele>
        <time>2015-04-16T14:15:10Z</time>
      </trkpt>
      <trkpt lat="46.15355" lon="2.44767">
        <ele>473</ele>
        <time>2015-04-16T14:15:23Z</time>
      </trkpt>
      <trkpt lat="46.15354" lon="2.44768">
        <ele>476</ele>
        <time>2015-04-16T14:15:29Z</time>
      </trkpt>
      <trkpt lat="46.15353" lon="2.44769">
        <ele>478</ele>
        <time>2015-04-16T14:15:31Z</time>
      </trkpt>
      <trkpt lat="46.15351" lon="2.44769">
        <ele>480</ele>
        <time>2015-04-16T14:15:33Z</time>
      </trkpt>
      <trkpt lat="46.1535" lon="2.44769">
        <ele>482</ele>
        <time>2015-04-16T14:15:36Z</time>
      </trkpt>
      <trkpt lat="46.15349" lon="2.44768">
        <ele>484</ele>
        <time>2015-04-16T14:15:39Z</time>
      </trkpt>
      <trkpt lat="46.15348" lon="2.44766">
        <ele>486</ele>
        <time>2015-04-16T14:15:44Z</time>
      </trkpt>
      <trkpt lat="46.15349" lon="2.44767">
        <ele>486</ele>
        <time>2015-04-16T14:15:55Z</time>
      </trkpt>
      <trkpt lat="46.1535" lon="2.44769">
        <ele>486</ele>
        <time>2015-04-16T14:16:01Z</time>
      </trkpt>
      <trkpt lat="46.15363" lon="2.44776">
        <ele>478</ele>
        <time>2015-04-16T14:16:06Z</time>
      </trkpt>
      <trkpt lat="46.15366" lon="2.44776">
        <ele>478</ele>
        <time>2015-04-16T14:16:08Z</time>
      </trkpt>
      <trkpt lat="46.15369" lon="2.44776">
        <ele>478</ele>
        <time>2015-04-16T14:16:10Z</time>
      </trkpt>
      <trkpt lat="46.15371" lon="2.44776">
        <ele>478</ele>
        <time>2015-04-16T14:16:12Z</time>
      </trkpt>
      <trkpt lat="46.15375" lon="2.44777">
        <ele>478</ele>
        <time>2015-04-16T14:16:15Z</time>
      </trkpt>
      <trkpt lat="46.15378" lon="2.44777">
        <ele>478</ele>
        <time>2015-04-16T14:16:17Z</time>
      </trkpt>
      <trkpt lat="46.15381" lon="2.44777">
        <ele>477</ele>
        <time>2015-04-16T14:16:19Z</time>
      </trkpt>
      <trkpt lat="46.15383" lon="2.44778">
        <ele>477</ele>
        <time>2015-04-16T14:16:21Z</time>
      </trkpt>
      <trkpt lat="46.15387" lon="2.44778">
        <ele>476</ele>
        <time>2015-04-16T14:16:23Z</time>
      </trkpt>
      <trkpt lat="46.1539" lon="2.44778">
        <ele>475</ele>
        <time>2015-04-16T14:16:25Z</time>
      </trkpt>
      <trkpt lat="46.15392" lon="2.44778">
        <ele>475</ele>
        <time>2015-04-16T14:16:27Z</time>
      </trkpt>
      <trkpt lat="46.15395" lon="2.44778">
        <ele>475</ele>
        <time>2015-04-16T14:16:30Z</time>
      </trkpt>
      <trkpt lat="46.15399" lon="2.44779">
        <ele>474</ele>
        <time>2015-04-16T14:16:33Z</time>
      </trkpt>
      <trkpt lat="46.15403" lon="2.44781">
        <ele>474</ele>
        <time>2015-04-16T14:16:36Z</time>
      </trkpt>
      <trkpt lat="46.15404" lon="2.44781">
        <ele>474</ele>
        <time>2015-04-16T14:16:40Z</time>
      </trkpt>
      <trkpt lat="46.15407" lon="2.44781">
        <ele>474</ele>
        <time>2015-04-16T14:16:42Z</time>
      </trkpt>
      <trkpt lat="46.15409" lon="2.4478">
        <ele>474</ele>
        <time>2015-04-16T14:16:45Z</time>
      </trkpt>
      <trkpt lat="46.15413" lon="2.44779">
        <ele>474</ele>
        <time>2015-04-16T14:16:48Z</time>
      </trkpt>
      <trkpt lat="46.15416" lon="2.44779">
        <ele>474</ele>
        <time>2015-04-16T14:16:50Z</time>
      </trkpt>
      <trkpt lat="46.15419" lon="2.44781">
        <ele>474</ele>
        <time>2015-04-16T14:16:52Z</time>
      </trkpt>
      <trkpt lat="46.15422" lon="2.44783">
        <ele>474</ele>
        <time>2015-04-16T14:16:54Z</time>
      </trkpt>
      <trkpt lat="46.15425" lon="2.44784">
        <ele>474</ele>
        <time>2015-04-16T14:16:56Z</time>
      </trkpt>
      <trkpt lat="46.15428" lon="2.44785">
        <ele>474</ele>
        <time>2015-04-16T14:16:58Z</time>
      </trkpt>
      <trkpt lat="46.15431" lon="2.44786">
        <ele>474</ele>
        <time>2015-04-16T14:17:00Z</time>
      </trkpt>
      <trkpt lat="46.15435" lon="2.44785">
        <ele>474</ele>
        <time>2015-04-16T14:17:02Z</time>
      </trkpt>
      <trkpt lat="46.1544" lon="2.44783">
        <ele>474</ele>
        <time>2015-04-16T14:17:04Z</time>
      </trkpt>
      <trkpt lat="46.15443" lon="2.44782">
        <ele>474</ele>
        <time>2015-04-16T14:17:06Z</time>
      </trkpt>
      <trkpt lat="46.15445" lon="2.44783">
        <ele>474</ele>
        <time>2015-04-16T14:17:08Z</time>
      </trkpt>
      <trkpt lat="46.15448" lon="2.44782">
        <ele>474</ele>
        <time>2015-04-16T14:17:10Z</time>
      </trkpt>
      <trkpt lat="46.1545" lon="2.44781">
        <ele>474</ele>
        <time>2015-04-16T14:17:12Z</time>
      </trkpt>
      <trkpt lat="46.15452" lon="2.44782">
        <ele>474</ele>
        <time>2015-04-16T14:17:14Z</time>
      </trkpt>
      <trkpt lat="46.15454" lon="2.44784">
        <ele>474</ele>
        <time>2015-04-16T14:17:16Z</time>
      </trkpt>
      <trkpt lat="46.15456" lon="2.44785">
        <ele>474</ele>
        <time>2015-04-16T14:17:18Z</time>
      </trkpt>
      <trkpt lat="46.1546" lon="2.44785">
        <ele>474</ele>
        <time>2015-04-16T14:17:20Z</time>
      </trkpt>
      <trkpt lat="46.15463" lon="2.44784">
        <ele>474</ele>
        <time>2015-04-16T14:17:22Z</time>
      </trkpt>
      <trkpt lat="46.15467" lon="2.44782">
        <ele>474</ele>
        <time>2015-04-16T14:17:24Z</time>
      </trkpt>
      <trkpt lat="46.15471" lon="2.44781">
        <ele>474</ele>
        <time>2015-04-16T14:17:26Z</time>
      </trkpt>
      <trkpt lat="46.15474" lon="2.4478">
        <ele>474</ele>
        <time>2015-04-16T14:17:28Z</time>
      </trkpt>
      <trkpt lat="46.15475" lon="2.44781">
        <ele>474</ele>
        <time>2015-04-16T14:17:30Z</time>
      </trkpt>
      <trkpt lat="46.15477" lon="2.44781">
        <ele>474</ele>
        <time>2015-04-16T14:17:32Z</time>
      </trkpt>
      <trkpt lat="46.15478" lon="2.44782">
        <ele>474</ele>
        <time>2015-04-16T14:17:35Z</time>
      </trkpt>
      <trkpt lat="46.15479" lon="2.44783">
        <ele>474</ele>
        <time>2015-04-16T14:17:37Z</time>
      </trkpt>
      <trkpt lat="46.1548" lon="2.44785">
        <ele>474</ele>
        <time>2015-04-16T14:17:39Z</time>
      </trkpt>
      <trkpt lat="46.15482" lon="2.44785">
        <ele>474</ele>
        <time>2015-04-16T14:17:41Z</time>
      </trkpt>
      <trkpt lat="46.15487" lon="2.44785">
        <ele>474</ele>
        <time>2015-04-16T14:17:43Z</time>
      </trkpt>
      <trkpt lat="46.1549" lon="2.44786">
        <ele>474</ele>
        <time>2015-04-16T14:17:45Z</time>
      </trkpt>
      <trkpt lat="46.15493" lon="2.44787">
        <ele>474</ele>
        <time>2015-04-16T14:17:47Z</time>
      </trkpt>
      <trkpt lat="46.15496" lon="2.44786">
        <ele>474</ele>
        <time>2015-04-16T14:17:49Z</time>
      </trkpt>
      <trkpt lat="46.15498" lon="2.44787">
        <ele>474</ele>
        <time>2015-04-16T14:17:51Z</time>
      </trkpt>
      <trkpt lat="46.155" lon="2.44788">
        <ele>473</ele>
        <time>2015-04-16T14:17:53Z</time>
      </trkpt>
      <trkpt lat="46.15501" lon="2.4479">
        <ele>473</ele>
        <time>2015-04-16T14:17:55Z</time>
      </trkpt>
      <trkpt lat="46.15504" lon="2.44792">
        <ele>472</ele>
        <time>2015-04-16T14:17:57Z</time>
      </trkpt>
      <trkpt lat="46.15507" lon="2.44793">
        <ele>471</ele>
        <time>2015-04-16T14:17:59Z</time>
      </trkpt>
      <trkpt lat="46.1551" lon="2.44795">
        <ele>470</ele>
        <time>2015-04-16T14:18:01Z</time>
      </trkpt>
      <trkpt lat="46.15512" lon="2.44796">
        <ele>470</ele>
        <time>2015-04-16T14:18:03Z</time>
      </trkpt>
      <trkpt lat="46.15515" lon="2.44797">
        <ele>469</ele>
        <time>2015-04-16T14:18:05Z</time>
      </trkpt>
      <trkpt lat="46.15518" lon="2.44798">
        <ele>468</ele>
        <time>2015-04-16T14:18:07Z</time>
      </trkpt>
      <trkpt lat="46.1552" lon="2.44801">
        <ele>467</ele>
        <time>2015-04-16T14:18:09Z</time>
      </trkpt>
      <trkpt lat="46.15523" lon="2.44803">
        <ele>466</ele>
        <time>2015-04-16T14:18:11Z</time>
      </trkpt>
      <trkpt lat="46.15526" lon="2.44806">
        <ele>465</ele>
        <time>2015-04-16T14:18:14Z</time>
      </trkpt>
      <trkpt lat="46.15528" lon="2.44808">
        <ele>464</ele>
        <time>2015-04-16T14:18:16Z</time>
      </trkpt>
      <trkpt lat="46.1553" lon="2.4481">
        <ele>463</ele>
        <time>2015-04-16T14:18:18Z</time>
      </trkpt>
      <trkpt lat="46.15533" lon="2.44811">
        <ele>462</ele>
        <time>2015-04-16T14:18:20Z</time>
      </trkpt>
      <trkpt lat="46.15536" lon="2.44813">
        <ele>461</ele>
        <time>2015-04-16T14:18:22Z</time>
      </trkpt>
      <trkpt lat="46.15539" lon="2.44814">
        <ele>460</ele>
        <time>2015-04-16T14:18:24Z</time>
      </trkpt>
      <trkpt lat="46.15541" lon="2.44816">
        <ele>459</ele>
        <time>2015-04-16T14:18:26Z</time>
      </trkpt>
      <trkpt lat="46.15543" lon="2.44819">
        <ele>458</ele>
        <time>2015-04-16T14:18:28Z</time>
      </trkpt>
      <trkpt lat="46.15546" lon="2.44819">
        <ele>457</ele>
        <time>2015-04-16T14:18:30Z</time>
      </trkpt>
      <trkpt lat="46.15548" lon="2.44821">
        <ele>456</ele>
        <time>2015-04-16T14:18:33Z</time>
      </trkpt>
      <trkpt lat="46.15552" lon="2.44822">
        <ele>456</ele>
        <time>2015-04-16T14:18:36Z</time>
      </trkpt>
      <trkpt lat="46.15556" lon="2.44823">
        <ele>456</ele>
        <time>2015-04-16T14:18:38Z</time>
      </trkpt>
      <trkpt lat="46.15559" lon="2.44824">
        <ele>456</ele>
        <time>2015-04-16T14:18:40Z</time>
      </trkpt>
      <trkpt lat="46.15562" lon="2.44824">
        <ele>456</ele>
        <time>2015-04-16T14:18:42Z</time>
      </trkpt>
      <trkpt lat="46.15565" lon="2.44827">
        <ele>456</ele>
        <time>2015-04-16T14:18:45Z</time>
      </trkpt>
      <trkpt lat="46.15568" lon="2.44829">
        <ele>456</ele>
        <time>2015-04-16T14:18:47Z</time>
      </trkpt>
      <trkpt lat="46.15571" lon="2.44831">
        <ele>456</ele>
        <time>2015-04-16T14:18:49Z</time>
      </trkpt>
      <trkpt lat="46.15574" lon="2.44833">
        <ele>456</ele>
        <time>2015-04-16T14:18:51Z</time>
      </trkpt>
      <trkpt lat="46.15576" lon="2.44834">
        <ele>456</ele>
        <time>2015-04-16T14:18:53Z</time>
      </trkpt>
      <trkpt lat="46.15579" lon="2.44836">
        <ele>456</ele>
        <time>2015-04-16T14:18:55Z</time>
      </trkpt>
      <trkpt lat="46.15581" lon="2.44838">
        <ele>456</ele>
        <time>2015-04-16T14:18:57Z</time>
      </trkpt>
      <trkpt lat="46.15584" lon="2.4484">
        <ele>456</ele>
        <time>2015-04-16T14:18:59Z</time>
      </trkpt>
      <trkpt lat="46.15586" lon="2.44842">
        <ele>456</ele>
        <time>2015-04-16T14:19:01Z</time>
      </trkpt>
      <trkpt lat="46.15588" lon="2.44844">
        <ele>456</ele>
        <time>2015-04-16T14:19:03Z</time>
      </trkpt>
      <trkpt lat="46.15591" lon="2.44846">
        <ele>456</ele>
        <time>2015-04-16T14:19:05Z</time>
      </trkpt>
      <trkpt lat="46.15594" lon="2.44847">
        <ele>456</ele>
        <time>2015-04-16T14:19:07Z</time>
      </trkpt>
      <trkpt lat="46.15596" lon="2.44847">
        <ele>456</ele>
        <time>2015-04-16T14:19:09Z</time>
      </trkpt>
      <trkpt lat="46.15598" lon="2.44847">
        <ele>456</ele>
        <time>2015-04-16T14:19:11Z</time>
      </trkpt>
      <trkpt lat="46.15601" lon="2.44847">
        <ele>456</ele>
        <time>2015-04-16T14:19:14Z</time>
      </trkpt>
      <trkpt lat="46.15604" lon="2.44847">
        <ele>456</ele>
        <time>2015-04-16T14:19:16Z</time>
      </trkpt>
      <trkpt lat="46.15607" lon="2.44851">
        <ele>455</ele>
        <time>2015-04-16T14:19:19Z</time>
      </trkpt>
      <trkpt lat="46.1561" lon="2.44851">
        <ele>455</ele>
        <time>2015-04-16T14:19:21Z</time>
      </trkpt>
      <trkpt lat="46.15613" lon="2.44852">
        <ele>455</ele>
        <time>2015-04-16T14:19:23Z</time>
      </trkpt>
      <trkpt lat="46.15616" lon="2.44854">
        <ele>455</ele>
        <time>2015-04-16T14:19:25Z</time>
      </trkpt>
      <trkpt lat="46.15619" lon="2.44856">
        <ele>455</ele>
        <time>2015-04-16T14:19:27Z</time>
      </trkpt>
      <trkpt lat="46.15621" lon="2.44859">
        <ele>455</ele>
        <time>2015-04-16T14:19:29Z</time>
      </trkpt>
      <trkpt lat="46.15624" lon="2.44863">
        <ele>455</ele>
        <time>2015-04-16T14:19:32Z</time>
      </trkpt>
      <trkpt lat="46.15627" lon="2.44865">
        <ele>455</ele>
        <time>2015-04-16T14:19:34Z</time>
      </trkpt>
      <trkpt lat="46.1563" lon="2.44867">
        <ele>454</ele>
        <time>2015-04-16T14:19:36Z</time>
      </trkpt>
      <trkpt lat="46.15634" lon="2.44869">
        <ele>454</ele>
        <time>2015-04-16T14:19:38Z</time>
      </trkpt>
      <trkpt lat="46.15638" lon="2.44871">
        <ele>453</ele>
        <time>2015-04-16T14:19:40Z</time>
      </trkpt>
      <trkpt lat="46.15641" lon="2.44872">
        <ele>453</ele>
        <time>2015-04-16T14:19:42Z</time>
      </trkpt>
      <trkpt lat="46.15646" lon="2.44873">
        <ele>453</ele>
        <time>2015-04-16T14:19:44Z</time>
      </trkpt>
      <trkpt lat="46.15648" lon="2.44875">
        <ele>453</ele>
        <time>2015-04-16T14:19:46Z</time>
      </trkpt>
      <trkpt lat="46.15651" lon="2.44876">
        <ele>453</ele>
        <time>2015-04-16T14:19:48Z</time>
      </trkpt>
      <trkpt lat="46.15654" lon="2.44877">
        <ele>453</ele>
        <time>2015-04-16T14:19:50Z</time>
      </trkpt>
      <trkpt lat="46.15657" lon="2.44879">
        <ele>453</ele>
        <time>2015-04-16T14:19:52Z</time>
      </trkpt>
      <trkpt lat="46.1566" lon="2.44882">
        <ele>453</ele>
        <time>2015-04-16T14:19:55Z</time>
      </trkpt>
      <trkpt lat="46.15662" lon="2.44884">
        <ele>453</ele>
        <time>2015-04-16T14:19:57Z</time>
      </trkpt>
      <trkpt lat="46.15663" lon="2.44887">
        <ele>452</ele>
        <time>2015-04-16T14:19:59Z</time>
      </trkpt>
      <trkpt lat="46.15666" lon="2.44891">
        <ele>451</ele>
        <time>2015-04-16T14:20:02Z</time>
      </trkpt>
      <trkpt lat="46.15667" lon="2.44894">
        <ele>451</ele>
        <time>2015-04-16T14:20:04Z</time>
      </trkpt>
      <trkpt lat="46.1567" lon="2.44895">
        <ele>451</ele>
        <time>2015-04-16T14:20:06Z</time>
      </trkpt>
      <trkpt lat="46.15672" lon="2.44897">
        <ele>451</ele>
        <time>2015-04-16T14:20:08Z</time>
      </trkpt>
      <trkpt lat="46.15675" lon="2.44898">
        <ele>451</ele>
        <time>2015-04-16T14:20:10Z</time>
      </trkpt>
      <trkpt lat="46.15677" lon="2.44899">
        <ele>451</ele>
        <time>2015-04-16T14:20:12Z</time>
      </trkpt>
      <trkpt lat="46.1568" lon="2.44899">
        <ele>451</ele>
        <time>2015-04-16T14:20:14Z</time>
      </trkpt>
      <trkpt lat="46.15683" lon="2.44898">
        <ele>451</ele>
        <time>2015-04-16T14:20:17Z</time>
      </trkpt>
      <trkpt lat="46.15686" lon="2.44896">
        <ele>451</ele>
        <time>2015-04-16T14:20:20Z</time>
      </trkpt>
      <trkpt lat="46.15688" lon="2.44895">
        <ele>451</ele>
        <time>2015-04-16T14:20:22Z</time>
      </trkpt>
      <trkpt lat="46.15689" lon="2.44895">
        <ele>451</ele>
        <time>2015-04-16T14:20:23Z</time>
      </trkpt>
    </trkseg>
  </trk>
</gpx>